<?xml version='1.0' encoding='UTF-8'?><gpx version="1.1" creator="JPX - https://github.com/jenetics/jpx" xmlns="http://www.topografix.com/GPX/1/1"><trk><trkseg><trkpt lat="42.1499659" lon="14.5851506"><ele>205.0</ele><time>2026-05-02T06:20:40.668Z</time></trkpt><trkpt lat="42.1498681" lon="14.5850838"><ele>205.0</ele><time>2026-05-02T06:20:41.668Z</time></trkpt><trkpt lat="42.1499867" lon="14.5852322"><ele>205.0</ele><time>2026-05-02T06:20:43.669Z</time></trkpt><trkpt lat="42.1500368" lon="14.5853225"><ele>205.0</ele><time>2026-05-02T06:20:45.668Z</time></trkpt><trkpt lat="42.1500975" lon="14.5853782"><ele>205.0</ele><time>2026-05-02T06:20:49.981Z</time></trkpt><trkpt lat="42.1500979" lon="14.5855305"><ele>204.99999999999997</ele><time>2026-05-02T06:20:50.981Z</time></trkpt><trkpt lat="42.1501082" lon="14.585429"><ele>205.0</ele><time>2026-05-02T06:20:54.481Z</time></trkpt><trkpt lat="42.1499826" lon="14.5852781"><ele>205.0</ele><time>2026-05-02T06:21:01.481Z</time></trkpt><trkpt lat="42.1500455" lon="14.5852407"><ele>205.0</ele><time>2026-05-02T06:21:59.903Z</time></trkpt><trkpt lat="42.1500939" lon="14.5853025"><ele>204.99999999999997</ele><time>2026-05-02T06:22:55.905Z</time></trkpt><trkpt lat="42.1501597" lon="14.5853044"><ele>205.0</ele><time>2026-05-02T06:23:01.905Z</time></trkpt><trkpt lat="42.1502237" lon="14.5852786"><ele>204.99999999999997</ele><time>2026-05-02T06:23:05.904Z</time></trkpt><trkpt lat="42.1502866" lon="14.585215"><ele>205.0</ele><time>2026-05-02T06:23:08.905Z</time></trkpt><trkpt lat="42.1503542" lon="14.5851558"><ele>205.0</ele><time>2026-05-02T06:23:11.905Z</time></trkpt><trkpt lat="42.1504355" lon="14.5851133"><ele>205.0</ele><time>2026-05-02T06:23:14.904Z</time></trkpt><trkpt lat="42.1505082" lon="14.5850449"><ele>204.99999999999997</ele><time>2026-05-02T06:23:17.904Z</time></trkpt><trkpt lat="42.150565" lon="14.5849783"><ele>205.0</ele><time>2026-05-02T06:23:20.904Z</time></trkpt><trkpt lat="42.1506133" lon="14.584875"><ele>204.99999999999997</ele><time>2026-05-02T06:23:23.905Z</time></trkpt><trkpt lat="42.1506383" lon="14.58478"><ele>205.0</ele><time>2026-05-02T06:23:25.904Z</time></trkpt><trkpt lat="42.1506467" lon="14.584695"><ele>205.0</ele><time>2026-05-02T06:23:27.904Z</time></trkpt><trkpt lat="42.15066" lon="14.584605"><ele>205.0</ele><time>2026-05-02T06:23:30.905Z</time></trkpt><trkpt lat="42.1507117" lon="14.5844833"><ele>204.99999999999997</ele><time>2026-05-02T06:23:33.905Z</time></trkpt><trkpt lat="42.15075" lon="14.58438"><ele>205.0</ele><time>2026-05-02T06:23:35.904Z</time></trkpt><trkpt lat="42.15075" lon="14.5842767"><ele>205.42857142857144</ele><time>2026-05-02T06:23:38.904Z</time></trkpt><trkpt lat="42.1507217" lon="14.5841833"><ele>205.85714285714283</ele><time>2026-05-02T06:23:41.904Z</time></trkpt><trkpt lat="42.150705" lon="14.5840767"><ele>206.28571428571428</ele><time>2026-05-02T06:23:44.905Z</time></trkpt><trkpt lat="42.1506733" lon="14.583975"><ele>206.71428571428572</ele><time>2026-05-02T06:23:47.905Z</time></trkpt><trkpt lat="42.1506317" lon="14.5839067"><ele>207.14285714285717</ele><time>2026-05-02T06:23:50.905Z</time></trkpt><trkpt lat="42.1505967" lon="14.5838333"><ele>207.57142857142856</ele><time>2026-05-02T06:23:52.905Z</time></trkpt><trkpt lat="42.1505433" lon="14.5837667"><ele>208.0</ele><time>2026-05-02T06:23:54.904Z</time></trkpt><trkpt lat="42.1504783" lon="14.5836883"><ele>208.16666666666666</ele><time>2026-05-02T06:23:56.905Z</time></trkpt><trkpt lat="42.1504167" lon="14.5836167"><ele>208.33333333333331</ele><time>2026-05-02T06:23:58.905Z</time></trkpt><trkpt lat="42.1503417" lon="14.5835367"><ele>208.5</ele><time>2026-05-02T06:24:01.904Z</time></trkpt><trkpt lat="42.1502783" lon="14.5834933"><ele>208.66666666666669</ele><time>2026-05-02T06:24:03.905Z</time></trkpt><trkpt lat="42.1502167" lon="14.583465"><ele>208.83333333333334</ele><time>2026-05-02T06:24:05.905Z</time></trkpt><trkpt lat="42.15015" lon="14.583415"><ele>209.0</ele><time>2026-05-02T06:24:07.905Z</time></trkpt><trkpt lat="42.150105" lon="14.5833417"><ele>209.00000000000003</ele><time>2026-05-02T06:24:09.905Z</time></trkpt><trkpt lat="42.1500783" lon="14.5832617"><ele>209.0</ele><time>2026-05-02T06:24:11.904Z</time></trkpt><trkpt lat="42.15006" lon="14.58316"><ele>209.0</ele><time>2026-05-02T06:24:14.904Z</time></trkpt><trkpt lat="42.150055" lon="14.583045"><ele>209.0</ele><time>2026-05-02T06:24:17.905Z</time></trkpt><trkpt lat="42.1500617" lon="14.5829333"><ele>209.00000000000003</ele><time>2026-05-02T06:24:19.905Z</time></trkpt><trkpt lat="42.1500717" lon="14.58281"><ele>209.0</ele><time>2026-05-02T06:24:21.905Z</time></trkpt><trkpt lat="42.1500883" lon="14.58269"><ele>209.16666666666669</ele><time>2026-05-02T06:24:23.904Z</time></trkpt><trkpt lat="42.1500917" lon="14.582565"><ele>209.33333333333334</ele><time>2026-05-02T06:24:25.905Z</time></trkpt><trkpt lat="42.150105" lon="14.58245"><ele>209.5</ele><time>2026-05-02T06:24:27.904Z</time></trkpt><trkpt lat="42.1501217" lon="14.5823417"><ele>209.66666666666669</ele><time>2026-05-02T06:24:29.905Z</time></trkpt><trkpt lat="42.1501217" lon="14.5822367"><ele>209.83333333333334</ele><time>2026-05-02T06:24:31.904Z</time></trkpt><trkpt lat="42.150115" lon="14.5821467"><ele>210.0</ele><time>2026-05-02T06:24:33.905Z</time></trkpt><trkpt lat="42.1501133" lon="14.5820367"><ele>210.0</ele><time>2026-05-02T06:24:36.904Z</time></trkpt><trkpt lat="42.1501133" lon="14.58195"><ele>210.0</ele><time>2026-05-02T06:24:38.904Z</time></trkpt><trkpt lat="42.150125" lon="14.581865"><ele>210.0</ele><time>2026-05-02T06:24:40.904Z</time></trkpt><trkpt lat="42.1501283" lon="14.581745"><ele>210.0</ele><time>2026-05-02T06:24:43.905Z</time></trkpt><trkpt lat="42.1501283" lon="14.5816483"><ele>210.0</ele><time>2026-05-02T06:24:45.905Z</time></trkpt><trkpt lat="42.15009" lon="14.58151"><ele>210.0</ele><time>2026-05-02T06:24:48.904Z</time></trkpt><trkpt lat="42.1500667" lon="14.5814017"><ele>210.0</ele><time>2026-05-02T06:24:50.904Z</time></trkpt><trkpt lat="42.1500633" lon="14.5813033"><ele>210.0</ele><time>2026-05-02T06:24:52.905Z</time></trkpt><trkpt lat="42.1500767" lon="14.5812167"><ele>210.0</ele><time>2026-05-02T06:24:54.904Z</time></trkpt><trkpt lat="42.1500883" lon="14.5811"><ele>210.0</ele><time>2026-05-02T06:24:57.905Z</time></trkpt><trkpt lat="42.150095" lon="14.5809967"><ele>210.0</ele><time>2026-05-02T06:24:59.905Z</time></trkpt><trkpt lat="42.1501067" lon="14.5808867"><ele>210.0</ele><time>2026-05-02T06:25:01.904Z</time></trkpt><trkpt lat="42.1501133" lon="14.5807883"><ele>210.5</ele><time>2026-05-02T06:25:03.905Z</time></trkpt><trkpt lat="42.1501183" lon="14.5806967"><ele>211.0</ele><time>2026-05-02T06:25:05.904Z</time></trkpt><trkpt lat="42.15012" lon="14.580575"><ele>211.5</ele><time>2026-05-02T06:25:08.905Z</time></trkpt><trkpt lat="42.1501267" lon="14.5804867"><ele>212.0</ele><time>2026-05-02T06:25:10.905Z</time></trkpt><trkpt lat="42.1501433" lon="14.5803783"><ele>212.5</ele><time>2026-05-02T06:25:12.905Z</time></trkpt><trkpt lat="42.1501533" lon="14.5802717"><ele>213.0</ele><time>2026-05-02T06:25:14.905Z</time></trkpt><trkpt lat="42.1501367" lon="14.580185"><ele>213.14285714285714</ele><time>2026-05-02T06:25:16.905Z</time></trkpt><trkpt lat="42.1501317" lon="14.58008"><ele>213.28571428571428</ele><time>2026-05-02T06:25:19.905Z</time></trkpt><trkpt lat="42.1501267" lon="14.579985"><ele>213.42857142857144</ele><time>2026-05-02T06:25:22.904Z</time></trkpt><trkpt lat="42.1501233" lon="14.57988"><ele>213.57142857142856</ele><time>2026-05-02T06:25:25.905Z</time></trkpt><trkpt lat="42.15014" lon="14.579785"><ele>213.71428571428572</ele><time>2026-05-02T06:25:27.905Z</time></trkpt><trkpt lat="42.150155" lon="14.5796983"><ele>213.85714285714286</ele><time>2026-05-02T06:25:29.905Z</time></trkpt><trkpt lat="42.1501733" lon="14.579615"><ele>214.0</ele><time>2026-05-02T06:25:31.905Z</time></trkpt><trkpt lat="42.1501917" lon="14.579515"><ele>214.33333333333331</ele><time>2026-05-02T06:25:33.905Z</time></trkpt><trkpt lat="42.1502117" lon="14.579405"><ele>214.66666666666666</ele><time>2026-05-02T06:25:36.904Z</time></trkpt><trkpt lat="42.15021" lon="14.579305"><ele>215.0</ele><time>2026-05-02T06:25:39.904Z</time></trkpt><trkpt lat="42.1501933" lon="14.57921"><ele>215.33333333333331</ele><time>2026-05-02T06:25:42.904Z</time></trkpt><trkpt lat="42.1501933" lon="14.5791"><ele>215.66666666666666</ele><time>2026-05-02T06:25:46.905Z</time></trkpt><trkpt lat="42.150195" lon="14.5790067"><ele>216.0</ele><time>2026-05-02T06:25:49.905Z</time></trkpt><trkpt lat="42.1502083" lon="14.578875"><ele>216.0</ele><time>2026-05-02T06:25:52.905Z</time></trkpt><trkpt lat="42.1502183" lon="14.57876"><ele>216.0</ele><time>2026-05-02T06:25:55.905Z</time></trkpt><trkpt lat="42.1502283" lon="14.578665"><ele>216.0</ele><time>2026-05-02T06:25:57.905Z</time></trkpt><trkpt lat="42.1502167" lon="14.5785633"><ele>216.0</ele><time>2026-05-02T06:25:59.905Z</time></trkpt><trkpt lat="42.1501917" lon="14.578475"><ele>216.0</ele><time>2026-05-02T06:26:02.905Z</time></trkpt><trkpt lat="42.15017" lon="14.5783733"><ele>216.0</ele><time>2026-05-02T06:26:05.905Z</time></trkpt><trkpt lat="42.1501583" lon="14.5782633"><ele>216.5</ele><time>2026-05-02T06:26:08.904Z</time></trkpt><trkpt lat="42.1501583" lon="14.57816"><ele>217.0</ele><time>2026-05-02T06:26:10.905Z</time></trkpt><trkpt lat="42.1501333" lon="14.57807"><ele>217.5</ele><time>2026-05-02T06:26:14.905Z</time></trkpt><trkpt lat="42.150115" lon="14.577975"><ele>218.0</ele><time>2026-05-02T06:26:18.904Z</time></trkpt><trkpt lat="42.15006" lon="14.577905"><ele>218.5</ele><time>2026-05-02T06:26:21.905Z</time></trkpt><trkpt lat="42.150035" lon="14.5778017"><ele>219.0</ele><time>2026-05-02T06:26:25.905Z</time></trkpt><trkpt lat="42.15" lon="14.5777133"><ele>219.71428571428572</ele><time>2026-05-02T06:26:29.905Z</time></trkpt><trkpt lat="42.1499883" lon="14.5776283"><ele>220.42857142857142</ele><time>2026-05-02T06:26:32.905Z</time></trkpt><trkpt lat="42.14997" lon="14.5775417"><ele>221.14285714285714</ele><time>2026-05-02T06:26:35.904Z</time></trkpt><trkpt lat="42.1499333" lon="14.5774633"><ele>221.85714285714286</ele><time>2026-05-02T06:26:39.905Z</time></trkpt><trkpt lat="42.1499067" lon="14.57738"><ele>222.57142857142856</ele><time>2026-05-02T06:26:43.905Z</time></trkpt><trkpt lat="42.1498833" lon="14.5772667"><ele>223.28571428571428</ele><time>2026-05-02T06:26:47.905Z</time></trkpt><trkpt lat="42.1498633" lon="14.5771783"><ele>224.0</ele><time>2026-05-02T06:26:50.905Z</time></trkpt><trkpt lat="42.1498367" lon="14.5770983"><ele>224.0</ele><time>2026-05-02T06:26:53.905Z</time></trkpt><trkpt lat="42.1498067" lon="14.576995"><ele>224.0</ele><time>2026-05-02T06:26:57.905Z</time></trkpt><trkpt lat="42.149775" lon="14.57691"><ele>224.0</ele><time>2026-05-02T06:27:00.905Z</time></trkpt><trkpt lat="42.1497517" lon="14.5768267"><ele>224.0</ele><time>2026-05-02T06:27:03.905Z</time></trkpt><trkpt lat="42.1497267" lon="14.5767283"><ele>224.0</ele><time>2026-05-02T06:27:07.905Z</time></trkpt><trkpt lat="42.1496933" lon="14.576645"><ele>224.0</ele><time>2026-05-02T06:27:12.905Z</time></trkpt><trkpt lat="42.1496717" lon="14.576555"><ele>224.0</ele><time>2026-05-02T06:27:18.904Z</time></trkpt><trkpt lat="42.1496783" lon="14.5764667"><ele>224.0</ele><time>2026-05-02T06:27:25.904Z</time></trkpt><trkpt lat="42.149655" lon="14.5763833"><ele>224.0</ele><time>2026-05-02T06:27:30.905Z</time></trkpt><trkpt lat="42.1496383" lon="14.57629"><ele>224.0</ele><time>2026-05-02T06:27:35.904Z</time></trkpt><trkpt lat="42.149605" lon="14.5762167"><ele>224.0</ele><time>2026-05-02T06:27:39.905Z</time></trkpt><trkpt lat="42.14956" lon="14.57614"><ele>224.0</ele><time>2026-05-02T06:27:43.905Z</time></trkpt><trkpt lat="42.149535" lon="14.5760617"><ele>224.0</ele><time>2026-05-02T06:27:47.905Z</time></trkpt><trkpt lat="42.1495183" lon="14.5759733"><ele>224.0</ele><time>2026-05-02T06:27:51.905Z</time></trkpt><trkpt lat="42.1495167" lon="14.5758683"><ele>223.42857142857142</ele><time>2026-05-02T06:27:56.905Z</time></trkpt><trkpt lat="42.14953" lon="14.5757833"><ele>222.85714285714286</ele><time>2026-05-02T06:28:01.905Z</time></trkpt><trkpt lat="42.1496" lon="14.5757667"><ele>222.28571428571428</ele><time>2026-05-02T06:28:08.904Z</time></trkpt><trkpt lat="42.1496667" lon="14.5758067"><ele>221.71428571428572</ele><time>2026-05-02T06:28:12.904Z</time></trkpt><trkpt lat="42.149725" lon="14.57584"><ele>221.14285714285714</ele><time>2026-05-02T06:28:15.905Z</time></trkpt><trkpt lat="42.1498" lon="14.5758767"><ele>220.57142857142856</ele><time>2026-05-02T06:28:19.904Z</time></trkpt><trkpt lat="42.149875" lon="14.5759167"><ele>220.0</ele><time>2026-05-02T06:28:22.905Z</time></trkpt><trkpt lat="42.1499483" lon="14.57596"><ele>221.16666666666666</ele><time>2026-05-02T06:28:25.905Z</time></trkpt><trkpt lat="42.1500217" lon="14.576"><ele>222.33333333333331</ele><time>2026-05-02T06:28:28.904Z</time></trkpt><trkpt lat="42.1500883" lon="14.576045"><ele>223.5</ele><time>2026-05-02T06:28:31.905Z</time></trkpt><trkpt lat="42.150165" lon="14.576085"><ele>224.66666666666669</ele><time>2026-05-02T06:28:34.905Z</time></trkpt><trkpt lat="42.1502467" lon="14.5761367"><ele>225.83333333333334</ele><time>2026-05-02T06:28:37.904Z</time></trkpt><trkpt lat="42.1503033" lon="14.57618"><ele>227.0</ele><time>2026-05-02T06:28:39.904Z</time></trkpt><trkpt lat="42.15036" lon="14.5762183"><ele>227.00000000000003</ele><time>2026-05-02T06:28:41.905Z</time></trkpt><trkpt lat="42.150425" lon="14.5762617"><ele>227.0</ele><time>2026-05-02T06:28:43.905Z</time></trkpt><trkpt lat="42.150495" lon="14.57631"><ele>227.0</ele><time>2026-05-02T06:28:45.905Z</time></trkpt><trkpt lat="42.1505667" lon="14.576365"><ele>227.0</ele><time>2026-05-02T06:28:47.905Z</time></trkpt><trkpt lat="42.150635" lon="14.5764033"><ele>227.00000000000003</ele><time>2026-05-02T06:28:49.905Z</time></trkpt><trkpt lat="42.1507067" lon="14.5764417"><ele>227.0</ele><time>2026-05-02T06:28:51.904Z</time></trkpt><trkpt lat="42.150785" lon="14.57648"><ele>226.2857142857143</ele><time>2026-05-02T06:28:53.904Z</time></trkpt><trkpt lat="42.1508533" lon="14.5765167"><ele>225.5714285714286</ele><time>2026-05-02T06:28:55.905Z</time></trkpt><trkpt lat="42.150915" lon="14.5765467"><ele>224.85714285714286</ele><time>2026-05-02T06:28:57.905Z</time></trkpt><trkpt lat="42.1509767" lon="14.5765767"><ele>224.14285714285717</ele><time>2026-05-02T06:28:59.905Z</time></trkpt><trkpt lat="42.15105" lon="14.576625"><ele>223.42857142857144</ele><time>2026-05-02T06:29:03.904Z</time></trkpt><trkpt lat="42.1511117" lon="14.57665"><ele>222.71428571428572</ele><time>2026-05-02T06:29:06.905Z</time></trkpt><trkpt lat="42.1511833" lon="14.5766767"><ele>222.0</ele><time>2026-05-02T06:29:09.904Z</time></trkpt><trkpt lat="42.151265" lon="14.5767333"><ele>222.0</ele><time>2026-05-02T06:29:12.904Z</time></trkpt><trkpt lat="42.151325" lon="14.57677"><ele>222.0</ele><time>2026-05-02T06:29:14.904Z</time></trkpt><trkpt lat="42.1513883" lon="14.5768067"><ele>222.0</ele><time>2026-05-02T06:29:16.904Z</time></trkpt><trkpt lat="42.1514617" lon="14.57684"><ele>222.0</ele><time>2026-05-02T06:29:18.904Z</time></trkpt><trkpt lat="42.1515367" lon="14.5768667"><ele>222.0</ele><time>2026-05-02T06:29:20.904Z</time></trkpt><trkpt lat="42.1516167" lon="14.5768917"><ele>222.0</ele><time>2026-05-02T06:29:22.905Z</time></trkpt><trkpt lat="42.1516967" lon="14.5769117"><ele>221.66666666666666</ele><time>2026-05-02T06:29:24.904Z</time></trkpt><trkpt lat="42.1517767" lon="14.5769367"><ele>221.33333333333331</ele><time>2026-05-02T06:29:26.905Z</time></trkpt><trkpt lat="42.1518517" lon="14.5769683"><ele>221.0</ele><time>2026-05-02T06:29:28.904Z</time></trkpt><trkpt lat="42.1519117" lon="14.57702"><ele>220.66666666666666</ele><time>2026-05-02T06:29:30.905Z</time></trkpt><trkpt lat="42.1519683" lon="14.577075"><ele>220.33333333333331</ele><time>2026-05-02T06:29:32.905Z</time></trkpt><trkpt lat="42.1520367" lon="14.577145"><ele>220.0</ele><time>2026-05-02T06:29:35.905Z</time></trkpt><trkpt lat="42.1521017" lon="14.57722"><ele>219.99999999999997</ele><time>2026-05-02T06:29:38.905Z</time></trkpt><trkpt lat="42.1521667" lon="14.5772967"><ele>220.0</ele><time>2026-05-02T06:29:41.905Z</time></trkpt><trkpt lat="42.1522167" lon="14.5773667"><ele>220.0</ele><time>2026-05-02T06:29:44.905Z</time></trkpt><trkpt lat="42.1522617" lon="14.5774433"><ele>220.0</ele><time>2026-05-02T06:29:48.905Z</time></trkpt><trkpt lat="42.15231" lon="14.5775067"><ele>220.0</ele><time>2026-05-02T06:29:54.905Z</time></trkpt><trkpt lat="42.15238" lon="14.5774783"><ele>219.99999999999997</ele><time>2026-05-02T06:29:58.904Z</time></trkpt><trkpt lat="42.15245" lon="14.57744"><ele>220.0</ele><time>2026-05-02T06:30:01.905Z</time></trkpt><trkpt lat="42.1525233" lon="14.5773917"><ele>219.99999999999997</ele><time>2026-05-02T06:30:04.905Z</time></trkpt><trkpt lat="42.152605" lon="14.5773317"><ele>220.0</ele><time>2026-05-02T06:30:07.905Z</time></trkpt><trkpt lat="42.15266" lon="14.5772817"><ele>220.0</ele><time>2026-05-02T06:30:09.905Z</time></trkpt><trkpt lat="42.152715" lon="14.577235"><ele>220.0</ele><time>2026-05-02T06:30:11.905Z</time></trkpt><trkpt lat="42.1527933" lon="14.5771933"><ele>220.0</ele><time>2026-05-02T06:30:14.904Z</time></trkpt><trkpt lat="42.1528633" lon="14.5771917"><ele>219.99999999999997</ele><time>2026-05-02T06:30:17.904Z</time></trkpt><trkpt lat="42.15289" lon="14.577275"><ele>220.0</ele><time>2026-05-02T06:30:20.905Z</time></trkpt><trkpt lat="42.1529067" lon="14.5773583"><ele>219.99999999999997</ele><time>2026-05-02T06:30:22.905Z</time></trkpt><trkpt lat="42.1529283" lon="14.57745"><ele>220.0</ele><time>2026-05-02T06:30:24.905Z</time></trkpt><trkpt lat="42.1529567" lon="14.5775483"><ele>220.0</ele><time>2026-05-02T06:30:26.905Z</time></trkpt><trkpt lat="42.1529883" lon="14.5776467"><ele>220.0</ele><time>2026-05-02T06:30:28.905Z</time></trkpt><trkpt lat="42.1530217" lon="14.5777417"><ele>219.99999999999997</ele><time>2026-05-02T06:30:30.905Z</time></trkpt><trkpt lat="42.1530517" lon="14.577845"><ele>220.0</ele><time>2026-05-02T06:30:32.905Z</time></trkpt><trkpt lat="42.153085" lon="14.5779533"><ele>219.49999999999997</ele><time>2026-05-02T06:30:34.905Z</time></trkpt><trkpt lat="42.1531233" lon="14.57807"><ele>219.0</ele><time>2026-05-02T06:30:36.905Z</time></trkpt><trkpt lat="42.15316" lon="14.5781817"><ele>218.5</ele><time>2026-05-02T06:30:38.905Z</time></trkpt><trkpt lat="42.1531933" lon="14.578285"><ele>218.0</ele><time>2026-05-02T06:30:40.904Z</time></trkpt><trkpt lat="42.15324" lon="14.5783917"><ele>217.49999999999997</ele><time>2026-05-02T06:30:42.904Z</time></trkpt><trkpt lat="42.153285" lon="14.578485"><ele>217.0</ele><time>2026-05-02T06:30:44.905Z</time></trkpt><trkpt lat="42.15333" lon="14.57858"><ele>216.99999999999997</ele><time>2026-05-02T06:30:46.905Z</time></trkpt><trkpt lat="42.15338" lon="14.5786783"><ele>217.0</ele><time>2026-05-02T06:30:48.905Z</time></trkpt><trkpt lat="42.1534333" lon="14.578765"><ele>217.0</ele><time>2026-05-02T06:30:50.904Z</time></trkpt><trkpt lat="42.15349" lon="14.5788483"><ele>217.0</ele><time>2026-05-02T06:30:52.904Z</time></trkpt><trkpt lat="42.153545" lon="14.5789467"><ele>216.99999999999997</ele><time>2026-05-02T06:30:54.905Z</time></trkpt><trkpt lat="42.1535983" lon="14.57905"><ele>217.0</ele><time>2026-05-02T06:30:56.905Z</time></trkpt><trkpt lat="42.1536617" lon="14.5791533"><ele>216.83333333333331</ele><time>2026-05-02T06:30:58.905Z</time></trkpt><trkpt lat="42.1537167" lon="14.579255"><ele>216.66666666666666</ele><time>2026-05-02T06:31:00.904Z</time></trkpt><trkpt lat="42.1537683" lon="14.5793517"><ele>216.5</ele><time>2026-05-02T06:31:02.905Z</time></trkpt><trkpt lat="42.1538233" lon="14.5794383"><ele>216.33333333333331</ele><time>2026-05-02T06:31:04.904Z</time></trkpt><trkpt lat="42.1538733" lon="14.57953"><ele>216.16666666666666</ele><time>2026-05-02T06:31:06.904Z</time></trkpt><trkpt lat="42.1539183" lon="14.5796283"><ele>216.0</ele><time>2026-05-02T06:31:08.905Z</time></trkpt><trkpt lat="42.1539667" lon="14.57973"><ele>215.33333333333334</ele><time>2026-05-02T06:31:10.905Z</time></trkpt><trkpt lat="42.1540183" lon="14.57982"><ele>214.66666666666669</ele><time>2026-05-02T06:31:12.904Z</time></trkpt><trkpt lat="42.1540683" lon="14.5799217"><ele>214.0</ele><time>2026-05-02T06:31:14.905Z</time></trkpt><trkpt lat="42.1541167" lon="14.58004"><ele>213.33333333333334</ele><time>2026-05-02T06:31:16.905Z</time></trkpt><trkpt lat="42.1541633" lon="14.5801383"><ele>212.66666666666669</ele><time>2026-05-02T06:31:18.905Z</time></trkpt><trkpt lat="42.1542117" lon="14.5802217"><ele>212.0</ele><time>2026-05-02T06:31:20.904Z</time></trkpt><trkpt lat="42.1542533" lon="14.5803083"><ele>210.66666666666669</ele><time>2026-05-02T06:31:22.905Z</time></trkpt><trkpt lat="42.1542967" lon="14.58039"><ele>209.33333333333334</ele><time>2026-05-02T06:31:24.905Z</time></trkpt><trkpt lat="42.15435" lon="14.5804867"><ele>208.0</ele><time>2026-05-02T06:31:27.904Z</time></trkpt><trkpt lat="42.1544067" lon="14.580575"><ele>206.66666666666669</ele><time>2026-05-02T06:31:30.905Z</time></trkpt><trkpt lat="42.154485" lon="14.58056"><ele>205.33333333333334</ele><time>2026-05-02T06:31:33.905Z</time></trkpt><trkpt lat="42.154575" lon="14.5805117"><ele>204.0</ele><time>2026-05-02T06:31:36.905Z</time></trkpt><trkpt lat="42.1546383" lon="14.5804717"><ele>204.0</ele><time>2026-05-02T06:31:38.905Z</time></trkpt><trkpt lat="42.1547033" lon="14.5804267"><ele>204.0</ele><time>2026-05-02T06:31:40.904Z</time></trkpt><trkpt lat="42.1547667" lon="14.5803817"><ele>204.0</ele><time>2026-05-02T06:31:42.905Z</time></trkpt><trkpt lat="42.15483" lon="14.580345"><ele>204.0</ele><time>2026-05-02T06:31:44.905Z</time></trkpt><trkpt lat="42.1549117" lon="14.5802933"><ele>204.0</ele><time>2026-05-02T06:31:47.905Z</time></trkpt><trkpt lat="42.15499" lon="14.580245"><ele>204.0</ele><time>2026-05-02T06:31:50.905Z</time></trkpt><trkpt lat="42.15505" lon="14.5802117"><ele>204.14285714285714</ele><time>2026-05-02T06:31:52.905Z</time></trkpt><trkpt lat="42.1551133" lon="14.5801767"><ele>204.28571428571428</ele><time>2026-05-02T06:31:54.905Z</time></trkpt><trkpt lat="42.1551817" lon="14.580125"><ele>204.42857142857144</ele><time>2026-05-02T06:31:56.905Z</time></trkpt><trkpt lat="42.15524" lon="14.5800683"><ele>204.57142857142856</ele><time>2026-05-02T06:31:58.904Z</time></trkpt><trkpt lat="42.1553033" lon="14.5800167"><ele>204.7142857142857</ele><time>2026-05-02T06:32:00.905Z</time></trkpt><trkpt lat="42.155355" lon="14.579955"><ele>204.85714285714286</ele><time>2026-05-02T06:32:02.905Z</time></trkpt><trkpt lat="42.1554067" lon="14.5798883"><ele>205.0</ele><time>2026-05-02T06:32:04.905Z</time></trkpt><trkpt lat="42.155455" lon="14.579825"><ele>205.0</ele><time>2026-05-02T06:32:06.905Z</time></trkpt><trkpt lat="42.1554933" lon="14.5797533"><ele>205.0</ele><time>2026-05-02T06:32:08.905Z</time></trkpt><trkpt lat="42.15554" lon="14.5796867"><ele>205.0</ele><time>2026-05-02T06:32:10.905Z</time></trkpt><trkpt lat="42.1555783" lon="14.5796117"><ele>205.0</ele><time>2026-05-02T06:32:12.904Z</time></trkpt><trkpt lat="42.1556167" lon="14.5795367"><ele>205.0</ele><time>2026-05-02T06:32:14.905Z</time></trkpt><trkpt lat="42.1556717" lon="14.5794317"><ele>205.0</ele><time>2026-05-02T06:32:17.905Z</time></trkpt><trkpt lat="42.1557117" lon="14.5793583"><ele>205.0</ele><time>2026-05-02T06:32:19.905Z</time></trkpt><trkpt lat="42.1557517" lon="14.57928"><ele>205.49999999999997</ele><time>2026-05-02T06:32:21.905Z</time></trkpt><trkpt lat="42.1557917" lon="14.5792"><ele>206.0</ele><time>2026-05-02T06:32:23.904Z</time></trkpt><trkpt lat="42.1558333" lon="14.5791217"><ele>206.5</ele><time>2026-05-02T06:32:25.905Z</time></trkpt><trkpt lat="42.15587" lon="14.5790517"><ele>207.0</ele><time>2026-05-02T06:32:27.905Z</time></trkpt><trkpt lat="42.1559167" lon="14.5789433"><ele>207.49999999999997</ele><time>2026-05-02T06:32:30.905Z</time></trkpt><trkpt lat="42.1559717" lon="14.5788433"><ele>208.0</ele><time>2026-05-02T06:32:33.904Z</time></trkpt><trkpt lat="42.1560067" lon="14.57877"><ele>208.66666666666666</ele><time>2026-05-02T06:32:35.904Z</time></trkpt><trkpt lat="42.1560633" lon="14.5786767"><ele>209.33333333333331</ele><time>2026-05-02T06:32:38.904Z</time></trkpt><trkpt lat="42.15612" lon="14.578585"><ele>210.0</ele><time>2026-05-02T06:32:41.905Z</time></trkpt><trkpt lat="42.1561833" lon="14.5785"><ele>210.66666666666669</ele><time>2026-05-02T06:32:44.905Z</time></trkpt><trkpt lat="42.1562317" lon="14.5784383"><ele>211.33333333333334</ele><time>2026-05-02T06:32:46.905Z</time></trkpt><trkpt lat="42.156305" lon="14.5783583"><ele>212.0</ele><time>2026-05-02T06:32:49.905Z</time></trkpt><trkpt lat="42.15637" lon="14.5782883"><ele>212.00000000000003</ele><time>2026-05-02T06:32:52.904Z</time></trkpt><trkpt lat="42.1564383" lon="14.57822"><ele>212.0</ele><time>2026-05-02T06:32:55.904Z</time></trkpt><trkpt lat="42.15653" lon="14.578165"><ele>212.0</ele><time>2026-05-02T06:32:58.904Z</time></trkpt><trkpt lat="42.1565983" lon="14.5781817"><ele>212.0</ele><time>2026-05-02T06:33:00.904Z</time></trkpt><trkpt lat="42.1566667" lon="14.5782433"><ele>212.00000000000003</ele><time>2026-05-02T06:33:02.905Z</time></trkpt><trkpt lat="42.1567317" lon="14.578315"><ele>212.0</ele><time>2026-05-02T06:33:04.905Z</time></trkpt><trkpt lat="42.1567933" lon="14.5783967"><ele>211.50000000000003</ele><time>2026-05-02T06:33:06.905Z</time></trkpt><trkpt lat="42.1568533" lon="14.578475"><ele>211.0</ele><time>2026-05-02T06:33:08.905Z</time></trkpt><trkpt lat="42.1569133" lon="14.578545"><ele>210.5</ele><time>2026-05-02T06:33:10.905Z</time></trkpt><trkpt lat="42.1569683" lon="14.578615"><ele>210.0</ele><time>2026-05-02T06:33:12.905Z</time></trkpt><trkpt lat="42.1570217" lon="14.5786917"><ele>209.50000000000003</ele><time>2026-05-02T06:33:14.904Z</time></trkpt><trkpt lat="42.1570717" lon="14.5787633"><ele>209.0</ele><time>2026-05-02T06:33:16.904Z</time></trkpt><trkpt lat="42.1571283" lon="14.5788183"><ele>208.33333333333334</ele><time>2026-05-02T06:33:18.904Z</time></trkpt><trkpt lat="42.15721" lon="14.5788267"><ele>207.66666666666669</ele><time>2026-05-02T06:33:20.905Z</time></trkpt><trkpt lat="42.1572767" lon="14.5787717"><ele>207.0</ele><time>2026-05-02T06:33:22.905Z</time></trkpt><trkpt lat="42.1573483" lon="14.578695"><ele>206.33333333333331</ele><time>2026-05-02T06:33:24.904Z</time></trkpt><trkpt lat="42.15741" lon="14.57862"><ele>205.66666666666666</ele><time>2026-05-02T06:33:26.904Z</time></trkpt><trkpt lat="42.1574617" lon="14.5785583"><ele>205.0</ele><time>2026-05-02T06:33:28.905Z</time></trkpt><trkpt lat="42.1575083" lon="14.578495"><ele>204.57142857142858</ele><time>2026-05-02T06:33:30.905Z</time></trkpt><trkpt lat="42.1575633" lon="14.5784283"><ele>204.14285714285714</ele><time>2026-05-02T06:33:32.905Z</time></trkpt><trkpt lat="42.15762" lon="14.578355"><ele>203.71428571428572</ele><time>2026-05-02T06:33:34.905Z</time></trkpt><trkpt lat="42.1576733" lon="14.5782967"><ele>203.28571428571428</ele><time>2026-05-02T06:33:36.904Z</time></trkpt><trkpt lat="42.157725" lon="14.57824"><ele>202.85714285714283</ele><time>2026-05-02T06:33:38.904Z</time></trkpt><trkpt lat="42.1577783" lon="14.5781817"><ele>202.42857142857142</ele><time>2026-05-02T06:33:40.905Z</time></trkpt><trkpt lat="42.1578333" lon="14.5781267"><ele>202.0</ele><time>2026-05-02T06:33:42.904Z</time></trkpt><trkpt lat="42.1578817" lon="14.5780717"><ele>202.0</ele><time>2026-05-02T06:33:44.904Z</time></trkpt><trkpt lat="42.1579617" lon="14.5780067"><ele>202.0</ele><time>2026-05-02T06:33:47.905Z</time></trkpt><trkpt lat="42.1580167" lon="14.5779517"><ele>202.0</ele><time>2026-05-02T06:33:49.905Z</time></trkpt><trkpt lat="42.1580717" lon="14.5779067"><ele>202.0</ele><time>2026-05-02T06:33:51.905Z</time></trkpt><trkpt lat="42.15813" lon="14.57786"><ele>202.0</ele><time>2026-05-02T06:33:53.904Z</time></trkpt><trkpt lat="42.158185" lon="14.577815"><ele>202.0</ele><time>2026-05-02T06:33:55.904Z</time></trkpt><trkpt lat="42.1582483" lon="14.5777867"><ele>202.0</ele><time>2026-05-02T06:33:57.904Z</time></trkpt><trkpt lat="42.1583133" lon="14.5777633"><ele>202.42857142857142</ele><time>2026-05-02T06:33:59.905Z</time></trkpt><trkpt lat="42.1583783" lon="14.577725"><ele>202.85714285714283</ele><time>2026-05-02T06:34:01.904Z</time></trkpt><trkpt lat="42.1584667" lon="14.57768"><ele>203.28571428571428</ele><time>2026-05-02T06:34:04.905Z</time></trkpt><trkpt lat="42.1585283" lon="14.577645"><ele>203.71428571428572</ele><time>2026-05-02T06:34:06.905Z</time></trkpt><trkpt lat="42.158595" lon="14.5776083"><ele>204.14285714285714</ele><time>2026-05-02T06:34:08.905Z</time></trkpt><trkpt lat="42.15866" lon="14.577575"><ele>204.57142857142858</ele><time>2026-05-02T06:34:10.905Z</time></trkpt><trkpt lat="42.1587217" lon="14.577545"><ele>205.0</ele><time>2026-05-02T06:34:12.905Z</time></trkpt><trkpt lat="42.1588" lon="14.577505"><ele>205.0</ele><time>2026-05-02T06:34:15.905Z</time></trkpt><trkpt lat="42.1588817" lon="14.577465"><ele>205.0</ele><time>2026-05-02T06:34:18.905Z</time></trkpt><trkpt lat="42.1589767" lon="14.5774267"><ele>205.0</ele><time>2026-05-02T06:34:21.905Z</time></trkpt><trkpt lat="42.1590367" lon="14.577385"><ele>205.0</ele><time>2026-05-02T06:34:23.904Z</time></trkpt><trkpt lat="42.1590933" lon="14.577345"><ele>205.0</ele><time>2026-05-02T06:34:25.904Z</time></trkpt><trkpt lat="42.1591533" lon="14.5773067"><ele>205.0</ele><time>2026-05-02T06:34:27.905Z</time></trkpt><trkpt lat="42.1592067" lon="14.5772617"><ele>205.0</ele><time>2026-05-02T06:34:29.905Z</time></trkpt><trkpt lat="42.1592767" lon="14.57718"><ele>204.71428571428572</ele><time>2026-05-02T06:34:32.904Z</time></trkpt><trkpt lat="42.1593317" lon="14.5771283"><ele>204.42857142857142</ele><time>2026-05-02T06:34:34.905Z</time></trkpt><trkpt lat="42.159405" lon="14.5770617"><ele>204.14285714285714</ele><time>2026-05-02T06:34:37.905Z</time></trkpt><trkpt lat="42.1594567" lon="14.5770117"><ele>203.85714285714286</ele><time>2026-05-02T06:34:39.905Z</time></trkpt><trkpt lat="42.1595083" lon="14.5769617"><ele>203.57142857142856</ele><time>2026-05-02T06:34:41.905Z</time></trkpt><trkpt lat="42.1595633" lon="14.5769133"><ele>203.28571428571428</ele><time>2026-05-02T06:34:43.904Z</time></trkpt><trkpt lat="42.1596217" lon="14.5768617"><ele>203.0</ele><time>2026-05-02T06:34:45.905Z</time></trkpt><trkpt lat="42.159685" lon="14.5768117"><ele>202.85714285714286</ele><time>2026-05-02T06:34:47.905Z</time></trkpt><trkpt lat="42.159745" lon="14.576765"><ele>202.71428571428572</ele><time>2026-05-02T06:34:49.905Z</time></trkpt><trkpt lat="42.1598033" lon="14.5767117"><ele>202.57142857142856</ele><time>2026-05-02T06:34:51.905Z</time></trkpt><trkpt lat="42.1598667" lon="14.5766633"><ele>202.42857142857144</ele><time>2026-05-02T06:34:53.905Z</time></trkpt><trkpt lat="42.1599283" lon="14.5766133"><ele>202.28571428571428</ele><time>2026-05-02T06:34:55.905Z</time></trkpt><trkpt lat="42.1599883" lon="14.5765717"><ele>202.14285714285714</ele><time>2026-05-02T06:34:57.905Z</time></trkpt><trkpt lat="42.1600567" lon="14.576555"><ele>202.0</ele><time>2026-05-02T06:34:59.905Z</time></trkpt><trkpt lat="42.1601333" lon="14.5765633"><ele>202.0</ele><time>2026-05-02T06:35:01.905Z</time></trkpt><trkpt lat="42.160215" lon="14.5765867"><ele>202.0</ele><time>2026-05-02T06:35:03.905Z</time></trkpt><trkpt lat="42.16029" lon="14.5766333"><ele>202.0</ele><time>2026-05-02T06:35:05.905Z</time></trkpt><trkpt lat="42.1603617" lon="14.5767133"><ele>202.0</ele><time>2026-05-02T06:35:07.905Z</time></trkpt><trkpt lat="42.160445" lon="14.5768133"><ele>202.0</ele><time>2026-05-02T06:35:09.905Z</time></trkpt><trkpt lat="42.1605317" lon="14.5769167"><ele>201.99999999999997</ele><time>2026-05-02T06:35:11.904Z</time></trkpt><trkpt lat="42.16061" lon="14.5770183"><ele>202.0</ele><time>2026-05-02T06:35:13.905Z</time></trkpt><trkpt lat="42.160685" lon="14.5771083"><ele>202.0</ele><time>2026-05-02T06:35:15.904Z</time></trkpt><trkpt lat="42.160755" lon="14.5771383"><ele>202.0</ele><time>2026-05-02T06:35:17.904Z</time></trkpt><trkpt lat="42.1608083" lon="14.57709"><ele>201.99999999999997</ele><time>2026-05-02T06:35:19.905Z</time></trkpt><trkpt lat="42.16085" lon="14.57701"><ele>202.0</ele><time>2026-05-02T06:35:21.904Z</time></trkpt><trkpt lat="42.1609133" lon="14.5769233"><ele>201.2</ele><time>2026-05-02T06:35:23.904Z</time></trkpt><trkpt lat="42.1609983" lon="14.5768733"><ele>200.39999999999998</ele><time>2026-05-02T06:35:25.905Z</time></trkpt><trkpt lat="42.161085" lon="14.5768967"><ele>199.60000000000002</ele><time>2026-05-02T06:35:27.904Z</time></trkpt><trkpt lat="42.1611767" lon="14.5769917"><ele>198.8</ele><time>2026-05-02T06:35:29.905Z</time></trkpt><trkpt lat="42.1612767" lon="14.57708"><ele>198.0</ele><time>2026-05-02T06:35:31.904Z</time></trkpt><trkpt lat="42.1613833" lon="14.577155"><ele>196.60000000000002</ele><time>2026-05-02T06:35:33.905Z</time></trkpt><trkpt lat="42.1614867" lon="14.5772367"><ele>195.20000000000002</ele><time>2026-05-02T06:35:35.904Z</time></trkpt><trkpt lat="42.161575" lon="14.5773133"><ele>193.8</ele><time>2026-05-02T06:35:37.904Z</time></trkpt><trkpt lat="42.16165" lon="14.577375"><ele>192.4</ele><time>2026-05-02T06:35:39.905Z</time></trkpt><trkpt lat="42.1617167" lon="14.5774183"><ele>191.0</ele><time>2026-05-02T06:35:41.904Z</time></trkpt><trkpt lat="42.1617833" lon="14.5774"><ele>190.33333333333331</ele><time>2026-05-02T06:35:44.904Z</time></trkpt><trkpt lat="42.1618283" lon="14.5773117"><ele>189.66666666666666</ele><time>2026-05-02T06:35:47.905Z</time></trkpt><trkpt lat="42.161865" lon="14.5772383"><ele>189.0</ele><time>2026-05-02T06:35:49.905Z</time></trkpt><trkpt lat="42.1619117" lon="14.5771333"><ele>188.33333333333334</ele><time>2026-05-02T06:35:52.905Z</time></trkpt><trkpt lat="42.1619583" lon="14.5770383"><ele>187.66666666666669</ele><time>2026-05-02T06:35:55.904Z</time></trkpt><trkpt lat="42.1619883" lon="14.57695"><ele>187.0</ele><time>2026-05-02T06:35:58.905Z</time></trkpt><trkpt lat="42.1620167" lon="14.5768667"><ele>187.0</ele><time>2026-05-02T06:36:01.905Z</time></trkpt><trkpt lat="42.1620933" lon="14.5768167"><ele>187.0</ele><time>2026-05-02T06:36:05.905Z</time></trkpt><trkpt lat="42.1621783" lon="14.5768583"><ele>187.0</ele><time>2026-05-02T06:36:08.905Z</time></trkpt><trkpt lat="42.162235" lon="14.5769167"><ele>187.0</ele><time>2026-05-02T06:36:10.904Z</time></trkpt><trkpt lat="42.162295" lon="14.5769617"><ele>187.0</ele><time>2026-05-02T06:36:12.904Z</time></trkpt><trkpt lat="42.16236" lon="14.577015"><ele>187.0</ele><time>2026-05-02T06:36:14.905Z</time></trkpt><trkpt lat="42.1624283" lon="14.5770683"><ele>186.0</ele><time>2026-05-02T06:36:16.904Z</time></trkpt><trkpt lat="42.1624983" lon="14.5771217"><ele>185.0</ele><time>2026-05-02T06:36:18.904Z</time></trkpt><trkpt lat="42.1625683" lon="14.577175"><ele>184.0</ele><time>2026-05-02T06:36:20.904Z</time></trkpt><trkpt lat="42.1626433" lon="14.5772317"><ele>183.0</ele><time>2026-05-02T06:36:22.904Z</time></trkpt><trkpt lat="42.1627133" lon="14.5772833"><ele>182.0</ele><time>2026-05-02T06:36:24.905Z</time></trkpt><trkpt lat="42.1627817" lon="14.57733"><ele>181.0</ele><time>2026-05-02T06:36:26.905Z</time></trkpt><trkpt lat="42.1628567" lon="14.57738"><ele>181.0</ele><time>2026-05-02T06:36:28.905Z</time></trkpt><trkpt lat="42.162925" lon="14.577435"><ele>181.0</ele><time>2026-05-02T06:36:30.904Z</time></trkpt><trkpt lat="42.1629883" lon="14.5774817"><ele>181.0</ele><time>2026-05-02T06:36:32.905Z</time></trkpt><trkpt lat="42.1630467" lon="14.5775167"><ele>181.0</ele><time>2026-05-02T06:36:34.905Z</time></trkpt><trkpt lat="42.1631233" lon="14.5775117"><ele>181.0</ele><time>2026-05-02T06:36:37.905Z</time></trkpt><trkpt lat="42.1631833" lon="14.5775817"><ele>181.0</ele><time>2026-05-02T06:36:40.905Z</time></trkpt><trkpt lat="42.1632567" lon="14.57766"><ele>180.16666666666669</ele><time>2026-05-02T06:36:43.904Z</time></trkpt><trkpt lat="42.163305" lon="14.57772"><ele>179.33333333333334</ele><time>2026-05-02T06:36:45.905Z</time></trkpt><trkpt lat="42.1633733" lon="14.57779"><ele>178.5</ele><time>2026-05-02T06:36:48.905Z</time></trkpt><trkpt lat="42.1633983" lon="14.57787"><ele>177.66666666666666</ele><time>2026-05-02T06:36:52.905Z</time></trkpt><trkpt lat="42.1633517" lon="14.5779433"><ele>176.83333333333331</ele><time>2026-05-02T06:36:55.904Z</time></trkpt><trkpt lat="42.1632917" lon="14.5780317"><ele>176.0</ele><time>2026-05-02T06:36:58.904Z</time></trkpt><trkpt lat="42.1632383" lon="14.5781167"><ele>176.33333333333331</ele><time>2026-05-02T06:37:01.905Z</time></trkpt><trkpt lat="42.1631883" lon="14.578205"><ele>176.66666666666666</ele><time>2026-05-02T06:37:04.905Z</time></trkpt><trkpt lat="42.1631333" lon="14.5782967"><ele>177.0</ele><time>2026-05-02T06:37:07.905Z</time></trkpt><trkpt lat="42.1630783" lon="14.5783733"><ele>177.33333333333334</ele><time>2026-05-02T06:37:10.904Z</time></trkpt><trkpt lat="42.163045" lon="14.5784567"><ele>177.66666666666669</ele><time>2026-05-02T06:37:14.904Z</time></trkpt><trkpt lat="42.1631" lon="14.5785467"><ele>178.0</ele><time>2026-05-02T06:37:17.905Z</time></trkpt><trkpt lat="42.16316" lon="14.5785733"><ele>177.7142857142857</ele><time>2026-05-02T06:37:20.904Z</time></trkpt><trkpt lat="42.16322" lon="14.5785167"><ele>177.42857142857142</ele><time>2026-05-02T06:37:23.905Z</time></trkpt><trkpt lat="42.1632717" lon="14.5784667"><ele>177.14285714285714</ele><time>2026-05-02T06:37:25.904Z</time></trkpt><trkpt lat="42.1633317" lon="14.578385"><ele>176.85714285714283</ele><time>2026-05-02T06:37:28.905Z</time></trkpt><trkpt lat="42.1633783" lon="14.57832"><ele>176.57142857142856</ele><time>2026-05-02T06:37:30.904Z</time></trkpt><trkpt lat="42.163435" lon="14.578245"><ele>176.28571428571428</ele><time>2026-05-02T06:37:32.904Z</time></trkpt><trkpt lat="42.16348" lon="14.578185"><ele>176.0</ele><time>2026-05-02T06:37:34.905Z</time></trkpt><trkpt lat="42.163555" lon="14.5782333"><ele>176.0</ele><time>2026-05-02T06:37:37.904Z</time></trkpt><trkpt lat="42.1636333" lon="14.578285"><ele>176.0</ele><time>2026-05-02T06:37:39.905Z</time></trkpt><trkpt lat="42.1637233" lon="14.5783283"><ele>176.0</ele><time>2026-05-02T06:37:41.904Z</time></trkpt><trkpt lat="42.1638067" lon="14.578375"><ele>176.0</ele><time>2026-05-02T06:37:43.904Z</time></trkpt><trkpt lat="42.1638867" lon="14.5784267"><ele>176.0</ele><time>2026-05-02T06:37:45.905Z</time></trkpt><trkpt lat="42.16397" lon="14.5784833"><ele>175.0</ele><time>2026-05-02T06:37:47.904Z</time></trkpt><trkpt lat="42.16405" lon="14.578545"><ele>174.0</ele><time>2026-05-02T06:37:49.905Z</time></trkpt><trkpt lat="42.164135" lon="14.5786283"><ele>173.0</ele><time>2026-05-02T06:37:51.904Z</time></trkpt><trkpt lat="42.16422" lon="14.5787267"><ele>172.0</ele><time>2026-05-02T06:37:53.905Z</time></trkpt><trkpt lat="42.164305" lon="14.5788217"><ele>171.0</ele><time>2026-05-02T06:37:55.904Z</time></trkpt><trkpt lat="42.1643833" lon="14.57893"><ele>170.5</ele><time>2026-05-02T06:37:57.904Z</time></trkpt><trkpt lat="42.1644517" lon="14.5790367"><ele>170.0</ele><time>2026-05-02T06:37:59.904Z</time></trkpt><trkpt lat="42.1645" lon="14.5791233"><ele>169.5</ele><time>2026-05-02T06:38:01.905Z</time></trkpt><trkpt lat="42.1644967" lon="14.5792183"><ele>169.0</ele><time>2026-05-02T06:38:04.905Z</time></trkpt><trkpt lat="42.1644483" lon="14.5792733"><ele>168.5</ele><time>2026-05-02T06:38:06.904Z</time></trkpt><trkpt lat="42.164395" lon="14.579365"><ele>168.0</ele><time>2026-05-02T06:38:09.905Z</time></trkpt><trkpt lat="42.1644467" lon="14.5794867"><ele>167.2</ele><time>2026-05-02T06:38:12.905Z</time></trkpt><trkpt lat="42.1645033" lon="14.5795683"><ele>166.4</ele><time>2026-05-02T06:38:14.905Z</time></trkpt><trkpt lat="42.1645617" lon="14.57966"><ele>165.6</ele><time>2026-05-02T06:38:16.905Z</time></trkpt><trkpt lat="42.1646283" lon="14.57976"><ele>164.79999999999998</ele><time>2026-05-02T06:38:18.904Z</time></trkpt><trkpt lat="42.1646867" lon="14.57985"><ele>164.0</ele><time>2026-05-02T06:38:20.905Z</time></trkpt><trkpt lat="42.1647433" lon="14.5799517"><ele>164.0</ele><time>2026-05-02T06:38:22.905Z</time></trkpt><trkpt lat="42.1647983" lon="14.5800533"><ele>164.0</ele><time>2026-05-02T06:38:24.904Z</time></trkpt><trkpt lat="42.1648617" lon="14.5801483"><ele>164.0</ele><time>2026-05-02T06:38:26.905Z</time></trkpt><trkpt lat="42.1649283" lon="14.5802383"><ele>164.0</ele><time>2026-05-02T06:38:28.904Z</time></trkpt><trkpt lat="42.1649917" lon="14.5803333"><ele>164.0</ele><time>2026-05-02T06:38:30.904Z</time></trkpt><trkpt lat="42.1650583" lon="14.5804367"><ele>163.2</ele><time>2026-05-02T06:38:32.905Z</time></trkpt><trkpt lat="42.1651217" lon="14.5805383"><ele>162.39999999999998</ele><time>2026-05-02T06:38:34.904Z</time></trkpt><trkpt lat="42.1651833" lon="14.5806333"><ele>161.6</ele><time>2026-05-02T06:38:36.905Z</time></trkpt><trkpt lat="42.1652483" lon="14.5807267"><ele>160.8</ele><time>2026-05-02T06:38:38.905Z</time></trkpt><trkpt lat="42.1653033" lon="14.5808217"><ele>160.0</ele><time>2026-05-02T06:38:40.904Z</time></trkpt><trkpt lat="42.1653533" lon="14.5809183"><ele>160.0</ele><time>2026-05-02T06:38:42.905Z</time></trkpt><trkpt lat="42.165405" lon="14.5810067"><ele>160.0</ele><time>2026-05-02T06:38:44.904Z</time></trkpt><trkpt lat="42.1654583" lon="14.5810933"><ele>160.0</ele><time>2026-05-02T06:38:46.905Z</time></trkpt><trkpt lat="42.16551" lon="14.5811717"><ele>160.0</ele><time>2026-05-02T06:38:48.905Z</time></trkpt><trkpt lat="42.1655567" lon="14.5812533"><ele>160.0</ele><time>2026-05-02T06:38:50.905Z</time></trkpt><trkpt lat="42.1655933" lon="14.5813267"><ele>160.0</ele><time>2026-05-02T06:38:52.905Z</time></trkpt><trkpt lat="42.1656183" lon="14.581425"><ele>159.83333333333334</ele><time>2026-05-02T06:38:55.905Z</time></trkpt><trkpt lat="42.1656033" lon="14.581535"><ele>159.66666666666669</ele><time>2026-05-02T06:38:59.905Z</time></trkpt><trkpt lat="42.1656283" lon="14.58162"><ele>159.5</ele><time>2026-05-02T06:39:01.905Z</time></trkpt><trkpt lat="42.1656583" lon="14.5817033"><ele>159.33333333333334</ele><time>2026-05-02T06:39:03.905Z</time></trkpt><trkpt lat="42.1657067" lon="14.5818017"><ele>159.16666666666666</ele><time>2026-05-02T06:39:05.905Z</time></trkpt><trkpt lat="42.1657467" lon="14.5818967"><ele>159.0</ele><time>2026-05-02T06:39:07.905Z</time></trkpt><trkpt lat="42.1657817" lon="14.5819867"><ele>158.33333333333334</ele><time>2026-05-02T06:39:09.905Z</time></trkpt><trkpt lat="42.1658217" lon="14.582075"><ele>157.66666666666666</ele><time>2026-05-02T06:39:11.904Z</time></trkpt><trkpt lat="42.1658633" lon="14.5821667"><ele>157.0</ele><time>2026-05-02T06:39:13.905Z</time></trkpt><trkpt lat="42.1659" lon="14.5822633"><ele>156.33333333333331</ele><time>2026-05-02T06:39:15.905Z</time></trkpt><trkpt lat="42.165935" lon="14.5823533"><ele>155.66666666666666</ele><time>2026-05-02T06:39:17.905Z</time></trkpt><trkpt lat="42.16597" lon="14.58244"><ele>155.0</ele><time>2026-05-02T06:39:19.905Z</time></trkpt><trkpt lat="42.1660083" lon="14.5825217"><ele>155.0</ele><time>2026-05-02T06:39:21.904Z</time></trkpt><trkpt lat="42.16605" lon="14.5826033"><ele>155.0</ele><time>2026-05-02T06:39:23.904Z</time></trkpt><trkpt lat="42.1660933" lon="14.5826867"><ele>155.0</ele><time>2026-05-02T06:39:25.904Z</time></trkpt><trkpt lat="42.1661333" lon="14.5827783"><ele>155.0</ele><time>2026-05-02T06:39:27.904Z</time></trkpt><trkpt lat="42.1661717" lon="14.582865"><ele>155.0</ele><time>2026-05-02T06:39:29.905Z</time></trkpt><trkpt lat="42.1662133" lon="14.5829567"><ele>155.0</ele><time>2026-05-02T06:39:31.905Z</time></trkpt><trkpt lat="42.166255" lon="14.5830483"><ele>154.83333333333331</ele><time>2026-05-02T06:39:33.904Z</time></trkpt><trkpt lat="42.1663" lon="14.5831467"><ele>154.66666666666666</ele><time>2026-05-02T06:39:36.905Z</time></trkpt><trkpt lat="42.1663283" lon="14.5832283"><ele>154.5</ele><time>2026-05-02T06:39:39.904Z</time></trkpt><trkpt lat="42.16637" lon="14.5833317"><ele>154.33333333333334</ele><time>2026-05-02T06:39:42.905Z</time></trkpt><trkpt lat="42.1664033" lon="14.5834083"><ele>154.16666666666669</ele><time>2026-05-02T06:39:44.904Z</time></trkpt><trkpt lat="42.1664433" lon="14.5834883"><ele>154.0</ele><time>2026-05-02T06:39:46.905Z</time></trkpt><trkpt lat="42.1664833" lon="14.58357"><ele>154.0</ele><time>2026-05-02T06:39:48.905Z</time></trkpt><trkpt lat="42.1665267" lon="14.583665"><ele>154.0</ele><time>2026-05-02T06:39:50.905Z</time></trkpt><trkpt lat="42.1665767" lon="14.5837683"><ele>154.0</ele><time>2026-05-02T06:39:52.905Z</time></trkpt><trkpt lat="42.1666217" lon="14.583875"><ele>154.0</ele><time>2026-05-02T06:39:54.905Z</time></trkpt><trkpt lat="42.1666683" lon="14.5839783"><ele>154.0</ele><time>2026-05-02T06:39:56.904Z</time></trkpt><trkpt lat="42.166715" lon="14.58407"><ele>154.0</ele><time>2026-05-02T06:39:58.904Z</time></trkpt><trkpt lat="42.1667533" lon="14.58416"><ele>153.85714285714286</ele><time>2026-05-02T06:40:00.905Z</time></trkpt><trkpt lat="42.1667933" lon="14.584255"><ele>153.71428571428572</ele><time>2026-05-02T06:40:02.905Z</time></trkpt><trkpt lat="42.166835" lon="14.5843383"><ele>153.57142857142856</ele><time>2026-05-02T06:40:04.905Z</time></trkpt><trkpt lat="42.1668733" lon="14.58442"><ele>153.42857142857144</ele><time>2026-05-02T06:40:06.904Z</time></trkpt><trkpt lat="42.166915" lon="14.5844983"><ele>153.28571428571428</ele><time>2026-05-02T06:40:08.904Z</time></trkpt><trkpt lat="42.1669533" lon="14.5845783"><ele>153.14285714285714</ele><time>2026-05-02T06:40:10.904Z</time></trkpt><trkpt lat="42.16698" lon="14.58466"><ele>153.0</ele><time>2026-05-02T06:40:12.905Z</time></trkpt><trkpt lat="42.1670233" lon="14.58476"><ele>152.57142857142856</ele><time>2026-05-02T06:40:15.905Z</time></trkpt><trkpt lat="42.1671" lon="14.58478"><ele>152.14285714285714</ele><time>2026-05-02T06:40:18.904Z</time></trkpt><trkpt lat="42.1671633" lon="14.5847717"><ele>151.71428571428572</ele><time>2026-05-02T06:40:20.904Z</time></trkpt><trkpt lat="42.16723" lon="14.584765"><ele>151.28571428571428</ele><time>2026-05-02T06:40:22.904Z</time></trkpt><trkpt lat="42.1673" lon="14.584765"><ele>150.85714285714286</ele><time>2026-05-02T06:40:24.905Z</time></trkpt><trkpt lat="42.1673717" lon="14.5847567"><ele>150.42857142857142</ele><time>2026-05-02T06:40:26.904Z</time></trkpt><trkpt lat="42.16745" lon="14.5847417"><ele>150.0</ele><time>2026-05-02T06:40:28.904Z</time></trkpt><trkpt lat="42.1675167" lon="14.5847267"><ele>149.99999999999997</ele><time>2026-05-02T06:40:30.906Z</time></trkpt><trkpt lat="42.1675833" lon="14.5847083"><ele>150.0</ele><time>2026-05-02T06:40:32.906Z</time></trkpt><trkpt lat="42.1676517" lon="14.5846933"><ele>150.0</ele><time>2026-05-02T06:40:34.905Z</time></trkpt><trkpt lat="42.1677167" lon="14.5846667"><ele>150.0</ele><time>2026-05-02T06:40:36.905Z</time></trkpt><trkpt lat="42.1677817" lon="14.58464"><ele>150.0</ele><time>2026-05-02T06:40:38.905Z</time></trkpt><trkpt lat="42.167845" lon="14.5846167"><ele>149.99999999999997</ele><time>2026-05-02T06:40:40.906Z</time></trkpt><trkpt lat="42.1679083" lon="14.5845867"><ele>150.0</ele><time>2026-05-02T06:40:42.906Z</time></trkpt><trkpt lat="42.167975" lon="14.58455"><ele>149.83333333333334</ele><time>2026-05-02T06:40:44.906Z</time></trkpt><trkpt lat="42.1680467" lon="14.5845067"><ele>149.66666666666666</ele><time>2026-05-02T06:40:46.905Z</time></trkpt><trkpt lat="42.1681233" lon="14.58448"><ele>149.5</ele><time>2026-05-02T06:40:48.905Z</time></trkpt><trkpt lat="42.16821" lon="14.584465"><ele>149.33333333333331</ele><time>2026-05-02T06:40:50.905Z</time></trkpt><trkpt lat="42.1682983" lon="14.5844833"><ele>149.16666666666666</ele><time>2026-05-02T06:40:52.906Z</time></trkpt><trkpt lat="42.1683933" lon="14.5845117"><ele>149.0</ele><time>2026-05-02T06:40:54.906Z</time></trkpt><trkpt lat="42.1684833" lon="14.58454"><ele>149.0</ele><time>2026-05-02T06:40:56.906Z</time></trkpt><trkpt lat="42.1685767" lon="14.5845733"><ele>149.0</ele><time>2026-05-02T06:40:58.906Z</time></trkpt><trkpt lat="42.1686683" lon="14.5846133"><ele>149.0</ele><time>2026-05-02T06:41:00.905Z</time></trkpt><trkpt lat="42.1687483" lon="14.584645"><ele>149.0</ele><time>2026-05-02T06:41:02.906Z</time></trkpt><trkpt lat="42.1688367" lon="14.5846767"><ele>149.0</ele><time>2026-05-02T06:41:04.906Z</time></trkpt><trkpt lat="42.1689267" lon="14.5847033"><ele>149.0</ele><time>2026-05-02T06:41:06.906Z</time></trkpt><trkpt lat="42.169015" lon="14.58473"><ele>149.0</ele><time>2026-05-02T06:41:08.906Z</time></trkpt><trkpt lat="42.1691033" lon="14.5847483"><ele>149.0</ele><time>2026-05-02T06:41:10.906Z</time></trkpt><trkpt lat="42.16919" lon="14.5847617"><ele>149.0</ele><time>2026-05-02T06:41:12.906Z</time></trkpt><trkpt lat="42.1692717" lon="14.5847767"><ele>149.0</ele><time>2026-05-02T06:41:14.905Z</time></trkpt><trkpt lat="42.1693583" lon="14.584785"><ele>149.0</ele><time>2026-05-02T06:41:16.906Z</time></trkpt><trkpt lat="42.169435" lon="14.5847933"><ele>148.33333333333331</ele><time>2026-05-02T06:41:18.906Z</time></trkpt><trkpt lat="42.1695133" lon="14.5848067"><ele>147.66666666666666</ele><time>2026-05-02T06:41:20.905Z</time></trkpt><trkpt lat="42.1695883" lon="14.58482"><ele>147.0</ele><time>2026-05-02T06:41:22.906Z</time></trkpt><trkpt lat="42.16966" lon="14.58483"><ele>146.33333333333334</ele><time>2026-05-02T06:41:24.905Z</time></trkpt><trkpt lat="42.1697283" lon="14.584835"><ele>145.66666666666669</ele><time>2026-05-02T06:41:26.906Z</time></trkpt><trkpt lat="42.1698067" lon="14.5848317"><ele>145.0</ele><time>2026-05-02T06:41:28.905Z</time></trkpt><trkpt lat="42.1698917" lon="14.5848167"><ele>144.83333333333334</ele><time>2026-05-02T06:41:30.906Z</time></trkpt><trkpt lat="42.1699767" lon="14.5848033"><ele>144.66666666666669</ele><time>2026-05-02T06:41:32.906Z</time></trkpt><trkpt lat="42.1700683" lon="14.584795"><ele>144.5</ele><time>2026-05-02T06:41:34.905Z</time></trkpt><trkpt lat="42.1701517" lon="14.5847883"><ele>144.33333333333334</ele><time>2026-05-02T06:41:36.906Z</time></trkpt><trkpt lat="42.170235" lon="14.5847767"><ele>144.16666666666666</ele><time>2026-05-02T06:41:38.906Z</time></trkpt><trkpt lat="42.170315" lon="14.5847683"><ele>144.0</ele><time>2026-05-02T06:41:40.906Z</time></trkpt><trkpt lat="42.1703867" lon="14.58476"><ele>144.00000000000003</ele><time>2026-05-02T06:41:42.905Z</time></trkpt><trkpt lat="42.170455" lon="14.5847417"><ele>144.0</ele><time>2026-05-02T06:41:44.905Z</time></trkpt><trkpt lat="42.170525" lon="14.5847167"><ele>144.0</ele><time>2026-05-02T06:41:46.906Z</time></trkpt><trkpt lat="42.1705983" lon="14.58468"><ele>144.0</ele><time>2026-05-02T06:41:48.905Z</time></trkpt><trkpt lat="42.1706717" lon="14.5846467"><ele>144.0</ele><time>2026-05-02T06:41:50.906Z</time></trkpt><trkpt lat="42.1707333" lon="14.5846083"><ele>144.00000000000003</ele><time>2026-05-02T06:41:52.906Z</time></trkpt><trkpt lat="42.1708017" lon="14.5845717"><ele>144.0</ele><time>2026-05-02T06:41:54.906Z</time></trkpt><trkpt lat="42.1708633" lon="14.58455"><ele>144.00000000000003</ele><time>2026-05-02T06:41:56.906Z</time></trkpt><trkpt lat="42.1709333" lon="14.584515"><ele>144.0</ele><time>2026-05-02T06:41:59.906Z</time></trkpt><trkpt lat="42.1709967" lon="14.5844767"><ele>144.0</ele><time>2026-05-02T06:42:01.906Z</time></trkpt><trkpt lat="42.1710617" lon="14.584495"><ele>144.0</ele><time>2026-05-02T06:42:04.906Z</time></trkpt><trkpt lat="42.1711117" lon="14.5845683"><ele>144.0</ele><time>2026-05-02T06:42:07.906Z</time></trkpt><trkpt lat="42.171165" lon="14.5846183"><ele>144.00000000000003</ele><time>2026-05-02T06:42:09.906Z</time></trkpt><trkpt lat="42.1712117" lon="14.5846833"><ele>144.0</ele><time>2026-05-02T06:42:11.905Z</time></trkpt><trkpt lat="42.171275" lon="14.5847783"><ele>144.0</ele><time>2026-05-02T06:42:14.906Z</time></trkpt><trkpt lat="42.1713233" lon="14.5848633"><ele>144.0</ele><time>2026-05-02T06:42:16.906Z</time></trkpt><trkpt lat="42.1713733" lon="14.5849517"><ele>144.0</ele><time>2026-05-02T06:42:18.906Z</time></trkpt><trkpt lat="42.1714317" lon="14.5850583"><ele>144.0</ele><time>2026-05-02T06:42:20.905Z</time></trkpt><trkpt lat="42.171485" lon="14.5851533"><ele>144.0</ele><time>2026-05-02T06:42:22.906Z</time></trkpt><trkpt lat="42.1715333" lon="14.585245"><ele>144.0</ele><time>2026-05-02T06:42:24.905Z</time></trkpt><trkpt lat="42.1715817" lon="14.5853417"><ele>143.6</ele><time>2026-05-02T06:42:26.905Z</time></trkpt><trkpt lat="42.1716317" lon="14.5854433"><ele>143.2</ele><time>2026-05-02T06:42:28.905Z</time></trkpt><trkpt lat="42.171685" lon="14.585545"><ele>142.79999999999998</ele><time>2026-05-02T06:42:30.906Z</time></trkpt><trkpt lat="42.171735" lon="14.5856467"><ele>142.4</ele><time>2026-05-02T06:42:32.906Z</time></trkpt><trkpt lat="42.171785" lon="14.5857483"><ele>142.0</ele><time>2026-05-02T06:42:34.906Z</time></trkpt><trkpt lat="42.17183" lon="14.5858567"><ele>142.0</ele><time>2026-05-02T06:42:36.906Z</time></trkpt><trkpt lat="42.171865" lon="14.5859717"><ele>142.0</ele><time>2026-05-02T06:42:38.906Z</time></trkpt><trkpt lat="42.1718967" lon="14.58609"><ele>142.0</ele><time>2026-05-02T06:42:40.905Z</time></trkpt><trkpt lat="42.1719233" lon="14.5862117"><ele>142.0</ele><time>2026-05-02T06:42:42.905Z</time></trkpt><trkpt lat="42.17195" lon="14.5863333"><ele>142.0</ele><time>2026-05-02T06:42:44.906Z</time></trkpt><trkpt lat="42.1719817" lon="14.5864583"><ele>141.79999999999998</ele><time>2026-05-02T06:42:46.905Z</time></trkpt><trkpt lat="42.1720217" lon="14.5865767"><ele>141.6</ele><time>2026-05-02T06:42:48.905Z</time></trkpt><trkpt lat="42.1720667" lon="14.586685"><ele>141.39999999999998</ele><time>2026-05-02T06:42:50.906Z</time></trkpt><trkpt lat="42.172125" lon="14.5867883"><ele>141.2</ele><time>2026-05-02T06:42:52.906Z</time></trkpt><trkpt lat="42.1721917" lon="14.5868817"><ele>141.0</ele><time>2026-05-02T06:42:54.905Z</time></trkpt><trkpt lat="42.1722583" lon="14.5869667"><ele>140.6</ele><time>2026-05-02T06:42:56.906Z</time></trkpt><trkpt lat="42.1723283" lon="14.5870617"><ele>140.2</ele><time>2026-05-02T06:42:58.906Z</time></trkpt><trkpt lat="42.1723917" lon="14.587155"><ele>139.8</ele><time>2026-05-02T06:43:00.906Z</time></trkpt><trkpt lat="42.172455" lon="14.5872483"><ele>139.4</ele><time>2026-05-02T06:43:02.905Z</time></trkpt><trkpt lat="42.1725217" lon="14.5873383"><ele>139.0</ele><time>2026-05-02T06:43:04.905Z</time></trkpt><trkpt lat="42.1725867" lon="14.58743"><ele>138.66666666666669</ele><time>2026-05-02T06:43:06.906Z</time></trkpt><trkpt lat="42.1726533" lon="14.5875217"><ele>138.33333333333334</ele><time>2026-05-02T06:43:08.905Z</time></trkpt><trkpt lat="42.172715" lon="14.5876033"><ele>138.0</ele><time>2026-05-02T06:43:10.906Z</time></trkpt><trkpt lat="42.172775" lon="14.5876767"><ele>137.66666666666666</ele><time>2026-05-02T06:43:12.905Z</time></trkpt><trkpt lat="42.172845" lon="14.5877533"><ele>137.33333333333331</ele><time>2026-05-02T06:43:14.905Z</time></trkpt><trkpt lat="42.172915" lon="14.5878267"><ele>137.0</ele><time>2026-05-02T06:43:16.906Z</time></trkpt><trkpt lat="42.1729867" lon="14.587905"><ele>136.6</ele><time>2026-05-02T06:43:18.906Z</time></trkpt><trkpt lat="42.1730633" lon="14.5879717"><ele>136.2</ele><time>2026-05-02T06:43:20.906Z</time></trkpt><trkpt lat="42.173145" lon="14.58804"><ele>135.8</ele><time>2026-05-02T06:43:22.906Z</time></trkpt><trkpt lat="42.1732283" lon="14.5881117"><ele>135.4</ele><time>2026-05-02T06:43:24.906Z</time></trkpt><trkpt lat="42.1733133" lon="14.58819"><ele>135.0</ele><time>2026-05-02T06:43:26.906Z</time></trkpt><trkpt lat="42.173405" lon="14.5882633"><ele>134.6</ele><time>2026-05-02T06:43:28.905Z</time></trkpt><trkpt lat="42.1734933" lon="14.5883333"><ele>134.2</ele><time>2026-05-02T06:43:30.906Z</time></trkpt><trkpt lat="42.1735783" lon="14.5884033"><ele>133.8</ele><time>2026-05-02T06:43:32.905Z</time></trkpt><trkpt lat="42.17367" lon="14.588465"><ele>133.4</ele><time>2026-05-02T06:43:34.906Z</time></trkpt><trkpt lat="42.1737633" lon="14.5885217"><ele>133.0</ele><time>2026-05-02T06:43:36.905Z</time></trkpt><trkpt lat="42.173865" lon="14.5885667"><ele>133.0</ele><time>2026-05-02T06:43:38.906Z</time></trkpt><trkpt lat="42.173965" lon="14.5886067"><ele>133.0</ele><time>2026-05-02T06:43:40.906Z</time></trkpt><trkpt lat="42.1740533" lon="14.5886483"><ele>133.0</ele><time>2026-05-02T06:43:42.906Z</time></trkpt><trkpt lat="42.1741383" lon="14.588685"><ele>133.0</ele><time>2026-05-02T06:43:44.906Z</time></trkpt><trkpt lat="42.17421" lon="14.5887283"><ele>133.0</ele><time>2026-05-02T06:43:46.905Z</time></trkpt><trkpt lat="42.17427" lon="14.58879"><ele>133.0</ele><time>2026-05-02T06:43:49.906Z</time></trkpt><trkpt lat="42.1743083" lon="14.5888617"><ele>132.5</ele><time>2026-05-02T06:43:52.906Z</time></trkpt><trkpt lat="42.1743567" lon="14.58893"><ele>132.0</ele><time>2026-05-02T06:43:55.906Z</time></trkpt><trkpt lat="42.17441" lon="14.5890367"><ele>131.5</ele><time>2026-05-02T06:43:58.905Z</time></trkpt><trkpt lat="42.17444" lon="14.58912"><ele>131.0</ele><time>2026-05-02T06:44:00.906Z</time></trkpt><trkpt lat="42.1744817" lon="14.58922"><ele>130.5</ele><time>2026-05-02T06:44:03.906Z</time></trkpt><trkpt lat="42.17453" lon="14.5892783"><ele>130.0</ele><time>2026-05-02T06:44:05.906Z</time></trkpt><trkpt lat="42.1745917" lon="14.5893233"><ele>130.0</ele><time>2026-05-02T06:44:07.906Z</time></trkpt><trkpt lat="42.17468" lon="14.5893567"><ele>130.0</ele><time>2026-05-02T06:44:10.906Z</time></trkpt><trkpt lat="42.1747383" lon="14.589305"><ele>130.0</ele><time>2026-05-02T06:44:12.906Z</time></trkpt><trkpt lat="42.1747817" lon="14.5892133"><ele>130.0</ele><time>2026-05-02T06:44:14.906Z</time></trkpt><trkpt lat="42.1748333" lon="14.5891067"><ele>130.0</ele><time>2026-05-02T06:44:16.905Z</time></trkpt><trkpt lat="42.1748967" lon="14.5889867"><ele>130.0</ele><time>2026-05-02T06:44:18.906Z</time></trkpt><trkpt lat="42.174965" lon="14.588875"><ele>129.66666666666669</ele><time>2026-05-02T06:44:20.905Z</time></trkpt><trkpt lat="42.175025" lon="14.5887933"><ele>129.33333333333334</ele><time>2026-05-02T06:44:22.906Z</time></trkpt><trkpt lat="42.1751033" lon="14.588815"><ele>129.0</ele><time>2026-05-02T06:44:25.905Z</time></trkpt><trkpt lat="42.175165" lon="14.5888767"><ele>128.66666666666666</ele><time>2026-05-02T06:44:27.906Z</time></trkpt><trkpt lat="42.17524" lon="14.5889167"><ele>128.33333333333331</ele><time>2026-05-02T06:44:29.906Z</time></trkpt><trkpt lat="42.1753217" lon="14.5889483"><ele>128.0</ele><time>2026-05-02T06:44:31.906Z</time></trkpt><trkpt lat="42.1754067" lon="14.5889733"><ele>128.0</ele><time>2026-05-02T06:44:33.905Z</time></trkpt><trkpt lat="42.1754867" lon="14.5889817"><ele>127.99999999999999</ele><time>2026-05-02T06:44:35.906Z</time></trkpt><trkpt lat="42.175565" lon="14.5889817"><ele>128.0</ele><time>2026-05-02T06:44:37.905Z</time></trkpt><trkpt lat="42.17563" lon="14.5889767"><ele>128.0</ele><time>2026-05-02T06:44:39.905Z</time></trkpt><trkpt lat="42.1756933" lon="14.588925"><ele>127.99999999999999</ele><time>2026-05-02T06:44:42.906Z</time></trkpt><trkpt lat="42.17575" lon="14.5888567"><ele>128.0</ele><time>2026-05-02T06:44:45.906Z</time></trkpt><trkpt lat="42.1757783" lon="14.5887733"><ele>128.0</ele><time>2026-05-02T06:44:48.906Z</time></trkpt><trkpt lat="42.175795" lon="14.5886583"><ele>127.33333333333333</ele><time>2026-05-02T06:44:51.906Z</time></trkpt><trkpt lat="42.17582" lon="14.58855"><ele>126.66666666666666</ele><time>2026-05-02T06:44:54.906Z</time></trkpt><trkpt lat="42.1758433" lon="14.5884683"><ele>126.0</ele><time>2026-05-02T06:44:56.906Z</time></trkpt><trkpt lat="42.1758667" lon="14.5883533"><ele>125.33333333333334</ele><time>2026-05-02T06:44:59.906Z</time></trkpt><trkpt lat="42.175885" lon="14.5882683"><ele>124.66666666666667</ele><time>2026-05-02T06:45:01.905Z</time></trkpt><trkpt lat="42.1759083" lon="14.5881617"><ele>124.0</ele><time>2026-05-02T06:45:04.905Z</time></trkpt><trkpt lat="42.1759483" lon="14.58807"><ele>124.0</ele><time>2026-05-02T06:45:07.905Z</time></trkpt><trkpt lat="42.1760033" lon="14.5880133"><ele>124.00000000000001</ele><time>2026-05-02T06:45:09.905Z</time></trkpt><trkpt lat="42.176065" lon="14.5879683"><ele>124.0</ele><time>2026-05-02T06:45:11.906Z</time></trkpt><trkpt lat="42.1761367" lon="14.5879317"><ele>124.0</ele><time>2026-05-02T06:45:13.906Z</time></trkpt><trkpt lat="42.1762" lon="14.5879033"><ele>124.00000000000001</ele><time>2026-05-02T06:45:15.905Z</time></trkpt><trkpt lat="42.176265" lon="14.5878683"><ele>124.0</ele><time>2026-05-02T06:45:17.906Z</time></trkpt><trkpt lat="42.17632" lon="14.5878167"><ele>124.0</ele><time>2026-05-02T06:45:19.905Z</time></trkpt><trkpt lat="42.176375" lon="14.5877583"><ele>124.66666666666667</ele><time>2026-05-02T06:45:21.905Z</time></trkpt><trkpt lat="42.1764183" lon="14.5876767"><ele>125.33333333333334</ele><time>2026-05-02T06:45:23.905Z</time></trkpt><trkpt lat="42.176455" lon="14.5875867"><ele>126.0</ele><time>2026-05-02T06:45:25.905Z</time></trkpt><trkpt lat="42.1764883" lon="14.5874933"><ele>126.66666666666666</ele><time>2026-05-02T06:45:27.905Z</time></trkpt><trkpt lat="42.1765267" lon="14.5873983"><ele>127.33333333333333</ele><time>2026-05-02T06:45:29.906Z</time></trkpt><trkpt lat="42.17656" lon="14.5873"><ele>128.0</ele><time>2026-05-02T06:45:31.905Z</time></trkpt><trkpt lat="42.1765917" lon="14.5872067"><ele>127.99999999999999</ele><time>2026-05-02T06:45:33.906Z</time></trkpt><trkpt lat="42.1766267" lon="14.5871167"><ele>128.0</ele><time>2026-05-02T06:45:35.906Z</time></trkpt><trkpt lat="42.1766633" lon="14.5870267"><ele>128.0</ele><time>2026-05-02T06:45:37.905Z</time></trkpt><trkpt lat="42.1767033" lon="14.5869333"><ele>128.0</ele><time>2026-05-02T06:45:39.905Z</time></trkpt><trkpt lat="42.1767367" lon="14.5868333"><ele>127.99999999999999</ele><time>2026-05-02T06:45:41.905Z</time></trkpt><trkpt lat="42.1767667" lon="14.5867383"><ele>128.0</ele><time>2026-05-02T06:45:43.905Z</time></trkpt><trkpt lat="42.1767933" lon="14.5866433"><ele>128.33333333333331</ele><time>2026-05-02T06:45:45.906Z</time></trkpt><trkpt lat="42.176825" lon="14.5865567"><ele>128.66666666666666</ele><time>2026-05-02T06:45:47.906Z</time></trkpt><trkpt lat="42.17688" lon="14.5865117"><ele>129.0</ele><time>2026-05-02T06:45:49.905Z</time></trkpt><trkpt lat="42.1769467" lon="14.5865183"><ele>129.33333333333334</ele><time>2026-05-02T06:45:51.906Z</time></trkpt><trkpt lat="42.1770317" lon="14.5865433"><ele>129.66666666666669</ele><time>2026-05-02T06:45:53.906Z</time></trkpt><trkpt lat="42.1771167" lon="14.586565"><ele>130.0</ele><time>2026-05-02T06:45:55.906Z</time></trkpt><trkpt lat="42.1771983" lon="14.586585"><ele>130.0</ele><time>2026-05-02T06:45:57.906Z</time></trkpt><trkpt lat="42.1772733" lon="14.5866"><ele>130.0</ele><time>2026-05-02T06:45:59.905Z</time></trkpt><trkpt lat="42.1773533" lon="14.586605"><ele>130.0</ele><time>2026-05-02T06:46:01.905Z</time></trkpt><trkpt lat="42.17744" lon="14.586615"><ele>130.0</ele><time>2026-05-02T06:46:03.906Z</time></trkpt><trkpt lat="42.17752" lon="14.58665"><ele>130.0</ele><time>2026-05-02T06:46:05.906Z</time></trkpt><trkpt lat="42.177585" lon="14.586715"><ele>130.0</ele><time>2026-05-02T06:46:07.906Z</time></trkpt><trkpt lat="42.17764" lon="14.5867867"><ele>129.66666666666669</ele><time>2026-05-02T06:46:09.905Z</time></trkpt><trkpt lat="42.1777" lon="14.58686"><ele>129.33333333333334</ele><time>2026-05-02T06:46:11.906Z</time></trkpt><trkpt lat="42.177765" lon="14.5869317"><ele>129.0</ele><time>2026-05-02T06:46:13.906Z</time></trkpt><trkpt lat="42.1778383" lon="14.5869917"><ele>128.66666666666666</ele><time>2026-05-02T06:46:15.905Z</time></trkpt><trkpt lat="42.1779167" lon="14.587035"><ele>128.33333333333331</ele><time>2026-05-02T06:46:17.905Z</time></trkpt><trkpt lat="42.1779967" lon="14.5870717"><ele>128.0</ele><time>2026-05-02T06:46:19.906Z</time></trkpt><trkpt lat="42.1780767" lon="14.5871083"><ele>127.83333333333333</ele><time>2026-05-02T06:46:21.906Z</time></trkpt><trkpt lat="42.1781517" lon="14.5871417"><ele>127.66666666666666</ele><time>2026-05-02T06:46:23.906Z</time></trkpt><trkpt lat="42.17823" lon="14.5871783"><ele>127.5</ele><time>2026-05-02T06:46:25.906Z</time></trkpt><trkpt lat="42.1783133" lon="14.5872167"><ele>127.33333333333334</ele><time>2026-05-02T06:46:27.906Z</time></trkpt><trkpt lat="42.1783967" lon="14.5872617"><ele>127.16666666666667</ele><time>2026-05-02T06:46:29.906Z</time></trkpt><trkpt lat="42.1784833" lon="14.5873083"><ele>127.0</ele><time>2026-05-02T06:46:31.906Z</time></trkpt><trkpt lat="42.1785617" lon="14.58735"><ele>126.83333333333334</ele><time>2026-05-02T06:46:33.906Z</time></trkpt><trkpt lat="42.1786367" lon="14.587395"><ele>126.66666666666667</ele><time>2026-05-02T06:46:35.905Z</time></trkpt><trkpt lat="42.178705" lon="14.5874417"><ele>126.5</ele><time>2026-05-02T06:46:37.905Z</time></trkpt><trkpt lat="42.1787717" lon="14.5875083"><ele>126.33333333333334</ele><time>2026-05-02T06:46:39.906Z</time></trkpt><trkpt lat="42.1788383" lon="14.587585"><ele>126.16666666666667</ele><time>2026-05-02T06:46:41.906Z</time></trkpt><trkpt lat="42.1789267" lon="14.5876533"><ele>126.0</ele><time>2026-05-02T06:46:43.906Z</time></trkpt><trkpt lat="42.179005" lon="14.5877233"><ele>125.8</ele><time>2026-05-02T06:46:45.905Z</time></trkpt><trkpt lat="42.1790783" lon="14.587795"><ele>125.6</ele><time>2026-05-02T06:46:47.905Z</time></trkpt><trkpt lat="42.1791583" lon="14.5878617"><ele>125.4</ele><time>2026-05-02T06:46:49.906Z</time></trkpt><trkpt lat="42.1792383" lon="14.587925"><ele>125.2</ele><time>2026-05-02T06:46:51.905Z</time></trkpt><trkpt lat="42.1793183" lon="14.5879783"><ele>125.0</ele><time>2026-05-02T06:46:53.906Z</time></trkpt><trkpt lat="42.1794033" lon="14.5880217"><ele>124.66666666666666</ele><time>2026-05-02T06:46:55.906Z</time></trkpt><trkpt lat="42.1794883" lon="14.5880617"><ele>124.33333333333333</ele><time>2026-05-02T06:46:57.905Z</time></trkpt><trkpt lat="42.179575" lon="14.5881033"><ele>124.0</ele><time>2026-05-02T06:46:59.906Z</time></trkpt><trkpt lat="42.1796567" lon="14.5881383"><ele>123.66666666666666</ele><time>2026-05-02T06:47:01.906Z</time></trkpt><trkpt lat="42.1797383" lon="14.5881767"><ele>123.33333333333333</ele><time>2026-05-02T06:47:03.906Z</time></trkpt><trkpt lat="42.1798183" lon="14.5882133"><ele>123.0</ele><time>2026-05-02T06:47:05.906Z</time></trkpt><trkpt lat="42.1798933" lon="14.5882367"><ele>123.0</ele><time>2026-05-02T06:47:07.905Z</time></trkpt><trkpt lat="42.1799667" lon="14.58827"><ele>123.0</ele><time>2026-05-02T06:47:09.906Z</time></trkpt><trkpt lat="42.1800417" lon="14.5883067"><ele>123.0</ele><time>2026-05-02T06:47:11.905Z</time></trkpt><trkpt lat="42.1801183" lon="14.5883417"><ele>123.0</ele><time>2026-05-02T06:47:13.905Z</time></trkpt><trkpt lat="42.180195" lon="14.5883683"><ele>123.0</ele><time>2026-05-02T06:47:15.906Z</time></trkpt><trkpt lat="42.18028" lon="14.588395"><ele>123.0</ele><time>2026-05-02T06:47:17.906Z</time></trkpt><trkpt lat="42.1803817" lon="14.5884217"><ele>123.0</ele><time>2026-05-02T06:47:19.906Z</time></trkpt><trkpt lat="42.1804717" lon="14.5884383"><ele>123.0</ele><time>2026-05-02T06:47:21.906Z</time></trkpt><trkpt lat="42.180555" lon="14.5884583"><ele>123.0</ele><time>2026-05-02T06:47:23.905Z</time></trkpt><trkpt lat="42.1806433" lon="14.588475"><ele>123.0</ele><time>2026-05-02T06:47:25.905Z</time></trkpt><trkpt lat="42.18073" lon="14.5884933"><ele>123.0</ele><time>2026-05-02T06:47:27.905Z</time></trkpt><trkpt lat="42.1808183" lon="14.5885217"><ele>123.0</ele><time>2026-05-02T06:47:29.906Z</time></trkpt><trkpt lat="42.1809" lon="14.5885617"><ele>122.4</ele><time>2026-05-02T06:47:31.905Z</time></trkpt><trkpt lat="42.1809833" lon="14.5886083"><ele>121.80000000000001</ele><time>2026-05-02T06:47:33.906Z</time></trkpt><trkpt lat="42.18107" lon="14.5886633"><ele>121.2</ele><time>2026-05-02T06:47:35.905Z</time></trkpt><trkpt lat="42.1811467" lon="14.5887317"><ele>120.6</ele><time>2026-05-02T06:47:37.906Z</time></trkpt><trkpt lat="42.1812217" lon="14.5888117"><ele>120.0</ele><time>2026-05-02T06:47:39.905Z</time></trkpt><trkpt lat="42.1812883" lon="14.5889"><ele>119.8</ele><time>2026-05-02T06:47:41.906Z</time></trkpt><trkpt lat="42.1813483" lon="14.5889967"><ele>119.6</ele><time>2026-05-02T06:47:43.905Z</time></trkpt><trkpt lat="42.18141" lon="14.5891067"><ele>119.4</ele><time>2026-05-02T06:47:45.906Z</time></trkpt><trkpt lat="42.1814717" lon="14.5892117"><ele>119.2</ele><time>2026-05-02T06:47:47.905Z</time></trkpt><trkpt lat="42.1815533" lon="14.5893117"><ele>119.0</ele><time>2026-05-02T06:47:49.906Z</time></trkpt><trkpt lat="42.1816317" lon="14.5893933"><ele>118.6</ele><time>2026-05-02T06:47:51.906Z</time></trkpt><trkpt lat="42.1817133" lon="14.5894633"><ele>118.2</ele><time>2026-05-02T06:47:53.906Z</time></trkpt><trkpt lat="42.1817883" lon="14.5895317"><ele>117.79999999999998</ele><time>2026-05-02T06:47:55.906Z</time></trkpt><trkpt lat="42.1818683" lon="14.5895967"><ele>117.39999999999999</ele><time>2026-05-02T06:47:57.906Z</time></trkpt><trkpt lat="42.1819433" lon="14.5896817"><ele>117.0</ele><time>2026-05-02T06:47:59.906Z</time></trkpt><trkpt lat="42.1820183" lon="14.5897667"><ele>116.6</ele><time>2026-05-02T06:48:01.906Z</time></trkpt><trkpt lat="42.1820917" lon="14.5898533"><ele>116.19999999999999</ele><time>2026-05-02T06:48:03.906Z</time></trkpt><trkpt lat="42.1821733" lon="14.5899367"><ele>115.8</ele><time>2026-05-02T06:48:05.905Z</time></trkpt><trkpt lat="42.1822483" lon="14.5900233"><ele>115.4</ele><time>2026-05-02T06:48:07.906Z</time></trkpt><trkpt lat="42.182325" lon="14.5901"><ele>115.0</ele><time>2026-05-02T06:48:09.906Z</time></trkpt><trkpt lat="42.1824067" lon="14.5901817"><ele>114.6</ele><time>2026-05-02T06:48:11.906Z</time></trkpt><trkpt lat="42.1824917" lon="14.5902617"><ele>114.2</ele><time>2026-05-02T06:48:13.906Z</time></trkpt><trkpt lat="42.182575" lon="14.5903367"><ele>113.80000000000001</ele><time>2026-05-02T06:48:15.906Z</time></trkpt><trkpt lat="42.1826633" lon="14.590405"><ele>113.4</ele><time>2026-05-02T06:48:17.906Z</time></trkpt><trkpt lat="42.1827517" lon="14.5904717"><ele>113.0</ele><time>2026-05-02T06:48:19.906Z</time></trkpt><trkpt lat="42.1828433" lon="14.5905367"><ele>113.0</ele><time>2026-05-02T06:48:21.906Z</time></trkpt><trkpt lat="42.18294" lon="14.5906017"><ele>113.00000000000001</ele><time>2026-05-02T06:48:23.906Z</time></trkpt><trkpt lat="42.1830367" lon="14.59066"><ele>113.00000000000001</ele><time>2026-05-02T06:48:25.905Z</time></trkpt><trkpt lat="42.1831283" lon="14.59072"><ele>113.0</ele><time>2026-05-02T06:48:27.906Z</time></trkpt><trkpt lat="42.1832083" lon="14.5907867"><ele>113.0</ele><time>2026-05-02T06:48:29.906Z</time></trkpt><trkpt lat="42.1832517" lon="14.59088"><ele>112.66666666666666</ele><time>2026-05-02T06:48:31.906Z</time></trkpt><trkpt lat="42.1832717" lon="14.5909917"><ele>112.33333333333333</ele><time>2026-05-02T06:48:33.906Z</time></trkpt><trkpt lat="42.1832583" lon="14.5911033"><ele>112.0</ele><time>2026-05-02T06:48:35.905Z</time></trkpt><trkpt lat="42.1832283" lon="14.591215"><ele>111.66666666666666</ele><time>2026-05-02T06:48:37.906Z</time></trkpt><trkpt lat="42.1831967" lon="14.5913233"><ele>111.33333333333333</ele><time>2026-05-02T06:48:39.906Z</time></trkpt><trkpt lat="42.1831633" lon="14.5914283"><ele>111.0</ele><time>2026-05-02T06:48:41.905Z</time></trkpt><trkpt lat="42.1831283" lon="14.591535"><ele>111.0</ele><time>2026-05-02T06:48:43.906Z</time></trkpt><trkpt lat="42.183095" lon="14.591635"><ele>111.0</ele><time>2026-05-02T06:48:45.906Z</time></trkpt><trkpt lat="42.1830617" lon="14.5917333"><ele>111.0</ele><time>2026-05-02T06:48:47.906Z</time></trkpt><trkpt lat="42.1830283" lon="14.591825"><ele>111.0</ele><time>2026-05-02T06:48:49.906Z</time></trkpt><trkpt lat="42.182995" lon="14.5919267"><ele>111.0</ele><time>2026-05-02T06:48:51.906Z</time></trkpt><trkpt lat="42.1829883" lon="14.5920233"><ele>111.0</ele><time>2026-05-02T06:48:53.906Z</time></trkpt><trkpt lat="42.1830367" lon="14.592145"><ele>110.6</ele><time>2026-05-02T06:48:55.906Z</time></trkpt><trkpt lat="42.1831233" lon="14.5922183"><ele>110.19999999999999</ele><time>2026-05-02T06:48:57.906Z</time></trkpt><trkpt lat="42.1832167" lon="14.592275"><ele>109.80000000000001</ele><time>2026-05-02T06:48:59.906Z</time></trkpt><trkpt lat="42.1833117" lon="14.592315"><ele>109.4</ele><time>2026-05-02T06:49:01.906Z</time></trkpt><trkpt lat="42.183395" lon="14.5923533"><ele>109.0</ele><time>2026-05-02T06:49:03.906Z</time></trkpt><trkpt lat="42.1834817" lon="14.5923917"><ele>108.66666666666667</ele><time>2026-05-02T06:49:05.905Z</time></trkpt><trkpt lat="42.1835583" lon="14.59243"><ele>108.33333333333334</ele><time>2026-05-02T06:49:07.906Z</time></trkpt><trkpt lat="42.1836433" lon="14.5924733"><ele>108.0</ele><time>2026-05-02T06:49:09.906Z</time></trkpt><trkpt lat="42.1837267" lon="14.5925083"><ele>107.66666666666666</ele><time>2026-05-02T06:49:11.905Z</time></trkpt><trkpt lat="42.183805" lon="14.592545"><ele>107.33333333333333</ele><time>2026-05-02T06:49:13.905Z</time></trkpt><trkpt lat="42.1838817" lon="14.59258"><ele>107.0</ele><time>2026-05-02T06:49:15.906Z</time></trkpt><trkpt lat="42.1839517" lon="14.5926183"><ele>107.00000000000001</ele><time>2026-05-02T06:49:17.906Z</time></trkpt><trkpt lat="42.1840233" lon="14.5926467"><ele>107.0</ele><time>2026-05-02T06:49:19.906Z</time></trkpt><trkpt lat="42.184095" lon="14.5926833"><ele>107.0</ele><time>2026-05-02T06:49:21.906Z</time></trkpt><trkpt lat="42.184165" lon="14.5927217"><ele>107.0</ele><time>2026-05-02T06:49:23.906Z</time></trkpt><trkpt lat="42.184225" lon="14.5927533"><ele>107.0</ele><time>2026-05-02T06:49:25.906Z</time></trkpt><trkpt lat="42.1842917" lon="14.5927867"><ele>107.00000000000001</ele><time>2026-05-02T06:49:27.905Z</time></trkpt><trkpt lat="42.1843633" lon="14.5928217"><ele>107.0</ele><time>2026-05-02T06:49:29.905Z</time></trkpt><trkpt lat="42.1844367" lon="14.59287"><ele>106.83333333333333</ele><time>2026-05-02T06:49:31.905Z</time></trkpt><trkpt lat="42.1845133" lon="14.5929133"><ele>106.66666666666666</ele><time>2026-05-02T06:49:33.906Z</time></trkpt><trkpt lat="42.1845883" lon="14.5929617"><ele>106.5</ele><time>2026-05-02T06:49:35.906Z</time></trkpt><trkpt lat="42.1846667" lon="14.593015"><ele>106.33333333333334</ele><time>2026-05-02T06:49:37.906Z</time></trkpt><trkpt lat="42.1847533" lon="14.5930767"><ele>106.16666666666667</ele><time>2026-05-02T06:49:39.906Z</time></trkpt><trkpt lat="42.1848367" lon="14.593135"><ele>106.0</ele><time>2026-05-02T06:49:41.906Z</time></trkpt><trkpt lat="42.1849117" lon="14.5931867"><ele>105.33333333333334</ele><time>2026-05-02T06:49:43.906Z</time></trkpt><trkpt lat="42.1849883" lon="14.5932383"><ele>104.66666666666667</ele><time>2026-05-02T06:49:45.906Z</time></trkpt><trkpt lat="42.1850617" lon="14.5932883"><ele>104.0</ele><time>2026-05-02T06:49:47.905Z</time></trkpt><trkpt lat="42.1851383" lon="14.5933333"><ele>103.33333333333334</ele><time>2026-05-02T06:49:49.905Z</time></trkpt><trkpt lat="42.18523" lon="14.5933817"><ele>102.66666666666667</ele><time>2026-05-02T06:49:51.906Z</time></trkpt><trkpt lat="42.185315" lon="14.5934267"><ele>102.0</ele><time>2026-05-02T06:49:53.905Z</time></trkpt><trkpt lat="42.185395" lon="14.593465"><ele>102.0</ele><time>2026-05-02T06:49:55.906Z</time></trkpt><trkpt lat="42.1854733" lon="14.5934983"><ele>102.0</ele><time>2026-05-02T06:49:57.906Z</time></trkpt><trkpt lat="42.185555" lon="14.59353"><ele>102.0</ele><time>2026-05-02T06:49:59.906Z</time></trkpt><trkpt lat="42.185635" lon="14.59356"><ele>102.0</ele><time>2026-05-02T06:50:01.905Z</time></trkpt><trkpt lat="42.18571" lon="14.5935933"><ele>102.0</ele><time>2026-05-02T06:50:03.906Z</time></trkpt><trkpt lat="42.1857883" lon="14.5936233"><ele>102.0</ele><time>2026-05-02T06:50:05.905Z</time></trkpt><trkpt lat="42.185865" lon="14.593655"><ele>101.33333333333333</ele><time>2026-05-02T06:50:07.906Z</time></trkpt><trkpt lat="42.18595" lon="14.5936833"><ele>100.66666666666666</ele><time>2026-05-02T06:50:09.906Z</time></trkpt><trkpt lat="42.1860333" lon="14.593715"><ele>100.0</ele><time>2026-05-02T06:50:11.905Z</time></trkpt><trkpt lat="42.1861117" lon="14.5937467"><ele>99.33333333333333</ele><time>2026-05-02T06:50:13.906Z</time></trkpt><trkpt lat="42.1861917" lon="14.593785"><ele>98.66666666666666</ele><time>2026-05-02T06:50:15.906Z</time></trkpt><trkpt lat="42.1862767" lon="14.5938033"><ele>98.0</ele><time>2026-05-02T06:50:17.906Z</time></trkpt><trkpt lat="42.1863517" lon="14.5938333"><ele>97.99999999999999</ele><time>2026-05-02T06:50:19.906Z</time></trkpt><trkpt lat="42.1864167" lon="14.5938517"><ele>98.0</ele><time>2026-05-02T06:50:21.905Z</time></trkpt><trkpt lat="42.1865" lon="14.5938683"><ele>98.0</ele><time>2026-05-02T06:50:24.906Z</time></trkpt><trkpt lat="42.1865767" lon="14.59387"><ele>98.0</ele><time>2026-05-02T06:50:28.905Z</time></trkpt><trkpt lat="42.18665" lon="14.5938667"><ele>97.99999999999999</ele><time>2026-05-02T06:50:31.905Z</time></trkpt><trkpt lat="42.1867267" lon="14.593895"><ele>98.0</ele><time>2026-05-02T06:50:34.905Z</time></trkpt><trkpt lat="42.1868133" lon="14.5939317"><ele>97.42857142857143</ele><time>2026-05-02T06:50:37.906Z</time></trkpt><trkpt lat="42.1868967" lon="14.5939583"><ele>96.85714285714286</ele><time>2026-05-02T06:50:40.905Z</time></trkpt><trkpt lat="42.1869867" lon="14.5939567"><ele>96.28571428571428</ele><time>2026-05-02T06:50:43.905Z</time></trkpt><trkpt lat="42.18705" lon="14.593945"><ele>95.71428571428572</ele><time>2026-05-02T06:50:45.905Z</time></trkpt><trkpt lat="42.1871183" lon="14.593945"><ele>95.14285714285714</ele><time>2026-05-02T06:50:47.906Z</time></trkpt><trkpt lat="42.1871867" lon="14.5939517"><ele>94.57142857142857</ele><time>2026-05-02T06:50:49.905Z</time></trkpt><trkpt lat="42.18725" lon="14.5939583"><ele>94.0</ele><time>2026-05-02T06:50:51.906Z</time></trkpt><trkpt lat="42.18732" lon="14.5939683"><ele>93.0</ele><time>2026-05-02T06:50:53.906Z</time></trkpt><trkpt lat="42.1874067" lon="14.5939633"><ele>92.0</ele><time>2026-05-02T06:50:55.906Z</time></trkpt><trkpt lat="42.1875" lon="14.5939667"><ele>91.0</ele><time>2026-05-02T06:50:57.906Z</time></trkpt><trkpt lat="42.1875817" lon="14.59396"><ele>90.0</ele><time>2026-05-02T06:50:59.906Z</time></trkpt><trkpt lat="42.187665" lon="14.5939367"><ele>89.0</ele><time>2026-05-02T06:51:01.906Z</time></trkpt><trkpt lat="42.1877567" lon="14.593905"><ele>88.0</ele><time>2026-05-02T06:51:03.906Z</time></trkpt><trkpt lat="42.1878533" lon="14.5938667"><ele>88.0</ele><time>2026-05-02T06:51:05.906Z</time></trkpt><trkpt lat="42.1879467" lon="14.5938333"><ele>88.0</ele><time>2026-05-02T06:51:07.906Z</time></trkpt><trkpt lat="42.188045" lon="14.5938567"><ele>88.0</ele><time>2026-05-02T06:51:09.906Z</time></trkpt><trkpt lat="42.1881233" lon="14.5938433"><ele>88.0</ele><time>2026-05-02T06:51:10.906Z</time></trkpt><trkpt lat="42.1882033" lon="14.5938267"><ele>88.0</ele><time>2026-05-02T06:51:11.905Z</time></trkpt><trkpt lat="42.1882833" lon="14.5938167"><ele>88.0</ele><time>2026-05-02T06:51:12.906Z</time></trkpt><trkpt lat="42.1883567" lon="14.5938133"><ele>86.60000000000001</ele><time>2026-05-02T06:51:13.906Z</time></trkpt><trkpt lat="42.1884217" lon="14.5938167"><ele>85.2</ele><time>2026-05-02T06:51:14.905Z</time></trkpt><trkpt lat="42.1885333" lon="14.59385"><ele>83.8</ele><time>2026-05-02T06:51:16.906Z</time></trkpt><trkpt lat="42.1886267" lon="14.59391"><ele>82.4</ele><time>2026-05-02T06:51:18.906Z</time></trkpt><trkpt lat="42.1887083" lon="14.59395"><ele>81.0</ele><time>2026-05-02T06:51:20.905Z</time></trkpt><trkpt lat="42.1888267" lon="14.5939717"><ele>81.0</ele><time>2026-05-02T06:51:22.906Z</time></trkpt><trkpt lat="42.1888933" lon="14.5939783"><ele>81.0</ele><time>2026-05-02T06:51:23.906Z</time></trkpt><trkpt lat="42.18897" lon="14.5939833"><ele>81.0</ele><time>2026-05-02T06:51:24.905Z</time></trkpt><trkpt lat="42.18904" lon="14.59398"><ele>81.0</ele><time>2026-05-02T06:51:25.905Z</time></trkpt><trkpt lat="42.1891083" lon="14.5939783"><ele>81.0</ele><time>2026-05-02T06:51:26.905Z</time></trkpt><trkpt lat="42.189175" lon="14.593985"><ele>81.0</ele><time>2026-05-02T06:51:27.906Z</time></trkpt><trkpt lat="42.1892867" lon="14.5940283"><ele>80.2</ele><time>2026-05-02T06:51:29.906Z</time></trkpt><trkpt lat="42.189385" lon="14.5940883"><ele>79.39999999999999</ele><time>2026-05-02T06:51:31.906Z</time></trkpt><trkpt lat="42.1894833" lon="14.5941633"><ele>78.6</ele><time>2026-05-02T06:51:33.906Z</time></trkpt><trkpt lat="42.1895833" lon="14.594195"><ele>77.8</ele><time>2026-05-02T06:51:35.906Z</time></trkpt><trkpt lat="42.1896717" lon="14.5942067"><ele>77.0</ele><time>2026-05-02T06:51:37.906Z</time></trkpt><trkpt lat="42.1897633" lon="14.5942033"><ele>77.0</ele><time>2026-05-02T06:51:39.906Z</time></trkpt><trkpt lat="42.1898367" lon="14.5942433"><ele>77.0</ele><time>2026-05-02T06:51:41.906Z</time></trkpt><trkpt lat="42.1899017" lon="14.594325"><ele>77.0</ele><time>2026-05-02T06:51:43.905Z</time></trkpt><trkpt lat="42.1899383" lon="14.5944033"><ele>77.0</ele><time>2026-05-02T06:51:45.906Z</time></trkpt><trkpt lat="42.1899767" lon="14.5944867"><ele>77.0</ele><time>2026-05-02T06:51:48.905Z</time></trkpt><trkpt lat="42.190025" lon="14.5945533"><ele>77.0</ele><time>2026-05-02T06:51:51.906Z</time></trkpt><trkpt lat="42.1900883" lon="14.5946583"><ele>75.4</ele><time>2026-05-02T06:51:54.906Z</time></trkpt><trkpt lat="42.19013" lon="14.5947517"><ele>73.80000000000001</ele><time>2026-05-02T06:51:56.905Z</time></trkpt><trkpt lat="42.1901567" lon="14.5948483"><ele>72.2</ele><time>2026-05-02T06:51:58.905Z</time></trkpt><trkpt lat="42.1901667" lon="14.5949817"><ele>70.60000000000001</ele><time>2026-05-02T06:52:00.906Z</time></trkpt><trkpt lat="42.190175" lon="14.5951233"><ele>69.0</ele><time>2026-05-02T06:52:02.905Z</time></trkpt><trkpt lat="42.1901717" lon="14.5952617"><ele>69.66666666666667</ele><time>2026-05-02T06:52:04.905Z</time></trkpt><trkpt lat="42.19017" lon="14.595395"><ele>70.33333333333333</ele><time>2026-05-02T06:52:06.905Z</time></trkpt><trkpt lat="42.190165" lon="14.5955267"><ele>71.0</ele><time>2026-05-02T06:52:08.906Z</time></trkpt><trkpt lat="42.1901667" lon="14.595645"><ele>71.66666666666666</ele><time>2026-05-02T06:52:10.906Z</time></trkpt><trkpt lat="42.1901617" lon="14.59575"><ele>72.33333333333333</ele><time>2026-05-02T06:52:12.906Z</time></trkpt><trkpt lat="42.1901467" lon="14.5958567"><ele>73.0</ele><time>2026-05-02T06:52:14.905Z</time></trkpt><trkpt lat="42.1901517" lon="14.5959583"><ele>73.0</ele><time>2026-05-02T06:52:16.905Z</time></trkpt><trkpt lat="42.1901467" lon="14.59605"><ele>73.0</ele><time>2026-05-02T06:52:18.905Z</time></trkpt><trkpt lat="42.1901533" lon="14.5961367"><ele>73.0</ele><time>2026-05-02T06:52:20.906Z</time></trkpt><trkpt lat="42.1901617" lon="14.596225"><ele>73.0</ele><time>2026-05-02T06:52:22.906Z</time></trkpt><trkpt lat="42.1901317" lon="14.59632"><ele>73.0</ele><time>2026-05-02T06:52:24.905Z</time></trkpt><trkpt lat="42.19014" lon="14.59642"><ele>73.0</ele><time>2026-05-02T06:52:26.906Z</time></trkpt><trkpt lat="42.19015" lon="14.5965233"><ele>73.0</ele><time>2026-05-02T06:52:28.906Z</time></trkpt><trkpt lat="42.1901533" lon="14.5966417"><ele>73.5</ele><time>2026-05-02T06:52:30.906Z</time></trkpt><trkpt lat="42.1901717" lon="14.5967633"><ele>74.0</ele><time>2026-05-02T06:52:32.906Z</time></trkpt><trkpt lat="42.19018" lon="14.59686"><ele>74.5</ele><time>2026-05-02T06:52:34.906Z</time></trkpt><trkpt lat="42.1901683" lon="14.596955"><ele>75.0</ele><time>2026-05-02T06:52:36.905Z</time></trkpt><trkpt lat="42.1901633" lon="14.597055"><ele>75.5</ele><time>2026-05-02T06:52:39.906Z</time></trkpt><trkpt lat="42.1901817" lon="14.59715"><ele>76.0</ele><time>2026-05-02T06:52:42.906Z</time></trkpt><trkpt lat="42.1902217" lon="14.5972333"><ele>76.5</ele><time>2026-05-02T06:52:44.906Z</time></trkpt><trkpt lat="42.1902583" lon="14.597315"><ele>77.0</ele><time>2026-05-02T06:52:46.906Z</time></trkpt><trkpt lat="42.190295" lon="14.5974033"><ele>77.5</ele><time>2026-05-02T06:52:48.906Z</time></trkpt><trkpt lat="42.1903267" lon="14.59754"><ele>78.0</ele><time>2026-05-02T06:52:50.906Z</time></trkpt><trkpt lat="42.1903483" lon="14.597635"><ele>78.5</ele><time>2026-05-02T06:52:53.906Z</time></trkpt><trkpt lat="42.19035" lon="14.5977417"><ele>79.0</ele><time>2026-05-02T06:52:57.906Z</time></trkpt><trkpt lat="42.190345" lon="14.59786"><ele>79.16666666666666</ele><time>2026-05-02T06:53:00.905Z</time></trkpt><trkpt lat="42.1903517" lon="14.59798"><ele>79.33333333333333</ele><time>2026-05-02T06:53:02.906Z</time></trkpt><trkpt lat="42.1903517" lon="14.5980883"><ele>79.5</ele><time>2026-05-02T06:53:04.906Z</time></trkpt><trkpt lat="42.1903333" lon="14.5981833"><ele>79.66666666666667</ele><time>2026-05-02T06:53:06.906Z</time></trkpt><trkpt lat="42.1903117" lon="14.5983033"><ele>79.83333333333334</ele><time>2026-05-02T06:53:09.906Z</time></trkpt><trkpt lat="42.1903233" lon="14.5984017"><ele>80.0</ele><time>2026-05-02T06:53:11.906Z</time></trkpt><trkpt lat="42.19033" lon="14.598495"><ele>80.0</ele><time>2026-05-02T06:53:13.906Z</time></trkpt><trkpt lat="42.19034" lon="14.5985983"><ele>80.0</ele><time>2026-05-02T06:53:14.906Z</time></trkpt><trkpt lat="42.1903233" lon="14.5987367"><ele>80.0</ele><time>2026-05-02T06:53:16.906Z</time></trkpt><trkpt lat="42.1902867" lon="14.5988683"><ele>80.0</ele><time>2026-05-02T06:53:18.906Z</time></trkpt><trkpt lat="42.190235" lon="14.59903"><ele>80.0</ele><time>2026-05-02T06:53:20.906Z</time></trkpt><trkpt lat="42.1902117" lon="14.59912"><ele>78.33333333333334</ele><time>2026-05-02T06:53:21.905Z</time></trkpt><trkpt lat="42.19019" lon="14.5992117"><ele>76.66666666666667</ele><time>2026-05-02T06:53:22.905Z</time></trkpt><trkpt lat="42.19016" lon="14.5993667"><ele>75.0</ele><time>2026-05-02T06:53:24.905Z</time></trkpt><trkpt lat="42.19014" lon="14.5995033"><ele>73.33333333333333</ele><time>2026-05-02T06:53:26.906Z</time></trkpt><trkpt lat="42.190115" lon="14.5996017"><ele>71.66666666666666</ele><time>2026-05-02T06:53:28.905Z</time></trkpt><trkpt lat="42.1900717" lon="14.5996817"><ele>70.0</ele><time>2026-05-02T06:53:30.906Z</time></trkpt><trkpt lat="42.1900167" lon="14.5997633"><ele>68.2</ele><time>2026-05-02T06:53:33.906Z</time></trkpt><trkpt lat="42.1899583" lon="14.5998183"><ele>66.4</ele><time>2026-05-02T06:53:36.906Z</time></trkpt><trkpt lat="42.1899033" lon="14.5998967"><ele>64.6</ele><time>2026-05-02T06:53:38.905Z</time></trkpt><trkpt lat="42.1899783" lon="14.5999767"><ele>62.8</ele><time>2026-05-02T06:53:41.906Z</time></trkpt><trkpt lat="42.19007" lon="14.60003"><ele>61.0</ele><time>2026-05-02T06:53:43.905Z</time></trkpt><trkpt lat="42.1901667" lon="14.60009"><ele>60.99999999999999</ele><time>2026-05-02T06:53:45.905Z</time></trkpt><trkpt lat="42.1902583" lon="14.60017"><ele>61.0</ele><time>2026-05-02T06:53:47.905Z</time></trkpt><trkpt lat="42.1903233" lon="14.6002317"><ele>61.0</ele><time>2026-05-02T06:53:49.906Z</time></trkpt><trkpt lat="42.190345" lon="14.6003133"><ele>61.0</ele><time>2026-05-02T06:53:51.906Z</time></trkpt><trkpt lat="42.19033" lon="14.6004033"><ele>60.99999999999999</ele><time>2026-05-02T06:53:53.906Z</time></trkpt><trkpt lat="42.190335" lon="14.6005133"><ele>61.0</ele><time>2026-05-02T06:53:55.905Z</time></trkpt><trkpt lat="42.1903617" lon="14.6006317"><ele>62.8</ele><time>2026-05-02T06:53:57.906Z</time></trkpt><trkpt lat="42.1903833" lon="14.6007733"><ele>64.6</ele><time>2026-05-02T06:53:59.906Z</time></trkpt><trkpt lat="42.1903967" lon="14.6008567"><ele>66.4</ele><time>2026-05-02T06:54:00.906Z</time></trkpt><trkpt lat="42.19041" lon="14.601005"><ele>68.2</ele><time>2026-05-02T06:54:02.906Z</time></trkpt><trkpt lat="42.1904033" lon="14.60115"><ele>70.0</ele><time>2026-05-02T06:54:04.906Z</time></trkpt><trkpt lat="42.19038" lon="14.6012817"><ele>70.6</ele><time>2026-05-02T06:54:06.905Z</time></trkpt><trkpt lat="42.1903683" lon="14.6014033"><ele>71.2</ele><time>2026-05-02T06:54:08.906Z</time></trkpt><trkpt lat="42.1903617" lon="14.601525"><ele>71.8</ele><time>2026-05-02T06:54:10.906Z</time></trkpt><trkpt lat="42.1903517" lon="14.60163"><ele>72.4</ele><time>2026-05-02T06:54:13.906Z</time></trkpt><trkpt lat="42.1903733" lon="14.601715"><ele>73.0</ele><time>2026-05-02T06:54:21.906Z</time></trkpt><trkpt lat="42.1904167" lon="14.6019133"><ele>73.0</ele><time>2026-05-02T06:54:29.906Z</time></trkpt><trkpt lat="42.1904283" lon="14.6019983"><ele>73.0</ele><time>2026-05-02T06:54:31.905Z</time></trkpt><trkpt lat="42.1904283" lon="14.6020833"><ele>73.0</ele><time>2026-05-02T06:54:33.906Z</time></trkpt><trkpt lat="42.1904317" lon="14.6021883"><ele>73.0</ele><time>2026-05-02T06:54:35.906Z</time></trkpt><trkpt lat="42.1903817" lon="14.6022983"><ele>73.0</ele><time>2026-05-02T06:54:37.906Z</time></trkpt><trkpt lat="42.190345" lon="14.6024717"><ele>73.0</ele><time>2026-05-02T06:54:39.906Z</time></trkpt><trkpt lat="42.1903517" lon="14.602565"><ele>72.5</ele><time>2026-05-02T06:54:40.906Z</time></trkpt><trkpt lat="42.190355" lon="14.60266"><ele>72.0</ele><time>2026-05-02T06:54:41.906Z</time></trkpt><trkpt lat="42.19034" lon="14.6027767"><ele>71.5</ele><time>2026-05-02T06:54:43.906Z</time></trkpt><trkpt lat="42.190325" lon="14.6028917"><ele>71.0</ele><time>2026-05-02T06:54:45.906Z</time></trkpt><trkpt lat="42.1903167" lon="14.6030017"><ele>70.5</ele><time>2026-05-02T06:54:47.906Z</time></trkpt><trkpt lat="42.19032" lon="14.6030933"><ele>70.0</ele><time>2026-05-02T06:54:49.906Z</time></trkpt><trkpt lat="42.1903183" lon="14.60318"><ele>67.5</ele><time>2026-05-02T06:54:51.906Z</time></trkpt><trkpt lat="42.1902867" lon="14.60327"><ele>65.0</ele><time>2026-05-02T06:54:53.906Z</time></trkpt><trkpt lat="42.1902617" lon="14.6033517"><ele>62.5</ele><time>2026-05-02T06:54:55.905Z</time></trkpt><trkpt lat="42.1902367" lon="14.60346"><ele>60.0</ele><time>2026-05-02T06:55:01.905Z</time></trkpt><trkpt lat="42.1902717" lon="14.603575"><ele>57.49999999999999</ele><time>2026-05-02T06:55:04.906Z</time></trkpt><trkpt lat="42.1903283" lon="14.6036617"><ele>55.0</ele><time>2026-05-02T06:55:06.905Z</time></trkpt><trkpt lat="42.1903683" lon="14.6037667"><ele>54.6</ele><time>2026-05-02T06:55:08.906Z</time></trkpt><trkpt lat="42.190435" lon="14.60388"><ele>54.2</ele><time>2026-05-02T06:55:10.906Z</time></trkpt><trkpt lat="42.19048" lon="14.6039883"><ele>53.8</ele><time>2026-05-02T06:55:12.906Z</time></trkpt><trkpt lat="42.1905367" lon="14.6040783"><ele>53.4</ele><time>2026-05-02T06:55:14.906Z</time></trkpt><trkpt lat="42.19064" lon="14.6041317"><ele>53.0</ele><time>2026-05-02T06:55:16.905Z</time></trkpt><trkpt lat="42.1907567" lon="14.6041683"><ele>50.8</ele><time>2026-05-02T06:55:18.906Z</time></trkpt><trkpt lat="42.1908683" lon="14.6042133"><ele>48.599999999999994</ele><time>2026-05-02T06:55:20.906Z</time></trkpt><trkpt lat="42.1909717" lon="14.6042417"><ele>46.400000000000006</ele><time>2026-05-02T06:55:22.906Z</time></trkpt><trkpt lat="42.1910767" lon="14.604255"><ele>44.2</ele><time>2026-05-02T06:55:24.905Z</time></trkpt><trkpt lat="42.1911783" lon="14.6042667"><ele>42.0</ele><time>2026-05-02T06:55:26.905Z</time></trkpt><trkpt lat="42.19127" lon="14.6042517"><ele>42.0</ele><time>2026-05-02T06:55:28.905Z</time></trkpt><trkpt lat="42.1913483" lon="14.6042367"><ele>42.0</ele><time>2026-05-02T06:55:30.906Z</time></trkpt><trkpt lat="42.1914267" lon="14.6042133"><ele>42.0</ele><time>2026-05-02T06:55:32.906Z</time></trkpt><trkpt lat="42.1914967" lon="14.6042033"><ele>42.0</ele><time>2026-05-02T06:55:34.906Z</time></trkpt><trkpt lat="42.1915717" lon="14.6041983"><ele>42.0</ele><time>2026-05-02T06:55:36.906Z</time></trkpt><trkpt lat="42.1916383" lon="14.6041883"><ele>42.0</ele><time>2026-05-02T06:55:38.906Z</time></trkpt><trkpt lat="42.191705" lon="14.6042033"><ele>42.0</ele><time>2026-05-02T06:55:40.905Z</time></trkpt><trkpt lat="42.19177" lon="14.60423"><ele>42.333333333333336</ele><time>2026-05-02T06:55:42.905Z</time></trkpt><trkpt lat="42.1918267" lon="14.60427"><ele>42.666666666666664</ele><time>2026-05-02T06:55:44.905Z</time></trkpt><trkpt lat="42.19188" lon="14.6043167"><ele>43.0</ele><time>2026-05-02T06:55:46.906Z</time></trkpt><trkpt lat="42.1919567" lon="14.6044017"><ele>43.33333333333333</ele><time>2026-05-02T06:55:49.906Z</time></trkpt><trkpt lat="42.19201" lon="14.6044817"><ele>43.666666666666664</ele><time>2026-05-02T06:55:51.906Z</time></trkpt><trkpt lat="42.1920617" lon="14.6045833"><ele>44.0</ele><time>2026-05-02T06:55:53.906Z</time></trkpt><trkpt lat="42.19211" lon="14.6046983"><ele>44.0</ele><time>2026-05-02T06:55:55.905Z</time></trkpt><trkpt lat="42.192155" lon="14.6048267"><ele>44.0</ele><time>2026-05-02T06:55:57.906Z</time></trkpt><trkpt lat="42.1922033" lon="14.6049667"><ele>44.0</ele><time>2026-05-02T06:55:59.905Z</time></trkpt><trkpt lat="42.1922517" lon="14.605105"><ele>44.0</ele><time>2026-05-02T06:56:01.906Z</time></trkpt><trkpt lat="42.192305" lon="14.6052483"><ele>47.0</ele><time>2026-05-02T06:56:03.905Z</time></trkpt><trkpt lat="42.1923583" lon="14.6053883"><ele>50.0</ele><time>2026-05-02T06:56:05.906Z</time></trkpt><trkpt lat="42.19242" lon="14.6054983"><ele>53.00000000000001</ele><time>2026-05-02T06:56:07.905Z</time></trkpt><trkpt lat="42.19249" lon="14.60562"><ele>56.0</ele><time>2026-05-02T06:56:09.905Z</time></trkpt><trkpt lat="42.19256" lon="14.6057417"><ele>59.0</ele><time>2026-05-02T06:56:11.905Z</time></trkpt><trkpt lat="42.1926217" lon="14.605865"><ele>59.0</ele><time>2026-05-02T06:56:13.905Z</time></trkpt><trkpt lat="42.1926767" lon="14.60599"><ele>59.00000000000001</ele><time>2026-05-02T06:56:15.905Z</time></trkpt><trkpt lat="42.1927217" lon="14.60611"><ele>59.00000000000001</ele><time>2026-05-02T06:56:17.906Z</time></trkpt><trkpt lat="42.19275" lon="14.6062283"><ele>59.0</ele><time>2026-05-02T06:56:19.906Z</time></trkpt><trkpt lat="42.1927733" lon="14.60634"><ele>59.0</ele><time>2026-05-02T06:56:21.906Z</time></trkpt><trkpt lat="42.1927933" lon="14.6064467"><ele>58.833333333333336</ele><time>2026-05-02T06:56:23.905Z</time></trkpt><trkpt lat="42.1928067" lon="14.606555"><ele>58.66666666666667</ele><time>2026-05-02T06:56:25.905Z</time></trkpt><trkpt lat="42.192805" lon="14.6066617"><ele>58.5</ele><time>2026-05-02T06:56:27.906Z</time></trkpt><trkpt lat="42.1928033" lon="14.60677"><ele>58.33333333333333</ele><time>2026-05-02T06:56:29.906Z</time></trkpt><trkpt lat="42.1927983" lon="14.6069033"><ele>58.166666666666664</ele><time>2026-05-02T06:56:31.906Z</time></trkpt><trkpt lat="42.192795" lon="14.6070417"><ele>58.0</ele><time>2026-05-02T06:56:33.906Z</time></trkpt><trkpt lat="42.1928" lon="14.6071817"><ele>57.49999999999999</ele><time>2026-05-02T06:56:35.906Z</time></trkpt><trkpt lat="42.1928067" lon="14.6072967"><ele>57.0</ele><time>2026-05-02T06:56:37.906Z</time></trkpt><trkpt lat="42.1928317" lon="14.6074133"><ele>56.5</ele><time>2026-05-02T06:56:39.906Z</time></trkpt><trkpt lat="42.1928567" lon="14.60753"><ele>56.0</ele><time>2026-05-02T06:56:41.906Z</time></trkpt><trkpt lat="42.1928817" lon="14.6076367"><ele>55.49999999999999</ele><time>2026-05-02T06:56:43.905Z</time></trkpt><trkpt lat="42.1929117" lon="14.6077283"><ele>55.0</ele><time>2026-05-02T06:56:45.906Z</time></trkpt><trkpt lat="42.1929317" lon="14.60783"><ele>54.2</ele><time>2026-05-02T06:56:47.906Z</time></trkpt><trkpt lat="42.192955" lon="14.6079367"><ele>53.4</ele><time>2026-05-02T06:56:49.905Z</time></trkpt><trkpt lat="42.19298" lon="14.6080417"><ele>52.599999999999994</ele><time>2026-05-02T06:56:51.906Z</time></trkpt><trkpt lat="42.19301" lon="14.6081567"><ele>51.8</ele><time>2026-05-02T06:56:53.905Z</time></trkpt><trkpt lat="42.19304" lon="14.608275"><ele>51.0</ele><time>2026-05-02T06:56:55.906Z</time></trkpt><trkpt lat="42.1930767" lon="14.6084067"><ele>51.0</ele><time>2026-05-02T06:56:57.906Z</time></trkpt><trkpt lat="42.19311" lon="14.6085367"><ele>51.0</ele><time>2026-05-02T06:56:59.906Z</time></trkpt><trkpt lat="42.19314" lon="14.608665"><ele>51.0</ele><time>2026-05-02T06:57:01.905Z</time></trkpt><trkpt lat="42.19318" lon="14.6087917"><ele>51.0</ele><time>2026-05-02T06:57:03.906Z</time></trkpt><trkpt lat="42.19321" lon="14.6089167"><ele>51.0</ele><time>2026-05-02T06:57:05.906Z</time></trkpt><trkpt lat="42.19323" lon="14.6090317"><ele>52.57142857142857</ele><time>2026-05-02T06:57:07.906Z</time></trkpt><trkpt lat="42.19324" lon="14.6091367"><ele>54.142857142857146</ele><time>2026-05-02T06:57:09.906Z</time></trkpt><trkpt lat="42.19326" lon="14.609225"><ele>55.714285714285715</ele><time>2026-05-02T06:57:11.905Z</time></trkpt><trkpt lat="42.1932883" lon="14.6093083"><ele>57.28571428571429</ele><time>2026-05-02T06:57:13.905Z</time></trkpt><trkpt lat="42.1933167" lon="14.6093883"><ele>58.85714285714286</ele><time>2026-05-02T06:57:15.905Z</time></trkpt><trkpt lat="42.1933533" lon="14.60948"><ele>60.42857142857143</ele><time>2026-05-02T06:57:17.906Z</time></trkpt><trkpt lat="42.1934033" lon="14.6095617"><ele>62.0</ele><time>2026-05-02T06:57:19.905Z</time></trkpt><trkpt lat="42.1934517" lon="14.6096317"><ele>62.00000000000001</ele><time>2026-05-02T06:57:21.905Z</time></trkpt><trkpt lat="42.193495" lon="14.6096983"><ele>62.0</ele><time>2026-05-02T06:57:23.906Z</time></trkpt><trkpt lat="42.1935433" lon="14.6097767"><ele>62.0</ele><time>2026-05-02T06:57:26.906Z</time></trkpt><trkpt lat="42.19356" lon="14.6098983"><ele>62.0</ele><time>2026-05-02T06:57:29.906Z</time></trkpt><trkpt lat="42.1935667" lon="14.61001"><ele>62.00000000000001</ele><time>2026-05-02T06:57:31.905Z</time></trkpt><trkpt lat="42.19358" lon="14.6101383"><ele>62.0</ele><time>2026-05-02T06:57:33.906Z</time></trkpt><trkpt lat="42.1935967" lon="14.6102583"><ele>61.833333333333336</ele><time>2026-05-02T06:57:35.906Z</time></trkpt><trkpt lat="42.19361" lon="14.610375"><ele>61.66666666666667</ele><time>2026-05-02T06:57:37.906Z</time></trkpt><trkpt lat="42.1936283" lon="14.6104883"><ele>61.5</ele><time>2026-05-02T06:57:39.906Z</time></trkpt><trkpt lat="42.193645" lon="14.610605"><ele>61.33333333333333</ele><time>2026-05-02T06:57:41.906Z</time></trkpt><trkpt lat="42.1936567" lon="14.6107167"><ele>61.166666666666664</ele><time>2026-05-02T06:57:43.905Z</time></trkpt><trkpt lat="42.19367" lon="14.6108283"><ele>61.0</ele><time>2026-05-02T06:57:45.906Z</time></trkpt><trkpt lat="42.1936817" lon="14.610935"><ele>60.99999999999999</ele><time>2026-05-02T06:57:47.906Z</time></trkpt><trkpt lat="42.1936933" lon="14.6110367"><ele>61.0</ele><time>2026-05-02T06:57:49.905Z</time></trkpt><trkpt lat="42.1937133" lon="14.6111467"><ele>61.0</ele><time>2026-05-02T06:57:51.906Z</time></trkpt><trkpt lat="42.1937317" lon="14.6112567"><ele>61.0</ele><time>2026-05-02T06:57:53.906Z</time></trkpt><trkpt lat="42.1937433" lon="14.6113717"><ele>60.99999999999999</ele><time>2026-05-02T06:57:55.905Z</time></trkpt><trkpt lat="42.19376" lon="14.6115"><ele>61.0</ele><time>2026-05-02T06:57:57.906Z</time></trkpt><trkpt lat="42.1937767" lon="14.6116433"><ele>60.0</ele><time>2026-05-02T06:57:59.906Z</time></trkpt><trkpt lat="42.1937883" lon="14.61178"><ele>58.99999999999999</ele><time>2026-05-02T06:58:01.905Z</time></trkpt><trkpt lat="42.1938" lon="14.6119183"><ele>57.99999999999999</ele><time>2026-05-02T06:58:03.906Z</time></trkpt><trkpt lat="42.1938133" lon="14.6120517"><ele>57.0</ele><time>2026-05-02T06:58:05.906Z</time></trkpt><trkpt lat="42.1938267" lon="14.6121717"><ele>56.0</ele><time>2026-05-02T06:58:07.906Z</time></trkpt><trkpt lat="42.1938317" lon="14.6122717"><ele>55.50000000000001</ele><time>2026-05-02T06:58:09.906Z</time></trkpt><trkpt lat="42.1938383" lon="14.6123667"><ele>55.0</ele><time>2026-05-02T06:58:11.905Z</time></trkpt><trkpt lat="42.19384" lon="14.612475"><ele>54.5</ele><time>2026-05-02T06:58:13.906Z</time></trkpt><trkpt lat="42.193845" lon="14.61259"><ele>54.0</ele><time>2026-05-02T06:58:15.906Z</time></trkpt><trkpt lat="42.1938533" lon="14.6127217"><ele>53.50000000000001</ele><time>2026-05-02T06:58:17.905Z</time></trkpt><trkpt lat="42.1938667" lon="14.6128683"><ele>53.0</ele><time>2026-05-02T06:58:19.906Z</time></trkpt><trkpt lat="42.1938783" lon="14.6130183"><ele>51.8</ele><time>2026-05-02T06:58:21.906Z</time></trkpt><trkpt lat="42.1938883" lon="14.6131617"><ele>50.599999999999994</ele><time>2026-05-02T06:58:23.905Z</time></trkpt><trkpt lat="42.1939033" lon="14.6132917"><ele>49.400000000000006</ele><time>2026-05-02T06:58:25.906Z</time></trkpt><trkpt lat="42.1939233" lon="14.6134217"><ele>48.2</ele><time>2026-05-02T06:58:27.905Z</time></trkpt><trkpt lat="42.1939383" lon="14.6135833"><ele>47.0</ele><time>2026-05-02T06:58:29.906Z</time></trkpt><trkpt lat="42.1939467" lon="14.6136733"><ele>46.14285714285714</ele><time>2026-05-02T06:58:30.905Z</time></trkpt><trkpt lat="42.193955" lon="14.6137633"><ele>45.285714285714285</ele><time>2026-05-02T06:58:31.905Z</time></trkpt><trkpt lat="42.1939617" lon="14.6138583"><ele>44.42857142857143</ele><time>2026-05-02T06:58:32.906Z</time></trkpt><trkpt lat="42.1939667" lon="14.6139483"><ele>43.57142857142857</ele><time>2026-05-02T06:58:33.906Z</time></trkpt><trkpt lat="42.1939717" lon="14.6140383"><ele>42.714285714285715</ele><time>2026-05-02T06:58:34.905Z</time></trkpt><trkpt lat="42.1939733" lon="14.6141317"><ele>41.857142857142854</ele><time>2026-05-02T06:58:35.906Z</time></trkpt><trkpt lat="42.1939717" lon="14.6142233"><ele>41.0</ele><time>2026-05-02T06:58:36.906Z</time></trkpt><trkpt lat="42.1939717" lon="14.6143167"><ele>40.99999999999999</ele><time>2026-05-02T06:58:37.905Z</time></trkpt><trkpt lat="42.1939833" lon="14.614415"><ele>41.0</ele><time>2026-05-02T06:58:38.906Z</time></trkpt><trkpt lat="42.1939917" lon="14.6145117"><ele>41.0</ele><time>2026-05-02T06:58:39.905Z</time></trkpt><trkpt lat="42.1939967" lon="14.6146083"><ele>41.0</ele><time>2026-05-02T06:58:40.906Z</time></trkpt><trkpt lat="42.1940033" lon="14.6147017"><ele>41.0</ele><time>2026-05-02T06:58:41.906Z</time></trkpt><trkpt lat="42.1940117" lon="14.6148017"><ele>40.99999999999999</ele><time>2026-05-02T06:58:42.905Z</time></trkpt><trkpt lat="42.1940133" lon="14.6148983"><ele>41.0</ele><time>2026-05-02T06:58:43.906Z</time></trkpt><trkpt lat="42.1940217" lon="14.6149917"><ele>40.42857142857142</ele><time>2026-05-02T06:58:44.906Z</time></trkpt><trkpt lat="42.1940333" lon="14.6150817"><ele>39.857142857142854</ele><time>2026-05-02T06:58:45.906Z</time></trkpt><trkpt lat="42.194045" lon="14.61518"><ele>39.285714285714285</ele><time>2026-05-02T06:58:46.906Z</time></trkpt><trkpt lat="42.1940517" lon="14.6152817"><ele>38.71428571428571</ele><time>2026-05-02T06:58:47.906Z</time></trkpt><trkpt lat="42.19406" lon="14.6153767"><ele>38.14285714285714</ele><time>2026-05-02T06:58:48.906Z</time></trkpt><trkpt lat="42.194065" lon="14.615475"><ele>37.57142857142857</ele><time>2026-05-02T06:58:49.906Z</time></trkpt><trkpt lat="42.1940767" lon="14.615565"><ele>37.0</ele><time>2026-05-02T06:58:50.905Z</time></trkpt><trkpt lat="42.194085" lon="14.6156533"><ele>35.6</ele><time>2026-05-02T06:58:51.906Z</time></trkpt><trkpt lat="42.1940767" lon="14.61579"><ele>34.2</ele><time>2026-05-02T06:58:53.906Z</time></trkpt><trkpt lat="42.194035" lon="14.61588"><ele>32.8</ele><time>2026-05-02T06:58:55.906Z</time></trkpt><trkpt lat="42.1939567" lon="14.6159467"><ele>31.4</ele><time>2026-05-02T06:58:57.905Z</time></trkpt><trkpt lat="42.1938783" lon="14.6160383"><ele>30.0</ele><time>2026-05-02T06:58:59.906Z</time></trkpt><trkpt lat="42.1938333" lon="14.6161633"><ele>29.5</ele><time>2026-05-02T06:59:01.906Z</time></trkpt><trkpt lat="42.1938017" lon="14.61625"><ele>29.0</ele><time>2026-05-02T06:59:03.905Z</time></trkpt><trkpt lat="42.1937283" lon="14.616255"><ele>28.5</ele><time>2026-05-02T06:59:06.906Z</time></trkpt><trkpt lat="42.1936483" lon="14.6162267"><ele>28.0</ele><time>2026-05-02T06:59:08.906Z</time></trkpt><trkpt lat="42.19356" lon="14.6161683"><ele>27.5</ele><time>2026-05-02T06:59:10.905Z</time></trkpt><trkpt lat="42.193465" lon="14.616115"><ele>27.0</ele><time>2026-05-02T06:59:12.906Z</time></trkpt><trkpt lat="42.1933717" lon="14.6160683"><ele>27.0</ele><time>2026-05-02T06:59:14.905Z</time></trkpt><trkpt lat="42.193265" lon="14.61603"><ele>27.0</ele><time>2026-05-02T06:59:16.905Z</time></trkpt><trkpt lat="42.1931533" lon="14.6160417"><ele>27.0</ele><time>2026-05-02T06:59:18.906Z</time></trkpt><trkpt lat="42.1930417" lon="14.6161067"><ele>27.0</ele><time>2026-05-02T06:59:20.906Z</time></trkpt><trkpt lat="42.192925" lon="14.6161867"><ele>25.666666666666668</ele><time>2026-05-02T06:59:22.906Z</time></trkpt><trkpt lat="42.192865" lon="14.6162333"><ele>24.333333333333332</ele><time>2026-05-02T06:59:23.905Z</time></trkpt><trkpt lat="42.1928083" lon="14.61628"><ele>23.0</ele><time>2026-05-02T06:59:24.906Z</time></trkpt><trkpt lat="42.1927533" lon="14.61633"><ele>21.666666666666664</ele><time>2026-05-02T06:59:25.905Z</time></trkpt><trkpt lat="42.1926567" lon="14.6164333"><ele>20.333333333333332</ele><time>2026-05-02T06:59:27.906Z</time></trkpt><trkpt lat="42.1926117" lon="14.6165567"><ele>19.0</ele><time>2026-05-02T06:59:29.906Z</time></trkpt><trkpt lat="42.1926133" lon="14.6166683"><ele>19.0</ele><time>2026-05-02T06:59:31.906Z</time></trkpt><trkpt lat="42.19264" lon="14.6167567"><ele>19.0</ele><time>2026-05-02T06:59:33.905Z</time></trkpt><trkpt lat="42.1926733" lon="14.6168633"><ele>19.0</ele><time>2026-05-02T06:59:36.905Z</time></trkpt><trkpt lat="42.1927" lon="14.6169817"><ele>19.0</ele><time>2026-05-02T06:59:39.905Z</time></trkpt><trkpt lat="42.1927233" lon="14.6171033"><ele>19.0</ele><time>2026-05-02T06:59:42.905Z</time></trkpt><trkpt lat="42.192795" lon="14.617155"><ele>19.0</ele><time>2026-05-02T06:59:45.905Z</time></trkpt><trkpt lat="42.1928833" lon="14.61713"><ele>19.0</ele><time>2026-05-02T06:59:48.906Z</time></trkpt><trkpt lat="42.1929467" lon="14.6171133"><ele>19.0</ele><time>2026-05-02T06:59:50.906Z</time></trkpt><trkpt lat="42.193005" lon="14.6170783"><ele>19.0</ele><time>2026-05-02T06:59:52.905Z</time></trkpt><trkpt lat="42.19308" lon="14.6170317"><ele>19.0</ele><time>2026-05-02T06:59:54.906Z</time></trkpt><trkpt lat="42.1931517" lon="14.61699"><ele>19.0</ele><time>2026-05-02T06:59:56.905Z</time></trkpt><trkpt lat="42.193215" lon="14.6169517"><ele>19.0</ele><time>2026-05-02T06:59:58.906Z</time></trkpt><trkpt lat="42.1932817" lon="14.6169183"><ele>19.0</ele><time>2026-05-02T07:00:00.906Z</time></trkpt><trkpt lat="42.1933517" lon="14.61688"><ele>19.0</ele><time>2026-05-02T07:00:02.906Z</time></trkpt><trkpt lat="42.1934517" lon="14.616865"><ele>19.0</ele><time>2026-05-02T07:00:05.906Z</time></trkpt><trkpt lat="42.193525" lon="14.6168817"><ele>19.0</ele><time>2026-05-02T07:00:07.906Z</time></trkpt><trkpt lat="42.1935983" lon="14.61692"><ele>19.0</ele><time>2026-05-02T07:00:09.906Z</time></trkpt><trkpt lat="42.193665" lon="14.6169533"><ele>19.0</ele><time>2026-05-02T07:00:11.906Z</time></trkpt><trkpt lat="42.1937167" lon="14.61701"><ele>19.0</ele><time>2026-05-02T07:00:13.906Z</time></trkpt><trkpt lat="42.193765" lon="14.6170883"><ele>18.833333333333332</ele><time>2026-05-02T07:00:16.906Z</time></trkpt><trkpt lat="42.193795" lon="14.6171917"><ele>18.666666666666664</ele><time>2026-05-02T07:00:19.905Z</time></trkpt><trkpt lat="42.193805" lon="14.6173033"><ele>18.5</ele><time>2026-05-02T07:00:22.906Z</time></trkpt><trkpt lat="42.1938017" lon="14.617425"><ele>18.333333333333332</ele><time>2026-05-02T07:00:25.906Z</time></trkpt><trkpt lat="42.19381" lon="14.61751"><ele>18.166666666666668</ele><time>2026-05-02T07:00:27.905Z</time></trkpt><trkpt lat="42.193815" lon="14.6176283"><ele>18.0</ele><time>2026-05-02T07:00:29.905Z</time></trkpt><trkpt lat="42.1938267" lon="14.6177467"><ele>19.5</ele><time>2026-05-02T07:00:31.906Z</time></trkpt><trkpt lat="42.19384" lon="14.6178567"><ele>21.0</ele><time>2026-05-02T07:00:33.906Z</time></trkpt><trkpt lat="42.1938533" lon="14.6179733"><ele>22.5</ele><time>2026-05-02T07:00:35.906Z</time></trkpt><trkpt lat="42.193865" lon="14.6180783"><ele>24.0</ele><time>2026-05-02T07:00:37.906Z</time></trkpt><trkpt lat="42.1938767" lon="14.6181883"><ele>25.5</ele><time>2026-05-02T07:00:39.905Z</time></trkpt><trkpt lat="42.193885" lon="14.6183"><ele>27.0</ele><time>2026-05-02T07:00:41.905Z</time></trkpt><trkpt lat="42.1938967" lon="14.61841"><ele>27.0</ele><time>2026-05-02T07:00:43.906Z</time></trkpt><trkpt lat="42.1939167" lon="14.6185133"><ele>27.0</ele><time>2026-05-02T07:00:45.906Z</time></trkpt><trkpt lat="42.19393" lon="14.61862"><ele>27.0</ele><time>2026-05-02T07:00:47.905Z</time></trkpt><trkpt lat="42.1939533" lon="14.6187367"><ele>27.0</ele><time>2026-05-02T07:00:49.905Z</time></trkpt><trkpt lat="42.193985" lon="14.61886"><ele>27.0</ele><time>2026-05-02T07:00:51.906Z</time></trkpt><trkpt lat="42.19402" lon="14.6189633"><ele>27.0</ele><time>2026-05-02T07:00:53.906Z</time></trkpt><trkpt lat="42.1940467" lon="14.619055"><ele>25.0</ele><time>2026-05-02T07:00:55.906Z</time></trkpt><trkpt lat="42.1940733" lon="14.6191417"><ele>23.0</ele><time>2026-05-02T07:00:57.906Z</time></trkpt><trkpt lat="42.1941017" lon="14.6192417"><ele>21.0</ele><time>2026-05-02T07:00:59.905Z</time></trkpt><trkpt lat="42.1941283" lon="14.619325"><ele>19.0</ele><time>2026-05-02T07:01:01.906Z</time></trkpt><trkpt lat="42.1941517" lon="14.619415"><ele>17.0</ele><time>2026-05-02T07:01:03.906Z</time></trkpt><trkpt lat="42.1941733" lon="14.6195083"><ele>15.0</ele><time>2026-05-02T07:01:05.906Z</time></trkpt><trkpt lat="42.1941967" lon="14.6195983"><ele>13.0</ele><time>2026-05-02T07:01:07.906Z</time></trkpt><trkpt lat="42.1942233" lon="14.6196917"><ele>12.999999999999998</ele><time>2026-05-02T07:01:09.905Z</time></trkpt><trkpt lat="42.19425" lon="14.6197867"><ele>13.0</ele><time>2026-05-02T07:01:11.906Z</time></trkpt><trkpt lat="42.1942783" lon="14.6198817"><ele>13.0</ele><time>2026-05-02T07:01:13.905Z</time></trkpt><trkpt lat="42.194305" lon="14.619975"><ele>13.0</ele><time>2026-05-02T07:01:15.905Z</time></trkpt><trkpt lat="42.1943283" lon="14.6200583"><ele>12.999999999999998</ele><time>2026-05-02T07:01:17.906Z</time></trkpt><trkpt lat="42.19437" lon="14.6201617"><ele>13.0</ele><time>2026-05-02T07:01:20.906Z</time></trkpt><trkpt lat="42.19441" lon="14.6202567"><ele>12.999999999999998</ele><time>2026-05-02T07:01:23.906Z</time></trkpt><trkpt lat="42.19444" lon="14.6203533"><ele>13.0</ele><time>2026-05-02T07:01:26.906Z</time></trkpt><trkpt lat="42.1944617" lon="14.6204383"><ele>13.0</ele><time>2026-05-02T07:01:29.906Z</time></trkpt><trkpt lat="42.1944967" lon="14.6205617"><ele>13.0</ele><time>2026-05-02T07:01:32.906Z</time></trkpt><trkpt lat="42.194525" lon="14.6206717"><ele>12.999999999999998</ele><time>2026-05-02T07:01:34.906Z</time></trkpt><trkpt lat="42.1945417" lon="14.6208033"><ele>13.0</ele><time>2026-05-02T07:01:36.906Z</time></trkpt><trkpt lat="42.1945767" lon="14.62091"><ele>13.0</ele><time>2026-05-02T07:01:38.906Z</time></trkpt><trkpt lat="42.19461" lon="14.62101"><ele>13.0</ele><time>2026-05-02T07:01:40.906Z</time></trkpt><trkpt lat="42.194635" lon="14.621095"><ele>13.0</ele><time>2026-05-02T07:01:42.905Z</time></trkpt><trkpt lat="42.1946567" lon="14.62118"><ele>13.0</ele><time>2026-05-02T07:01:44.906Z</time></trkpt><trkpt lat="42.19469" lon="14.62126"><ele>13.0</ele><time>2026-05-02T07:01:46.906Z</time></trkpt><trkpt lat="42.19473" lon="14.6213367"><ele>13.0</ele><time>2026-05-02T07:01:48.906Z</time></trkpt><trkpt lat="42.1947617" lon="14.6214133"><ele>13.0</ele><time>2026-05-02T07:01:50.906Z</time></trkpt><trkpt lat="42.1948067" lon="14.6215017"><ele>12.499999999999998</ele><time>2026-05-02T07:01:52.906Z</time></trkpt><trkpt lat="42.1948617" lon="14.62159"><ele>12.0</ele><time>2026-05-02T07:01:54.905Z</time></trkpt><trkpt lat="42.1949083" lon="14.6216683"><ele>11.5</ele><time>2026-05-02T07:01:56.905Z</time></trkpt><trkpt lat="42.1949567" lon="14.621745"><ele>11.0</ele><time>2026-05-02T07:01:58.906Z</time></trkpt><trkpt lat="42.1950083" lon="14.6218417"><ele>10.5</ele><time>2026-05-02T07:02:00.906Z</time></trkpt><trkpt lat="42.1950617" lon="14.6219433"><ele>10.0</ele><time>2026-05-02T07:02:02.906Z</time></trkpt><trkpt lat="42.195115" lon="14.6220267"><ele>10.0</ele><time>2026-05-02T07:02:04.906Z</time></trkpt><trkpt lat="42.195175" lon="14.6221267"><ele>10.0</ele><time>2026-05-02T07:02:07.906Z</time></trkpt><trkpt lat="42.1952233" lon="14.6222217"><ele>10.0</ele><time>2026-05-02T07:02:10.905Z</time></trkpt><trkpt lat="42.1952733" lon="14.6223283"><ele>10.0</ele><time>2026-05-02T07:02:13.906Z</time></trkpt><trkpt lat="42.1953083" lon="14.622405"><ele>10.0</ele><time>2026-05-02T07:02:15.906Z</time></trkpt><trkpt lat="42.1953633" lon="14.6224917"><ele>10.0</ele><time>2026-05-02T07:02:17.906Z</time></trkpt><trkpt lat="42.1954133" lon="14.6225833"><ele>10.0</ele><time>2026-05-02T07:02:19.906Z</time></trkpt><trkpt lat="42.1954467" lon="14.6226633"><ele>10.0</ele><time>2026-05-02T07:02:21.906Z</time></trkpt><trkpt lat="42.19548" lon="14.6227383"><ele>10.0</ele><time>2026-05-02T07:02:23.906Z</time></trkpt><trkpt lat="42.1955033" lon="14.6228183"><ele>10.0</ele><time>2026-05-02T07:02:25.905Z</time></trkpt><trkpt lat="42.195535" lon="14.6229133"><ele>10.0</ele><time>2026-05-02T07:02:28.906Z</time></trkpt><trkpt lat="42.195535" lon="14.62312"><ele>10.0</ele><time>2026-05-02T07:02:56.906Z</time></trkpt><trkpt lat="42.1955533" lon="14.623235"><ele>10.166666666666668</ele><time>2026-05-02T07:03:00.906Z</time></trkpt><trkpt lat="42.1955817" lon="14.6233283"><ele>10.333333333333334</ele><time>2026-05-02T07:03:02.905Z</time></trkpt><trkpt lat="42.1956167" lon="14.6234317"><ele>10.5</ele><time>2026-05-02T07:03:04.905Z</time></trkpt><trkpt lat="42.1956433" lon="14.6235367"><ele>10.666666666666666</ele><time>2026-05-02T07:03:06.906Z</time></trkpt><trkpt lat="42.1956783" lon="14.62366"><ele>10.833333333333332</ele><time>2026-05-02T07:03:08.906Z</time></trkpt><trkpt lat="42.1957133" lon="14.623785"><ele>11.0</ele><time>2026-05-02T07:03:10.906Z</time></trkpt><trkpt lat="42.1957483" lon="14.6238983"><ele>11.0</ele><time>2026-05-02T07:03:12.906Z</time></trkpt><trkpt lat="42.1957983" lon="14.6239967"><ele>11.0</ele><time>2026-05-02T07:03:14.905Z</time></trkpt><trkpt lat="42.1958067" lon="14.6241283"><ele>11.0</ele><time>2026-05-02T07:03:16.905Z</time></trkpt><trkpt lat="42.1958383" lon="14.624265"><ele>11.0</ele><time>2026-05-02T07:03:18.905Z</time></trkpt><trkpt lat="42.195855" lon="14.624415"><ele>11.0</ele><time>2026-05-02T07:03:20.905Z</time></trkpt><trkpt lat="42.1958617" lon="14.6245467"><ele>10.666666666666666</ele><time>2026-05-02T07:03:22.906Z</time></trkpt><trkpt lat="42.1958667" lon="14.62466"><ele>10.333333333333332</ele><time>2026-05-02T07:03:24.905Z</time></trkpt><trkpt lat="42.1958833" lon="14.6247733"><ele>10.0</ele><time>2026-05-02T07:03:26.905Z</time></trkpt><trkpt lat="42.1958883" lon="14.624865"><ele>9.666666666666666</ele><time>2026-05-02T07:03:28.905Z</time></trkpt><trkpt lat="42.1958983" lon="14.62498"><ele>9.333333333333334</ele><time>2026-05-02T07:03:30.905Z</time></trkpt><trkpt lat="42.1959067" lon="14.62509"><ele>9.0</ele><time>2026-05-02T07:03:32.905Z</time></trkpt><trkpt lat="42.19591" lon="14.62521"><ele>8.833333333333334</ele><time>2026-05-02T07:03:34.906Z</time></trkpt><trkpt lat="42.1958983" lon="14.625315"><ele>8.666666666666666</ele><time>2026-05-02T07:03:36.906Z</time></trkpt><trkpt lat="42.19589" lon="14.6254367"><ele>8.5</ele><time>2026-05-02T07:03:38.906Z</time></trkpt><trkpt lat="42.195885" lon="14.6255567"><ele>8.333333333333332</ele><time>2026-05-02T07:03:40.906Z</time></trkpt><trkpt lat="42.1958783" lon="14.6256733"><ele>8.166666666666666</ele><time>2026-05-02T07:03:42.906Z</time></trkpt><trkpt lat="42.1958767" lon="14.6257867"><ele>8.0</ele><time>2026-05-02T07:03:44.906Z</time></trkpt><trkpt lat="42.1958717" lon="14.6258917"><ele>8.0</ele><time>2026-05-02T07:03:46.906Z</time></trkpt><trkpt lat="42.1958583" lon="14.625995"><ele>8.0</ele><time>2026-05-02T07:03:48.905Z</time></trkpt><trkpt lat="42.1958067" lon="14.6261"><ele>8.0</ele><time>2026-05-02T07:03:51.905Z</time></trkpt><trkpt lat="42.1957467" lon="14.6261983"><ele>8.0</ele><time>2026-05-02T07:03:53.906Z</time></trkpt><trkpt lat="42.1956933" lon="14.626325"><ele>8.0</ele><time>2026-05-02T07:03:55.906Z</time></trkpt><trkpt lat="42.1956367" lon="14.6264783"><ele>8.166666666666666</ele><time>2026-05-02T07:03:57.905Z</time></trkpt><trkpt lat="42.1956117" lon="14.626565"><ele>8.333333333333332</ele><time>2026-05-02T07:03:58.906Z</time></trkpt><trkpt lat="42.195585" lon="14.626655"><ele>8.5</ele><time>2026-05-02T07:03:59.906Z</time></trkpt><trkpt lat="42.1955617" lon="14.62675"><ele>8.666666666666666</ele><time>2026-05-02T07:04:00.906Z</time></trkpt><trkpt lat="42.1955517" lon="14.62684"><ele>8.833333333333334</ele><time>2026-05-02T07:04:01.905Z</time></trkpt><trkpt lat="42.19552" lon="14.6269783"><ele>9.0</ele><time>2026-05-02T07:04:03.906Z</time></trkpt><trkpt lat="42.19549" lon="14.6270983"><ele>9.0</ele><time>2026-05-02T07:04:05.905Z</time></trkpt><trkpt lat="42.19545" lon="14.6271833"><ele>9.0</ele><time>2026-05-02T07:04:07.906Z</time></trkpt><trkpt lat="42.195385" lon="14.6272233"><ele>9.0</ele><time>2026-05-02T07:04:09.906Z</time></trkpt><trkpt lat="42.1953" lon="14.6272633"><ele>9.0</ele><time>2026-05-02T07:04:12.905Z</time></trkpt><trkpt lat="42.1952517" lon="14.62736"><ele>9.0</ele><time>2026-05-02T07:04:15.906Z</time></trkpt><trkpt lat="42.1952817" lon="14.62747"><ele>9.0</ele><time>2026-05-02T07:04:17.906Z</time></trkpt><trkpt lat="42.1953533" lon="14.6276133"><ele>9.0</ele><time>2026-05-02T07:04:19.906Z</time></trkpt><trkpt lat="42.1953917" lon="14.627685"><ele>9.0</ele><time>2026-05-02T07:04:20.906Z</time></trkpt><trkpt lat="42.1954583" lon="14.6278233"><ele>9.0</ele><time>2026-05-02T07:04:22.905Z</time></trkpt><trkpt lat="42.19549" lon="14.6279017"><ele>9.0</ele><time>2026-05-02T07:04:23.906Z</time></trkpt><trkpt lat="42.1955333" lon="14.62797"><ele>9.0</ele><time>2026-05-02T07:04:24.906Z</time></trkpt><trkpt lat="42.195565" lon="14.628045"><ele>9.0</ele><time>2026-05-02T07:04:25.905Z</time></trkpt><trkpt lat="42.1956033" lon="14.6281167"><ele>8.8</ele><time>2026-05-02T07:04:26.905Z</time></trkpt><trkpt lat="42.19564" lon="14.6281883"><ele>8.600000000000001</ele><time>2026-05-02T07:04:27.906Z</time></trkpt><trkpt lat="42.1957033" lon="14.6283267"><ele>8.4</ele><time>2026-05-02T07:04:29.905Z</time></trkpt><trkpt lat="42.1957667" lon="14.628455"><ele>8.200000000000001</ele><time>2026-05-02T07:04:31.906Z</time></trkpt><trkpt lat="42.19582" lon="14.62856"><ele>8.0</ele><time>2026-05-02T07:04:33.906Z</time></trkpt><trkpt lat="42.19585" lon="14.6286567"><ele>7.333333333333333</ele><time>2026-05-02T07:04:35.905Z</time></trkpt><trkpt lat="42.1958683" lon="14.6287417"><ele>6.666666666666666</ele><time>2026-05-02T07:04:37.906Z</time></trkpt><trkpt lat="42.19587" lon="14.62883"><ele>6.0</ele><time>2026-05-02T07:04:40.905Z</time></trkpt><trkpt lat="42.1958817" lon="14.6289483"><ele>5.333333333333333</ele><time>2026-05-02T07:05:13.906Z</time></trkpt><trkpt lat="42.1959183" lon="14.628835"><ele>4.666666666666666</ele><time>2026-05-02T07:05:59.905Z</time></trkpt><trkpt lat="42.1959117" lon="14.6287433"><ele>4.0</ele><time>2026-05-02T07:06:02.905Z</time></trkpt><trkpt lat="42.1958867" lon="14.6286517"><ele>4.0</ele><time>2026-05-02T07:06:05.906Z</time></trkpt><trkpt lat="42.1958683" lon="14.6285417"><ele>3.9999999999999996</ele><time>2026-05-02T07:06:09.906Z</time></trkpt><trkpt lat="42.1958417" lon="14.62844"><ele>4.0</ele><time>2026-05-02T07:06:12.906Z</time></trkpt><trkpt lat="42.1957933" lon="14.6283383"><ele>4.0</ele><time>2026-05-02T07:06:15.906Z</time></trkpt><trkpt lat="42.1957567" lon="14.6282683"><ele>3.9999999999999996</ele><time>2026-05-02T07:06:17.905Z</time></trkpt><trkpt lat="42.1957183" lon="14.6282"><ele>4.0</ele><time>2026-05-02T07:06:19.906Z</time></trkpt><trkpt lat="42.1956783" lon="14.6281317"><ele>4.0</ele><time>2026-05-02T07:06:21.906Z</time></trkpt><trkpt lat="42.1956367" lon="14.6280517"><ele>4.666666666666666</ele><time>2026-05-02T07:06:23.906Z</time></trkpt><trkpt lat="42.19559" lon="14.62798"><ele>5.333333333333333</ele><time>2026-05-02T07:06:25.906Z</time></trkpt><trkpt lat="42.1955433" lon="14.627905"><ele>6.0</ele><time>2026-05-02T07:06:27.906Z</time></trkpt><trkpt lat="42.1954783" lon="14.62782"><ele>6.666666666666666</ele><time>2026-05-02T07:06:30.905Z</time></trkpt><trkpt lat="42.195425" lon="14.6277733"><ele>7.333333333333333</ele><time>2026-05-02T07:06:32.906Z</time></trkpt><trkpt lat="42.1953717" lon="14.6276683"><ele>8.0</ele><time>2026-05-02T07:06:34.905Z</time></trkpt><trkpt lat="42.1953583" lon="14.6275717"><ele>8.166666666666666</ele><time>2026-05-02T07:06:36.905Z</time></trkpt><trkpt lat="42.1953267" lon="14.6274933"><ele>8.333333333333332</ele><time>2026-05-02T07:06:38.906Z</time></trkpt><trkpt lat="42.1952933" lon="14.627385"><ele>8.5</ele><time>2026-05-02T07:06:41.906Z</time></trkpt><trkpt lat="42.1952833" lon="14.6272917"><ele>8.666666666666666</ele><time>2026-05-02T07:06:44.906Z</time></trkpt><trkpt lat="42.1952817" lon="14.62717"><ele>8.833333333333334</ele><time>2026-05-02T07:06:47.905Z</time></trkpt><trkpt lat="42.1952667" lon="14.6270567"><ele>9.0</ele><time>2026-05-02T07:06:50.906Z</time></trkpt><trkpt lat="42.1952683" lon="14.62694"><ele>9.0</ele><time>2026-05-02T07:06:53.906Z</time></trkpt><trkpt lat="42.19529" lon="14.6268233"><ele>9.0</ele><time>2026-05-02T07:06:56.906Z</time></trkpt><trkpt lat="42.1953267" lon="14.62671"><ele>9.0</ele><time>2026-05-02T07:06:59.906Z</time></trkpt><trkpt lat="42.1953817" lon="14.6266133"><ele>9.0</ele><time>2026-05-02T07:07:02.905Z</time></trkpt><trkpt lat="42.1954183" lon="14.62654"><ele>9.0</ele><time>2026-05-02T07:07:04.906Z</time></trkpt><trkpt lat="42.195465" lon="14.6264733"><ele>9.0</ele><time>2026-05-02T07:07:06.906Z</time></trkpt><trkpt lat="42.195515" lon="14.6263933"><ele>9.0</ele><time>2026-05-02T07:07:08.905Z</time></trkpt><trkpt lat="42.1955633" lon="14.6263183"><ele>9.0</ele><time>2026-05-02T07:07:10.906Z</time></trkpt><trkpt lat="42.1956167" lon="14.6262183"><ele>9.0</ele><time>2026-05-02T07:07:13.905Z</time></trkpt><trkpt lat="42.1956517" lon="14.626125"><ele>9.0</ele><time>2026-05-02T07:07:15.905Z</time></trkpt><trkpt lat="42.195695" lon="14.6260333"><ele>9.0</ele><time>2026-05-02T07:07:17.906Z</time></trkpt><trkpt lat="42.1957267" lon="14.6259333"><ele>9.0</ele><time>2026-05-02T07:07:19.905Z</time></trkpt><trkpt lat="42.19575" lon="14.6258333"><ele>9.0</ele><time>2026-05-02T07:07:21.906Z</time></trkpt><trkpt lat="42.1957533" lon="14.62572"><ele>9.0</ele><time>2026-05-02T07:07:23.906Z</time></trkpt><trkpt lat="42.1957567" lon="14.625615"><ele>9.0</ele><time>2026-05-02T07:07:25.906Z</time></trkpt><trkpt lat="42.1957617" lon="14.6255133"><ele>9.0</ele><time>2026-05-02T07:07:27.906Z</time></trkpt><trkpt lat="42.1957583" lon="14.6254167"><ele>9.0</ele><time>2026-05-02T07:07:29.906Z</time></trkpt><trkpt lat="42.1957617" lon="14.6253083"><ele>9.0</ele><time>2026-05-02T07:07:31.906Z</time></trkpt><trkpt lat="42.1957667" lon="14.6252133"><ele>9.0</ele><time>2026-05-02T07:07:33.906Z</time></trkpt><trkpt lat="42.1957533" lon="14.62512"><ele>9.0</ele><time>2026-05-02T07:07:35.906Z</time></trkpt><trkpt lat="42.1957483" lon="14.62501"><ele>9.0</ele><time>2026-05-02T07:07:37.906Z</time></trkpt><trkpt lat="42.1957467" lon="14.6249033"><ele>9.0</ele><time>2026-05-02T07:07:39.905Z</time></trkpt><trkpt lat="42.1957517" lon="14.6247933"><ele>9.0</ele><time>2026-05-02T07:07:41.906Z</time></trkpt><trkpt lat="42.1957433" lon="14.6246783"><ele>9.0</ele><time>2026-05-02T07:07:43.906Z</time></trkpt><trkpt lat="42.195735" lon="14.62458"><ele>9.333333333333334</ele><time>2026-05-02T07:07:45.906Z</time></trkpt><trkpt lat="42.195725" lon="14.6244683"><ele>9.666666666666666</ele><time>2026-05-02T07:07:47.906Z</time></trkpt><trkpt lat="42.1957033" lon="14.6243633"><ele>10.0</ele><time>2026-05-02T07:07:49.906Z</time></trkpt><trkpt lat="42.195665" lon="14.6242667"><ele>10.333333333333332</ele><time>2026-05-02T07:07:51.906Z</time></trkpt><trkpt lat="42.1956267" lon="14.6241767"><ele>10.666666666666666</ele><time>2026-05-02T07:07:53.905Z</time></trkpt><trkpt lat="42.195585" lon="14.6240917"><ele>11.0</ele><time>2026-05-02T07:07:55.906Z</time></trkpt><trkpt lat="42.1955583" lon="14.623985"><ele>11.166666666666666</ele><time>2026-05-02T07:07:57.906Z</time></trkpt><trkpt lat="42.1955583" lon="14.6238667"><ele>11.333333333333332</ele><time>2026-05-02T07:08:00.905Z</time></trkpt><trkpt lat="42.1955433" lon="14.623775"><ele>11.5</ele><time>2026-05-02T07:08:02.906Z</time></trkpt><trkpt lat="42.19552" lon="14.623655"><ele>11.666666666666666</ele><time>2026-05-02T07:08:05.906Z</time></trkpt><trkpt lat="42.1955017" lon="14.6235617"><ele>11.833333333333334</ele><time>2026-05-02T07:08:07.906Z</time></trkpt><trkpt lat="42.1954933" lon="14.6234633"><ele>12.0</ele><time>2026-05-02T07:08:09.906Z</time></trkpt><trkpt lat="42.19549" lon="14.6233633"><ele>12.166666666666666</ele><time>2026-05-02T07:08:11.905Z</time></trkpt><trkpt lat="42.1954833" lon="14.62326"><ele>12.333333333333332</ele><time>2026-05-02T07:08:13.906Z</time></trkpt><trkpt lat="42.1954617" lon="14.6231617"><ele>12.5</ele><time>2026-05-02T07:08:15.906Z</time></trkpt><trkpt lat="42.1954467" lon="14.62307"><ele>12.666666666666666</ele><time>2026-05-02T07:08:17.906Z</time></trkpt><trkpt lat="42.1954267" lon="14.62297"><ele>12.833333333333332</ele><time>2026-05-02T07:08:19.906Z</time></trkpt><trkpt lat="42.1954017" lon="14.6228783"><ele>13.0</ele><time>2026-05-02T07:08:21.905Z</time></trkpt><trkpt lat="42.195365" lon="14.62278"><ele>12.499999999999998</ele><time>2026-05-02T07:08:23.906Z</time></trkpt><trkpt lat="42.195315" lon="14.622685"><ele>12.0</ele><time>2026-05-02T07:08:25.905Z</time></trkpt><trkpt lat="42.1952583" lon="14.6225783"><ele>11.5</ele><time>2026-05-02T07:08:27.905Z</time></trkpt><trkpt lat="42.1952083" lon="14.6224867"><ele>11.0</ele><time>2026-05-02T07:08:29.906Z</time></trkpt><trkpt lat="42.195165" lon="14.62239"><ele>10.5</ele><time>2026-05-02T07:08:31.906Z</time></trkpt><trkpt lat="42.19513" lon="14.6223083"><ele>10.0</ele><time>2026-05-02T07:08:33.905Z</time></trkpt><trkpt lat="42.1950633" lon="14.6222067"><ele>10.0</ele><time>2026-05-02T07:08:36.906Z</time></trkpt><trkpt lat="42.1950267" lon="14.6221267"><ele>10.0</ele><time>2026-05-02T07:08:38.906Z</time></trkpt><trkpt lat="42.1949833" lon="14.62206"><ele>10.0</ele><time>2026-05-02T07:08:40.906Z</time></trkpt><trkpt lat="42.1949383" lon="14.6219983"><ele>10.0</ele><time>2026-05-02T07:08:42.906Z</time></trkpt><trkpt lat="42.1948833" lon="14.6219217"><ele>10.0</ele><time>2026-05-02T07:08:44.906Z</time></trkpt><trkpt lat="42.1948267" lon="14.6218417"><ele>10.0</ele><time>2026-05-02T07:08:46.906Z</time></trkpt><trkpt lat="42.1947717" lon="14.6217633"><ele>10.0</ele><time>2026-05-02T07:08:48.905Z</time></trkpt><trkpt lat="42.194725" lon="14.6216867"><ele>10.666666666666668</ele><time>2026-05-02T07:08:50.906Z</time></trkpt><trkpt lat="42.1946767" lon="14.6216083"><ele>11.333333333333334</ele><time>2026-05-02T07:08:52.905Z</time></trkpt><trkpt lat="42.1946233" lon="14.62153"><ele>12.0</ele><time>2026-05-02T07:08:54.906Z</time></trkpt><trkpt lat="42.194575" lon="14.6214383"><ele>12.666666666666668</ele><time>2026-05-02T07:08:56.906Z</time></trkpt><trkpt lat="42.1945317" lon="14.62135"><ele>13.333333333333334</ele><time>2026-05-02T07:08:58.906Z</time></trkpt><trkpt lat="42.194495" lon="14.6212667"><ele>14.0</ele><time>2026-05-02T07:09:00.905Z</time></trkpt><trkpt lat="42.1944733" lon="14.6211817"><ele>13.857142857142858</ele><time>2026-05-02T07:09:02.906Z</time></trkpt><trkpt lat="42.1944467" lon="14.621095"><ele>13.714285714285715</ele><time>2026-05-02T07:09:04.905Z</time></trkpt><trkpt lat="42.194425" lon="14.621005"><ele>13.571428571428571</ele><time>2026-05-02T07:09:06.906Z</time></trkpt><trkpt lat="42.194405" lon="14.6209167"><ele>13.428571428571429</ele><time>2026-05-02T07:09:08.906Z</time></trkpt><trkpt lat="42.1943783" lon="14.6208217"><ele>13.285714285714286</ele><time>2026-05-02T07:09:10.906Z</time></trkpt><trkpt lat="42.19434" lon="14.620725"><ele>13.142857142857142</ele><time>2026-05-02T07:09:12.906Z</time></trkpt><trkpt lat="42.1943083" lon="14.62063"><ele>13.0</ele><time>2026-05-02T07:09:14.905Z</time></trkpt><trkpt lat="42.1942783" lon="14.6205417"><ele>12.999999999999998</ele><time>2026-05-02T07:09:16.906Z</time></trkpt><trkpt lat="42.1942483" lon="14.6204467"><ele>13.0</ele><time>2026-05-02T07:09:18.906Z</time></trkpt><trkpt lat="42.19422" lon="14.6203483"><ele>13.0</ele><time>2026-05-02T07:09:20.906Z</time></trkpt><trkpt lat="42.1941917" lon="14.6202483"><ele>13.0</ele><time>2026-05-02T07:09:22.905Z</time></trkpt><trkpt lat="42.19416" lon="14.6201517"><ele>12.999999999999998</ele><time>2026-05-02T07:09:24.906Z</time></trkpt><trkpt lat="42.1941183" lon="14.6200483"><ele>13.0</ele><time>2026-05-02T07:09:26.906Z</time></trkpt><trkpt lat="42.1940817" lon="14.61995"><ele>13.0</ele><time>2026-05-02T07:09:28.906Z</time></trkpt><trkpt lat="42.1940583" lon="14.6198533"><ele>13.0</ele><time>2026-05-02T07:09:30.906Z</time></trkpt><trkpt lat="42.1940333" lon="14.619765"><ele>13.0</ele><time>2026-05-02T07:09:32.905Z</time></trkpt><trkpt lat="42.1940067" lon="14.6196767"><ele>13.0</ele><time>2026-05-02T07:09:34.906Z</time></trkpt><trkpt lat="42.193985" lon="14.6195817"><ele>13.0</ele><time>2026-05-02T07:09:36.906Z</time></trkpt><trkpt lat="42.19396" lon="14.619485"><ele>13.0</ele><time>2026-05-02T07:09:38.906Z</time></trkpt><trkpt lat="42.1939433" lon="14.619375"><ele>13.0</ele><time>2026-05-02T07:09:40.905Z</time></trkpt><trkpt lat="42.193915" lon="14.6192733"><ele>16.5</ele><time>2026-05-02T07:09:42.906Z</time></trkpt><trkpt lat="42.1938867" lon="14.61917"><ele>20.0</ele><time>2026-05-02T07:09:44.906Z</time></trkpt><trkpt lat="42.1938583" lon="14.61907"><ele>23.5</ele><time>2026-05-02T07:09:46.905Z</time></trkpt><trkpt lat="42.1938333" lon="14.61898"><ele>27.0</ele><time>2026-05-02T07:09:48.906Z</time></trkpt><trkpt lat="42.1938117" lon="14.6188817"><ele>30.500000000000004</ele><time>2026-05-02T07:09:50.905Z</time></trkpt><trkpt lat="42.1937983" lon="14.61877"><ele>34.0</ele><time>2026-05-02T07:09:52.906Z</time></trkpt><trkpt lat="42.1937867" lon="14.6186567"><ele>32.99999999999999</ele><time>2026-05-02T07:09:54.905Z</time></trkpt><trkpt lat="42.1937817" lon="14.6185567"><ele>32.0</ele><time>2026-05-02T07:09:56.906Z</time></trkpt><trkpt lat="42.1937733" lon="14.61846"><ele>31.0</ele><time>2026-05-02T07:09:58.906Z</time></trkpt><trkpt lat="42.1937617" lon="14.618365"><ele>30.0</ele><time>2026-05-02T07:10:00.906Z</time></trkpt><trkpt lat="42.1937633" lon="14.618265"><ele>29.0</ele><time>2026-05-02T07:10:02.906Z</time></trkpt><trkpt lat="42.1937583" lon="14.6181583"><ele>28.0</ele><time>2026-05-02T07:10:04.905Z</time></trkpt><trkpt lat="42.19375" lon="14.6180717"><ele>27.0</ele><time>2026-05-02T07:10:06.906Z</time></trkpt><trkpt lat="42.1937333" lon="14.6179733"><ele>27.0</ele><time>2026-05-02T07:10:08.905Z</time></trkpt><trkpt lat="42.1937217" lon="14.6178767"><ele>27.0</ele><time>2026-05-02T07:10:10.906Z</time></trkpt><trkpt lat="42.1937067" lon="14.617765"><ele>27.0</ele><time>2026-05-02T07:10:12.906Z</time></trkpt><trkpt lat="42.1936933" lon="14.6176317"><ele>27.0</ele><time>2026-05-02T07:10:14.906Z</time></trkpt><trkpt lat="42.1936817" lon="14.6175"><ele>27.0</ele><time>2026-05-02T07:10:16.906Z</time></trkpt><trkpt lat="42.1936567" lon="14.6173817"><ele>27.0</ele><time>2026-05-02T07:10:18.906Z</time></trkpt><trkpt lat="42.193615" lon="14.6172783"><ele>25.200000000000003</ele><time>2026-05-02T07:10:20.905Z</time></trkpt><trkpt lat="42.19356" lon="14.6171983"><ele>23.400000000000002</ele><time>2026-05-02T07:10:22.905Z</time></trkpt><trkpt lat="42.19349" lon="14.61715"><ele>21.6</ele><time>2026-05-02T07:10:24.905Z</time></trkpt><trkpt lat="42.1933917" lon="14.6171417"><ele>19.8</ele><time>2026-05-02T07:10:26.906Z</time></trkpt><trkpt lat="42.1932883" lon="14.617175"><ele>18.0</ele><time>2026-05-02T07:10:28.905Z</time></trkpt><trkpt lat="42.1931967" lon="14.61722"><ele>18.8</ele><time>2026-05-02T07:10:30.905Z</time></trkpt><trkpt lat="42.19311" lon="14.6172617"><ele>19.6</ele><time>2026-05-02T07:10:32.906Z</time></trkpt><trkpt lat="42.1930267" lon="14.6173"><ele>20.400000000000002</ele><time>2026-05-02T07:10:34.905Z</time></trkpt><trkpt lat="42.1929467" lon="14.6173417"><ele>21.200000000000003</ele><time>2026-05-02T07:10:36.906Z</time></trkpt><trkpt lat="42.1928567" lon="14.6173783"><ele>22.0</ele><time>2026-05-02T07:10:38.906Z</time></trkpt><trkpt lat="42.19277" lon="14.6174283"><ele>22.0</ele><time>2026-05-02T07:10:40.906Z</time></trkpt><trkpt lat="42.1926783" lon="14.6174767"><ele>22.0</ele><time>2026-05-02T07:10:42.905Z</time></trkpt><trkpt lat="42.1925967" lon="14.61752"><ele>22.0</ele><time>2026-05-02T07:10:44.906Z</time></trkpt><trkpt lat="42.1925067" lon="14.617545"><ele>22.0</ele><time>2026-05-02T07:10:46.906Z</time></trkpt><trkpt lat="42.192425" lon="14.6175417"><ele>22.0</ele><time>2026-05-02T07:10:48.905Z</time></trkpt><trkpt lat="42.19235" lon="14.6175283"><ele>22.0</ele><time>2026-05-02T07:10:50.906Z</time></trkpt><trkpt lat="42.1922767" lon="14.6174933"><ele>24.666666666666664</ele><time>2026-05-02T07:10:52.906Z</time></trkpt><trkpt lat="42.1922067" lon="14.6174333"><ele>27.333333333333332</ele><time>2026-05-02T07:10:54.906Z</time></trkpt><trkpt lat="42.1921517" lon="14.6173583"><ele>30.0</ele><time>2026-05-02T07:10:56.906Z</time></trkpt><trkpt lat="42.1921017" lon="14.617275"><ele>32.666666666666664</ele><time>2026-05-02T07:10:58.906Z</time></trkpt><trkpt lat="42.19205" lon="14.6171867"><ele>35.33333333333333</ele><time>2026-05-02T07:11:00.906Z</time></trkpt><trkpt lat="42.191985" lon="14.6171017"><ele>38.0</ele><time>2026-05-02T07:11:02.906Z</time></trkpt><trkpt lat="42.1919183" lon="14.6170233"><ele>35.0</ele><time>2026-05-02T07:11:04.905Z</time></trkpt><trkpt lat="42.1918617" lon="14.616935"><ele>32.0</ele><time>2026-05-02T07:11:06.905Z</time></trkpt><trkpt lat="42.1918083" lon="14.61686"><ele>29.0</ele><time>2026-05-02T07:11:08.905Z</time></trkpt><trkpt lat="42.1917467" lon="14.6167883"><ele>26.0</ele><time>2026-05-02T07:11:10.905Z</time></trkpt><trkpt lat="42.191685" lon="14.61672"><ele>23.0</ele><time>2026-05-02T07:11:12.906Z</time></trkpt><trkpt lat="42.1916367" lon="14.6166367"><ele>20.0</ele><time>2026-05-02T07:11:14.906Z</time></trkpt><trkpt lat="42.1915933" lon="14.61655"><ele>20.0</ele><time>2026-05-02T07:11:16.906Z</time></trkpt><trkpt lat="42.1915567" lon="14.6164617"><ele>20.0</ele><time>2026-05-02T07:11:18.906Z</time></trkpt><trkpt lat="42.1915233" lon="14.6163567"><ele>20.0</ele><time>2026-05-02T07:11:20.905Z</time></trkpt><trkpt lat="42.1914767" lon="14.6162583"><ele>20.0</ele><time>2026-05-02T07:11:22.906Z</time></trkpt><trkpt lat="42.1914217" lon="14.6161717"><ele>20.0</ele><time>2026-05-02T07:11:24.905Z</time></trkpt><trkpt lat="42.1913733" lon="14.6160817"><ele>20.0</ele><time>2026-05-02T07:11:26.905Z</time></trkpt><trkpt lat="42.1913367" lon="14.61599"><ele>20.5</ele><time>2026-05-02T07:11:28.905Z</time></trkpt><trkpt lat="42.1912717" lon="14.6159033"><ele>21.0</ele><time>2026-05-02T07:11:31.906Z</time></trkpt><trkpt lat="42.19119" lon="14.61587"><ele>21.5</ele><time>2026-05-02T07:11:33.906Z</time></trkpt><trkpt lat="42.1911033" lon="14.6158583"><ele>22.0</ele><time>2026-05-02T07:11:35.906Z</time></trkpt><trkpt lat="42.1910217" lon="14.61586"><ele>22.5</ele><time>2026-05-02T07:11:37.906Z</time></trkpt><trkpt lat="42.190955" lon="14.6158567"><ele>23.0</ele><time>2026-05-02T07:11:39.906Z</time></trkpt><trkpt lat="42.1908733" lon="14.615845"><ele>23.0</ele><time>2026-05-02T07:11:42.905Z</time></trkpt><trkpt lat="42.19081" lon="14.6158283"><ele>23.0</ele><time>2026-05-02T07:11:44.906Z</time></trkpt><trkpt lat="42.1907467" lon="14.6158217"><ele>23.0</ele><time>2026-05-02T07:11:46.905Z</time></trkpt><trkpt lat="42.1906517" lon="14.6157983"><ele>23.0</ele><time>2026-05-02T07:11:49.905Z</time></trkpt><trkpt lat="42.190575" lon="14.6157717"><ele>23.0</ele><time>2026-05-02T07:11:51.906Z</time></trkpt><trkpt lat="42.1904983" lon="14.615735"><ele>23.0</ele><time>2026-05-02T07:11:53.906Z</time></trkpt><trkpt lat="42.1904283" lon="14.61572"><ele>24.166666666666668</ele><time>2026-05-02T07:11:55.906Z</time></trkpt><trkpt lat="42.1903533" lon="14.6157233"><ele>25.333333333333336</ele><time>2026-05-02T07:11:57.906Z</time></trkpt><trkpt lat="42.19027" lon="14.615715"><ele>26.5</ele><time>2026-05-02T07:11:59.906Z</time></trkpt><trkpt lat="42.1902017" lon="14.6157183"><ele>27.666666666666668</ele><time>2026-05-02T07:12:01.906Z</time></trkpt><trkpt lat="42.1901267" lon="14.6157417"><ele>28.833333333333332</ele><time>2026-05-02T07:12:03.906Z</time></trkpt><trkpt lat="42.190045" lon="14.6157567"><ele>30.0</ele><time>2026-05-02T07:12:05.907Z</time></trkpt><trkpt lat="42.1899633" lon="14.61577"><ele>30.0</ele><time>2026-05-02T07:12:07.906Z</time></trkpt><trkpt lat="42.189885" lon="14.6158033"><ele>30.0</ele><time>2026-05-02T07:12:09.907Z</time></trkpt><trkpt lat="42.189815" lon="14.6158183"><ele>30.0</ele><time>2026-05-02T07:12:11.906Z</time></trkpt><trkpt lat="42.1897417" lon="14.6158233"><ele>30.0</ele><time>2026-05-02T07:12:13.906Z</time></trkpt><trkpt lat="42.1896717" lon="14.6158167"><ele>30.0</ele><time>2026-05-02T07:12:15.906Z</time></trkpt><trkpt lat="42.189605" lon="14.6158033"><ele>30.0</ele><time>2026-05-02T07:12:17.906Z</time></trkpt><trkpt lat="42.1895317" lon="14.6157733"><ele>30.0</ele><time>2026-05-02T07:12:19.906Z</time></trkpt><trkpt lat="42.1894617" lon="14.615745"><ele>30.833333333333332</ele><time>2026-05-02T07:12:21.907Z</time></trkpt><trkpt lat="42.189395" lon="14.6157183"><ele>31.666666666666664</ele><time>2026-05-02T07:12:23.907Z</time></trkpt><trkpt lat="42.1893333" lon="14.615685"><ele>32.5</ele><time>2026-05-02T07:12:25.907Z</time></trkpt><trkpt lat="42.18927" lon="14.6156617"><ele>33.33333333333333</ele><time>2026-05-02T07:12:27.906Z</time></trkpt><trkpt lat="42.1892067" lon="14.6156433"><ele>34.166666666666664</ele><time>2026-05-02T07:12:29.907Z</time></trkpt><trkpt lat="42.1891367" lon="14.6155983"><ele>35.0</ele><time>2026-05-02T07:12:31.907Z</time></trkpt><trkpt lat="42.189025" lon="14.6155483"><ele>35.0</ele><time>2026-05-02T07:12:33.906Z</time></trkpt><trkpt lat="42.1889133" lon="14.6154917"><ele>35.0</ele><time>2026-05-02T07:12:35.907Z</time></trkpt><trkpt lat="42.1888" lon="14.615435"><ele>35.0</ele><time>2026-05-02T07:12:37.907Z</time></trkpt><trkpt lat="42.1887017" lon="14.6153683"><ele>35.0</ele><time>2026-05-02T07:12:39.906Z</time></trkpt><trkpt lat="42.1886167" lon="14.6153067"><ele>35.0</ele><time>2026-05-02T07:12:41.907Z</time></trkpt><trkpt lat="42.1885417" lon="14.6152383"><ele>35.0</ele><time>2026-05-02T07:12:43.906Z</time></trkpt><trkpt lat="42.1884767" lon="14.6151717"><ele>35.0</ele><time>2026-05-02T07:12:45.906Z</time></trkpt><trkpt lat="42.18842" lon="14.6151033"><ele>35.0</ele><time>2026-05-02T07:12:47.907Z</time></trkpt><trkpt lat="42.1883583" lon="14.615035"><ele>35.0</ele><time>2026-05-02T07:12:49.907Z</time></trkpt><trkpt lat="42.1883" lon="14.6149783"><ele>35.0</ele><time>2026-05-02T07:12:51.907Z</time></trkpt><trkpt lat="42.1882567" lon="14.6149117"><ele>35.0</ele><time>2026-05-02T07:12:53.907Z</time></trkpt><trkpt lat="42.1882033" lon="14.6148483"><ele>35.0</ele><time>2026-05-02T07:12:55.907Z</time></trkpt><trkpt lat="42.1881383" lon="14.6147883"><ele>35.2</ele><time>2026-05-02T07:12:57.907Z</time></trkpt><trkpt lat="42.18807" lon="14.6147233"><ele>35.4</ele><time>2026-05-02T07:12:59.906Z</time></trkpt><trkpt lat="42.1879983" lon="14.6146583"><ele>35.6</ele><time>2026-05-02T07:13:01.906Z</time></trkpt><trkpt lat="42.1879217" lon="14.614595"><ele>35.8</ele><time>2026-05-02T07:13:03.907Z</time></trkpt><trkpt lat="42.187835" lon="14.6145367"><ele>36.0</ele><time>2026-05-02T07:13:05.907Z</time></trkpt><trkpt lat="42.187745" lon="14.614485"><ele>36.0</ele><time>2026-05-02T07:13:07.907Z</time></trkpt><trkpt lat="42.1876667" lon="14.6144217"><ele>36.0</ele><time>2026-05-02T07:13:09.906Z</time></trkpt><trkpt lat="42.1875883" lon="14.614375"><ele>36.0</ele><time>2026-05-02T07:13:11.907Z</time></trkpt><trkpt lat="42.1875167" lon="14.6143217"><ele>36.0</ele><time>2026-05-02T07:13:13.907Z</time></trkpt><trkpt lat="42.187455" lon="14.614275"><ele>36.0</ele><time>2026-05-02T07:13:15.907Z</time></trkpt><trkpt lat="42.187385" lon="14.6142367"><ele>36.0</ele><time>2026-05-02T07:13:17.907Z</time></trkpt><trkpt lat="42.1873017" lon="14.6141817"><ele>39.5</ele><time>2026-05-02T07:13:19.906Z</time></trkpt><trkpt lat="42.1872117" lon="14.6141283"><ele>43.0</ele><time>2026-05-02T07:13:21.906Z</time></trkpt><trkpt lat="42.187135" lon="14.6140683"><ele>46.5</ele><time>2026-05-02T07:13:23.907Z</time></trkpt><trkpt lat="42.1870667" lon="14.614015"><ele>50.0</ele><time>2026-05-02T07:13:25.906Z</time></trkpt><trkpt lat="42.1870067" lon="14.61396"><ele>53.5</ele><time>2026-05-02T07:13:27.906Z</time></trkpt><trkpt lat="42.1869483" lon="14.6139033"><ele>57.0</ele><time>2026-05-02T07:13:29.907Z</time></trkpt><trkpt lat="42.1868983" lon="14.613835"><ele>57.0</ele><time>2026-05-02T07:13:31.907Z</time></trkpt><trkpt lat="42.1868483" lon="14.6137583"><ele>57.0</ele><time>2026-05-02T07:13:33.907Z</time></trkpt><trkpt lat="42.1867933" lon="14.6136883"><ele>57.0</ele><time>2026-05-02T07:13:35.906Z</time></trkpt><trkpt lat="42.18675" lon="14.613605"><ele>57.0</ele><time>2026-05-02T07:13:37.907Z</time></trkpt><trkpt lat="42.186695" lon="14.6134967"><ele>57.0</ele><time>2026-05-02T07:13:40.906Z</time></trkpt><trkpt lat="42.1866333" lon="14.61343"><ele>57.0</ele><time>2026-05-02T07:13:42.907Z</time></trkpt><trkpt lat="42.1865833" lon="14.6133583"><ele>57.2</ele><time>2026-05-02T07:13:44.906Z</time></trkpt><trkpt lat="42.1865233" lon="14.6132683"><ele>57.400000000000006</ele><time>2026-05-02T07:13:47.907Z</time></trkpt><trkpt lat="42.1864433" lon="14.613185"><ele>57.599999999999994</ele><time>2026-05-02T07:13:50.907Z</time></trkpt><trkpt lat="42.1863483" lon="14.613115"><ele>57.8</ele><time>2026-05-02T07:13:52.907Z</time></trkpt><trkpt lat="42.186255" lon="14.61304"><ele>58.0</ele><time>2026-05-02T07:13:54.907Z</time></trkpt><trkpt lat="42.1861967" lon="14.6130067"><ele>58.0</ele><time>2026-05-02T07:13:55.907Z</time></trkpt><trkpt lat="42.1860917" lon="14.612955"><ele>58.0</ele><time>2026-05-02T07:13:57.906Z</time></trkpt><trkpt lat="42.1859983" lon="14.6128983"><ele>58.0</ele><time>2026-05-02T07:13:59.907Z</time></trkpt><trkpt lat="42.1859083" lon="14.6128467"><ele>58.0</ele><time>2026-05-02T07:14:01.906Z</time></trkpt><trkpt lat="42.1858433" lon="14.6128067"><ele>58.0</ele><time>2026-05-02T07:14:02.906Z</time></trkpt><trkpt lat="42.1857633" lon="14.612755"><ele>56.99999999999999</ele><time>2026-05-02T07:14:04.907Z</time></trkpt><trkpt lat="42.185695" lon="14.6126983"><ele>56.0</ele><time>2026-05-02T07:14:06.906Z</time></trkpt><trkpt lat="42.1856333" lon="14.6126433"><ele>55.0</ele><time>2026-05-02T07:14:08.907Z</time></trkpt><trkpt lat="42.18558" lon="14.612585"><ele>54.0</ele><time>2026-05-02T07:14:10.907Z</time></trkpt><trkpt lat="42.185525" lon="14.61252"><ele>52.99999999999999</ele><time>2026-05-02T07:14:12.907Z</time></trkpt><trkpt lat="42.1854767" lon="14.6124567"><ele>52.0</ele><time>2026-05-02T07:14:14.907Z</time></trkpt><trkpt lat="42.18538" lon="14.612395"><ele>52.0</ele><time>2026-05-02T07:14:16.906Z</time></trkpt><trkpt lat="42.18529" lon="14.6123383"><ele>52.0</ele><time>2026-05-02T07:14:18.906Z</time></trkpt><trkpt lat="42.1852167" lon="14.6122817"><ele>52.0</ele><time>2026-05-02T07:14:20.906Z</time></trkpt><trkpt lat="42.1851183" lon="14.6122533"><ele>52.0</ele><time>2026-05-02T07:14:22.907Z</time></trkpt><trkpt lat="42.1850333" lon="14.6122017"><ele>52.0</ele><time>2026-05-02T07:14:24.907Z</time></trkpt><trkpt lat="42.184955" lon="14.61214"><ele>51.99999999999999</ele><time>2026-05-02T07:14:26.907Z</time></trkpt><trkpt lat="42.1848667" lon="14.6120817"><ele>52.0</ele><time>2026-05-02T07:14:28.907Z</time></trkpt><trkpt lat="42.1848017" lon="14.6120317"><ele>52.0</ele><time>2026-05-02T07:14:30.906Z</time></trkpt><trkpt lat="42.18474" lon="14.6119883"><ele>52.0</ele><time>2026-05-02T07:14:32.906Z</time></trkpt><trkpt lat="42.1846767" lon="14.6119333"><ele>51.99999999999999</ele><time>2026-05-02T07:14:35.907Z</time></trkpt><trkpt lat="42.1846583" lon="14.61183"><ele>52.0</ele><time>2026-05-02T07:14:38.906Z</time></trkpt><trkpt lat="42.1846783" lon="14.6117433"><ele>50.8</ele><time>2026-05-02T07:14:40.907Z</time></trkpt><trkpt lat="42.1847083" lon="14.61159"><ele>49.6</ele><time>2026-05-02T07:14:42.906Z</time></trkpt><trkpt lat="42.18472" lon="14.61144"><ele>48.4</ele><time>2026-05-02T07:14:44.907Z</time></trkpt><trkpt lat="42.1847333" lon="14.6113333"><ele>47.199999999999996</ele><time>2026-05-02T07:14:46.906Z</time></trkpt><trkpt lat="42.184745" lon="14.6112217"><ele>46.0</ele><time>2026-05-02T07:14:48.906Z</time></trkpt><trkpt lat="42.1847467" lon="14.6111283"><ele>45.57142857142858</ele><time>2026-05-02T07:14:50.907Z</time></trkpt><trkpt lat="42.1847267" lon="14.6110383"><ele>45.14285714285714</ele><time>2026-05-02T07:14:52.906Z</time></trkpt><trkpt lat="42.184685" lon="14.610955"><ele>44.714285714285715</ele><time>2026-05-02T07:14:55.907Z</time></trkpt><trkpt lat="42.184625" lon="14.6108667"><ele>44.28571428571429</ele><time>2026-05-02T07:14:59.907Z</time></trkpt><trkpt lat="42.1845867" lon="14.6107883"><ele>43.85714285714286</ele><time>2026-05-02T07:15:02.906Z</time></trkpt><trkpt lat="42.1845533" lon="14.6107117"><ele>43.42857142857143</ele><time>2026-05-02T07:15:07.907Z</time></trkpt><trkpt lat="42.1844867" lon="14.6106533"><ele>43.0</ele><time>2026-05-02T07:15:12.907Z</time></trkpt><trkpt lat="42.184395" lon="14.6106333"><ele>43.0</ele><time>2026-05-02T07:15:15.907Z</time></trkpt><trkpt lat="42.1843067" lon="14.6106283"><ele>43.0</ele><time>2026-05-02T07:15:18.907Z</time></trkpt><trkpt lat="42.1842267" lon="14.6106483"><ele>43.0</ele><time>2026-05-02T07:15:21.907Z</time></trkpt><trkpt lat="42.1841583" lon="14.6106717"><ele>43.0</ele><time>2026-05-02T07:15:23.907Z</time></trkpt><trkpt lat="42.184075" lon="14.6106983"><ele>43.0</ele><time>2026-05-02T07:15:26.906Z</time></trkpt><trkpt lat="42.1840017" lon="14.61072"><ele>43.0</ele><time>2026-05-02T07:15:29.906Z</time></trkpt><trkpt lat="42.1839267" lon="14.6107333"><ele>43.333333333333336</ele><time>2026-05-02T07:15:32.906Z</time></trkpt><trkpt lat="42.1838583" lon="14.6107467"><ele>43.66666666666667</ele><time>2026-05-02T07:15:35.906Z</time></trkpt><trkpt lat="42.1837717" lon="14.6107633"><ele>44.0</ele><time>2026-05-02T07:15:38.907Z</time></trkpt><trkpt lat="42.1836917" lon="14.6107883"><ele>44.333333333333336</ele><time>2026-05-02T07:15:40.907Z</time></trkpt><trkpt lat="42.1836017" lon="14.6108033"><ele>44.666666666666664</ele><time>2026-05-02T07:15:42.907Z</time></trkpt><trkpt lat="42.183515" lon="14.610805"><ele>45.0</ele><time>2026-05-02T07:15:44.907Z</time></trkpt><trkpt lat="42.18343" lon="14.610805"><ele>45.0</ele><time>2026-05-02T07:15:46.906Z</time></trkpt><trkpt lat="42.1833533" lon="14.61078"><ele>45.0</ele><time>2026-05-02T07:15:48.906Z</time></trkpt><trkpt lat="42.1832833" lon="14.6107533"><ele>45.0</ele><time>2026-05-02T07:15:50.906Z</time></trkpt><trkpt lat="42.1832083" lon="14.61073"><ele>45.0</ele><time>2026-05-02T07:15:52.907Z</time></trkpt><trkpt lat="42.1831267" lon="14.61071"><ele>45.0</ele><time>2026-05-02T07:15:54.906Z</time></trkpt><trkpt lat="42.1830383" lon="14.6106983"><ele>45.0</ele><time>2026-05-02T07:15:56.906Z</time></trkpt><trkpt lat="42.1829567" lon="14.610695"><ele>45.666666666666664</ele><time>2026-05-02T07:15:58.906Z</time></trkpt><trkpt lat="42.18288" lon="14.61069"><ele>46.33333333333333</ele><time>2026-05-02T07:16:00.906Z</time></trkpt><trkpt lat="42.1827967" lon="14.6107067"><ele>47.0</ele><time>2026-05-02T07:16:02.907Z</time></trkpt><trkpt lat="42.1827083" lon="14.6107083"><ele>47.666666666666664</ele><time>2026-05-02T07:16:04.907Z</time></trkpt><trkpt lat="42.182635" lon="14.6106967"><ele>48.33333333333333</ele><time>2026-05-02T07:16:06.907Z</time></trkpt><trkpt lat="42.182565" lon="14.6106817"><ele>49.0</ele><time>2026-05-02T07:16:08.906Z</time></trkpt><trkpt lat="42.1825017" lon="14.61068"><ele>48.99999999999999</ele><time>2026-05-02T07:16:10.906Z</time></trkpt><trkpt lat="42.1824367" lon="14.6106767"><ele>49.0</ele><time>2026-05-02T07:16:12.907Z</time></trkpt><trkpt lat="42.1823667" lon="14.6106783"><ele>49.0</ele><time>2026-05-02T07:16:14.907Z</time></trkpt><trkpt lat="42.1822817" lon="14.61068"><ele>49.0</ele><time>2026-05-02T07:16:17.907Z</time></trkpt><trkpt lat="42.1821983" lon="14.610675"><ele>48.99999999999999</ele><time>2026-05-02T07:16:20.907Z</time></trkpt><trkpt lat="42.1821333" lon="14.6106833"><ele>49.0</ele><time>2026-05-02T07:16:22.907Z</time></trkpt><trkpt lat="42.1820483" lon="14.61069"><ele>49.33333333333333</ele><time>2026-05-02T07:16:25.906Z</time></trkpt><trkpt lat="42.1819817" lon="14.61069"><ele>49.666666666666664</ele><time>2026-05-02T07:16:27.907Z</time></trkpt><trkpt lat="42.1818917" lon="14.6106967"><ele>50.0</ele><time>2026-05-02T07:16:30.906Z</time></trkpt><trkpt lat="42.1818067" lon="14.610715"><ele>50.33333333333333</ele><time>2026-05-02T07:16:33.906Z</time></trkpt><trkpt lat="42.181725" lon="14.6107233"><ele>50.666666666666664</ele><time>2026-05-02T07:16:36.907Z</time></trkpt><trkpt lat="42.1816333" lon="14.6107517"><ele>51.0</ele><time>2026-05-02T07:16:39.907Z</time></trkpt><trkpt lat="42.181565" lon="14.61076"><ele>52.0</ele><time>2026-05-02T07:16:41.906Z</time></trkpt><trkpt lat="42.1814717" lon="14.610795"><ele>53.0</ele><time>2026-05-02T07:16:44.906Z</time></trkpt><trkpt lat="42.1813933" lon="14.6108333"><ele>54.0</ele><time>2026-05-02T07:16:46.906Z</time></trkpt><trkpt lat="42.1813167" lon="14.61087"><ele>55.0</ele><time>2026-05-02T07:16:48.907Z</time></trkpt><trkpt lat="42.1812367" lon="14.610905"><ele>56.0</ele><time>2026-05-02T07:16:50.907Z</time></trkpt><trkpt lat="42.1811683" lon="14.610925"><ele>57.0</ele><time>2026-05-02T07:16:52.907Z</time></trkpt><trkpt lat="42.1810983" lon="14.6109517"><ele>57.0</ele><time>2026-05-02T07:16:54.907Z</time></trkpt><trkpt lat="42.1810417" lon="14.6109917"><ele>57.0</ele><time>2026-05-02T07:16:56.907Z</time></trkpt><trkpt lat="42.1809733" lon="14.6110317"><ele>57.0</ele><time>2026-05-02T07:16:59.907Z</time></trkpt><trkpt lat="42.1809067" lon="14.6110783"><ele>57.0</ele><time>2026-05-02T07:17:02.907Z</time></trkpt><trkpt lat="42.1808383" lon="14.611115"><ele>57.0</ele><time>2026-05-02T07:17:05.907Z</time></trkpt><trkpt lat="42.1807633" lon="14.6111633"><ele>57.0</ele><time>2026-05-02T07:17:08.906Z</time></trkpt><trkpt lat="42.1806867" lon="14.6111917"><ele>57.285714285714285</ele><time>2026-05-02T07:17:11.907Z</time></trkpt><trkpt lat="42.1806133" lon="14.6112483"><ele>57.57142857142857</ele><time>2026-05-02T07:17:15.907Z</time></trkpt><trkpt lat="42.1805467" lon="14.611275"><ele>57.857142857142854</ele><time>2026-05-02T07:17:19.906Z</time></trkpt><trkpt lat="42.1805067" lon="14.6112017"><ele>58.14285714285714</ele><time>2026-05-02T07:17:24.907Z</time></trkpt><trkpt lat="42.1804583" lon="14.6111317"><ele>58.42857142857143</ele><time>2026-05-02T07:17:28.906Z</time></trkpt><trkpt lat="42.18043" lon="14.6110433"><ele>58.71428571428571</ele><time>2026-05-02T07:17:31.906Z</time></trkpt><trkpt lat="42.1804083" lon="14.6109617"><ele>59.0</ele><time>2026-05-02T07:17:34.907Z</time></trkpt><trkpt lat="42.180385" lon="14.6108583"><ele>59.0</ele><time>2026-05-02T07:17:38.907Z</time></trkpt><trkpt lat="42.1803683" lon="14.6107617"><ele>59.0</ele><time>2026-05-02T07:17:42.907Z</time></trkpt><trkpt lat="42.1803467" lon="14.6106683"><ele>59.0</ele><time>2026-05-02T07:17:46.907Z</time></trkpt><trkpt lat="42.180315" lon="14.6105833"><ele>59.0</ele><time>2026-05-02T07:17:50.907Z</time></trkpt><trkpt lat="42.1802883" lon="14.6104967"><ele>59.0</ele><time>2026-05-02T07:17:54.907Z</time></trkpt><trkpt lat="42.1802733" lon="14.61041"><ele>59.0</ele><time>2026-05-02T07:17:58.907Z</time></trkpt><trkpt lat="42.1802617" lon="14.610325"><ele>59.0</ele><time>2026-05-02T07:18:01.907Z</time></trkpt><trkpt lat="42.1802533" lon="14.6102217"><ele>61.333333333333336</ele><time>2026-05-02T07:18:05.907Z</time></trkpt><trkpt lat="42.1802417" lon="14.61011"><ele>63.66666666666667</ele><time>2026-05-02T07:18:09.907Z</time></trkpt><trkpt lat="42.1802217" lon="14.6100083"><ele>66.0</ele><time>2026-05-02T07:18:12.906Z</time></trkpt><trkpt lat="42.1801967" lon="14.6099267"><ele>68.33333333333333</ele><time>2026-05-02T07:18:15.906Z</time></trkpt><trkpt lat="42.1801367" lon="14.6098767"><ele>70.66666666666666</ele><time>2026-05-02T07:18:19.907Z</time></trkpt><trkpt lat="42.1800717" lon="14.6099117"><ele>73.0</ele><time>2026-05-02T07:18:23.906Z</time></trkpt><trkpt lat="42.1799717" lon="14.6099367"><ele>73.0</ele><time>2026-05-02T07:18:26.907Z</time></trkpt><trkpt lat="42.1798917" lon="14.6099517"><ele>73.0</ele><time>2026-05-02T07:18:28.907Z</time></trkpt><trkpt lat="42.1798017" lon="14.60999"><ele>73.0</ele><time>2026-05-02T07:18:30.906Z</time></trkpt><trkpt lat="42.179705" lon="14.6100467"><ele>73.0</ele><time>2026-05-02T07:18:32.907Z</time></trkpt><trkpt lat="42.1796283" lon="14.6100933"><ele>73.0</ele><time>2026-05-02T07:18:34.907Z</time></trkpt><trkpt lat="42.1795483" lon="14.6101017"><ele>73.0</ele><time>2026-05-02T07:18:37.907Z</time></trkpt><trkpt lat="42.1794683" lon="14.6101"><ele>73.0</ele><time>2026-05-02T07:18:40.906Z</time></trkpt><trkpt lat="42.1794033" lon="14.610115"><ele>73.0</ele><time>2026-05-02T07:18:42.906Z</time></trkpt><trkpt lat="42.1793133" lon="14.6101383"><ele>73.0</ele><time>2026-05-02T07:18:45.906Z</time></trkpt><trkpt lat="42.17924" lon="14.61016"><ele>73.0</ele><time>2026-05-02T07:18:47.907Z</time></trkpt><trkpt lat="42.1791633" lon="14.610185"><ele>73.0</ele><time>2026-05-02T07:18:49.907Z</time></trkpt><trkpt lat="42.1790783" lon="14.6101717"><ele>73.0</ele><time>2026-05-02T07:18:52.906Z</time></trkpt><trkpt lat="42.1789967" lon="14.6101367"><ele>73.0</ele><time>2026-05-02T07:18:55.906Z</time></trkpt><trkpt lat="42.1789133" lon="14.6101133"><ele>73.0</ele><time>2026-05-02T07:18:58.907Z</time></trkpt><trkpt lat="42.1788367" lon="14.6100917"><ele>73.0</ele><time>2026-05-02T07:19:01.906Z</time></trkpt><trkpt lat="42.1787533" lon="14.6100683"><ele>73.0</ele><time>2026-05-02T07:19:04.907Z</time></trkpt><trkpt lat="42.178675" lon="14.6100333"><ele>73.0</ele><time>2026-05-02T07:19:07.907Z</time></trkpt><trkpt lat="42.1786217" lon="14.6099667"><ele>73.0</ele><time>2026-05-02T07:19:10.906Z</time></trkpt><trkpt lat="42.178575" lon="14.6098833"><ele>73.0</ele><time>2026-05-02T07:19:13.907Z</time></trkpt><trkpt lat="42.1785317" lon="14.609805"><ele>73.0</ele><time>2026-05-02T07:19:16.907Z</time></trkpt><trkpt lat="42.1784883" lon="14.6097333"><ele>73.0</ele><time>2026-05-02T07:19:19.906Z</time></trkpt><trkpt lat="42.1784383" lon="14.6096617"><ele>73.0</ele><time>2026-05-02T07:19:22.906Z</time></trkpt><trkpt lat="42.17839" lon="14.609605"><ele>73.0</ele><time>2026-05-02T07:19:25.907Z</time></trkpt><trkpt lat="42.1783333" lon="14.6095533"><ele>73.0</ele><time>2026-05-02T07:19:28.906Z</time></trkpt><trkpt lat="42.17827" lon="14.6094817"><ele>73.0</ele><time>2026-05-02T07:19:31.906Z</time></trkpt><trkpt lat="42.1782033" lon="14.6094217"><ele>73.57142857142857</ele><time>2026-05-02T07:19:34.907Z</time></trkpt><trkpt lat="42.17812" lon="14.6093683"><ele>74.14285714285714</ele><time>2026-05-02T07:19:37.907Z</time></trkpt><trkpt lat="42.17806" lon="14.6093383"><ele>74.71428571428572</ele><time>2026-05-02T07:19:39.907Z</time></trkpt><trkpt lat="42.177985" lon="14.60929"><ele>75.28571428571428</ele><time>2026-05-02T07:19:42.907Z</time></trkpt><trkpt lat="42.1779433" lon="14.609225"><ele>75.85714285714286</ele><time>2026-05-02T07:19:45.907Z</time></trkpt><trkpt lat="42.17794" lon="14.6091367"><ele>76.42857142857143</ele><time>2026-05-02T07:19:49.907Z</time></trkpt><trkpt lat="42.178015" lon="14.6091467"><ele>77.0</ele><time>2026-05-02T07:19:55.907Z</time></trkpt><trkpt lat="42.17808" lon="14.609155"><ele>77.0</ele><time>2026-05-02T07:19:59.906Z</time></trkpt><trkpt lat="42.1781483" lon="14.6091183"><ele>77.0</ele><time>2026-05-02T07:20:04.906Z</time></trkpt><trkpt lat="42.1781833" lon="14.609025"><ele>77.0</ele><time>2026-05-02T07:20:08.906Z</time></trkpt><trkpt lat="42.17818" lon="14.608935"><ele>77.0</ele><time>2026-05-02T07:20:12.907Z</time></trkpt><trkpt lat="42.17819" lon="14.6088483"><ele>77.0</ele><time>2026-05-02T07:20:16.907Z</time></trkpt><trkpt lat="42.1782133" lon="14.6087683"><ele>77.0</ele><time>2026-05-02T07:20:20.906Z</time></trkpt><trkpt lat="42.1782433" lon="14.60867"><ele>77.0</ele><time>2026-05-02T07:20:24.907Z</time></trkpt><trkpt lat="42.178265" lon="14.6085733"><ele>80.66666666666667</ele><time>2026-05-02T07:20:27.906Z</time></trkpt><trkpt lat="42.178285" lon="14.60847"><ele>84.33333333333334</ele><time>2026-05-02T07:20:30.906Z</time></trkpt><trkpt lat="42.17829" lon="14.6083517"><ele>88.0</ele><time>2026-05-02T07:20:33.907Z</time></trkpt><trkpt lat="42.1782933" lon="14.6082667"><ele>91.66666666666667</ele><time>2026-05-02T07:20:35.907Z</time></trkpt><trkpt lat="42.1783" lon="14.608175"><ele>95.33333333333333</ele><time>2026-05-02T07:20:37.907Z</time></trkpt><trkpt lat="42.1783083" lon="14.60808"><ele>99.0</ele><time>2026-05-02T07:20:39.907Z</time></trkpt><trkpt lat="42.1783183" lon="14.6079533"><ele>99.0</ele><time>2026-05-02T07:20:42.906Z</time></trkpt><trkpt lat="42.1783283" lon="14.6078367"><ele>99.0</ele><time>2026-05-02T07:20:45.907Z</time></trkpt><trkpt lat="42.1783433" lon="14.6077117"><ele>99.0</ele><time>2026-05-02T07:20:48.907Z</time></trkpt><trkpt lat="42.1783533" lon="14.607585"><ele>99.0</ele><time>2026-05-02T07:20:51.906Z</time></trkpt><trkpt lat="42.17835" lon="14.6074967"><ele>99.0</ele><time>2026-05-02T07:20:53.906Z</time></trkpt><trkpt lat="42.178335" lon="14.6074067"><ele>99.0</ele><time>2026-05-02T07:20:55.907Z</time></trkpt><trkpt lat="42.178315" lon="14.6073167"><ele>99.5</ele><time>2026-05-02T07:20:57.906Z</time></trkpt><trkpt lat="42.178295" lon="14.6072"><ele>100.0</ele><time>2026-05-02T07:21:00.907Z</time></trkpt><trkpt lat="42.178275" lon="14.6071067"><ele>100.5</ele><time>2026-05-02T07:21:02.907Z</time></trkpt><trkpt lat="42.178255" lon="14.60702"><ele>101.0</ele><time>2026-05-02T07:21:04.906Z</time></trkpt><trkpt lat="42.1782333" lon="14.6069267"><ele>101.5</ele><time>2026-05-02T07:21:06.906Z</time></trkpt><trkpt lat="42.1782133" lon="14.6067933"><ele>102.0</ele><time>2026-05-02T07:21:09.907Z</time></trkpt><trkpt lat="42.1781883" lon="14.6067"><ele>101.83333333333333</ele><time>2026-05-02T07:21:11.907Z</time></trkpt><trkpt lat="42.1781733" lon="14.6066017"><ele>101.66666666666666</ele><time>2026-05-02T07:21:13.907Z</time></trkpt><trkpt lat="42.1782133" lon="14.60651"><ele>101.5</ele><time>2026-05-02T07:21:16.906Z</time></trkpt><trkpt lat="42.17828" lon="14.60649"><ele>101.33333333333333</ele><time>2026-05-02T07:21:18.907Z</time></trkpt><trkpt lat="42.1783667" lon="14.606495"><ele>101.16666666666666</ele><time>2026-05-02T07:21:20.907Z</time></trkpt><trkpt lat="42.1784667" lon="14.6065117"><ele>101.0</ele><time>2026-05-02T07:21:22.906Z</time></trkpt><trkpt lat="42.1785683" lon="14.6065217"><ele>101.0</ele><time>2026-05-02T07:21:24.907Z</time></trkpt><trkpt lat="42.17867" lon="14.606535"><ele>101.0</ele><time>2026-05-02T07:21:26.907Z</time></trkpt><trkpt lat="42.1787667" lon="14.6065417"><ele>101.0</ele><time>2026-05-02T07:21:28.907Z</time></trkpt><trkpt lat="42.1788733" lon="14.6065267"><ele>101.0</ele><time>2026-05-02T07:21:30.906Z</time></trkpt><trkpt lat="42.1789967" lon="14.6064867"><ele>101.0</ele><time>2026-05-02T07:21:32.907Z</time></trkpt><trkpt lat="42.1790617" lon="14.6064667"><ele>100.99999999999999</ele><time>2026-05-02T07:21:33.907Z</time></trkpt><trkpt lat="42.17919" lon="14.6064267"><ele>101.0</ele><time>2026-05-02T07:21:35.907Z</time></trkpt><trkpt lat="42.1792667" lon="14.6064017"><ele>101.0</ele><time>2026-05-02T07:21:36.907Z</time></trkpt><trkpt lat="42.1793367" lon="14.6063783"><ele>101.0</ele><time>2026-05-02T07:21:37.907Z</time></trkpt><trkpt lat="42.1794133" lon="14.6063567"><ele>100.99999999999999</ele><time>2026-05-02T07:21:38.906Z</time></trkpt><trkpt lat="42.1794917" lon="14.606335"><ele>101.0</ele><time>2026-05-02T07:21:39.906Z</time></trkpt><trkpt lat="42.1795667" lon="14.60631"><ele>100.99999999999999</ele><time>2026-05-02T07:21:40.907Z</time></trkpt><trkpt lat="42.1796433" lon="14.6062833"><ele>101.0</ele><time>2026-05-02T07:21:41.906Z</time></trkpt><trkpt lat="42.17972" lon="14.6062583"><ele>101.0</ele><time>2026-05-02T07:21:42.907Z</time></trkpt><trkpt lat="42.1797967" lon="14.6062283"><ele>101.0</ele><time>2026-05-02T07:21:43.906Z</time></trkpt><trkpt lat="42.1798717" lon="14.606205"><ele>100.99999999999999</ele><time>2026-05-02T07:21:44.907Z</time></trkpt><trkpt lat="42.17994" lon="14.6061767"><ele>101.0</ele><time>2026-05-02T07:21:45.907Z</time></trkpt><trkpt lat="42.1800067" lon="14.606155"><ele>101.16666666666666</ele><time>2026-05-02T07:21:46.907Z</time></trkpt><trkpt lat="42.18007" lon="14.6061367"><ele>101.33333333333333</ele><time>2026-05-02T07:21:47.906Z</time></trkpt><trkpt lat="42.1801417" lon="14.606115"><ele>101.5</ele><time>2026-05-02T07:21:48.906Z</time></trkpt><trkpt lat="42.1802167" lon="14.6060917"><ele>101.66666666666666</ele><time>2026-05-02T07:21:49.907Z</time></trkpt><trkpt lat="42.1802917" lon="14.6060667"><ele>101.83333333333333</ele><time>2026-05-02T07:21:50.907Z</time></trkpt><trkpt lat="42.1803733" lon="14.60604"><ele>102.0</ele><time>2026-05-02T07:21:51.906Z</time></trkpt><trkpt lat="42.1804633" lon="14.60601"><ele>102.0</ele><time>2026-05-02T07:21:52.907Z</time></trkpt><trkpt lat="42.1805433" lon="14.6059817"><ele>102.0</ele><time>2026-05-02T07:21:53.907Z</time></trkpt><trkpt lat="42.1806217" lon="14.6059533"><ele>102.0</ele><time>2026-05-02T07:21:54.906Z</time></trkpt><trkpt lat="42.1806983" lon="14.605925"><ele>102.0</ele><time>2026-05-02T07:21:55.907Z</time></trkpt><trkpt lat="42.1807667" lon="14.6059017"><ele>102.0</ele><time>2026-05-02T07:21:56.907Z</time></trkpt><trkpt lat="42.1808367" lon="14.6058767"><ele>102.0</ele><time>2026-05-02T07:21:57.907Z</time></trkpt><trkpt lat="42.1809017" lon="14.60586"><ele>101.6</ele><time>2026-05-02T07:21:58.907Z</time></trkpt><trkpt lat="42.181015" lon="14.60582"><ele>101.19999999999999</ele><time>2026-05-02T07:22:00.907Z</time></trkpt><trkpt lat="42.1811217" lon="14.60579"><ele>100.8</ele><time>2026-05-02T07:22:02.907Z</time></trkpt><trkpt lat="42.18122" lon="14.605765"><ele>100.4</ele><time>2026-05-02T07:22:04.907Z</time></trkpt><trkpt lat="42.1813117" lon="14.60573"><ele>100.0</ele><time>2026-05-02T07:22:06.907Z</time></trkpt><trkpt lat="42.1814017" lon="14.605705"><ele>100.0</ele><time>2026-05-02T07:22:08.906Z</time></trkpt><trkpt lat="42.181485" lon="14.6056767"><ele>100.0</ele><time>2026-05-02T07:22:10.906Z</time></trkpt><trkpt lat="42.1815683" lon="14.60565"><ele>100.0</ele><time>2026-05-02T07:22:12.907Z</time></trkpt><trkpt lat="42.1816667" lon="14.6056183"><ele>100.0</ele><time>2026-05-02T07:22:14.907Z</time></trkpt><trkpt lat="42.1817683" lon="14.6055883"><ele>100.0</ele><time>2026-05-02T07:22:16.906Z</time></trkpt><trkpt lat="42.1818567" lon="14.6055633"><ele>99.4</ele><time>2026-05-02T07:22:18.907Z</time></trkpt><trkpt lat="42.1819467" lon="14.6055317"><ele>98.8</ele><time>2026-05-02T07:22:20.906Z</time></trkpt><trkpt lat="42.1820383" lon="14.6055083"><ele>98.19999999999999</ele><time>2026-05-02T07:22:22.906Z</time></trkpt><trkpt lat="42.1821217" lon="14.6054817"><ele>97.6</ele><time>2026-05-02T07:22:24.907Z</time></trkpt><trkpt lat="42.1822117" lon="14.605455"><ele>97.0</ele><time>2026-05-02T07:22:26.907Z</time></trkpt><trkpt lat="42.1823133" lon="14.605425"><ele>96.8</ele><time>2026-05-02T07:22:28.907Z</time></trkpt><trkpt lat="42.1824133" lon="14.6053883"><ele>96.6</ele><time>2026-05-02T07:22:30.906Z</time></trkpt><trkpt lat="42.18252" lon="14.605365"><ele>96.39999999999999</ele><time>2026-05-02T07:22:32.906Z</time></trkpt><trkpt lat="42.182615" lon="14.6053333"><ele>96.19999999999999</ele><time>2026-05-02T07:22:34.907Z</time></trkpt><trkpt lat="42.1827083" lon="14.6053"><ele>96.0</ele><time>2026-05-02T07:22:36.906Z</time></trkpt><trkpt lat="42.182795" lon="14.6052717"><ele>96.0</ele><time>2026-05-02T07:22:38.907Z</time></trkpt><trkpt lat="42.1828683" lon="14.6052383"><ele>96.0</ele><time>2026-05-02T07:22:40.906Z</time></trkpt><trkpt lat="42.1829517" lon="14.605185"><ele>96.0</ele><time>2026-05-02T07:22:42.907Z</time></trkpt><trkpt lat="42.18304" lon="14.6051167"><ele>96.0</ele><time>2026-05-02T07:22:44.907Z</time></trkpt><trkpt lat="42.18313" lon="14.6050383"><ele>96.0</ele><time>2026-05-02T07:22:46.906Z</time></trkpt><trkpt lat="42.1832217" lon="14.604975"><ele>95.4</ele><time>2026-05-02T07:22:48.906Z</time></trkpt><trkpt lat="42.1833083" lon="14.6049433"><ele>94.8</ele><time>2026-05-02T07:22:50.907Z</time></trkpt><trkpt lat="42.1833933" lon="14.6050033"><ele>94.2</ele><time>2026-05-02T07:22:52.907Z</time></trkpt><trkpt lat="42.1834417" lon="14.6051383"><ele>93.60000000000001</ele><time>2026-05-02T07:22:54.906Z</time></trkpt><trkpt lat="42.1834833" lon="14.6052917"><ele>93.0</ele><time>2026-05-02T07:22:56.907Z</time></trkpt><trkpt lat="42.1835217" lon="14.6054433"><ele>91.75</ele><time>2026-05-02T07:22:58.907Z</time></trkpt><trkpt lat="42.1835583" lon="14.6055833"><ele>90.5</ele><time>2026-05-02T07:23:00.907Z</time></trkpt><trkpt lat="42.1836017" lon="14.6057183"><ele>89.25</ele><time>2026-05-02T07:23:02.906Z</time></trkpt><trkpt lat="42.1836633" lon="14.6058433"><ele>88.0</ele><time>2026-05-02T07:23:04.907Z</time></trkpt><trkpt lat="42.1837417" lon="14.6059733"><ele>88.0</ele><time>2026-05-02T07:23:06.907Z</time></trkpt><trkpt lat="42.18379" lon="14.606035"><ele>88.0</ele><time>2026-05-02T07:23:07.907Z</time></trkpt><trkpt lat="42.18383" lon="14.6061033"><ele>88.0</ele><time>2026-05-02T07:23:08.907Z</time></trkpt><trkpt lat="42.183875" lon="14.606175"><ele>88.0</ele><time>2026-05-02T07:23:09.907Z</time></trkpt><trkpt lat="42.1839233" lon="14.606245"><ele>88.0</ele><time>2026-05-02T07:23:10.906Z</time></trkpt><trkpt lat="42.183965" lon="14.6063167"><ele>88.0</ele><time>2026-05-02T07:23:11.907Z</time></trkpt><trkpt lat="42.184015" lon="14.60639"><ele>88.0</ele><time>2026-05-02T07:23:12.907Z</time></trkpt><trkpt lat="42.1840583" lon="14.60646"><ele>87.80000000000001</ele><time>2026-05-02T07:23:13.906Z</time></trkpt><trkpt lat="42.1841017" lon="14.6065233"><ele>87.6</ele><time>2026-05-02T07:23:14.907Z</time></trkpt><trkpt lat="42.1841833" lon="14.6066417"><ele>87.4</ele><time>2026-05-02T07:23:16.907Z</time></trkpt><trkpt lat="42.1842617" lon="14.6067683"><ele>87.19999999999999</ele><time>2026-05-02T07:23:18.907Z</time></trkpt><trkpt lat="42.1843433" lon="14.606885"><ele>87.0</ele><time>2026-05-02T07:23:20.906Z</time></trkpt><trkpt lat="42.1844167" lon="14.6069933"><ele>85.8</ele><time>2026-05-02T07:23:22.907Z</time></trkpt><trkpt lat="42.184485" lon="14.6070983"><ele>84.6</ele><time>2026-05-02T07:23:24.906Z</time></trkpt><trkpt lat="42.1845433" lon="14.6072017"><ele>83.39999999999999</ele><time>2026-05-02T07:23:26.906Z</time></trkpt><trkpt lat="42.1846133" lon="14.6073167"><ele>82.19999999999999</ele><time>2026-05-02T07:23:28.907Z</time></trkpt><trkpt lat="42.184655" lon="14.60744"><ele>81.0</ele><time>2026-05-02T07:23:30.907Z</time></trkpt><trkpt lat="42.1846517" lon="14.6075983"><ele>81.0</ele><time>2026-05-02T07:23:32.907Z</time></trkpt><trkpt lat="42.1846533" lon="14.6077683"><ele>81.0</ele><time>2026-05-02T07:23:34.906Z</time></trkpt><trkpt lat="42.1846783" lon="14.6079283"><ele>81.0</ele><time>2026-05-02T07:23:36.907Z</time></trkpt><trkpt lat="42.1847083" lon="14.6080833"><ele>81.0</ele><time>2026-05-02T07:23:38.906Z</time></trkpt><trkpt lat="42.1847367" lon="14.6081633"><ele>81.0</ele><time>2026-05-02T07:23:39.906Z</time></trkpt><trkpt lat="42.1848083" lon="14.6082833"><ele>81.4</ele><time>2026-05-02T07:23:41.907Z</time></trkpt><trkpt lat="42.18488" lon="14.60837"><ele>81.8</ele><time>2026-05-02T07:23:43.907Z</time></trkpt><trkpt lat="42.1849567" lon="14.60845"><ele>82.2</ele><time>2026-05-02T07:23:45.906Z</time></trkpt><trkpt lat="42.1850283" lon="14.60853"><ele>82.60000000000001</ele><time>2026-05-02T07:23:47.907Z</time></trkpt><trkpt lat="42.1851017" lon="14.6086033"><ele>83.0</ele><time>2026-05-02T07:23:49.907Z</time></trkpt><trkpt lat="42.185175" lon="14.60868"><ele>80.60000000000001</ele><time>2026-05-02T07:23:51.906Z</time></trkpt><trkpt lat="42.185245" lon="14.6087483"><ele>78.2</ele><time>2026-05-02T07:23:53.907Z</time></trkpt><trkpt lat="42.185315" lon="14.60882"><ele>75.8</ele><time>2026-05-02T07:23:55.907Z</time></trkpt><trkpt lat="42.18539" lon="14.6088967"><ele>73.4</ele><time>2026-05-02T07:23:57.906Z</time></trkpt><trkpt lat="42.185465" lon="14.60896"><ele>71.0</ele><time>2026-05-02T07:23:59.907Z</time></trkpt><trkpt lat="42.18555" lon="14.6090333"><ele>71.0</ele><time>2026-05-02T07:24:01.907Z</time></trkpt><trkpt lat="42.1856367" lon="14.6091183"><ele>71.0</ele><time>2026-05-02T07:24:03.907Z</time></trkpt><trkpt lat="42.1857283" lon="14.6092"><ele>71.0</ele><time>2026-05-02T07:24:05.907Z</time></trkpt><trkpt lat="42.1858233" lon="14.6092867"><ele>71.0</ele><time>2026-05-02T07:24:07.907Z</time></trkpt><trkpt lat="42.1859283" lon="14.6093583"><ele>71.0</ele><time>2026-05-02T07:24:09.907Z</time></trkpt><trkpt lat="42.186025" lon="14.6094233"><ele>69.6</ele><time>2026-05-02T07:24:11.907Z</time></trkpt><trkpt lat="42.186125" lon="14.609475"><ele>68.19999999999999</ele><time>2026-05-02T07:24:13.906Z</time></trkpt><trkpt lat="42.186215" lon="14.6095233"><ele>66.80000000000001</ele><time>2026-05-02T07:24:15.907Z</time></trkpt><trkpt lat="42.1862967" lon="14.6095833"><ele>65.4</ele><time>2026-05-02T07:24:17.907Z</time></trkpt><trkpt lat="42.186395" lon="14.60964"><ele>64.0</ele><time>2026-05-02T07:24:19.906Z</time></trkpt><trkpt lat="42.1864767" lon="14.6096883"><ele>65.33333333333333</ele><time>2026-05-02T07:24:21.907Z</time></trkpt><trkpt lat="42.18655" lon="14.6097133"><ele>66.66666666666666</ele><time>2026-05-02T07:24:23.906Z</time></trkpt><trkpt lat="42.1866133" lon="14.60974"><ele>68.0</ele><time>2026-05-02T07:24:25.907Z</time></trkpt><trkpt lat="42.1866783" lon="14.6097767"><ele>69.33333333333333</ele><time>2026-05-02T07:24:27.907Z</time></trkpt><trkpt lat="42.1867583" lon="14.6098217"><ele>70.66666666666667</ele><time>2026-05-02T07:24:29.907Z</time></trkpt><trkpt lat="42.1868517" lon="14.6098733"><ele>72.0</ele><time>2026-05-02T07:24:31.907Z</time></trkpt><trkpt lat="42.18693" lon="14.6099283"><ele>72.0</ele><time>2026-05-02T07:24:33.907Z</time></trkpt><trkpt lat="42.1870083" lon="14.609975"><ele>72.0</ele><time>2026-05-02T07:24:35.906Z</time></trkpt><trkpt lat="42.1870783" lon="14.6100283"><ele>72.0</ele><time>2026-05-02T07:24:37.907Z</time></trkpt><trkpt lat="42.1871383" lon="14.6101"><ele>72.0</ele><time>2026-05-02T07:24:39.907Z</time></trkpt><trkpt lat="42.187225" lon="14.6101567"><ele>72.0</ele><time>2026-05-02T07:24:41.906Z</time></trkpt><trkpt lat="42.1873133" lon="14.6102083"><ele>72.0</ele><time>2026-05-02T07:24:43.906Z</time></trkpt><trkpt lat="42.1874017" lon="14.6102733"><ele>71.75</ele><time>2026-05-02T07:24:45.907Z</time></trkpt><trkpt lat="42.1874867" lon="14.610365"><ele>71.5</ele><time>2026-05-02T07:24:47.906Z</time></trkpt><trkpt lat="42.18758" lon="14.6104567"><ele>71.25</ele><time>2026-05-02T07:24:49.907Z</time></trkpt><trkpt lat="42.18767" lon="14.6105517"><ele>71.0</ele><time>2026-05-02T07:24:51.907Z</time></trkpt><trkpt lat="42.1877567" lon="14.61065"><ele>71.0</ele><time>2026-05-02T07:24:53.907Z</time></trkpt><trkpt lat="42.1878167" lon="14.6107233"><ele>71.0</ele><time>2026-05-02T07:24:55.906Z</time></trkpt><trkpt lat="42.1878733" lon="14.6107867"><ele>71.0</ele><time>2026-05-02T07:24:57.907Z</time></trkpt><trkpt lat="42.1879267" lon="14.6108417"><ele>71.0</ele><time>2026-05-02T07:24:59.907Z</time></trkpt><trkpt lat="42.1879267" lon="14.6109567"><ele>71.0</ele><time>2026-05-02T07:25:02.907Z</time></trkpt><trkpt lat="42.1878683" lon="14.6110433"><ele>71.0</ele><time>2026-05-02T07:25:04.907Z</time></trkpt><trkpt lat="42.1878033" lon="14.61114"><ele>68.0</ele><time>2026-05-02T07:25:06.906Z</time></trkpt><trkpt lat="42.1877383" lon="14.6112367"><ele>65.0</ele><time>2026-05-02T07:25:08.907Z</time></trkpt><trkpt lat="42.18769" lon="14.6113333"><ele>61.99999999999999</ele><time>2026-05-02T07:25:10.907Z</time></trkpt><trkpt lat="42.18769" lon="14.611445"><ele>59.0</ele><time>2026-05-02T07:25:12.907Z</time></trkpt><trkpt lat="42.18772" lon="14.611555"><ele>56.0</ele><time>2026-05-02T07:25:14.907Z</time></trkpt><trkpt lat="42.1877867" lon="14.6116617"><ele>56.0</ele><time>2026-05-02T07:25:16.906Z</time></trkpt><trkpt lat="42.1878783" lon="14.61175"><ele>55.99999999999999</ele><time>2026-05-02T07:25:18.907Z</time></trkpt><trkpt lat="42.18796" lon="14.6118233"><ele>55.99999999999999</ele><time>2026-05-02T07:25:20.907Z</time></trkpt><trkpt lat="42.1880183" lon="14.6118883"><ele>56.0</ele><time>2026-05-02T07:25:22.906Z</time></trkpt><trkpt lat="42.18804" lon="14.611985"><ele>56.0</ele><time>2026-05-02T07:25:24.906Z</time></trkpt><trkpt lat="42.1880467" lon="14.6121233"><ele>55.4</ele><time>2026-05-02T07:25:26.906Z</time></trkpt><trkpt lat="42.18808" lon="14.61227"><ele>54.8</ele><time>2026-05-02T07:25:28.906Z</time></trkpt><trkpt lat="42.18814" lon="14.612395"><ele>54.199999999999996</ele><time>2026-05-02T07:25:30.907Z</time></trkpt><trkpt lat="42.188205" lon="14.6124817"><ele>53.599999999999994</ele><time>2026-05-02T07:25:32.907Z</time></trkpt><trkpt lat="42.188265" lon="14.612585"><ele>53.0</ele><time>2026-05-02T07:25:34.907Z</time></trkpt><trkpt lat="42.1883017" lon="14.6127117"><ele>50.0</ele><time>2026-05-02T07:25:36.906Z</time></trkpt><trkpt lat="42.1883183" lon="14.6128617"><ele>47.0</ele><time>2026-05-02T07:25:38.906Z</time></trkpt><trkpt lat="42.1883317" lon="14.6130117"><ele>44.0</ele><time>2026-05-02T07:25:40.906Z</time></trkpt><trkpt lat="42.1883567" lon="14.6131433"><ele>41.0</ele><time>2026-05-02T07:25:42.906Z</time></trkpt><trkpt lat="42.1884" lon="14.6132367"><ele>38.0</ele><time>2026-05-02T07:25:44.907Z</time></trkpt><trkpt lat="42.188465" lon="14.6132733"><ele>38.0</ele><time>2026-05-02T07:25:46.907Z</time></trkpt><trkpt lat="42.1885333" lon="14.613325"><ele>38.0</ele><time>2026-05-02T07:25:48.907Z</time></trkpt><trkpt lat="42.1886083" lon="14.6133883"><ele>38.0</ele><time>2026-05-02T07:25:50.907Z</time></trkpt><trkpt lat="42.188685" lon="14.61345"><ele>38.0</ele><time>2026-05-02T07:25:52.907Z</time></trkpt><trkpt lat="42.1887617" lon="14.6134967"><ele>38.0</ele><time>2026-05-02T07:25:55.907Z</time></trkpt><trkpt lat="42.1888467" lon="14.6135083"><ele>38.0</ele><time>2026-05-02T07:25:59.906Z</time></trkpt><trkpt lat="42.1889083" lon="14.613535"><ele>38.0</ele><time>2026-05-02T07:26:02.907Z</time></trkpt><trkpt lat="42.18898" lon="14.6135783"><ele>38.0</ele><time>2026-05-02T07:26:05.906Z</time></trkpt><trkpt lat="42.189065" lon="14.613615"><ele>38.0</ele><time>2026-05-02T07:26:08.907Z</time></trkpt><trkpt lat="42.1891417" lon="14.613665"><ele>38.0</ele><time>2026-05-02T07:26:11.907Z</time></trkpt><trkpt lat="42.18922" lon="14.6137017"><ele>38.0</ele><time>2026-05-02T07:26:14.907Z</time></trkpt><trkpt lat="42.1892867" lon="14.61375"><ele>38.0</ele><time>2026-05-02T07:26:17.907Z</time></trkpt><trkpt lat="42.18934" lon="14.6137967"><ele>37.83333333333333</ele><time>2026-05-02T07:26:21.907Z</time></trkpt><trkpt lat="42.189415" lon="14.6138533"><ele>37.666666666666664</ele><time>2026-05-02T07:26:25.906Z</time></trkpt><trkpt lat="42.189485" lon="14.6138783"><ele>37.5</ele><time>2026-05-02T07:26:28.907Z</time></trkpt><trkpt lat="42.1895617" lon="14.613875"><ele>37.333333333333336</ele><time>2026-05-02T07:26:31.906Z</time></trkpt><trkpt lat="42.1896367" lon="14.6138283"><ele>37.16666666666667</ele><time>2026-05-02T07:26:35.906Z</time></trkpt><trkpt lat="42.18968" lon="14.6136883"><ele>37.0</ele><time>2026-05-02T07:27:00.907Z</time></trkpt><trkpt lat="42.189635" lon="14.6136017"><ele>39.714285714285715</ele><time>2026-05-02T07:27:03.907Z</time></trkpt><trkpt lat="42.1895867" lon="14.613505"><ele>42.42857142857143</ele><time>2026-05-02T07:27:06.907Z</time></trkpt><trkpt lat="42.1895483" lon="14.613435"><ele>45.14285714285714</ele><time>2026-05-02T07:27:09.907Z</time></trkpt><trkpt lat="42.1895133" lon="14.613345"><ele>47.85714285714286</ele><time>2026-05-02T07:27:13.907Z</time></trkpt><trkpt lat="42.1894767" lon="14.61326"><ele>50.57142857142857</ele><time>2026-05-02T07:27:16.906Z</time></trkpt><trkpt lat="42.18944" lon="14.613175"><ele>53.285714285714285</ele><time>2026-05-02T07:27:19.907Z</time></trkpt><trkpt lat="42.1894133" lon="14.6130883"><ele>56.0</ele><time>2026-05-02T07:27:22.907Z</time></trkpt><trkpt lat="42.189385" lon="14.6129817"><ele>56.00000000000001</ele><time>2026-05-02T07:27:26.907Z</time></trkpt><trkpt lat="42.1893517" lon="14.6128733"><ele>56.0</ele><time>2026-05-02T07:27:30.907Z</time></trkpt><trkpt lat="42.1893183" lon="14.6127933"><ele>56.0</ele><time>2026-05-02T07:27:33.907Z</time></trkpt><trkpt lat="42.189265" lon="14.61271"><ele>56.0</ele><time>2026-05-02T07:27:36.906Z</time></trkpt><trkpt lat="42.189225" lon="14.6126133"><ele>56.00000000000001</ele><time>2026-05-02T07:27:39.907Z</time></trkpt><trkpt lat="42.1891833" lon="14.6125333"><ele>56.0</ele><time>2026-05-02T07:27:41.907Z</time></trkpt><trkpt lat="42.1891433" lon="14.6124533"><ele>55.57142857142857</ele><time>2026-05-02T07:27:43.906Z</time></trkpt><trkpt lat="42.1891017" lon="14.6123683"><ele>55.14285714285714</ele><time>2026-05-02T07:27:45.907Z</time></trkpt><trkpt lat="42.1890617" lon="14.6122933"><ele>54.714285714285715</ele><time>2026-05-02T07:27:47.907Z</time></trkpt><trkpt lat="42.1890217" lon="14.612225"><ele>54.285714285714285</ele><time>2026-05-02T07:27:49.907Z</time></trkpt><trkpt lat="42.1889783" lon="14.61215"><ele>53.857142857142854</ele><time>2026-05-02T07:27:51.907Z</time></trkpt><trkpt lat="42.1889433" lon="14.6120767"><ele>53.42857142857143</ele><time>2026-05-02T07:27:53.907Z</time></trkpt><trkpt lat="42.1888967" lon="14.6119933"><ele>53.0</ele><time>2026-05-02T07:27:56.906Z</time></trkpt><trkpt lat="42.188895" lon="14.6119"><ele>55.833333333333336</ele><time>2026-05-02T07:28:26.906Z</time></trkpt><trkpt lat="42.1889417" lon="14.61184"><ele>58.66666666666667</ele><time>2026-05-02T07:28:31.907Z</time></trkpt><trkpt lat="42.188975" lon="14.61176"><ele>61.5</ele><time>2026-05-02T07:28:34.907Z</time></trkpt><trkpt lat="42.189005" lon="14.611665"><ele>64.33333333333333</ele><time>2026-05-02T07:28:37.907Z</time></trkpt><trkpt lat="42.1890433" lon="14.6115733"><ele>67.16666666666666</ele><time>2026-05-02T07:28:40.907Z</time></trkpt><trkpt lat="42.1890817" lon="14.6114633"><ele>70.0</ele><time>2026-05-02T07:28:43.907Z</time></trkpt><trkpt lat="42.18912" lon="14.611365"><ele>70.83333333333333</ele><time>2026-05-02T07:28:46.906Z</time></trkpt><trkpt lat="42.1891583" lon="14.6112883"><ele>71.66666666666666</ele><time>2026-05-02T07:28:48.907Z</time></trkpt><trkpt lat="42.1892033" lon="14.6111867"><ele>72.5</ele><time>2026-05-02T07:28:51.907Z</time></trkpt><trkpt lat="42.1892833" lon="14.6111667"><ele>73.33333333333333</ele><time>2026-05-02T07:28:55.906Z</time></trkpt><trkpt lat="42.189375" lon="14.6111917"><ele>74.16666666666667</ele><time>2026-05-02T07:28:58.907Z</time></trkpt><trkpt lat="42.1894367" lon="14.6112267"><ele>75.0</ele><time>2026-05-02T07:29:00.907Z</time></trkpt><trkpt lat="42.189495" lon="14.6112667"><ele>74.99999999999999</ele><time>2026-05-02T07:29:02.906Z</time></trkpt><trkpt lat="42.1895517" lon="14.6113083"><ele>75.0</ele><time>2026-05-02T07:29:04.906Z</time></trkpt><trkpt lat="42.1896133" lon="14.6113467"><ele>75.0</ele><time>2026-05-02T07:29:06.907Z</time></trkpt><trkpt lat="42.1896767" lon="14.611385"><ele>75.0</ele><time>2026-05-02T07:29:08.907Z</time></trkpt><trkpt lat="42.189745" lon="14.61143"><ele>75.0</ele><time>2026-05-02T07:29:10.907Z</time></trkpt><trkpt lat="42.1898117" lon="14.6114833"><ele>74.99999999999999</ele><time>2026-05-02T07:29:12.907Z</time></trkpt><trkpt lat="42.1898767" lon="14.6115283"><ele>75.0</ele><time>2026-05-02T07:29:14.906Z</time></trkpt><trkpt lat="42.1899567" lon="14.6115017"><ele>73.33333333333333</ele><time>2026-05-02T07:29:17.907Z</time></trkpt><trkpt lat="42.18997" lon="14.611385"><ele>71.66666666666667</ele><time>2026-05-02T07:29:21.906Z</time></trkpt><trkpt lat="42.18997" lon="14.611285"><ele>70.0</ele><time>2026-05-02T07:29:24.906Z</time></trkpt><trkpt lat="42.1899583" lon="14.6111567"><ele>68.33333333333334</ele><time>2026-05-02T07:29:27.907Z</time></trkpt><trkpt lat="42.1899667" lon="14.6110417"><ele>66.66666666666667</ele><time>2026-05-02T07:29:30.907Z</time></trkpt><trkpt lat="42.1899633" lon="14.6109183"><ele>65.0</ele><time>2026-05-02T07:29:33.906Z</time></trkpt><trkpt lat="42.189945" lon="14.6107983"><ele>65.0</ele><time>2026-05-02T07:29:35.907Z</time></trkpt><trkpt lat="42.1899217" lon="14.6107117"><ele>65.0</ele><time>2026-05-02T07:29:37.907Z</time></trkpt><trkpt lat="42.1898933" lon="14.610595"><ele>65.0</ele><time>2026-05-02T07:29:40.907Z</time></trkpt><trkpt lat="42.1898683" lon="14.6105133"><ele>65.0</ele><time>2026-05-02T07:29:42.906Z</time></trkpt><trkpt lat="42.1898233" lon="14.610435"><ele>65.0</ele><time>2026-05-02T07:29:44.906Z</time></trkpt><trkpt lat="42.189775" lon="14.61035"><ele>65.0</ele><time>2026-05-02T07:29:46.907Z</time></trkpt><trkpt lat="42.1897317" lon="14.6102633"><ele>67.8</ele><time>2026-05-02T07:29:48.907Z</time></trkpt><trkpt lat="42.189705" lon="14.6101417"><ele>70.6</ele><time>2026-05-02T07:29:51.907Z</time></trkpt><trkpt lat="42.1897417" lon="14.610015"><ele>73.4</ele><time>2026-05-02T07:29:54.906Z</time></trkpt><trkpt lat="42.1897683" lon="14.60988"><ele>76.2</ele><time>2026-05-02T07:29:56.907Z</time></trkpt><trkpt lat="42.1897817" lon="14.60975"><ele>79.0</ele><time>2026-05-02T07:29:58.906Z</time></trkpt><trkpt lat="42.1897983" lon="14.609635"><ele>79.00000000000001</ele><time>2026-05-02T07:30:00.906Z</time></trkpt><trkpt lat="42.189805" lon="14.6095317"><ele>79.0</ele><time>2026-05-02T07:30:02.907Z</time></trkpt><trkpt lat="42.189815" lon="14.60944"><ele>79.0</ele><time>2026-05-02T07:30:05.906Z</time></trkpt><trkpt lat="42.1898717" lon="14.609395"><ele>79.0</ele><time>2026-05-02T07:30:08.907Z</time></trkpt><trkpt lat="42.1898017" lon="14.609375"><ele>79.0</ele><time>2026-05-02T07:30:57.907Z</time></trkpt><trkpt lat="42.189735" lon="14.609355"><ele>79.00000000000001</ele><time>2026-05-02T07:30:59.907Z</time></trkpt><trkpt lat="42.1896783" lon="14.609315"><ele>79.0</ele><time>2026-05-02T07:31:01.907Z</time></trkpt><trkpt lat="42.1896" lon="14.6092633"><ele>78.71428571428572</ele><time>2026-05-02T07:31:04.906Z</time></trkpt><trkpt lat="42.1895417" lon="14.60923"><ele>78.42857142857143</ele><time>2026-05-02T07:31:06.907Z</time></trkpt><trkpt lat="42.1894817" lon="14.6091933"><ele>78.14285714285714</ele><time>2026-05-02T07:31:08.906Z</time></trkpt><trkpt lat="42.189415" lon="14.6091533"><ele>77.85714285714286</ele><time>2026-05-02T07:31:10.906Z</time></trkpt><trkpt lat="42.1893567" lon="14.6091067"><ele>77.57142857142857</ele><time>2026-05-02T07:31:12.907Z</time></trkpt><trkpt lat="42.1892983" lon="14.60907"><ele>77.28571428571429</ele><time>2026-05-02T07:31:14.906Z</time></trkpt><trkpt lat="42.1892417" lon="14.609025"><ele>77.0</ele><time>2026-05-02T07:31:16.906Z</time></trkpt><trkpt lat="42.1891717" lon="14.6089783"><ele>77.0</ele><time>2026-05-02T07:31:19.906Z</time></trkpt><trkpt lat="42.18912" lon="14.6089283"><ele>77.0</ele><time>2026-05-02T07:31:23.907Z</time></trkpt><trkpt lat="42.18908" lon="14.608845"><ele>77.0</ele><time>2026-05-02T07:31:26.907Z</time></trkpt><trkpt lat="42.189045" lon="14.6087683"><ele>77.0</ele><time>2026-05-02T07:31:28.906Z</time></trkpt><trkpt lat="42.1889883" lon="14.6087217"><ele>77.0</ele><time>2026-05-02T07:31:30.907Z</time></trkpt><trkpt lat="42.18892" lon="14.60868"><ele>77.0</ele><time>2026-05-02T07:31:32.907Z</time></trkpt><trkpt lat="42.1888583" lon="14.6086433"><ele>77.0</ele><time>2026-05-02T07:31:34.907Z</time></trkpt><trkpt lat="42.1888" lon="14.6086067"><ele>77.42857142857143</ele><time>2026-05-02T07:31:36.907Z</time></trkpt><trkpt lat="42.1887133" lon="14.60857"><ele>77.85714285714286</ele><time>2026-05-02T07:31:39.906Z</time></trkpt><trkpt lat="42.1886483" lon="14.608565"><ele>78.28571428571428</ele><time>2026-05-02T07:31:41.906Z</time></trkpt><trkpt lat="42.18858" lon="14.60856"><ele>78.71428571428572</ele><time>2026-05-02T07:31:43.907Z</time></trkpt><trkpt lat="42.1885167" lon="14.60853"><ele>79.14285714285714</ele><time>2026-05-02T07:31:45.907Z</time></trkpt><trkpt lat="42.1884617" lon="14.6084883"><ele>79.57142857142857</ele><time>2026-05-02T07:31:47.907Z</time></trkpt><trkpt lat="42.18839" lon="14.608435"><ele>80.0</ele><time>2026-05-02T07:31:50.907Z</time></trkpt><trkpt lat="42.1884183" lon="14.6083433"><ele>80.0</ele><time>2026-05-02T07:31:53.907Z</time></trkpt><trkpt lat="42.1884517" lon="14.6082667"><ele>80.0</ele><time>2026-05-02T07:31:55.906Z</time></trkpt><trkpt lat="42.1884933" lon="14.608195"><ele>80.0</ele><time>2026-05-02T07:31:57.907Z</time></trkpt><trkpt lat="42.1885433" lon="14.6081333"><ele>80.0</ele><time>2026-05-02T07:31:59.906Z</time></trkpt><trkpt lat="42.188595" lon="14.6080767"><ele>80.0</ele><time>2026-05-02T07:32:01.907Z</time></trkpt><trkpt lat="42.188655" lon="14.608025"><ele>80.0</ele><time>2026-05-02T07:32:03.906Z</time></trkpt><trkpt lat="42.1887167" lon="14.6079583"><ele>80.0</ele><time>2026-05-02T07:32:05.906Z</time></trkpt><trkpt lat="42.18878" lon="14.6078983"><ele>80.0</ele><time>2026-05-02T07:32:07.907Z</time></trkpt><trkpt lat="42.18885" lon="14.6078467"><ele>80.0</ele><time>2026-05-02T07:32:09.906Z</time></trkpt><trkpt lat="42.188915" lon="14.6077833"><ele>80.0</ele><time>2026-05-02T07:32:11.907Z</time></trkpt><trkpt lat="42.1889817" lon="14.60773"><ele>80.0</ele><time>2026-05-02T07:32:13.907Z</time></trkpt><trkpt lat="42.1890417" lon="14.6076767"><ele>80.0</ele><time>2026-05-02T07:32:15.906Z</time></trkpt><trkpt lat="42.1891033" lon="14.607595"><ele>80.0</ele><time>2026-05-02T07:32:17.907Z</time></trkpt><trkpt lat="42.1891567" lon="14.607515"><ele>79.5</ele><time>2026-05-02T07:32:19.906Z</time></trkpt><trkpt lat="42.1892017" lon="14.6074433"><ele>79.0</ele><time>2026-05-02T07:32:21.907Z</time></trkpt><trkpt lat="42.1892217" lon="14.60733"><ele>78.5</ele><time>2026-05-02T07:32:24.907Z</time></trkpt><trkpt lat="42.1892317" lon="14.6072433"><ele>78.0</ele><time>2026-05-02T07:32:26.906Z</time></trkpt><trkpt lat="42.1892567" lon="14.6071633"><ele>77.5</ele><time>2026-05-02T07:32:28.907Z</time></trkpt><trkpt lat="42.18932" lon="14.6070817"><ele>77.0</ele><time>2026-05-02T07:32:31.907Z</time></trkpt><trkpt lat="42.1893917" lon="14.6070333"><ele>77.66666666666667</ele><time>2026-05-02T07:32:34.906Z</time></trkpt><trkpt lat="42.18944" lon="14.60697"><ele>78.33333333333334</ele><time>2026-05-02T07:32:37.907Z</time></trkpt><trkpt lat="42.189485" lon="14.60691"><ele>79.0</ele><time>2026-05-02T07:32:40.907Z</time></trkpt><trkpt lat="42.1895517" lon="14.6068333"><ele>79.66666666666667</ele><time>2026-05-02T07:32:43.907Z</time></trkpt><trkpt lat="42.1896067" lon="14.6067633"><ele>80.33333333333333</ele><time>2026-05-02T07:32:45.907Z</time></trkpt><trkpt lat="42.1896667" lon="14.6066483"><ele>81.0</ele><time>2026-05-02T07:32:48.907Z</time></trkpt><trkpt lat="42.189695" lon="14.6065667"><ele>81.0</ele><time>2026-05-02T07:32:50.907Z</time></trkpt><trkpt lat="42.189685" lon="14.6064467"><ele>81.0</ele><time>2026-05-02T07:32:53.907Z</time></trkpt><trkpt lat="42.189645" lon="14.6063633"><ele>81.0</ele><time>2026-05-02T07:32:55.907Z</time></trkpt><trkpt lat="42.1895867" lon="14.6062633"><ele>81.0</ele><time>2026-05-02T07:32:58.907Z</time></trkpt><trkpt lat="42.1895333" lon="14.6062017"><ele>81.0</ele><time>2026-05-02T07:33:00.907Z</time></trkpt><trkpt lat="42.189465" lon="14.6061383"><ele>81.0</ele><time>2026-05-02T07:33:02.907Z</time></trkpt><trkpt lat="42.1894017" lon="14.606085"><ele>81.0</ele><time>2026-05-02T07:33:04.906Z</time></trkpt><trkpt lat="42.189345" lon="14.6060267"><ele>81.0</ele><time>2026-05-02T07:33:06.907Z</time></trkpt><trkpt lat="42.18928" lon="14.6059717"><ele>81.0</ele><time>2026-05-02T07:33:08.906Z</time></trkpt><trkpt lat="42.189225" lon="14.60591"><ele>81.0</ele><time>2026-05-02T07:33:10.907Z</time></trkpt><trkpt lat="42.1891633" lon="14.6058417"><ele>81.0</ele><time>2026-05-02T07:33:12.907Z</time></trkpt><trkpt lat="42.1890933" lon="14.6057817"><ele>81.0</ele><time>2026-05-02T07:33:14.907Z</time></trkpt><trkpt lat="42.1890267" lon="14.605725"><ele>81.33333333333333</ele><time>2026-05-02T07:33:16.907Z</time></trkpt><trkpt lat="42.188955" lon="14.6056583"><ele>81.66666666666667</ele><time>2026-05-02T07:33:18.907Z</time></trkpt><trkpt lat="42.1888817" lon="14.605585"><ele>82.0</ele><time>2026-05-02T07:33:20.907Z</time></trkpt><trkpt lat="42.1888167" lon="14.6055267"><ele>82.33333333333334</ele><time>2026-05-02T07:33:22.907Z</time></trkpt><trkpt lat="42.188745" lon="14.60546"><ele>82.66666666666667</ele><time>2026-05-02T07:33:24.906Z</time></trkpt><trkpt lat="42.188665" lon="14.6053867"><ele>83.0</ele><time>2026-05-02T07:33:26.906Z</time></trkpt><trkpt lat="42.188585" lon="14.6053133"><ele>81.5</ele><time>2026-05-02T07:33:28.906Z</time></trkpt><trkpt lat="42.1884967" lon="14.6052483"><ele>80.0</ele><time>2026-05-02T07:33:30.907Z</time></trkpt><trkpt lat="42.188445" lon="14.6051933"><ele>78.5</ele><time>2026-05-02T07:33:32.907Z</time></trkpt><trkpt lat="42.1885" lon="14.6051517"><ele>77.0</ele><time>2026-05-02T07:33:37.907Z</time></trkpt><trkpt lat="42.1885683" lon="14.6051317"><ele>75.5</ele><time>2026-05-02T07:33:40.907Z</time></trkpt><trkpt lat="42.1886583" lon="14.605115"><ele>74.0</ele><time>2026-05-02T07:33:43.906Z</time></trkpt><trkpt lat="42.188745" lon="14.6051"><ele>74.0</ele><time>2026-05-02T07:33:45.907Z</time></trkpt><trkpt lat="42.188835" lon="14.6050933"><ele>74.0</ele><time>2026-05-02T07:33:47.906Z</time></trkpt><trkpt lat="42.1889167" lon="14.6050783"><ele>74.0</ele><time>2026-05-02T07:33:49.907Z</time></trkpt><trkpt lat="42.18898" lon="14.6050683"><ele>74.0</ele><time>2026-05-02T07:33:51.907Z</time></trkpt><trkpt lat="42.1890733" lon="14.6050117"><ele>74.0</ele><time>2026-05-02T07:33:54.906Z</time></trkpt><trkpt lat="42.189125" lon="14.60496"><ele>74.0</ele><time>2026-05-02T07:33:56.907Z</time></trkpt><trkpt lat="42.1891717" lon="14.6048983"><ele>74.0</ele><time>2026-05-02T07:33:58.907Z</time></trkpt><trkpt lat="42.1891917" lon="14.6048033"><ele>74.0</ele><time>2026-05-02T07:34:01.907Z</time></trkpt><trkpt lat="42.189195" lon="14.6046883"><ele>74.0</ele><time>2026-05-02T07:34:04.907Z</time></trkpt><trkpt lat="42.18915" lon="14.6046283"><ele>74.0</ele><time>2026-05-02T07:34:06.906Z</time></trkpt><trkpt lat="42.189065" lon="14.6045983"><ele>74.0</ele><time>2026-05-02T07:34:08.906Z</time></trkpt><trkpt lat="42.1889983" lon="14.60459"><ele>74.0</ele><time>2026-05-02T07:34:10.907Z</time></trkpt><trkpt lat="42.18893" lon="14.604575"><ele>74.0</ele><time>2026-05-02T07:34:12.906Z</time></trkpt><trkpt lat="42.1888367" lon="14.60453"><ele>73.0</ele><time>2026-05-02T07:34:15.906Z</time></trkpt><trkpt lat="42.1887683" lon="14.60449"><ele>72.0</ele><time>2026-05-02T07:34:17.907Z</time></trkpt><trkpt lat="42.1886983" lon="14.6044583"><ele>71.0</ele><time>2026-05-02T07:34:19.907Z</time></trkpt><trkpt lat="42.1886117" lon="14.60443"><ele>70.0</ele><time>2026-05-02T07:34:21.906Z</time></trkpt><trkpt lat="42.18855" lon="14.6043933"><ele>69.0</ele><time>2026-05-02T07:34:23.907Z</time></trkpt><trkpt lat="42.18846" lon="14.6043933"><ele>68.0</ele><time>2026-05-02T07:34:26.907Z</time></trkpt><trkpt lat="42.1883967" lon="14.6044"><ele>68.0</ele><time>2026-05-02T07:34:28.907Z</time></trkpt><trkpt lat="42.1883183" lon="14.60435"><ele>68.0</ele><time>2026-05-02T07:34:32.907Z</time></trkpt><trkpt lat="42.18823" lon="14.6042933"><ele>68.0</ele><time>2026-05-02T07:34:35.907Z</time></trkpt><trkpt lat="42.1881583" lon="14.604245"><ele>68.0</ele><time>2026-05-02T07:34:38.907Z</time></trkpt><trkpt lat="42.1880833" lon="14.60425"><ele>68.0</ele><time>2026-05-02T07:34:40.906Z</time></trkpt><trkpt lat="42.1880133" lon="14.604215"><ele>68.0</ele><time>2026-05-02T07:34:44.907Z</time></trkpt><trkpt lat="42.1879517" lon="14.604195"><ele>68.66666666666667</ele><time>2026-05-02T07:34:46.906Z</time></trkpt><trkpt lat="42.1878833" lon="14.6041867"><ele>69.33333333333334</ele><time>2026-05-02T07:34:48.906Z</time></trkpt><trkpt lat="42.1878133" lon="14.604145"><ele>70.0</ele><time>2026-05-02T07:34:51.906Z</time></trkpt><trkpt lat="42.1877283" lon="14.6041083"><ele>70.66666666666667</ele><time>2026-05-02T07:34:54.907Z</time></trkpt><trkpt lat="42.1876433" lon="14.6041133"><ele>71.33333333333333</ele><time>2026-05-02T07:34:56.906Z</time></trkpt><trkpt lat="42.1875433" lon="14.6041433"><ele>72.0</ele><time>2026-05-02T07:34:58.907Z</time></trkpt><trkpt lat="42.1874617" lon="14.6041333"><ele>72.0</ele><time>2026-05-02T07:35:01.907Z</time></trkpt><trkpt lat="42.1873767" lon="14.604125"><ele>72.0</ele><time>2026-05-02T07:35:03.907Z</time></trkpt><trkpt lat="42.1873017" lon="14.6040967"><ele>72.0</ele><time>2026-05-02T07:35:04.907Z</time></trkpt><trkpt lat="42.1872333" lon="14.604095"><ele>72.0</ele><time>2026-05-02T07:35:05.906Z</time></trkpt><trkpt lat="42.1871367" lon="14.6041017"><ele>72.0</ele><time>2026-05-02T07:35:06.907Z</time></trkpt><trkpt lat="42.1870667" lon="14.6041117"><ele>72.0</ele><time>2026-05-02T07:35:08.907Z</time></trkpt><trkpt lat="42.186995" lon="14.604105"><ele>73.16666666666667</ele><time>2026-05-02T07:35:10.906Z</time></trkpt><trkpt lat="42.1869167" lon="14.60407"><ele>74.33333333333333</ele><time>2026-05-02T07:35:12.906Z</time></trkpt><trkpt lat="42.1868417" lon="14.6040183"><ele>75.5</ele><time>2026-05-02T07:35:15.907Z</time></trkpt><trkpt lat="42.1867667" lon="14.6039517"><ele>76.66666666666666</ele><time>2026-05-02T07:35:18.906Z</time></trkpt><trkpt lat="42.1867033" lon="14.6038933"><ele>77.83333333333333</ele><time>2026-05-02T07:35:20.907Z</time></trkpt><trkpt lat="42.1866417" lon="14.6038467"><ele>79.0</ele><time>2026-05-02T07:35:22.907Z</time></trkpt><trkpt lat="42.1865883" lon="14.6038017"><ele>79.0</ele><time>2026-05-02T07:35:24.907Z</time></trkpt><trkpt lat="42.1865133" lon="14.6037367"><ele>79.0</ele><time>2026-05-02T07:35:27.907Z</time></trkpt><trkpt lat="42.18644" lon="14.60368"><ele>79.0</ele><time>2026-05-02T07:35:30.907Z</time></trkpt><trkpt lat="42.1863683" lon="14.603615"><ele>79.0</ele><time>2026-05-02T07:35:34.907Z</time></trkpt><trkpt lat="42.1863183" lon="14.60356"><ele>79.0</ele><time>2026-05-02T07:35:36.906Z</time></trkpt><trkpt lat="42.18626" lon="14.6035"><ele>79.0</ele><time>2026-05-02T07:35:38.907Z</time></trkpt><trkpt lat="42.1862083" lon="14.60345"><ele>79.66666666666666</ele><time>2026-05-02T07:35:40.907Z</time></trkpt><trkpt lat="42.1861267" lon="14.6033783"><ele>80.33333333333333</ele><time>2026-05-02T07:35:42.906Z</time></trkpt><trkpt lat="42.18605" lon="14.6033233"><ele>81.0</ele><time>2026-05-02T07:35:44.906Z</time></trkpt><trkpt lat="42.185985" lon="14.603255"><ele>81.66666666666667</ele><time>2026-05-02T07:35:46.906Z</time></trkpt><trkpt lat="42.1859317" lon="14.6031867"><ele>82.33333333333334</ele><time>2026-05-02T07:35:48.906Z</time></trkpt><trkpt lat="42.185875" lon="14.60312"><ele>83.0</ele><time>2026-05-02T07:35:50.906Z</time></trkpt><trkpt lat="42.1858067" lon="14.603065"><ele>83.0</ele><time>2026-05-02T07:35:52.907Z</time></trkpt><trkpt lat="42.1857333" lon="14.6030217"><ele>83.0</ele><time>2026-05-02T07:35:54.906Z</time></trkpt><trkpt lat="42.1856617" lon="14.6029817"><ele>83.0</ele><time>2026-05-02T07:35:56.906Z</time></trkpt><trkpt lat="42.1856" lon="14.60293"><ele>83.0</ele><time>2026-05-02T07:35:59.906Z</time></trkpt><trkpt lat="42.1855483" lon="14.6028633"><ele>83.0</ele><time>2026-05-02T07:36:02.907Z</time></trkpt><trkpt lat="42.18549" lon="14.6028083"><ele>83.0</ele><time>2026-05-02T07:36:05.906Z</time></trkpt><trkpt lat="42.185445" lon="14.60272"><ele>83.33333333333334</ele><time>2026-05-02T07:36:09.907Z</time></trkpt><trkpt lat="42.1854017" lon="14.602645"><ele>83.66666666666667</ele><time>2026-05-02T07:36:13.907Z</time></trkpt><trkpt lat="42.18534" lon="14.602555"><ele>84.0</ele><time>2026-05-02T07:36:26.907Z</time></trkpt><trkpt lat="42.185365" lon="14.602475"><ele>84.33333333333333</ele><time>2026-05-02T07:36:30.907Z</time></trkpt><trkpt lat="42.1853783" lon="14.60237"><ele>84.66666666666666</ele><time>2026-05-02T07:36:33.907Z</time></trkpt><trkpt lat="42.1853933" lon="14.602265"><ele>85.0</ele><time>2026-05-02T07:36:36.907Z</time></trkpt><trkpt lat="42.18539" lon="14.6021683"><ele>85.0</ele><time>2026-05-02T07:36:39.907Z</time></trkpt><trkpt lat="42.1853783" lon="14.60203"><ele>85.0</ele><time>2026-05-02T07:36:42.907Z</time></trkpt><trkpt lat="42.18537" lon="14.6019183"><ele>85.0</ele><time>2026-05-02T07:36:45.907Z</time></trkpt><trkpt lat="42.1853283" lon="14.6018133"><ele>85.0</ele><time>2026-05-02T07:36:48.907Z</time></trkpt><trkpt lat="42.1852817" lon="14.6017167"><ele>85.0</ele><time>2026-05-02T07:36:50.907Z</time></trkpt><trkpt lat="42.1852583" lon="14.6015967"><ele>85.5</ele><time>2026-05-02T07:36:53.906Z</time></trkpt><trkpt lat="42.1852433" lon="14.6014833"><ele>86.0</ele><time>2026-05-02T07:36:55.907Z</time></trkpt><trkpt lat="42.1852183" lon="14.60137"><ele>86.5</ele><time>2026-05-02T07:36:57.907Z</time></trkpt><trkpt lat="42.185195" lon="14.6012733"><ele>87.0</ele><time>2026-05-02T07:36:59.907Z</time></trkpt><trkpt lat="42.1851917" lon="14.60118"><ele>87.5</ele><time>2026-05-02T07:37:01.907Z</time></trkpt><trkpt lat="42.18517" lon="14.60107"><ele>88.0</ele><time>2026-05-02T07:37:04.907Z</time></trkpt><trkpt lat="42.1851283" lon="14.6009783"><ele>88.60000000000001</ele><time>2026-05-02T07:37:07.907Z</time></trkpt><trkpt lat="42.185095" lon="14.6008867"><ele>89.2</ele><time>2026-05-02T07:37:10.907Z</time></trkpt><trkpt lat="42.185065" lon="14.6007817"><ele>89.8</ele><time>2026-05-02T07:37:14.906Z</time></trkpt><trkpt lat="42.1850367" lon="14.6006833"><ele>90.4</ele><time>2026-05-02T07:37:18.907Z</time></trkpt><trkpt lat="42.1849333" lon="14.6006467"><ele>91.0</ele><time>2026-05-02T07:37:27.906Z</time></trkpt><trkpt lat="42.1850267" lon="14.6007317"><ele>91.0</ele><time>2026-05-02T07:37:38.907Z</time></trkpt><trkpt lat="42.185085" lon="14.60078"><ele>91.0</ele><time>2026-05-02T07:37:41.907Z</time></trkpt><trkpt lat="42.1851683" lon="14.60084"><ele>91.0</ele><time>2026-05-02T07:37:45.906Z</time></trkpt><trkpt lat="42.1852333" lon="14.6008883"><ele>91.0</ele><time>2026-05-02T07:37:47.907Z</time></trkpt><trkpt lat="42.1853217" lon="14.6008983"><ele>91.0</ele><time>2026-05-02T07:37:50.907Z</time></trkpt><trkpt lat="42.1853883" lon="14.6008967"><ele>91.0</ele><time>2026-05-02T07:37:52.907Z</time></trkpt><trkpt lat="42.18545" lon="14.60086"><ele>91.0</ele><time>2026-05-02T07:37:56.907Z</time></trkpt><trkpt lat="42.1854717" lon="14.600745"><ele>91.0</ele><time>2026-05-02T07:38:01.907Z</time></trkpt><trkpt lat="42.185485" lon="14.6006333"><ele>91.0</ele><time>2026-05-02T07:38:04.907Z</time></trkpt><trkpt lat="42.1854817" lon="14.6005467"><ele>91.0</ele><time>2026-05-02T07:38:07.906Z</time></trkpt><trkpt lat="42.1854417" lon="14.600445"><ele>91.0</ele><time>2026-05-02T07:38:11.907Z</time></trkpt><trkpt lat="42.1854017" lon="14.60037"><ele>91.0</ele><time>2026-05-02T07:38:14.906Z</time></trkpt><trkpt lat="42.1853633" lon="14.6002783"><ele>91.66666666666666</ele><time>2026-05-02T07:38:17.906Z</time></trkpt><trkpt lat="42.185295" lon="14.6001867"><ele>92.33333333333333</ele><time>2026-05-02T07:38:20.907Z</time></trkpt><trkpt lat="42.1852567" lon="14.6001017"><ele>93.0</ele><time>2026-05-02T07:38:23.907Z</time></trkpt><trkpt lat="42.18521" lon="14.6000333"><ele>93.66666666666667</ele><time>2026-05-02T07:38:26.906Z</time></trkpt><trkpt lat="42.1851517" lon="14.5999317"><ele>94.33333333333334</ele><time>2026-05-02T07:38:29.907Z</time></trkpt><trkpt lat="42.1851083" lon="14.5998617"><ele>95.0</ele><time>2026-05-02T07:38:31.907Z</time></trkpt><trkpt lat="42.1850517" lon="14.5997617"><ele>95.0</ele><time>2026-05-02T07:38:34.907Z</time></trkpt><trkpt lat="42.185005" lon="14.5996717"><ele>95.0</ele><time>2026-05-02T07:38:37.907Z</time></trkpt><trkpt lat="42.1849567" lon="14.5995967"><ele>95.0</ele><time>2026-05-02T07:38:39.907Z</time></trkpt><trkpt lat="42.1848867" lon="14.5995117"><ele>95.0</ele><time>2026-05-02T07:38:42.907Z</time></trkpt><trkpt lat="42.1848367" lon="14.5994567"><ele>95.0</ele><time>2026-05-02T07:38:44.907Z</time></trkpt><trkpt lat="42.184775" lon="14.599415"><ele>95.0</ele><time>2026-05-02T07:38:46.907Z</time></trkpt><trkpt lat="42.1846867" lon="14.5993867"><ele>95.33333333333334</ele><time>2026-05-02T07:38:48.906Z</time></trkpt><trkpt lat="42.1846133" lon="14.5993683"><ele>95.66666666666667</ele><time>2026-05-02T07:38:50.906Z</time></trkpt><trkpt lat="42.1845317" lon="14.5993117"><ele>96.0</ele><time>2026-05-02T07:38:53.907Z</time></trkpt><trkpt lat="42.1844667" lon="14.59928"><ele>96.33333333333334</ele><time>2026-05-02T07:38:55.907Z</time></trkpt><trkpt lat="42.1843767" lon="14.59926"><ele>96.66666666666667</ele><time>2026-05-02T07:38:58.907Z</time></trkpt><trkpt lat="42.184295" lon="14.5992433"><ele>97.0</ele><time>2026-05-02T07:39:01.907Z</time></trkpt><trkpt lat="42.1842283" lon="14.5992967"><ele>97.0</ele><time>2026-05-02T07:39:04.907Z</time></trkpt><trkpt lat="42.1841917" lon="14.5993717"><ele>97.0</ele><time>2026-05-02T07:39:06.907Z</time></trkpt><trkpt lat="42.1841467" lon="14.5994383"><ele>97.0</ele><time>2026-05-02T07:39:08.907Z</time></trkpt><trkpt lat="42.1840867" lon="14.5994867"><ele>97.0</ele><time>2026-05-02T07:39:10.907Z</time></trkpt><trkpt lat="42.1840233" lon="14.599475"><ele>97.0</ele><time>2026-05-02T07:39:13.907Z</time></trkpt><trkpt lat="42.1839833" lon="14.5993883"><ele>97.0</ele><time>2026-05-02T07:39:17.906Z</time></trkpt><trkpt lat="42.18393" lon="14.5993233"><ele>97.0</ele><time>2026-05-02T07:39:20.906Z</time></trkpt><trkpt lat="42.1838717" lon="14.5992817"><ele>97.28571428571428</ele><time>2026-05-02T07:39:23.907Z</time></trkpt><trkpt lat="42.1838083" lon="14.5992317"><ele>97.57142857142858</ele><time>2026-05-02T07:39:26.907Z</time></trkpt><trkpt lat="42.183745" lon="14.5991867"><ele>97.85714285714286</ele><time>2026-05-02T07:39:29.907Z</time></trkpt><trkpt lat="42.1836817" lon="14.5991283"><ele>98.14285714285714</ele><time>2026-05-02T07:39:32.906Z</time></trkpt><trkpt lat="42.1836133" lon="14.5990783"><ele>98.42857142857142</ele><time>2026-05-02T07:39:35.906Z</time></trkpt><trkpt lat="42.1835433" lon="14.5990283"><ele>98.71428571428572</ele><time>2026-05-02T07:39:38.906Z</time></trkpt><trkpt lat="42.183495" lon="14.5989733"><ele>99.0</ele><time>2026-05-02T07:39:41.907Z</time></trkpt><trkpt lat="42.1834467" lon="14.59891"><ele>99.0</ele><time>2026-05-02T07:39:44.907Z</time></trkpt><trkpt lat="42.183395" lon="14.5988483"><ele>99.0</ele><time>2026-05-02T07:39:47.906Z</time></trkpt><trkpt lat="42.1833183" lon="14.5988083"><ele>99.0</ele><time>2026-05-02T07:39:50.907Z</time></trkpt><trkpt lat="42.183235" lon="14.5987417"><ele>99.0</ele><time>2026-05-02T07:39:53.907Z</time></trkpt><trkpt lat="42.1831783" lon="14.598695"><ele>99.0</ele><time>2026-05-02T07:39:55.907Z</time></trkpt><trkpt lat="42.183115" lon="14.598605"><ele>99.0</ele><time>2026-05-02T07:39:58.906Z</time></trkpt><trkpt lat="42.183075" lon="14.5985117"><ele>99.5</ele><time>2026-05-02T07:40:01.906Z</time></trkpt><trkpt lat="42.18303" lon="14.5984217"><ele>100.0</ele><time>2026-05-02T07:40:04.907Z</time></trkpt><trkpt lat="42.1829883" lon="14.5983233"><ele>100.5</ele><time>2026-05-02T07:40:07.907Z</time></trkpt><trkpt lat="42.1829533" lon="14.5982417"><ele>101.0</ele><time>2026-05-02T07:40:10.906Z</time></trkpt><trkpt lat="42.18288" lon="14.5981683"><ele>101.5</ele><time>2026-05-02T07:40:13.907Z</time></trkpt><trkpt lat="42.1828133" lon="14.5981083"><ele>102.0</ele><time>2026-05-02T07:40:16.907Z</time></trkpt><trkpt lat="42.18275" lon="14.598055"><ele>102.0</ele><time>2026-05-02T07:40:19.907Z</time></trkpt><trkpt lat="42.1826967" lon="14.5979933"><ele>102.0</ele><time>2026-05-02T07:40:22.906Z</time></trkpt><trkpt lat="42.1826317" lon="14.5979833"><ele>102.0</ele><time>2026-05-02T07:40:26.907Z</time></trkpt><trkpt lat="42.1825517" lon="14.5979817"><ele>102.0</ele><time>2026-05-02T07:40:29.907Z</time></trkpt><trkpt lat="42.1824967" lon="14.59794"><ele>102.0</ele><time>2026-05-02T07:40:32.907Z</time></trkpt><trkpt lat="42.18251" lon="14.5978333"><ele>102.0</ele><time>2026-05-02T07:40:36.907Z</time></trkpt><trkpt lat="42.18253" lon="14.59775"><ele>102.0</ele><time>2026-05-02T07:40:39.906Z</time></trkpt><trkpt lat="42.1825567" lon="14.5976633"><ele>102.33333333333333</ele><time>2026-05-02T07:40:42.907Z</time></trkpt><trkpt lat="42.1825883" lon="14.5975767"><ele>102.66666666666666</ele><time>2026-05-02T07:40:46.906Z</time></trkpt><trkpt lat="42.18262" lon="14.5974867"><ele>103.0</ele><time>2026-05-02T07:40:51.907Z</time></trkpt><trkpt lat="42.18266" lon="14.5973833"><ele>103.33333333333333</ele><time>2026-05-02T07:40:55.907Z</time></trkpt><trkpt lat="42.1826983" lon="14.59729"><ele>103.66666666666666</ele><time>2026-05-02T07:40:58.906Z</time></trkpt><trkpt lat="42.1827233" lon="14.597205"><ele>104.0</ele><time>2026-05-02T07:41:01.906Z</time></trkpt><trkpt lat="42.1827233" lon="14.5971017"><ele>103.99999999999999</ele><time>2026-05-02T07:41:05.907Z</time></trkpt><trkpt lat="42.182735" lon="14.597005"><ele>104.0</ele><time>2026-05-02T07:41:08.906Z</time></trkpt><trkpt lat="42.18275" lon="14.596905"><ele>104.0</ele><time>2026-05-02T07:41:11.906Z</time></trkpt><trkpt lat="42.182785" lon="14.596815"><ele>104.0</ele><time>2026-05-02T07:41:15.907Z</time></trkpt><trkpt lat="42.1828383" lon="14.5967467"><ele>103.99999999999999</ele><time>2026-05-02T07:41:18.906Z</time></trkpt><trkpt lat="42.182905" lon="14.5966533"><ele>104.0</ele><time>2026-05-02T07:41:21.907Z</time></trkpt><trkpt lat="42.18295" lon="14.5965867"><ele>104.28571428571428</ele><time>2026-05-02T07:41:23.907Z</time></trkpt><trkpt lat="42.1829933" lon="14.5965133"><ele>104.57142857142858</ele><time>2026-05-02T07:41:25.906Z</time></trkpt><trkpt lat="42.18305" lon="14.59644"><ele>104.85714285714286</ele><time>2026-05-02T07:41:27.907Z</time></trkpt><trkpt lat="42.1831133" lon="14.5963867"><ele>105.14285714285714</ele><time>2026-05-02T07:41:29.906Z</time></trkpt><trkpt lat="42.1831817" lon="14.5963433"><ele>105.42857142857142</ele><time>2026-05-02T07:41:31.907Z</time></trkpt><trkpt lat="42.1832417" lon="14.5963017"><ele>105.71428571428572</ele><time>2026-05-02T07:41:33.907Z</time></trkpt><trkpt lat="42.18331" lon="14.596265"><ele>106.0</ele><time>2026-05-02T07:41:35.907Z</time></trkpt><trkpt lat="42.1833767" lon="14.5962167"><ele>106.00000000000001</ele><time>2026-05-02T07:41:37.907Z</time></trkpt><trkpt lat="42.1834467" lon="14.5961817"><ele>106.0</ele><time>2026-05-02T07:41:39.906Z</time></trkpt><trkpt lat="42.1835267" lon="14.5961367"><ele>106.0</ele><time>2026-05-02T07:41:41.907Z</time></trkpt><trkpt lat="42.18361" lon="14.5961017"><ele>106.0</ele><time>2026-05-02T07:41:43.907Z</time></trkpt><trkpt lat="42.1836917" lon="14.59606"><ele>106.00000000000001</ele><time>2026-05-02T07:41:45.907Z</time></trkpt><trkpt lat="42.1837733" lon="14.5960283"><ele>106.0</ele><time>2026-05-02T07:41:47.907Z</time></trkpt><trkpt lat="42.1838583" lon="14.5960017"><ele>105.33333333333334</ele><time>2026-05-02T07:41:49.907Z</time></trkpt><trkpt lat="42.1839383" lon="14.5959967"><ele>104.66666666666667</ele><time>2026-05-02T07:41:51.907Z</time></trkpt><trkpt lat="42.1840117" lon="14.5960167"><ele>104.0</ele><time>2026-05-02T07:41:53.906Z</time></trkpt><trkpt lat="42.1841017" lon="14.596035"><ele>103.33333333333334</ele><time>2026-05-02T07:41:56.907Z</time></trkpt><trkpt lat="42.1841817" lon="14.5960583"><ele>102.66666666666667</ele><time>2026-05-02T07:41:59.907Z</time></trkpt><trkpt lat="42.1842633" lon="14.5960817"><ele>102.0</ele><time>2026-05-02T07:42:02.907Z</time></trkpt><trkpt lat="42.18434" lon="14.59609"><ele>101.66666666666667</ele><time>2026-05-02T07:42:05.906Z</time></trkpt><trkpt lat="42.1844233" lon="14.5961"><ele>101.33333333333334</ele><time>2026-05-02T07:42:08.906Z</time></trkpt><trkpt lat="42.184505" lon="14.5961133"><ele>101.0</ele><time>2026-05-02T07:42:11.907Z</time></trkpt><trkpt lat="42.1845683" lon="14.5961267"><ele>100.66666666666667</ele><time>2026-05-02T07:42:13.907Z</time></trkpt><trkpt lat="42.1846533" lon="14.5961433"><ele>100.33333333333334</ele><time>2026-05-02T07:42:16.907Z</time></trkpt><trkpt lat="42.18472" lon="14.59615"><ele>100.0</ele><time>2026-05-02T07:42:18.907Z</time></trkpt><trkpt lat="42.1847917" lon="14.5961533"><ele>100.00000000000001</ele><time>2026-05-02T07:42:20.906Z</time></trkpt><trkpt lat="42.184865" lon="14.5961683"><ele>100.0</ele><time>2026-05-02T07:42:22.907Z</time></trkpt><trkpt lat="42.1849467" lon="14.5961817"><ele>100.0</ele><time>2026-05-02T07:42:24.907Z</time></trkpt><trkpt lat="42.1850267" lon="14.5961917"><ele>100.0</ele><time>2026-05-02T07:42:26.907Z</time></trkpt><trkpt lat="42.1851117" lon="14.5961983"><ele>100.00000000000001</ele><time>2026-05-02T07:42:28.907Z</time></trkpt><trkpt lat="42.1851883" lon="14.5962117"><ele>100.0</ele><time>2026-05-02T07:42:30.907Z</time></trkpt><trkpt lat="42.1852683" lon="14.5962167"><ele>100.00000000000001</ele><time>2026-05-02T07:42:32.906Z</time></trkpt><trkpt lat="42.1853433" lon="14.59622"><ele>100.0</ele><time>2026-05-02T07:42:34.907Z</time></trkpt><trkpt lat="42.1854217" lon="14.5962117"><ele>100.0</ele><time>2026-05-02T07:42:36.907Z</time></trkpt><trkpt lat="42.1854967" lon="14.5961883"><ele>100.0</ele><time>2026-05-02T07:42:38.907Z</time></trkpt><trkpt lat="42.185565" lon="14.596165"><ele>100.0</ele><time>2026-05-02T07:42:40.907Z</time></trkpt><trkpt lat="42.1856367" lon="14.5961367"><ele>100.00000000000001</ele><time>2026-05-02T07:42:42.906Z</time></trkpt><trkpt lat="42.185705" lon="14.5961083"><ele>100.0</ele><time>2026-05-02T07:42:44.907Z</time></trkpt><trkpt lat="42.1857783" lon="14.5960733"><ele>99.33333333333334</ele><time>2026-05-02T07:42:46.907Z</time></trkpt><trkpt lat="42.1858483" lon="14.59604"><ele>98.66666666666667</ele><time>2026-05-02T07:42:48.907Z</time></trkpt><trkpt lat="42.185915" lon="14.59601"><ele>98.0</ele><time>2026-05-02T07:42:50.906Z</time></trkpt><trkpt lat="42.1859833" lon="14.595985"><ele>97.33333333333334</ele><time>2026-05-02T07:42:52.907Z</time></trkpt><trkpt lat="42.186055" lon="14.5959583"><ele>96.66666666666667</ele><time>2026-05-02T07:42:54.906Z</time></trkpt><trkpt lat="42.1861433" lon="14.5959367"><ele>96.0</ele><time>2026-05-02T07:42:56.907Z</time></trkpt><trkpt lat="42.186245" lon="14.595915"><ele>96.0</ele><time>2026-05-02T07:42:58.907Z</time></trkpt><trkpt lat="42.1863267" lon="14.595895"><ele>96.0</ele><time>2026-05-02T07:43:00.907Z</time></trkpt><trkpt lat="42.186405" lon="14.595855"><ele>96.0</ele><time>2026-05-02T07:43:02.907Z</time></trkpt><trkpt lat="42.1864817" lon="14.595805"><ele>96.0</ele><time>2026-05-02T07:43:04.906Z</time></trkpt><trkpt lat="42.1865617" lon="14.595765"><ele>96.0</ele><time>2026-05-02T07:43:06.907Z</time></trkpt><trkpt lat="42.1866283" lon="14.5957033"><ele>96.0</ele><time>2026-05-02T07:43:08.906Z</time></trkpt><trkpt lat="42.186705" lon="14.5956417"><ele>96.0</ele><time>2026-05-02T07:43:10.907Z</time></trkpt><trkpt lat="42.186785" lon="14.5956"><ele>96.0</ele><time>2026-05-02T07:43:12.907Z</time></trkpt><trkpt lat="42.1868667" lon="14.595575"><ele>96.0</ele><time>2026-05-02T07:43:14.907Z</time></trkpt><trkpt lat="42.1869483" lon="14.59554"><ele>96.0</ele><time>2026-05-02T07:43:16.906Z</time></trkpt><trkpt lat="42.1870217" lon="14.5955033"><ele>96.0</ele><time>2026-05-02T07:43:18.907Z</time></trkpt><trkpt lat="42.1871083" lon="14.5954583"><ele>96.0</ele><time>2026-05-02T07:43:20.907Z</time></trkpt><trkpt lat="42.18719" lon="14.5954233"><ele>96.0</ele><time>2026-05-02T07:43:22.907Z</time></trkpt><trkpt lat="42.187275" lon="14.5953983"><ele>96.0</ele><time>2026-05-02T07:43:24.907Z</time></trkpt><trkpt lat="42.1873467" lon="14.5953767"><ele>96.0</ele><time>2026-05-02T07:43:26.907Z</time></trkpt><trkpt lat="42.1874383" lon="14.5953383"><ele>96.0</ele><time>2026-05-02T07:43:29.907Z</time></trkpt><trkpt lat="42.1875067" lon="14.5952833"><ele>96.0</ele><time>2026-05-02T07:43:31.907Z</time></trkpt><trkpt lat="42.1875417" lon="14.5951917"><ele>96.0</ele><time>2026-05-02T07:43:33.907Z</time></trkpt><trkpt lat="42.1875917" lon="14.59511"><ele>95.16666666666667</ele><time>2026-05-02T07:43:35.907Z</time></trkpt><trkpt lat="42.1876383" lon="14.5950367"><ele>94.33333333333333</ele><time>2026-05-02T07:43:37.907Z</time></trkpt><trkpt lat="42.1876867" lon="14.5949533"><ele>93.5</ele><time>2026-05-02T07:43:39.907Z</time></trkpt><trkpt lat="42.1877483" lon="14.5948783"><ele>92.66666666666666</ele><time>2026-05-02T07:43:41.906Z</time></trkpt><trkpt lat="42.1878133" lon="14.5948183"><ele>91.83333333333333</ele><time>2026-05-02T07:43:43.906Z</time></trkpt><trkpt lat="42.18789" lon="14.5947583"><ele>91.0</ele><time>2026-05-02T07:43:45.907Z</time></trkpt><trkpt lat="42.18796" lon="14.5946733"><ele>91.0</ele><time>2026-05-02T07:43:47.906Z</time></trkpt><trkpt lat="42.188015" lon="14.594585"><ele>91.0</ele><time>2026-05-02T07:43:49.907Z</time></trkpt><trkpt lat="42.1880867" lon="14.5944817"><ele>91.0</ele><time>2026-05-02T07:43:51.906Z</time></trkpt><trkpt lat="42.1881367" lon="14.5944"><ele>91.0</ele><time>2026-05-02T07:43:53.906Z</time></trkpt><trkpt lat="42.1881867" lon="14.5943367"><ele>91.0</ele><time>2026-05-02T07:43:55.906Z</time></trkpt><trkpt lat="42.1882483" lon="14.5942767"><ele>91.0</ele><time>2026-05-02T07:43:57.907Z</time></trkpt><trkpt lat="42.1883" lon="14.5942217"><ele>89.0</ele><time>2026-05-02T07:43:58.906Z</time></trkpt><trkpt lat="42.188375" lon="14.5941683"><ele>87.0</ele><time>2026-05-02T07:44:00.907Z</time></trkpt><trkpt lat="42.188455" lon="14.5941"><ele>85.0</ele><time>2026-05-02T07:44:02.907Z</time></trkpt><trkpt lat="42.1885317" lon="14.5940333"><ele>83.0</ele><time>2026-05-02T07:44:04.906Z</time></trkpt><trkpt lat="42.1886017" lon="14.5940067"><ele>81.0</ele><time>2026-05-02T07:44:05.907Z</time></trkpt><trkpt lat="42.1887467" lon="14.593985"><ele>81.0</ele><time>2026-05-02T07:44:07.907Z</time></trkpt><trkpt lat="42.18881" lon="14.59398"><ele>81.0</ele><time>2026-05-02T07:44:08.907Z</time></trkpt><trkpt lat="42.18888" lon="14.593985"><ele>81.0</ele><time>2026-05-02T07:44:09.907Z</time></trkpt><trkpt lat="42.188955" lon="14.5939817"><ele>81.0</ele><time>2026-05-02T07:44:10.907Z</time></trkpt><trkpt lat="42.18904" lon="14.5939867"><ele>81.0</ele><time>2026-05-02T07:44:11.907Z</time></trkpt><trkpt lat="42.1891083" lon="14.5939917"><ele>81.0</ele><time>2026-05-02T07:44:12.906Z</time></trkpt><trkpt lat="42.1892267" lon="14.5940217"><ele>80.33333333333333</ele><time>2026-05-02T07:44:14.906Z</time></trkpt><trkpt lat="42.18932" lon="14.594065"><ele>79.66666666666667</ele><time>2026-05-02T07:44:16.907Z</time></trkpt><trkpt lat="42.1894067" lon="14.5941133"><ele>79.0</ele><time>2026-05-02T07:44:18.907Z</time></trkpt><trkpt lat="42.1894833" lon="14.5941533"><ele>78.33333333333334</ele><time>2026-05-02T07:44:20.907Z</time></trkpt><trkpt lat="42.189565" lon="14.5941767"><ele>77.66666666666667</ele><time>2026-05-02T07:44:22.907Z</time></trkpt><trkpt lat="42.1896467" lon="14.5941933"><ele>77.0</ele><time>2026-05-02T07:44:24.906Z</time></trkpt><trkpt lat="42.1897317" lon="14.594205"><ele>77.0</ele><time>2026-05-02T07:44:26.907Z</time></trkpt><trkpt lat="42.1898183" lon="14.594205"><ele>77.0</ele><time>2026-05-02T07:44:28.906Z</time></trkpt><trkpt lat="42.18989" lon="14.5942317"><ele>77.0</ele><time>2026-05-02T07:44:29.907Z</time></trkpt><trkpt lat="42.18994" lon="14.5943"><ele>77.0</ele><time>2026-05-02T07:44:31.907Z</time></trkpt><trkpt lat="42.1900267" lon="14.5943017"><ele>77.0</ele><time>2026-05-02T07:44:34.906Z</time></trkpt><trkpt lat="42.1901067" lon="14.594265"><ele>77.0</ele><time>2026-05-02T07:44:37.907Z</time></trkpt><trkpt lat="42.1901917" lon="14.59424"><ele>74.33333333333334</ele><time>2026-05-02T07:44:40.907Z</time></trkpt><trkpt lat="42.19033" lon="14.59429"><ele>71.66666666666667</ele><time>2026-05-02T07:45:47.145Z</time></trkpt><trkpt lat="42.19037" lon="14.5942233"><ele>69.0</ele><time>2026-05-02T07:45:53.901Z</time></trkpt><trkpt lat="42.1903317" lon="14.59413"><ele>66.33333333333333</ele><time>2026-05-02T07:46:14.9Z</time></trkpt><trkpt lat="42.1903117" lon="14.5940367"><ele>63.666666666666664</ele><time>2026-05-02T07:46:25.9Z</time></trkpt><trkpt lat="42.1902633" lon="14.5939567"><ele>61.0</ele><time>2026-05-02T07:46:30.901Z</time></trkpt><trkpt lat="42.1902117" lon="14.5938717"><ele>60.99999999999999</ele><time>2026-05-02T07:46:35.901Z</time></trkpt><trkpt lat="42.19016" lon="14.5938"><ele>61.0</ele><time>2026-05-02T07:46:39.901Z</time></trkpt><trkpt lat="42.1901067" lon="14.5937283"><ele>60.99999999999999</ele><time>2026-05-02T07:46:44.901Z</time></trkpt><trkpt lat="42.1900517" lon="14.5936683"><ele>60.99999999999999</ele><time>2026-05-02T07:46:48.901Z</time></trkpt><trkpt lat="42.1899817" lon="14.59362"><ele>61.0</ele><time>2026-05-02T07:46:53.901Z</time></trkpt><trkpt lat="42.189915" lon="14.593625"><ele>60.99999999999999</ele><time>2026-05-02T07:46:57.901Z</time></trkpt><trkpt lat="42.1898533" lon="14.5936"><ele>60.99999999999999</ele><time>2026-05-02T07:47:02.901Z</time></trkpt><trkpt lat="42.1897833" lon="14.59359"><ele>63.666666666666664</ele><time>2026-05-02T07:47:07.901Z</time></trkpt><trkpt lat="42.1897133" lon="14.5935583"><ele>66.33333333333333</ele><time>2026-05-02T07:47:13.901Z</time></trkpt><trkpt lat="42.1896617" lon="14.593505"><ele>69.0</ele><time>2026-05-02T07:47:18.9Z</time></trkpt><trkpt lat="42.1896067" lon="14.593445"><ele>71.66666666666667</ele><time>2026-05-02T07:47:22.9Z</time></trkpt><trkpt lat="42.1895433" lon="14.593375"><ele>74.33333333333334</ele><time>2026-05-02T07:47:26.9Z</time></trkpt><trkpt lat="42.189495" lon="14.5932783"><ele>77.0</ele><time>2026-05-02T07:47:30.9Z</time></trkpt><trkpt lat="42.18945" lon="14.5931967"><ele>77.0</ele><time>2026-05-02T07:47:35.9Z</time></trkpt><trkpt lat="42.18939" lon="14.5931367"><ele>77.0</ele><time>2026-05-02T07:47:40.901Z</time></trkpt><trkpt lat="42.1893017" lon="14.5930817"><ele>77.0</ele><time>2026-05-02T07:47:44.9Z</time></trkpt><trkpt lat="42.1892133" lon="14.5930333"><ele>77.0</ele><time>2026-05-02T07:47:48.901Z</time></trkpt><trkpt lat="42.1891417" lon="14.5929883"><ele>77.0</ele><time>2026-05-02T07:47:51.901Z</time></trkpt><trkpt lat="42.1890833" lon="14.5929267"><ele>77.0</ele><time>2026-05-02T07:47:54.901Z</time></trkpt><trkpt lat="42.1890233" lon="14.5928517"><ele>78.28571428571429</ele><time>2026-05-02T07:47:58.901Z</time></trkpt><trkpt lat="42.188965" lon="14.5927933"><ele>79.57142857142857</ele><time>2026-05-02T07:48:01.901Z</time></trkpt><trkpt lat="42.1889267" lon="14.5927117"><ele>80.85714285714286</ele><time>2026-05-02T07:48:05.9Z</time></trkpt><trkpt lat="42.1888883" lon="14.5926233"><ele>82.14285714285714</ele><time>2026-05-02T07:48:10.901Z</time></trkpt><trkpt lat="42.1888683" lon="14.5925283"><ele>83.42857142857143</ele><time>2026-05-02T07:48:15.901Z</time></trkpt><trkpt lat="42.188835" lon="14.5924267"><ele>84.71428571428572</ele><time>2026-05-02T07:48:19.901Z</time></trkpt><trkpt lat="42.18881" lon="14.5923433"><ele>86.0</ele><time>2026-05-02T07:48:22.901Z</time></trkpt><trkpt lat="42.18876" lon="14.5922533"><ele>86.00000000000001</ele><time>2026-05-02T07:48:25.9Z</time></trkpt><trkpt lat="42.1887133" lon="14.59219"><ele>86.0</ele><time>2026-05-02T07:48:28.9Z</time></trkpt><trkpt lat="42.188645" lon="14.59213"><ele>86.0</ele><time>2026-05-02T07:48:32.9Z</time></trkpt><trkpt lat="42.1885833" lon="14.5920833"><ele>86.0</ele><time>2026-05-02T07:48:35.9Z</time></trkpt><trkpt lat="42.1885267" lon="14.5920217"><ele>86.0</ele><time>2026-05-02T07:48:38.9Z</time></trkpt><trkpt lat="42.1884683" lon="14.5919733"><ele>86.00000000000001</ele><time>2026-05-02T07:48:41.9Z</time></trkpt><trkpt lat="42.1884133" lon="14.59192"><ele>86.0</ele><time>2026-05-02T07:48:44.901Z</time></trkpt><trkpt lat="42.188365" lon="14.5918633"><ele>87.57142857142858</ele><time>2026-05-02T07:48:47.901Z</time></trkpt><trkpt lat="42.18831" lon="14.59181"><ele>89.14285714285714</ele><time>2026-05-02T07:48:50.9Z</time></trkpt><trkpt lat="42.1882633" lon="14.5917517"><ele>90.71428571428572</ele><time>2026-05-02T07:48:53.901Z</time></trkpt><trkpt lat="42.1882267" lon="14.5916767"><ele>92.28571428571429</ele><time>2026-05-02T07:48:57.901Z</time></trkpt><trkpt lat="42.18827" lon="14.591615"><ele>93.85714285714286</ele><time>2026-05-02T07:49:04.901Z</time></trkpt><trkpt lat="42.1883383" lon="14.59155"><ele>95.42857142857143</ele><time>2026-05-02T07:49:09.9Z</time></trkpt><trkpt lat="42.1883967" lon="14.591485"><ele>97.0</ele><time>2026-05-02T07:49:12.901Z</time></trkpt><trkpt lat="42.1884617" lon="14.591425"><ele>97.00000000000001</ele><time>2026-05-02T07:49:15.901Z</time></trkpt><trkpt lat="42.188515" lon="14.5913767"><ele>97.0</ele><time>2026-05-02T07:49:17.901Z</time></trkpt><trkpt lat="42.1885783" lon="14.59132"><ele>97.0</ele><time>2026-05-02T07:49:19.901Z</time></trkpt><trkpt lat="42.1886417" lon="14.5912683"><ele>97.0</ele><time>2026-05-02T07:49:21.9Z</time></trkpt><trkpt lat="42.1887117" lon="14.59121"><ele>97.00000000000001</ele><time>2026-05-02T07:49:23.901Z</time></trkpt><trkpt lat="42.188775" lon="14.5911567"><ele>97.0</ele><time>2026-05-02T07:49:25.901Z</time></trkpt><trkpt lat="42.188845" lon="14.591105"><ele>97.00000000000001</ele><time>2026-05-02T07:49:27.901Z</time></trkpt><trkpt lat="42.1888817" lon="14.5910167"><ele>97.0</ele><time>2026-05-02T07:49:30.901Z</time></trkpt><trkpt lat="42.1888333" lon="14.5909367"><ele>97.0</ele><time>2026-05-02T07:49:33.901Z</time></trkpt><trkpt lat="42.18884" lon="14.5908233"><ele>97.0</ele><time>2026-05-02T07:49:37.901Z</time></trkpt><trkpt lat="42.1888883" lon="14.5907583"><ele>97.00000000000001</ele><time>2026-05-02T07:49:39.9Z</time></trkpt><trkpt lat="42.1889333" lon="14.5906867"><ele>97.0</ele><time>2026-05-02T07:49:41.901Z</time></trkpt><trkpt lat="42.18899" lon="14.5905867"><ele>96.85714285714285</ele><time>2026-05-02T07:49:44.9Z</time></trkpt><trkpt lat="42.18904" lon="14.5904917"><ele>96.71428571428572</ele><time>2026-05-02T07:49:47.901Z</time></trkpt><trkpt lat="42.1890767" lon="14.59042"><ele>96.57142857142857</ele><time>2026-05-02T07:49:49.901Z</time></trkpt><trkpt lat="42.189125" lon="14.5903583"><ele>96.42857142857142</ele><time>2026-05-02T07:49:51.901Z</time></trkpt><trkpt lat="42.1891883" lon="14.5903133"><ele>96.28571428571428</ele><time>2026-05-02T07:49:53.901Z</time></trkpt><trkpt lat="42.1892517" lon="14.5902567"><ele>96.14285714285714</ele><time>2026-05-02T07:49:55.901Z</time></trkpt><trkpt lat="42.1893033" lon="14.5901767"><ele>96.0</ele><time>2026-05-02T07:49:57.901Z</time></trkpt><trkpt lat="42.1893533" lon="14.5900717"><ele>95.6</ele><time>2026-05-02T07:49:59.901Z</time></trkpt><trkpt lat="42.18941" lon="14.5899383"><ele>95.19999999999999</ele><time>2026-05-02T07:50:01.901Z</time></trkpt><trkpt lat="42.189465" lon="14.5898267"><ele>94.80000000000001</ele><time>2026-05-02T07:50:03.9Z</time></trkpt><trkpt lat="42.189515" lon="14.58971"><ele>94.4</ele><time>2026-05-02T07:50:05.901Z</time></trkpt><trkpt lat="42.1895667" lon="14.58959"><ele>94.0</ele><time>2026-05-02T07:50:07.901Z</time></trkpt><trkpt lat="42.189635" lon="14.58947"><ele>93.83333333333333</ele><time>2026-05-02T07:50:09.901Z</time></trkpt><trkpt lat="42.1897117" lon="14.5893783"><ele>93.66666666666666</ele><time>2026-05-02T07:50:11.9Z</time></trkpt><trkpt lat="42.18975" lon="14.5892833"><ele>93.5</ele><time>2026-05-02T07:50:13.901Z</time></trkpt><trkpt lat="42.1897717" lon="14.5891683"><ele>93.33333333333333</ele><time>2026-05-02T07:50:15.901Z</time></trkpt><trkpt lat="42.189805" lon="14.5890733"><ele>93.16666666666667</ele><time>2026-05-02T07:50:17.9Z</time></trkpt><trkpt lat="42.1898617" lon="14.58899"><ele>93.0</ele><time>2026-05-02T07:50:19.901Z</time></trkpt><trkpt lat="42.18995" lon="14.58894"><ele>90.4</ele><time>2026-05-02T07:50:21.9Z</time></trkpt><trkpt lat="42.1900583" lon="14.5889183"><ele>87.80000000000001</ele><time>2026-05-02T07:50:23.9Z</time></trkpt><trkpt lat="42.1901567" lon="14.5889083"><ele>85.2</ele><time>2026-05-02T07:50:25.9Z</time></trkpt><trkpt lat="42.190265" lon="14.58891"><ele>82.6</ele><time>2026-05-02T07:50:27.901Z</time></trkpt><trkpt lat="42.19035" lon="14.5889217"><ele>80.0</ele><time>2026-05-02T07:50:29.901Z</time></trkpt><trkpt lat="42.1904317" lon="14.5888933"><ele>80.0</ele><time>2026-05-02T07:50:32.901Z</time></trkpt><trkpt lat="42.190455" lon="14.5888017"><ele>80.0</ele><time>2026-05-02T07:50:34.9Z</time></trkpt><trkpt lat="42.1904667" lon="14.588715"><ele>80.0</ele><time>2026-05-02T07:50:36.9Z</time></trkpt><trkpt lat="42.190485" lon="14.5885883"><ele>80.0</ele><time>2026-05-02T07:50:39.901Z</time></trkpt><trkpt lat="42.1904867" lon="14.5884967"><ele>80.0</ele><time>2026-05-02T07:50:41.901Z</time></trkpt><trkpt lat="42.1904883" lon="14.5883883"><ele>80.0</ele><time>2026-05-02T07:50:44.901Z</time></trkpt><trkpt lat="42.1905183" lon="14.5883133"><ele>80.0</ele><time>2026-05-02T07:50:47.901Z</time></trkpt><trkpt lat="42.1905667" lon="14.5882533"><ele>79.83333333333334</ele><time>2026-05-02T07:50:51.9Z</time></trkpt><trkpt lat="42.19067" lon="14.5882517"><ele>79.66666666666667</ele><time>2026-05-02T07:51:16.901Z</time></trkpt><trkpt lat="42.1907417" lon="14.5882233"><ele>79.5</ele><time>2026-05-02T07:51:21.901Z</time></trkpt><trkpt lat="42.1908333" lon="14.5882267"><ele>79.33333333333333</ele><time>2026-05-02T07:51:36.901Z</time></trkpt><trkpt lat="42.1909067" lon="14.58823"><ele>79.16666666666666</ele><time>2026-05-02T07:51:40.901Z</time></trkpt><trkpt lat="42.19098" lon="14.588255"><ele>79.0</ele><time>2026-05-02T07:51:45.901Z</time></trkpt><trkpt lat="42.191015" lon="14.5883633"><ele>77.5</ele><time>2026-05-02T07:51:49.901Z</time></trkpt><trkpt lat="42.191045" lon="14.588445"><ele>76.0</ele><time>2026-05-02T07:51:52.901Z</time></trkpt><trkpt lat="42.1910783" lon="14.58856"><ele>74.5</ele><time>2026-05-02T07:51:55.901Z</time></trkpt><trkpt lat="42.19111" lon="14.5886733"><ele>73.0</ele><time>2026-05-02T07:51:58.901Z</time></trkpt><trkpt lat="42.1911267" lon="14.5887633"><ele>71.5</ele><time>2026-05-02T07:52:00.901Z</time></trkpt><trkpt lat="42.1911583" lon="14.588845"><ele>70.0</ele><time>2026-05-02T07:52:02.901Z</time></trkpt><trkpt lat="42.1911867" lon="14.5889283"><ele>69.42857142857143</ele><time>2026-05-02T07:52:04.9Z</time></trkpt><trkpt lat="42.1912167" lon="14.5890233"><ele>68.85714285714286</ele><time>2026-05-02T07:52:06.9Z</time></trkpt><trkpt lat="42.1912483" lon="14.589105"><ele>68.28571428571428</ele><time>2026-05-02T07:52:08.9Z</time></trkpt><trkpt lat="42.1912933" lon="14.5891883"><ele>67.71428571428572</ele><time>2026-05-02T07:52:10.9Z</time></trkpt><trkpt lat="42.1913367" lon="14.5892667"><ele>67.14285714285714</ele><time>2026-05-02T07:52:12.901Z</time></trkpt><trkpt lat="42.1913783" lon="14.58934"><ele>66.57142857142857</ele><time>2026-05-02T07:52:14.9Z</time></trkpt><trkpt lat="42.19141" lon="14.589425"><ele>66.0</ele><time>2026-05-02T07:52:16.9Z</time></trkpt><trkpt lat="42.19144" lon="14.589505"><ele>66.0</ele><time>2026-05-02T07:52:18.9Z</time></trkpt><trkpt lat="42.191475" lon="14.5895883"><ele>66.0</ele><time>2026-05-02T07:52:20.9Z</time></trkpt><trkpt lat="42.1915133" lon="14.5896717"><ele>66.0</ele><time>2026-05-02T07:52:22.901Z</time></trkpt><trkpt lat="42.1915467" lon="14.589745"><ele>66.0</ele><time>2026-05-02T07:52:24.9Z</time></trkpt><trkpt lat="42.1915833" lon="14.5898517"><ele>66.0</ele><time>2026-05-02T07:52:27.9Z</time></trkpt><trkpt lat="42.1915733" lon="14.58998"><ele>66.0</ele><time>2026-05-02T07:52:30.901Z</time></trkpt><trkpt lat="42.1915467" lon="14.5900717"><ele>66.0</ele><time>2026-05-02T07:52:32.901Z</time></trkpt><trkpt lat="42.1915183" lon="14.5901567"><ele>66.0</ele><time>2026-05-02T07:52:34.9Z</time></trkpt><trkpt lat="42.191495" lon="14.5902383"><ele>66.0</ele><time>2026-05-02T07:52:36.9Z</time></trkpt><trkpt lat="42.1914633" lon="14.5903167"><ele>66.0</ele><time>2026-05-02T07:52:38.901Z</time></trkpt><trkpt lat="42.1914267" lon="14.5903967"><ele>66.0</ele><time>2026-05-02T07:52:40.901Z</time></trkpt><trkpt lat="42.1913967" lon="14.5904767"><ele>66.0</ele><time>2026-05-02T07:52:42.901Z</time></trkpt><trkpt lat="42.1913733" lon="14.590575"><ele>66.0</ele><time>2026-05-02T07:52:44.901Z</time></trkpt><trkpt lat="42.1913367" lon="14.5907083"><ele>65.6</ele><time>2026-05-02T07:52:46.901Z</time></trkpt><trkpt lat="42.191285" lon="14.5908417"><ele>65.19999999999999</ele><time>2026-05-02T07:52:48.901Z</time></trkpt><trkpt lat="42.1912317" lon="14.5909617"><ele>64.80000000000001</ele><time>2026-05-02T07:52:50.9Z</time></trkpt><trkpt lat="42.1911833" lon="14.5910817"><ele>64.4</ele><time>2026-05-02T07:52:52.901Z</time></trkpt><trkpt lat="42.191155" lon="14.5912"><ele>64.0</ele><time>2026-05-02T07:52:54.901Z</time></trkpt><trkpt lat="42.1911567" lon="14.59131"><ele>63.666666666666664</ele><time>2026-05-02T07:52:56.901Z</time></trkpt><trkpt lat="42.1912067" lon="14.5914083"><ele>63.33333333333333</ele><time>2026-05-02T07:52:58.9Z</time></trkpt><trkpt lat="42.19127" lon="14.59153"><ele>63.0</ele><time>2026-05-02T07:53:00.9Z</time></trkpt><trkpt lat="42.1913117" lon="14.59163"><ele>62.66666666666667</ele><time>2026-05-02T07:53:02.9Z</time></trkpt><trkpt lat="42.1913367" lon="14.5917183"><ele>62.333333333333336</ele><time>2026-05-02T07:53:04.9Z</time></trkpt><trkpt lat="42.1913383" lon="14.5918267"><ele>62.0</ele><time>2026-05-02T07:53:06.901Z</time></trkpt><trkpt lat="42.1913133" lon="14.5919633"><ele>61.6</ele><time>2026-05-02T07:53:08.901Z</time></trkpt><trkpt lat="42.1912667" lon="14.592115"><ele>61.2</ele><time>2026-05-02T07:53:10.9Z</time></trkpt><trkpt lat="42.1912233" lon="14.59227"><ele>60.8</ele><time>2026-05-02T07:53:12.901Z</time></trkpt><trkpt lat="42.1911767" lon="14.592425"><ele>60.4</ele><time>2026-05-02T07:53:14.9Z</time></trkpt><trkpt lat="42.1911483" lon="14.5925083"><ele>60.0</ele><time>2026-05-02T07:53:15.901Z</time></trkpt><trkpt lat="42.1911033" lon="14.5926517"><ele>60.0</ele><time>2026-05-02T07:53:17.901Z</time></trkpt><trkpt lat="42.191065" lon="14.592795"><ele>60.0</ele><time>2026-05-02T07:53:19.901Z</time></trkpt><trkpt lat="42.1910367" lon="14.59294"><ele>60.0</ele><time>2026-05-02T07:53:21.901Z</time></trkpt><trkpt lat="42.19101" lon="14.5930783"><ele>60.0</ele><time>2026-05-02T07:53:23.901Z</time></trkpt><trkpt lat="42.1909833" lon="14.5932083"><ele>60.0</ele><time>2026-05-02T07:53:25.901Z</time></trkpt><trkpt lat="42.1909667" lon="14.5933417"><ele>59.6</ele><time>2026-05-02T07:53:27.901Z</time></trkpt><trkpt lat="42.1909383" lon="14.593465"><ele>59.2</ele><time>2026-05-02T07:53:29.901Z</time></trkpt><trkpt lat="42.1908933" lon="14.5935833"><ele>58.8</ele><time>2026-05-02T07:53:31.901Z</time></trkpt><trkpt lat="42.190835" lon="14.593675"><ele>58.4</ele><time>2026-05-02T07:53:33.901Z</time></trkpt><trkpt lat="42.1907767" lon="14.5937767"><ele>58.0</ele><time>2026-05-02T07:53:35.9Z</time></trkpt><trkpt lat="42.190725" lon="14.593885"><ele>57.99999999999999</ele><time>2026-05-02T07:53:37.9Z</time></trkpt><trkpt lat="42.1906867" lon="14.5940017"><ele>58.0</ele><time>2026-05-02T07:53:39.901Z</time></trkpt><trkpt lat="42.1906633" lon="14.59412"><ele>58.0</ele><time>2026-05-02T07:53:41.901Z</time></trkpt><trkpt lat="42.1906417" lon="14.59423"><ele>58.0</ele><time>2026-05-02T07:53:43.901Z</time></trkpt><trkpt lat="42.190615" lon="14.594325"><ele>57.99999999999999</ele><time>2026-05-02T07:53:45.901Z</time></trkpt><trkpt lat="42.190625" lon="14.5944117"><ele>58.0</ele><time>2026-05-02T07:53:47.9Z</time></trkpt><trkpt lat="42.1906683" lon="14.5944867"><ele>57.83333333333333</ele><time>2026-05-02T07:53:49.901Z</time></trkpt><trkpt lat="42.1907133" lon="14.594575"><ele>57.666666666666664</ele><time>2026-05-02T07:53:51.901Z</time></trkpt><trkpt lat="42.1907517" lon="14.594675"><ele>57.5</ele><time>2026-05-02T07:53:53.9Z</time></trkpt><trkpt lat="42.1907883" lon="14.594765"><ele>57.33333333333333</ele><time>2026-05-02T07:53:55.9Z</time></trkpt><trkpt lat="42.1908233" lon="14.5948733"><ele>57.166666666666664</ele><time>2026-05-02T07:53:57.901Z</time></trkpt><trkpt lat="42.19086" lon="14.594975"><ele>57.0</ele><time>2026-05-02T07:53:59.901Z</time></trkpt><trkpt lat="42.190905" lon="14.595065"><ele>57.0</ele><time>2026-05-02T07:54:01.901Z</time></trkpt><trkpt lat="42.1909533" lon="14.5951633"><ele>57.0</ele><time>2026-05-02T07:54:03.901Z</time></trkpt><trkpt lat="42.1910117" lon="14.59526"><ele>57.0</ele><time>2026-05-02T07:54:05.901Z</time></trkpt><trkpt lat="42.1910667" lon="14.5953417"><ele>57.0</ele><time>2026-05-02T07:54:07.901Z</time></trkpt><trkpt lat="42.1911283" lon="14.5954017"><ele>57.0</ele><time>2026-05-02T07:54:09.9Z</time></trkpt><trkpt lat="42.191205" lon="14.595475"><ele>57.0</ele><time>2026-05-02T07:54:12.901Z</time></trkpt><trkpt lat="42.19128" lon="14.59555"><ele>57.166666666666664</ele><time>2026-05-02T07:54:15.9Z</time></trkpt><trkpt lat="42.191345" lon="14.5956283"><ele>57.33333333333333</ele><time>2026-05-02T07:54:18.901Z</time></trkpt><trkpt lat="42.19141" lon="14.595695"><ele>57.5</ele><time>2026-05-02T07:54:21.901Z</time></trkpt><trkpt lat="42.191465" lon="14.595765"><ele>57.666666666666664</ele><time>2026-05-02T07:54:24.901Z</time></trkpt><trkpt lat="42.1915383" lon="14.5958333"><ele>57.83333333333333</ele><time>2026-05-02T07:54:27.901Z</time></trkpt><trkpt lat="42.1916083" lon="14.5958867"><ele>58.0</ele><time>2026-05-02T07:54:30.901Z</time></trkpt><trkpt lat="42.1916783" lon="14.5959517"><ele>60.166666666666664</ele><time>2026-05-02T07:54:33.901Z</time></trkpt><trkpt lat="42.19174" lon="14.5959917"><ele>62.33333333333333</ele><time>2026-05-02T07:54:36.901Z</time></trkpt><trkpt lat="42.191805" lon="14.5960567"><ele>64.5</ele><time>2026-05-02T07:54:40.9Z</time></trkpt><trkpt lat="42.1918667" lon="14.5961467"><ele>66.66666666666667</ele><time>2026-05-02T07:54:44.9Z</time></trkpt><trkpt lat="42.1919067" lon="14.59622"><ele>68.83333333333334</ele><time>2026-05-02T07:54:46.9Z</time></trkpt><trkpt lat="42.1919733" lon="14.5962967"><ele>71.0</ele><time>2026-05-02T07:54:48.901Z</time></trkpt><trkpt lat="42.1920283" lon="14.596355"><ele>71.0</ele><time>2026-05-02T07:54:50.901Z</time></trkpt><trkpt lat="42.1920867" lon="14.5963967"><ele>71.0</ele><time>2026-05-02T07:54:52.9Z</time></trkpt><trkpt lat="42.192165" lon="14.59645"><ele>71.0</ele><time>2026-05-02T07:54:55.901Z</time></trkpt><trkpt lat="42.1922367" lon="14.5965183"><ele>71.0</ele><time>2026-05-02T07:54:58.901Z</time></trkpt><trkpt lat="42.1923067" lon="14.5965933"><ele>71.0</ele><time>2026-05-02T07:55:01.901Z</time></trkpt><trkpt lat="42.1923633" lon="14.5966867"><ele>71.0</ele><time>2026-05-02T07:55:04.901Z</time></trkpt><trkpt lat="42.1924367" lon="14.59672"><ele>72.33333333333334</ele><time>2026-05-02T07:55:07.901Z</time></trkpt><trkpt lat="42.1924817" lon="14.5966167"><ele>73.66666666666667</ele><time>2026-05-02T07:55:10.901Z</time></trkpt><trkpt lat="42.19251" lon="14.5964983"><ele>75.0</ele><time>2026-05-02T07:55:13.901Z</time></trkpt><trkpt lat="42.1925383" lon="14.596415"><ele>76.33333333333333</ele><time>2026-05-02T07:55:15.901Z</time></trkpt><trkpt lat="42.1925617" lon="14.5963333"><ele>77.66666666666666</ele><time>2026-05-02T07:55:17.9Z</time></trkpt><trkpt lat="42.192545" lon="14.59624"><ele>79.0</ele><time>2026-05-02T07:55:20.901Z</time></trkpt><trkpt lat="42.192485" lon="14.596195"><ele>79.00000000000001</ele><time>2026-05-02T07:55:22.901Z</time></trkpt><trkpt lat="42.1924133" lon="14.5961717"><ele>79.0</ele><time>2026-05-02T07:55:24.901Z</time></trkpt><trkpt lat="42.192365" lon="14.596095"><ele>79.0</ele><time>2026-05-02T07:55:27.9Z</time></trkpt><trkpt lat="42.1923933" lon="14.59599"><ele>79.0</ele><time>2026-05-02T07:55:30.9Z</time></trkpt><trkpt lat="42.1924417" lon="14.595915"><ele>79.0</ele><time>2026-05-02T07:55:32.901Z</time></trkpt><trkpt lat="42.1924883" lon="14.5958467"><ele>79.00000000000001</ele><time>2026-05-02T07:55:34.901Z</time></trkpt><trkpt lat="42.1925367" lon="14.5957733"><ele>79.0</ele><time>2026-05-02T07:55:36.901Z</time></trkpt><trkpt lat="42.19259" lon="14.5956967"><ele>79.5</ele><time>2026-05-02T07:55:38.901Z</time></trkpt><trkpt lat="42.19265" lon="14.5956267"><ele>80.0</ele><time>2026-05-02T07:55:40.901Z</time></trkpt><trkpt lat="42.192715" lon="14.595555"><ele>80.5</ele><time>2026-05-02T07:55:42.901Z</time></trkpt><trkpt lat="42.1927767" lon="14.5954817"><ele>81.0</ele><time>2026-05-02T07:55:44.901Z</time></trkpt><trkpt lat="42.1928417" lon="14.5954067"><ele>81.5</ele><time>2026-05-02T07:55:46.901Z</time></trkpt><trkpt lat="42.1929017" lon="14.5953317"><ele>82.0</ele><time>2026-05-02T07:55:48.901Z</time></trkpt><trkpt lat="42.19296" lon="14.59526"><ele>82.16666666666666</ele><time>2026-05-02T07:55:50.901Z</time></trkpt><trkpt lat="42.19302" lon="14.5951983"><ele>82.33333333333333</ele><time>2026-05-02T07:55:52.9Z</time></trkpt><trkpt lat="42.193085" lon="14.5951283"><ele>82.5</ele><time>2026-05-02T07:55:54.901Z</time></trkpt><trkpt lat="42.193145" lon="14.595065"><ele>82.66666666666667</ele><time>2026-05-02T07:55:56.901Z</time></trkpt><trkpt lat="42.1932033" lon="14.5949983"><ele>82.83333333333334</ele><time>2026-05-02T07:55:58.901Z</time></trkpt><trkpt lat="42.1932617" lon="14.5949317"><ele>83.0</ele><time>2026-05-02T07:56:00.9Z</time></trkpt><trkpt lat="42.19332" lon="14.5948633"><ele>83.28571428571428</ele><time>2026-05-02T07:56:02.901Z</time></trkpt><trkpt lat="42.1933783" lon="14.594795"><ele>83.57142857142858</ele><time>2026-05-02T07:56:04.901Z</time></trkpt><trkpt lat="42.1934333" lon="14.5947433"><ele>83.85714285714286</ele><time>2026-05-02T07:56:06.901Z</time></trkpt><trkpt lat="42.193485" lon="14.59469"><ele>84.14285714285714</ele><time>2026-05-02T07:56:08.9Z</time></trkpt><trkpt lat="42.193495" lon="14.5946033"><ele>84.42857142857142</ele><time>2026-05-02T07:56:12.901Z</time></trkpt><trkpt lat="42.1934567" lon="14.5945117"><ele>84.71428571428572</ele><time>2026-05-02T07:56:15.901Z</time></trkpt><trkpt lat="42.1934033" lon="14.5944133"><ele>85.0</ele><time>2026-05-02T07:56:18.9Z</time></trkpt><trkpt lat="42.193355" lon="14.594315"><ele>85.0</ele><time>2026-05-02T07:56:21.9Z</time></trkpt><trkpt lat="42.1933067" lon="14.5942317"><ele>85.0</ele><time>2026-05-02T07:56:24.901Z</time></trkpt><trkpt lat="42.19329" lon="14.5941383"><ele>85.0</ele><time>2026-05-02T07:56:28.9Z</time></trkpt><trkpt lat="42.1933433" lon="14.5940783"><ele>85.0</ele><time>2026-05-02T07:56:31.9Z</time></trkpt><trkpt lat="42.1934" lon="14.5940267"><ele>85.0</ele><time>2026-05-02T07:56:33.9Z</time></trkpt><trkpt lat="42.193455" lon="14.593955"><ele>85.0</ele><time>2026-05-02T07:56:35.901Z</time></trkpt><trkpt lat="42.1935083" lon="14.593885"><ele>85.0</ele><time>2026-05-02T07:56:37.901Z</time></trkpt><trkpt lat="42.1935633" lon="14.5938167"><ele>85.0</ele><time>2026-05-02T07:56:39.901Z</time></trkpt><trkpt lat="42.1936167" lon="14.5937517"><ele>85.0</ele><time>2026-05-02T07:56:41.901Z</time></trkpt><trkpt lat="42.1936683" lon="14.5936817"><ele>85.0</ele><time>2026-05-02T07:56:43.901Z</time></trkpt><trkpt lat="42.1937267" lon="14.5936083"><ele>85.0</ele><time>2026-05-02T07:56:45.9Z</time></trkpt><trkpt lat="42.193785" lon="14.593525"><ele>85.0</ele><time>2026-05-02T07:56:47.901Z</time></trkpt><trkpt lat="42.1938417" lon="14.593445"><ele>85.0</ele><time>2026-05-02T07:56:49.901Z</time></trkpt><trkpt lat="42.193905" lon="14.5933583"><ele>85.0</ele><time>2026-05-02T07:56:51.901Z</time></trkpt><trkpt lat="42.1939617" lon="14.5932733"><ele>85.0</ele><time>2026-05-02T07:56:53.9Z</time></trkpt><trkpt lat="42.1940167" lon="14.59318"><ele>85.0</ele><time>2026-05-02T07:56:55.9Z</time></trkpt><trkpt lat="42.1940633" lon="14.593085"><ele>85.0</ele><time>2026-05-02T07:56:57.901Z</time></trkpt><trkpt lat="42.1941117" lon="14.5929917"><ele>85.0</ele><time>2026-05-02T07:56:59.901Z</time></trkpt><trkpt lat="42.1941617" lon="14.5929"><ele>85.0</ele><time>2026-05-02T07:57:01.901Z</time></trkpt><trkpt lat="42.19421" lon="14.592815"><ele>85.66666666666666</ele><time>2026-05-02T07:57:03.901Z</time></trkpt><trkpt lat="42.1942583" lon="14.5927283"><ele>86.33333333333333</ele><time>2026-05-02T07:57:05.901Z</time></trkpt><trkpt lat="42.194305" lon="14.5926433"><ele>87.0</ele><time>2026-05-02T07:57:07.9Z</time></trkpt><trkpt lat="42.19435" lon="14.5925517"><ele>87.66666666666667</ele><time>2026-05-02T07:57:09.901Z</time></trkpt><trkpt lat="42.1943967" lon="14.5924517"><ele>88.33333333333334</ele><time>2026-05-02T07:57:11.9Z</time></trkpt><trkpt lat="42.1944417" lon="14.592345"><ele>89.0</ele><time>2026-05-02T07:57:13.901Z</time></trkpt><trkpt lat="42.1944867" lon="14.5922483"><ele>89.0</ele><time>2026-05-02T07:57:15.901Z</time></trkpt><trkpt lat="42.1945267" lon="14.5921467"><ele>89.0</ele><time>2026-05-02T07:57:17.901Z</time></trkpt><trkpt lat="42.19457" lon="14.5920417"><ele>89.0</ele><time>2026-05-02T07:57:19.901Z</time></trkpt><trkpt lat="42.19461" lon="14.5919383"><ele>89.0</ele><time>2026-05-02T07:57:21.901Z</time></trkpt><trkpt lat="42.1946483" lon="14.5918367"><ele>89.0</ele><time>2026-05-02T07:57:23.9Z</time></trkpt><trkpt lat="42.1946833" lon="14.591735"><ele>89.0</ele><time>2026-05-02T07:57:25.9Z</time></trkpt><trkpt lat="42.1947183" lon="14.5916317"><ele>89.16666666666667</ele><time>2026-05-02T07:57:27.901Z</time></trkpt><trkpt lat="42.194755" lon="14.5915317"><ele>89.33333333333334</ele><time>2026-05-02T07:57:29.9Z</time></trkpt><trkpt lat="42.194785" lon="14.591435"><ele>89.5</ele><time>2026-05-02T07:57:31.901Z</time></trkpt><trkpt lat="42.1948167" lon="14.5913367"><ele>89.66666666666667</ele><time>2026-05-02T07:57:33.9Z</time></trkpt><trkpt lat="42.1948483" lon="14.5912283"><ele>89.83333333333333</ele><time>2026-05-02T07:57:35.901Z</time></trkpt><trkpt lat="42.1948717" lon="14.5911283"><ele>90.0</ele><time>2026-05-02T07:57:37.9Z</time></trkpt><trkpt lat="42.19489" lon="14.5910283"><ele>89.66666666666667</ele><time>2026-05-02T07:57:39.901Z</time></trkpt><trkpt lat="42.1949083" lon="14.5909267"><ele>89.33333333333333</ele><time>2026-05-02T07:57:41.901Z</time></trkpt><trkpt lat="42.1949317" lon="14.5908183"><ele>89.0</ele><time>2026-05-02T07:57:43.901Z</time></trkpt><trkpt lat="42.194955" lon="14.59071"><ele>88.66666666666666</ele><time>2026-05-02T07:57:45.901Z</time></trkpt><trkpt lat="42.1949717" lon="14.5906033"><ele>88.33333333333333</ele><time>2026-05-02T07:57:47.9Z</time></trkpt><trkpt lat="42.1949933" lon="14.590505"><ele>88.0</ele><time>2026-05-02T07:57:49.901Z</time></trkpt><trkpt lat="42.1950033" lon="14.590415"><ele>87.83333333333333</ele><time>2026-05-02T07:57:51.901Z</time></trkpt><trkpt lat="42.1950083" lon="14.5903183"><ele>87.66666666666666</ele><time>2026-05-02T07:57:53.901Z</time></trkpt><trkpt lat="42.1950167" lon="14.59022"><ele>87.5</ele><time>2026-05-02T07:57:55.9Z</time></trkpt><trkpt lat="42.1950283" lon="14.59012"><ele>87.33333333333333</ele><time>2026-05-02T07:57:57.901Z</time></trkpt><trkpt lat="42.1950417" lon="14.5900167"><ele>87.16666666666667</ele><time>2026-05-02T07:57:59.9Z</time></trkpt><trkpt lat="42.1950533" lon="14.5899133"><ele>87.0</ele><time>2026-05-02T07:58:01.901Z</time></trkpt><trkpt lat="42.1950617" lon="14.5898017"><ele>87.0</ele><time>2026-05-02T07:58:03.901Z</time></trkpt><trkpt lat="42.1950733" lon="14.5897017"><ele>87.0</ele><time>2026-05-02T07:58:05.901Z</time></trkpt><trkpt lat="42.195085" lon="14.5896033"><ele>87.0</ele><time>2026-05-02T07:58:07.901Z</time></trkpt><trkpt lat="42.1950933" lon="14.5894767"><ele>87.0</ele><time>2026-05-02T07:58:10.9Z</time></trkpt><trkpt lat="42.195095" lon="14.5893567"><ele>87.0</ele><time>2026-05-02T07:58:13.901Z</time></trkpt><trkpt lat="42.1951017" lon="14.5892517"><ele>87.0</ele><time>2026-05-02T07:58:16.9Z</time></trkpt><trkpt lat="42.1950917" lon="14.5891167"><ele>86.85714285714286</ele><time>2026-05-02T07:58:31.901Z</time></trkpt><trkpt lat="42.19507" lon="14.589035"><ele>86.71428571428572</ele><time>2026-05-02T07:58:34.901Z</time></trkpt><trkpt lat="42.195075" lon="14.5889417"><ele>86.57142857142858</ele><time>2026-05-02T07:58:39.901Z</time></trkpt><trkpt lat="42.195115" lon="14.5888583"><ele>86.42857142857143</ele><time>2026-05-02T07:58:42.9Z</time></trkpt><trkpt lat="42.1951233" lon="14.5887733"><ele>86.28571428571429</ele><time>2026-05-02T07:58:44.9Z</time></trkpt><trkpt lat="42.1951333" lon="14.588675"><ele>86.14285714285715</ele><time>2026-05-02T07:58:46.901Z</time></trkpt><trkpt lat="42.1951417" lon="14.5885583"><ele>86.0</ele><time>2026-05-02T07:58:48.9Z</time></trkpt><trkpt lat="42.19514" lon="14.588425"><ele>85.6</ele><time>2026-05-02T07:58:50.901Z</time></trkpt><trkpt lat="42.195135" lon="14.5882733"><ele>85.19999999999999</ele><time>2026-05-02T07:58:52.9Z</time></trkpt><trkpt lat="42.19513" lon="14.588115"><ele>84.80000000000001</ele><time>2026-05-02T07:58:54.9Z</time></trkpt><trkpt lat="42.1951333" lon="14.58795"><ele>84.4</ele><time>2026-05-02T07:58:56.901Z</time></trkpt><trkpt lat="42.1951367" lon="14.58786"><ele>84.0</ele><time>2026-05-02T07:58:57.901Z</time></trkpt><trkpt lat="42.19514" lon="14.5877717"><ele>83.85714285714286</ele><time>2026-05-02T07:58:58.901Z</time></trkpt><trkpt lat="42.1951367" lon="14.5876867"><ele>83.71428571428572</ele><time>2026-05-02T07:58:59.9Z</time></trkpt><trkpt lat="42.1951333" lon="14.5875983"><ele>83.57142857142857</ele><time>2026-05-02T07:59:00.9Z</time></trkpt><trkpt lat="42.195135" lon="14.58751"><ele>83.42857142857143</ele><time>2026-05-02T07:59:01.9Z</time></trkpt><trkpt lat="42.1951383" lon="14.587425"><ele>83.28571428571429</ele><time>2026-05-02T07:59:02.9Z</time></trkpt><trkpt lat="42.1951367" lon="14.587335"><ele>83.14285714285714</ele><time>2026-05-02T07:59:03.901Z</time></trkpt><trkpt lat="42.195145" lon="14.5872183"><ele>83.0</ele><time>2026-05-02T07:59:05.901Z</time></trkpt><trkpt lat="42.195155" lon="14.5871317"><ele>83.0</ele><time>2026-05-02T07:59:10.901Z</time></trkpt><trkpt lat="42.19513" lon="14.5870367"><ele>83.0</ele><time>2026-05-02T07:59:14.9Z</time></trkpt><trkpt lat="42.1951217" lon="14.5869483"><ele>83.0</ele><time>2026-05-02T07:59:17.9Z</time></trkpt><trkpt lat="42.19513" lon="14.5868483"><ele>83.0</ele><time>2026-05-02T07:59:20.901Z</time></trkpt><trkpt lat="42.1951383" lon="14.5867567"><ele>83.0</ele><time>2026-05-02T07:59:23.9Z</time></trkpt><trkpt lat="42.195135" lon="14.5866517"><ele>83.0</ele><time>2026-05-02T07:59:26.901Z</time></trkpt><trkpt lat="42.1951167" lon="14.5865467"><ele>83.0</ele><time>2026-05-02T07:59:28.901Z</time></trkpt><trkpt lat="42.1950967" lon="14.5864317"><ele>83.0</ele><time>2026-05-02T07:59:30.901Z</time></trkpt><trkpt lat="42.1950933" lon="14.5863333"><ele>83.0</ele><time>2026-05-02T07:59:32.901Z</time></trkpt><trkpt lat="42.1951033" lon="14.58621"><ele>83.0</ele><time>2026-05-02T07:59:34.9Z</time></trkpt><trkpt lat="42.1951233" lon="14.586075"><ele>83.0</ele><time>2026-05-02T07:59:36.901Z</time></trkpt><trkpt lat="42.1951267" lon="14.5859767"><ele>83.0</ele><time>2026-05-02T07:59:38.901Z</time></trkpt><trkpt lat="42.1951467" lon="14.585885"><ele>83.0</ele><time>2026-05-02T07:59:40.9Z</time></trkpt><trkpt lat="42.1951717" lon="14.5857567"><ele>83.33333333333334</ele><time>2026-05-02T07:59:42.899Z</time></trkpt><trkpt lat="42.1951867" lon="14.5856517"><ele>83.66666666666667</ele><time>2026-05-02T07:59:44.899Z</time></trkpt><trkpt lat="42.195195" lon="14.585545"><ele>84.0</ele><time>2026-05-02T07:59:46.9Z</time></trkpt><trkpt lat="42.1952033" lon="14.5854383"><ele>84.33333333333333</ele><time>2026-05-02T07:59:48.9Z</time></trkpt><trkpt lat="42.1952367" lon="14.585315"><ele>84.66666666666666</ele><time>2026-05-02T07:59:50.9Z</time></trkpt><trkpt lat="42.1952433" lon="14.5852"><ele>85.0</ele><time>2026-05-02T07:59:52.9Z</time></trkpt><trkpt lat="42.1952417" lon="14.5851033"><ele>85.16666666666666</ele><time>2026-05-02T07:59:54.9Z</time></trkpt><trkpt lat="42.1952383" lon="14.5849817"><ele>85.33333333333333</ele><time>2026-05-02T07:59:57.899Z</time></trkpt><trkpt lat="42.1952483" lon="14.58489"><ele>85.5</ele><time>2026-05-02T07:59:59.9Z</time></trkpt><trkpt lat="42.19527" lon="14.5847683"><ele>85.66666666666667</ele><time>2026-05-02T08:00:01.9Z</time></trkpt><trkpt lat="42.1953" lon="14.584635"><ele>85.83333333333334</ele><time>2026-05-02T08:00:02.9Z</time></trkpt><trkpt lat="42.1953067" lon="14.5845433"><ele>86.0</ele><time>2026-05-02T08:00:03.9Z</time></trkpt><trkpt lat="42.1953067" lon="14.58445"><ele>85.0</ele><time>2026-05-02T08:00:04.899Z</time></trkpt><trkpt lat="42.1953" lon="14.584295"><ele>84.0</ele><time>2026-05-02T08:00:06.899Z</time></trkpt><trkpt lat="42.195285" lon="14.58415"><ele>83.0</ele><time>2026-05-02T08:00:08.899Z</time></trkpt><trkpt lat="42.1952717" lon="14.5839933"><ele>82.0</ele><time>2026-05-02T08:00:10.9Z</time></trkpt><trkpt lat="42.19524" lon="14.5838417"><ele>82.0</ele><time>2026-05-02T08:00:12.9Z</time></trkpt><trkpt lat="42.195175" lon="14.5837183"><ele>82.0</ele><time>2026-05-02T08:00:14.9Z</time></trkpt><trkpt lat="42.1951317" lon="14.5836533"><ele>82.0</ele><time>2026-05-02T08:00:15.899Z</time></trkpt><trkpt lat="42.1950617" lon="14.583555"><ele>82.0</ele><time>2026-05-02T08:00:17.899Z</time></trkpt><trkpt lat="42.1950083" lon="14.5834883"><ele>82.0</ele><time>2026-05-02T08:00:19.9Z</time></trkpt><trkpt lat="42.1949483" lon="14.58344"><ele>82.0</ele><time>2026-05-02T08:00:21.899Z</time></trkpt><trkpt lat="42.1948933" lon="14.5833933"><ele>82.83333333333333</ele><time>2026-05-02T08:00:23.899Z</time></trkpt><trkpt lat="42.1948233" lon="14.58334"><ele>83.66666666666666</ele><time>2026-05-02T08:00:26.9Z</time></trkpt><trkpt lat="42.1947783" lon="14.583275"><ele>84.5</ele><time>2026-05-02T08:00:31.899Z</time></trkpt><trkpt lat="42.19484" lon="14.58324"><ele>85.33333333333333</ele><time>2026-05-02T08:00:36.9Z</time></trkpt><trkpt lat="42.19491" lon="14.5831967"><ele>86.16666666666667</ele><time>2026-05-02T08:00:38.899Z</time></trkpt><trkpt lat="42.1950067" lon="14.5831533"><ele>87.0</ele><time>2026-05-02T08:00:40.9Z</time></trkpt><trkpt lat="42.1950967" lon="14.5831"><ele>84.19999999999999</ele><time>2026-05-02T08:00:42.899Z</time></trkpt><trkpt lat="42.195175" lon="14.58304"><ele>81.39999999999999</ele><time>2026-05-02T08:00:44.9Z</time></trkpt><trkpt lat="42.1952617" lon="14.5829683"><ele>78.6</ele><time>2026-05-02T08:00:46.9Z</time></trkpt><trkpt lat="42.1953517" lon="14.5829067"><ele>75.8</ele><time>2026-05-02T08:00:48.9Z</time></trkpt><trkpt lat="42.1954283" lon="14.582835"><ele>73.0</ele><time>2026-05-02T08:00:50.9Z</time></trkpt><trkpt lat="42.195495" lon="14.5827483"><ele>71.0</ele><time>2026-05-02T08:00:52.899Z</time></trkpt><trkpt lat="42.19556" lon="14.5826783"><ele>69.0</ele><time>2026-05-02T08:00:55.9Z</time></trkpt><trkpt lat="42.1956783" lon="14.5827133"><ele>67.0</ele><time>2026-05-02T08:00:57.9Z</time></trkpt><trkpt lat="42.195735" lon="14.5827533"><ele>65.0</ele><time>2026-05-02T08:00:58.9Z</time></trkpt><trkpt lat="42.1957867" lon="14.5828067"><ele>62.99999999999999</ele><time>2026-05-02T08:00:59.9Z</time></trkpt><trkpt lat="42.1958283" lon="14.5829317"><ele>61.0</ele><time>2026-05-02T08:01:01.899Z</time></trkpt><trkpt lat="42.1958267" lon="14.5830567"><ele>60.99999999999999</ele><time>2026-05-02T08:01:03.9Z</time></trkpt><trkpt lat="42.1958117" lon="14.583175"><ele>61.0</ele><time>2026-05-02T08:01:05.9Z</time></trkpt><trkpt lat="42.1958" lon="14.5832833"><ele>61.0</ele><time>2026-05-02T08:01:07.9Z</time></trkpt><trkpt lat="42.19579" lon="14.5833983"><ele>61.0</ele><time>2026-05-02T08:01:09.9Z</time></trkpt><trkpt lat="42.19577" lon="14.5834933"><ele>60.99999999999999</ele><time>2026-05-02T08:01:11.9Z</time></trkpt><trkpt lat="42.195745" lon="14.58359"><ele>61.0</ele><time>2026-05-02T08:01:13.899Z</time></trkpt><trkpt lat="42.195735" lon="14.5836917"><ele>61.49999999999999</ele><time>2026-05-02T08:01:15.9Z</time></trkpt><trkpt lat="42.1957233" lon="14.583795"><ele>62.0</ele><time>2026-05-02T08:01:17.899Z</time></trkpt><trkpt lat="42.1956983" lon="14.5839167"><ele>62.5</ele><time>2026-05-02T08:01:20.9Z</time></trkpt><trkpt lat="42.1956883" lon="14.5840467"><ele>63.0</ele><time>2026-05-02T08:01:23.899Z</time></trkpt><trkpt lat="42.19569" lon="14.58414"><ele>63.49999999999999</ele><time>2026-05-02T08:01:25.899Z</time></trkpt><trkpt lat="42.19569" lon="14.5842283"><ele>64.0</ele><time>2026-05-02T08:01:27.9Z</time></trkpt><trkpt lat="42.1956733" lon="14.584315"><ele>64.33333333333333</ele><time>2026-05-02T08:01:29.9Z</time></trkpt><trkpt lat="42.195655" lon="14.5844017"><ele>64.66666666666666</ele><time>2026-05-02T08:01:31.9Z</time></trkpt><trkpt lat="42.195645" lon="14.5844883"><ele>65.0</ele><time>2026-05-02T08:01:33.899Z</time></trkpt><trkpt lat="42.1956517" lon="14.584585"><ele>65.33333333333333</ele><time>2026-05-02T08:01:35.9Z</time></trkpt><trkpt lat="42.1957567" lon="14.584615"><ele>65.66666666666667</ele><time>2026-05-02T08:01:38.899Z</time></trkpt><trkpt lat="42.1958483" lon="14.5845933"><ele>66.0</ele><time>2026-05-02T08:01:40.9Z</time></trkpt><trkpt lat="42.1959583" lon="14.5845383"><ele>65.71428571428571</ele><time>2026-05-02T08:01:42.9Z</time></trkpt><trkpt lat="42.1960183" lon="14.5845117"><ele>65.42857142857143</ele><time>2026-05-02T08:01:43.9Z</time></trkpt><trkpt lat="42.1960833" lon="14.584485"><ele>65.14285714285714</ele><time>2026-05-02T08:01:44.899Z</time></trkpt><trkpt lat="42.1961533" lon="14.58445"><ele>64.85714285714286</ele><time>2026-05-02T08:01:45.899Z</time></trkpt><trkpt lat="42.1962283" lon="14.5844117"><ele>64.57142857142857</ele><time>2026-05-02T08:01:46.899Z</time></trkpt><trkpt lat="42.196305" lon="14.5843733"><ele>64.28571428571428</ele><time>2026-05-02T08:01:47.9Z</time></trkpt><trkpt lat="42.196375" lon="14.5843417"><ele>64.0</ele><time>2026-05-02T08:01:48.9Z</time></trkpt><trkpt lat="42.196445" lon="14.58431"><ele>61.33333333333333</ele><time>2026-05-02T08:01:49.9Z</time></trkpt><trkpt lat="42.1965183" lon="14.5842767"><ele>58.666666666666664</ele><time>2026-05-02T08:01:50.9Z</time></trkpt><trkpt lat="42.1965967" lon="14.5842433"><ele>56.0</ele><time>2026-05-02T08:01:51.9Z</time></trkpt><trkpt lat="42.1966717" lon="14.5842083"><ele>53.33333333333333</ele><time>2026-05-02T08:01:52.9Z</time></trkpt><trkpt lat="42.19675" lon="14.5841717"><ele>50.666666666666664</ele><time>2026-05-02T08:01:53.9Z</time></trkpt><trkpt lat="42.1968267" lon="14.5841317"><ele>48.0</ele><time>2026-05-02T08:01:54.899Z</time></trkpt><trkpt lat="42.19691" lon="14.5840833"><ele>48.0</ele><time>2026-05-02T08:01:55.9Z</time></trkpt><trkpt lat="42.197" lon="14.584035"><ele>48.0</ele><time>2026-05-02T08:01:56.899Z</time></trkpt><trkpt lat="42.1970867" lon="14.5839833"><ele>48.0</ele><time>2026-05-02T08:01:57.9Z</time></trkpt><trkpt lat="42.197175" lon="14.5839267"><ele>48.0</ele><time>2026-05-02T08:01:58.9Z</time></trkpt><trkpt lat="42.1972683" lon="14.5838683"><ele>48.0</ele><time>2026-05-02T08:01:59.9Z</time></trkpt><trkpt lat="42.1973533" lon="14.5838167"><ele>45.199999999999996</ele><time>2026-05-02T08:02:00.9Z</time></trkpt><trkpt lat="42.1974333" lon="14.5837733"><ele>42.4</ele><time>2026-05-02T08:02:01.9Z</time></trkpt><trkpt lat="42.1975117" lon="14.583735"><ele>39.599999999999994</ele><time>2026-05-02T08:02:02.9Z</time></trkpt><trkpt lat="42.1975767" lon="14.5837067"><ele>36.8</ele><time>2026-05-02T08:02:03.899Z</time></trkpt><trkpt lat="42.1977" lon="14.5836667"><ele>34.0</ele><time>2026-05-02T08:02:05.9Z</time></trkpt><trkpt lat="42.1977867" lon="14.5836333"><ele>34.0</ele><time>2026-05-02T08:02:07.9Z</time></trkpt><trkpt lat="42.1978267" lon="14.583565"><ele>34.0</ele><time>2026-05-02T08:02:09.9Z</time></trkpt><trkpt lat="42.1978" lon="14.5834483"><ele>34.0</ele><time>2026-05-02T08:02:12.9Z</time></trkpt><trkpt lat="42.1977517" lon="14.5833867"><ele>34.0</ele><time>2026-05-02T08:02:14.9Z</time></trkpt><trkpt lat="42.1977083" lon="14.5833067"><ele>34.0</ele><time>2026-05-02T08:02:16.899Z</time></trkpt><trkpt lat="42.1976683" lon="14.58321"><ele>34.0</ele><time>2026-05-02T08:02:18.9Z</time></trkpt><trkpt lat="42.1976283" lon="14.5831133"><ele>34.0</ele><time>2026-05-02T08:02:20.9Z</time></trkpt><trkpt lat="42.1976067" lon="14.5830183"><ele>34.0</ele><time>2026-05-02T08:02:22.9Z</time></trkpt><trkpt lat="42.1975767" lon="14.5829317"><ele>34.0</ele><time>2026-05-02T08:02:24.9Z</time></trkpt><trkpt lat="42.1975483" lon="14.582845"><ele>34.0</ele><time>2026-05-02T08:02:26.9Z</time></trkpt><trkpt lat="42.19754" lon="14.5827383"><ele>34.0</ele><time>2026-05-02T08:02:28.9Z</time></trkpt><trkpt lat="42.197555" lon="14.582635"><ele>34.0</ele><time>2026-05-02T08:02:30.899Z</time></trkpt><trkpt lat="42.1975817" lon="14.582525"><ele>33.66666666666667</ele><time>2026-05-02T08:02:32.899Z</time></trkpt><trkpt lat="42.197605" lon="14.582405"><ele>33.333333333333336</ele><time>2026-05-02T08:02:34.899Z</time></trkpt><trkpt lat="42.1976133" lon="14.5822917"><ele>33.0</ele><time>2026-05-02T08:02:36.9Z</time></trkpt><trkpt lat="42.1976233" lon="14.5822017"><ele>32.666666666666664</ele><time>2026-05-02T08:02:38.9Z</time></trkpt><trkpt lat="42.1976467" lon="14.582115"><ele>32.33333333333333</ele><time>2026-05-02T08:02:40.9Z</time></trkpt><trkpt lat="42.1976683" lon="14.5820017"><ele>32.0</ele><time>2026-05-02T08:02:42.9Z</time></trkpt><trkpt lat="42.1976983" lon="14.5819167"><ele>31.999999999999996</ele><time>2026-05-02T08:02:44.9Z</time></trkpt><trkpt lat="42.1977917" lon="14.5818833"><ele>32.0</ele><time>2026-05-02T08:02:47.9Z</time></trkpt><trkpt lat="42.1978717" lon="14.5818933"><ele>32.0</ele><time>2026-05-02T08:02:49.899Z</time></trkpt><trkpt lat="42.197955" lon="14.58191"><ele>32.0</ele><time>2026-05-02T08:02:51.9Z</time></trkpt><trkpt lat="42.1980417" lon="14.5819283"><ele>31.999999999999996</ele><time>2026-05-02T08:02:53.9Z</time></trkpt><trkpt lat="42.1981333" lon="14.581955"><ele>32.0</ele><time>2026-05-02T08:02:55.9Z</time></trkpt><trkpt lat="42.198235" lon="14.5819767"><ele>30.0</ele><time>2026-05-02T08:02:57.899Z</time></trkpt><trkpt lat="42.1983367" lon="14.5820067"><ele>28.0</ele><time>2026-05-02T08:02:59.899Z</time></trkpt><trkpt lat="42.1984483" lon="14.5820483"><ele>26.0</ele><time>2026-05-02T08:03:01.899Z</time></trkpt><trkpt lat="42.1985633" lon="14.58207"><ele>24.0</ele><time>2026-05-02T08:03:03.9Z</time></trkpt><trkpt lat="42.19868" lon="14.5821"><ele>24.0</ele><time>2026-05-02T08:03:05.9Z</time></trkpt><trkpt lat="42.1987767" lon="14.5821517"><ele>24.0</ele><time>2026-05-02T08:03:07.9Z</time></trkpt><trkpt lat="42.1988833" lon="14.5821817"><ele>24.0</ele><time>2026-05-02T08:03:09.9Z</time></trkpt><trkpt lat="42.1989917" lon="14.5821983"><ele>24.0</ele><time>2026-05-02T08:03:11.899Z</time></trkpt><trkpt lat="42.1990917" lon="14.582215"><ele>24.0</ele><time>2026-05-02T08:03:13.9Z</time></trkpt><trkpt lat="42.1991867" lon="14.582245"><ele>23.333333333333332</ele><time>2026-05-02T08:03:15.9Z</time></trkpt><trkpt lat="42.1992417" lon="14.5823"><ele>22.666666666666668</ele><time>2026-05-02T08:03:17.9Z</time></trkpt><trkpt lat="42.199245" lon="14.5824017"><ele>22.0</ele><time>2026-05-02T08:03:19.899Z</time></trkpt><trkpt lat="42.1992333" lon="14.5824933"><ele>21.333333333333336</ele><time>2026-05-02T08:03:21.899Z</time></trkpt><trkpt lat="42.1992183" lon="14.5826017"><ele>20.666666666666668</ele><time>2026-05-02T08:03:23.899Z</time></trkpt><trkpt lat="42.199205" lon="14.582725"><ele>20.0</ele><time>2026-05-02T08:03:25.9Z</time></trkpt><trkpt lat="42.199195" lon="14.5828567"><ele>19.6</ele><time>2026-05-02T08:03:27.9Z</time></trkpt><trkpt lat="42.199185" lon="14.5829867"><ele>19.2</ele><time>2026-05-02T08:03:29.899Z</time></trkpt><trkpt lat="42.199175" lon="14.5831317"><ele>18.8</ele><time>2026-05-02T08:03:31.899Z</time></trkpt><trkpt lat="42.1991733" lon="14.583265"><ele>18.4</ele><time>2026-05-02T08:03:33.9Z</time></trkpt><trkpt lat="42.1991583" lon="14.5833917"><ele>18.0</ele><time>2026-05-02T08:03:35.9Z</time></trkpt><trkpt lat="42.1991467" lon="14.5835133"><ele>18.0</ele><time>2026-05-02T08:03:37.899Z</time></trkpt><trkpt lat="42.1991317" lon="14.58365"><ele>18.0</ele><time>2026-05-02T08:03:39.9Z</time></trkpt><trkpt lat="42.1991083" lon="14.58378"><ele>18.0</ele><time>2026-05-02T08:03:41.9Z</time></trkpt><trkpt lat="42.1990883" lon="14.583895"><ele>18.0</ele><time>2026-05-02T08:03:43.9Z</time></trkpt><trkpt lat="42.1990917" lon="14.5839883"><ele>18.0</ele><time>2026-05-02T08:03:45.9Z</time></trkpt><trkpt lat="42.199085" lon="14.5840917"><ele>18.0</ele><time>2026-05-02T08:03:47.9Z</time></trkpt><trkpt lat="42.1990617" lon="14.584195"><ele>17.833333333333332</ele><time>2026-05-02T08:03:49.899Z</time></trkpt><trkpt lat="42.19905" lon="14.5842967"><ele>17.666666666666668</ele><time>2026-05-02T08:03:51.9Z</time></trkpt><trkpt lat="42.19903" lon="14.5843883"><ele>17.5</ele><time>2026-05-02T08:03:53.9Z</time></trkpt><trkpt lat="42.1990267" lon="14.584495"><ele>17.333333333333336</ele><time>2026-05-02T08:03:55.899Z</time></trkpt><trkpt lat="42.1990217" lon="14.5846033"><ele>17.166666666666668</ele><time>2026-05-02T08:03:57.9Z</time></trkpt><trkpt lat="42.198995" lon="14.5847033"><ele>17.0</ele><time>2026-05-02T08:03:59.9Z</time></trkpt><trkpt lat="42.19899" lon="14.584815"><ele>18.2</ele><time>2026-05-02T08:04:01.899Z</time></trkpt><trkpt lat="42.1989833" lon="14.5849433"><ele>19.4</ele><time>2026-05-02T08:04:03.9Z</time></trkpt><trkpt lat="42.1989883" lon="14.5850717"><ele>20.599999999999998</ele><time>2026-05-02T08:04:05.9Z</time></trkpt><trkpt lat="42.1989783" lon="14.5851833"><ele>21.799999999999997</ele><time>2026-05-02T08:04:07.9Z</time></trkpt><trkpt lat="42.1989583" lon="14.5852983"><ele>23.0</ele><time>2026-05-02T08:04:09.9Z</time></trkpt><trkpt lat="42.1989467" lon="14.58542"><ele>23.333333333333336</ele><time>2026-05-02T08:04:11.899Z</time></trkpt><trkpt lat="42.198935" lon="14.585535"><ele>23.666666666666668</ele><time>2026-05-02T08:04:13.899Z</time></trkpt><trkpt lat="42.1989167" lon="14.5856383"><ele>24.0</ele><time>2026-05-02T08:04:15.9Z</time></trkpt><trkpt lat="42.1988933" lon="14.5857483"><ele>24.333333333333336</ele><time>2026-05-02T08:04:17.9Z</time></trkpt><trkpt lat="42.1988883" lon="14.5858617"><ele>24.666666666666668</ele><time>2026-05-02T08:04:19.9Z</time></trkpt><trkpt lat="42.19888" lon="14.5859717"><ele>25.0</ele><time>2026-05-02T08:04:21.9Z</time></trkpt><trkpt lat="42.1988733" lon="14.5860817"><ele>25.166666666666668</ele><time>2026-05-02T08:04:23.9Z</time></trkpt><trkpt lat="42.1988733" lon="14.58618"><ele>25.333333333333336</ele><time>2026-05-02T08:04:25.9Z</time></trkpt><trkpt lat="42.1988583" lon="14.586275"><ele>25.5</ele><time>2026-05-02T08:04:27.9Z</time></trkpt><trkpt lat="42.19884" lon="14.58638"><ele>25.666666666666664</ele><time>2026-05-02T08:04:29.9Z</time></trkpt><trkpt lat="42.19885" lon="14.58648"><ele>25.833333333333332</ele><time>2026-05-02T08:04:31.899Z</time></trkpt><trkpt lat="42.1988383" lon="14.5865867"><ele>26.0</ele><time>2026-05-02T08:04:33.9Z</time></trkpt><trkpt lat="42.1988167" lon="14.586725"><ele>26.0</ele><time>2026-05-02T08:04:35.899Z</time></trkpt><trkpt lat="42.1987983" lon="14.5868617"><ele>26.0</ele><time>2026-05-02T08:04:37.9Z</time></trkpt><trkpt lat="42.1987967" lon="14.5869917"><ele>26.0</ele><time>2026-05-02T08:04:39.899Z</time></trkpt><trkpt lat="42.1987917" lon="14.5871367"><ele>26.0</ele><time>2026-05-02T08:04:41.9Z</time></trkpt><trkpt lat="42.1987867" lon="14.58728"><ele>26.0</ele><time>2026-05-02T08:04:43.9Z</time></trkpt><trkpt lat="42.1987767" lon="14.5874233"><ele>26.0</ele><time>2026-05-02T08:04:45.9Z</time></trkpt><trkpt lat="42.19879" lon="14.58757"><ele>26.0</ele><time>2026-05-02T08:04:47.9Z</time></trkpt><trkpt lat="42.1988367" lon="14.5876867"><ele>26.0</ele><time>2026-05-02T08:04:49.9Z</time></trkpt><trkpt lat="42.1988983" lon="14.5877667"><ele>26.0</ele><time>2026-05-02T08:04:51.9Z</time></trkpt><trkpt lat="42.1989617" lon="14.58783"><ele>26.0</ele><time>2026-05-02T08:04:53.9Z</time></trkpt><trkpt lat="42.1989767" lon="14.587935"><ele>25.999999999999996</ele><time>2026-05-02T08:04:55.899Z</time></trkpt><trkpt lat="42.198965" lon="14.588075"><ele>26.0</ele><time>2026-05-02T08:04:57.9Z</time></trkpt><trkpt lat="42.19896" lon="14.5882367"><ele>26.0</ele><time>2026-05-02T08:04:59.9Z</time></trkpt><trkpt lat="42.1989617" lon="14.5883233"><ele>26.0</ele><time>2026-05-02T08:05:00.899Z</time></trkpt><trkpt lat="42.1989683" lon="14.5884083"><ele>25.999999999999996</ele><time>2026-05-02T08:05:01.9Z</time></trkpt><trkpt lat="42.1989683" lon="14.5884933"><ele>26.0</ele><time>2026-05-02T08:05:02.899Z</time></trkpt><trkpt lat="42.198975" lon="14.5886567"><ele>25.200000000000003</ele><time>2026-05-02T08:05:04.899Z</time></trkpt><trkpt lat="42.1989767" lon="14.58881"><ele>24.400000000000002</ele><time>2026-05-02T08:05:06.9Z</time></trkpt><trkpt lat="42.19897" lon="14.58897"><ele>23.6</ele><time>2026-05-02T08:05:08.9Z</time></trkpt><trkpt lat="42.198975" lon="14.5890983"><ele>22.8</ele><time>2026-05-02T08:05:10.899Z</time></trkpt><trkpt lat="42.1989833" lon="14.5892083"><ele>22.0</ele><time>2026-05-02T08:05:12.9Z</time></trkpt><trkpt lat="42.1990367" lon="14.589255"><ele>20.200000000000003</ele><time>2026-05-02T08:05:14.9Z</time></trkpt><trkpt lat="42.1991133" lon="14.58927"><ele>18.400000000000002</ele><time>2026-05-02T08:05:16.899Z</time></trkpt><trkpt lat="42.1992067" lon="14.58927"><ele>16.6</ele><time>2026-05-02T08:05:18.9Z</time></trkpt><trkpt lat="42.1993217" lon="14.5892617"><ele>14.8</ele><time>2026-05-02T08:05:20.899Z</time></trkpt><trkpt lat="42.199435" lon="14.58926"><ele>13.0</ele><time>2026-05-02T08:05:22.9Z</time></trkpt><trkpt lat="42.1995517" lon="14.589255"><ele>13.0</ele><time>2026-05-02T08:05:24.9Z</time></trkpt><trkpt lat="42.1996167" lon="14.5892517"><ele>13.0</ele><time>2026-05-02T08:05:25.9Z</time></trkpt><trkpt lat="42.1996817" lon="14.5892483"><ele>13.0</ele><time>2026-05-02T08:05:26.9Z</time></trkpt><trkpt lat="42.19975" lon="14.589245"><ele>13.0</ele><time>2026-05-02T08:05:27.9Z</time></trkpt><trkpt lat="42.199815" lon="14.58924"><ele>13.0</ele><time>2026-05-02T08:05:28.899Z</time></trkpt><trkpt lat="42.1998783" lon="14.5892367"><ele>13.0</ele><time>2026-05-02T08:05:29.9Z</time></trkpt><trkpt lat="42.199945" lon="14.5892383"><ele>13.0</ele><time>2026-05-02T08:05:30.899Z</time></trkpt><trkpt lat="42.20001" lon="14.5892417"><ele>12.4</ele><time>2026-05-02T08:05:31.899Z</time></trkpt><trkpt lat="42.2001217" lon="14.5892467"><ele>11.8</ele><time>2026-05-02T08:05:33.9Z</time></trkpt><trkpt lat="42.2002333" lon="14.5892283"><ele>11.2</ele><time>2026-05-02T08:05:35.899Z</time></trkpt><trkpt lat="42.2003183" lon="14.5891533"><ele>10.6</ele><time>2026-05-02T08:05:37.899Z</time></trkpt><trkpt lat="42.20037" lon="14.5890333"><ele>10.0</ele><time>2026-05-02T08:05:39.899Z</time></trkpt><trkpt lat="42.2004133" lon="14.5889067"><ele>10.0</ele><time>2026-05-02T08:05:41.899Z</time></trkpt><trkpt lat="42.200475" lon="14.58879"><ele>10.0</ele><time>2026-05-02T08:05:43.9Z</time></trkpt><trkpt lat="42.2005467" lon="14.58869"><ele>10.0</ele><time>2026-05-02T08:05:45.899Z</time></trkpt><trkpt lat="42.2006283" lon="14.5885867"><ele>10.0</ele><time>2026-05-02T08:05:47.9Z</time></trkpt><trkpt lat="42.20071" lon="14.5884933"><ele>10.0</ele><time>2026-05-02T08:05:49.9Z</time></trkpt><trkpt lat="42.2007917" lon="14.5884117"><ele>9.8</ele><time>2026-05-02T08:05:51.9Z</time></trkpt><trkpt lat="42.2008867" lon="14.5883417"><ele>9.6</ele><time>2026-05-02T08:05:53.9Z</time></trkpt><trkpt lat="42.2009817" lon="14.5882717"><ele>9.4</ele><time>2026-05-02T08:05:55.9Z</time></trkpt><trkpt lat="42.20107" lon="14.588205"><ele>9.2</ele><time>2026-05-02T08:05:57.9Z</time></trkpt><trkpt lat="42.2011417" lon="14.58811"><ele>9.0</ele><time>2026-05-02T08:05:59.9Z</time></trkpt><trkpt lat="42.2012017" lon="14.5880233"><ele>9.0</ele><time>2026-05-02T08:06:01.9Z</time></trkpt><trkpt lat="42.201285" lon="14.5879733"><ele>9.0</ele><time>2026-05-02T08:06:03.9Z</time></trkpt><trkpt lat="42.20138" lon="14.5879317"><ele>9.0</ele><time>2026-05-02T08:06:05.9Z</time></trkpt><trkpt lat="42.2014367" lon="14.5878317"><ele>9.0</ele><time>2026-05-02T08:06:07.9Z</time></trkpt><trkpt lat="42.2014683" lon="14.5877183"><ele>9.0</ele><time>2026-05-02T08:06:09.899Z</time></trkpt><trkpt lat="42.2014933" lon="14.5876133"><ele>9.6</ele><time>2026-05-02T08:06:11.9Z</time></trkpt><trkpt lat="42.2015017" lon="14.5875183"><ele>10.2</ele><time>2026-05-02T08:06:13.9Z</time></trkpt><trkpt lat="42.20152" lon="14.5874083"><ele>10.799999999999999</ele><time>2026-05-02T08:06:15.9Z</time></trkpt><trkpt lat="42.201545" lon="14.5872867"><ele>11.4</ele><time>2026-05-02T08:06:17.9Z</time></trkpt><trkpt lat="42.2015667" lon="14.587155"><ele>12.0</ele><time>2026-05-02T08:06:19.9Z</time></trkpt><trkpt lat="42.2015883" lon="14.5870067"><ele>12.2</ele><time>2026-05-02T08:06:21.899Z</time></trkpt><trkpt lat="42.2016083" lon="14.5868683"><ele>12.399999999999999</ele><time>2026-05-02T08:06:23.899Z</time></trkpt><trkpt lat="42.2016283" lon="14.5867233"><ele>12.600000000000001</ele><time>2026-05-02T08:06:25.899Z</time></trkpt><trkpt lat="42.201645" lon="14.586585"><ele>12.8</ele><time>2026-05-02T08:06:27.9Z</time></trkpt><trkpt lat="42.20166" lon="14.586455"><ele>13.0</ele><time>2026-05-02T08:06:29.9Z</time></trkpt><trkpt lat="42.20168" lon="14.5863133"><ele>12.75</ele><time>2026-05-02T08:06:31.9Z</time></trkpt><trkpt lat="42.2017133" lon="14.5861583"><ele>12.5</ele><time>2026-05-02T08:06:33.899Z</time></trkpt><trkpt lat="42.2017517" lon="14.58602"><ele>12.25</ele><time>2026-05-02T08:06:35.9Z</time></trkpt><trkpt lat="42.2018017" lon="14.5858717"><ele>12.0</ele><time>2026-05-02T08:06:37.899Z</time></trkpt><trkpt lat="42.201855" lon="14.5857317"><ele>12.0</ele><time>2026-05-02T08:06:39.9Z</time></trkpt><trkpt lat="42.2019117" lon="14.585595"><ele>12.0</ele><time>2026-05-02T08:06:41.9Z</time></trkpt><trkpt lat="42.2019717" lon="14.5854667"><ele>12.0</ele><time>2026-05-02T08:06:43.9Z</time></trkpt><trkpt lat="42.2020467" lon="14.5853483"><ele>12.0</ele><time>2026-05-02T08:06:45.899Z</time></trkpt><trkpt lat="42.2021283" lon="14.5852633"><ele>12.0</ele><time>2026-05-02T08:06:47.899Z</time></trkpt><trkpt lat="42.202205" lon="14.5851567"><ele>12.0</ele><time>2026-05-02T08:06:49.9Z</time></trkpt><trkpt lat="42.202285" lon="14.5850783"><ele>12.0</ele><time>2026-05-02T08:06:51.9Z</time></trkpt><trkpt lat="42.2023783" lon="14.5850033"><ele>12.0</ele><time>2026-05-02T08:06:53.9Z</time></trkpt><trkpt lat="42.2024667" lon="14.5849333"><ele>12.0</ele><time>2026-05-02T08:06:55.9Z</time></trkpt><trkpt lat="42.20257" lon="14.5848717"><ele>12.0</ele><time>2026-05-02T08:06:57.899Z</time></trkpt><trkpt lat="42.2026567" lon="14.5848183"><ele>12.0</ele><time>2026-05-02T08:06:59.9Z</time></trkpt><trkpt lat="42.2027383" lon="14.5847683"><ele>12.0</ele><time>2026-05-02T08:07:01.899Z</time></trkpt><trkpt lat="42.2028133" lon="14.5847283"><ele>12.0</ele><time>2026-05-02T08:07:03.899Z</time></trkpt><trkpt lat="42.2028917" lon="14.5846933"><ele>12.0</ele><time>2026-05-02T08:07:05.899Z</time></trkpt><trkpt lat="42.2029567" lon="14.5846233"><ele>12.0</ele><time>2026-05-02T08:07:07.899Z</time></trkpt><trkpt lat="42.2030117" lon="14.5845333"><ele>12.0</ele><time>2026-05-02T08:07:09.9Z</time></trkpt><trkpt lat="42.2030617" lon="14.5844383"><ele>12.0</ele><time>2026-05-02T08:07:11.9Z</time></trkpt><trkpt lat="42.2030967" lon="14.584355"><ele>12.0</ele><time>2026-05-02T08:07:13.899Z</time></trkpt><trkpt lat="42.2030733" lon="14.58426"><ele>12.0</ele><time>2026-05-02T08:07:19.9Z</time></trkpt><trkpt lat="42.2030033" lon="14.5842433"><ele>12.0</ele><time>2026-05-02T08:07:21.9Z</time></trkpt><trkpt lat="42.2029133" lon="14.58424"><ele>12.0</ele><time>2026-05-02T08:07:23.9Z</time></trkpt><trkpt lat="42.20281" lon="14.58423"><ele>12.0</ele><time>2026-05-02T08:07:25.9Z</time></trkpt><trkpt lat="42.2026967" lon="14.5842183"><ele>12.0</ele><time>2026-05-02T08:07:27.899Z</time></trkpt><trkpt lat="42.2026" lon="14.5842033"><ele>12.0</ele><time>2026-05-02T08:07:29.899Z</time></trkpt><trkpt lat="42.2024933" lon="14.5841817"><ele>12.0</ele><time>2026-05-02T08:07:31.9Z</time></trkpt><trkpt lat="42.2023883" lon="14.5841617"><ele>12.0</ele><time>2026-05-02T08:07:33.9Z</time></trkpt><trkpt lat="42.2023017" lon="14.5841483"><ele>12.0</ele><time>2026-05-02T08:07:35.899Z</time></trkpt><trkpt lat="42.2022167" lon="14.5841333"><ele>12.2</ele><time>2026-05-02T08:07:37.899Z</time></trkpt><trkpt lat="42.202125" lon="14.584115"><ele>12.399999999999999</ele><time>2026-05-02T08:07:39.9Z</time></trkpt><trkpt lat="42.20204" lon="14.5840983"><ele>12.600000000000001</ele><time>2026-05-02T08:07:41.899Z</time></trkpt><trkpt lat="42.2019533" lon="14.58407"><ele>12.8</ele><time>2026-05-02T08:07:43.9Z</time></trkpt><trkpt lat="42.2018533" lon="14.5840417"><ele>13.0</ele><time>2026-05-02T08:07:45.9Z</time></trkpt><trkpt lat="42.2017517" lon="14.58403"><ele>12.999999999999998</ele><time>2026-05-02T08:07:47.9Z</time></trkpt><trkpt lat="42.2016667" lon="14.58399"><ele>13.0</ele><time>2026-05-02T08:07:49.899Z</time></trkpt><trkpt lat="42.201605" lon="14.5839217"><ele>13.0</ele><time>2026-05-02T08:07:51.9Z</time></trkpt><trkpt lat="42.2015933" lon="14.58381"><ele>13.0</ele><time>2026-05-02T08:07:53.899Z</time></trkpt><trkpt lat="42.201605" lon="14.5836833"><ele>12.999999999999998</ele><time>2026-05-02T08:07:55.9Z</time></trkpt><trkpt lat="42.201625" lon="14.5835567"><ele>13.0</ele><time>2026-05-02T08:07:57.9Z</time></trkpt><trkpt lat="42.2016417" lon="14.5834267"><ele>12.999999999999998</ele><time>2026-05-02T08:07:59.9Z</time></trkpt><trkpt lat="42.2016483" lon="14.5833233"><ele>13.0</ele><time>2026-05-02T08:08:01.9Z</time></trkpt><trkpt lat="42.201645" lon="14.5832367"><ele>13.0</ele><time>2026-05-02T08:08:04.9Z</time></trkpt><trkpt lat="42.201665" lon="14.583135"><ele>13.0</ele><time>2026-05-02T08:08:08.9Z</time></trkpt><trkpt lat="42.2016633" lon="14.5830233"><ele>12.999999999999998</ele><time>2026-05-02T08:08:12.9Z</time></trkpt><trkpt lat="42.2016783" lon="14.5829167"><ele>13.0</ele><time>2026-05-02T08:08:16.9Z</time></trkpt><trkpt lat="42.2016917" lon="14.582815"><ele>13.0</ele><time>2026-05-02T08:08:20.9Z</time></trkpt><trkpt lat="42.2017" lon="14.5826967"><ele>13.0</ele><time>2026-05-02T08:08:24.9Z</time></trkpt><trkpt lat="42.2017033" lon="14.582585"><ele>13.0</ele><time>2026-05-02T08:08:27.899Z</time></trkpt><trkpt lat="42.2017083" lon="14.5825"><ele>13.0</ele><time>2026-05-02T08:08:30.9Z</time></trkpt><trkpt lat="42.2017233" lon="14.5824067"><ele>13.0</ele><time>2026-05-02T08:08:48.9Z</time></trkpt><trkpt lat="42.2017333" lon="14.582315"><ele>13.0</ele><time>2026-05-02T08:08:53.899Z</time></trkpt><trkpt lat="42.201725" lon="14.5822283"><ele>13.0</ele><time>2026-05-02T08:08:56.9Z</time></trkpt><trkpt lat="42.2016967" lon="14.5821233"><ele>12.999999999999998</ele><time>2026-05-02T08:08:59.9Z</time></trkpt><trkpt lat="42.20164" lon="14.5820633"><ele>13.0</ele><time>2026-05-02T08:09:01.899Z</time></trkpt><trkpt lat="42.201565" lon="14.5820317"><ele>13.0</ele><time>2026-05-02T08:09:03.899Z</time></trkpt><trkpt lat="42.201485" lon="14.58202"><ele>13.0</ele><time>2026-05-02T08:09:05.9Z</time></trkpt><trkpt lat="42.201405" lon="14.58201"><ele>12.999999999999998</ele><time>2026-05-02T08:09:07.9Z</time></trkpt><trkpt lat="42.2013217" lon="14.58201"><ele>13.0</ele><time>2026-05-02T08:09:09.9Z</time></trkpt><trkpt lat="42.20123" lon="14.581995"><ele>13.333333333333332</ele><time>2026-05-02T08:09:11.899Z</time></trkpt><trkpt lat="42.2011333" lon="14.5819733"><ele>13.666666666666666</ele><time>2026-05-02T08:09:13.9Z</time></trkpt><trkpt lat="42.20104" lon="14.58195"><ele>14.0</ele><time>2026-05-02T08:09:15.9Z</time></trkpt><trkpt lat="42.2009517" lon="14.58192"><ele>14.333333333333332</ele><time>2026-05-02T08:09:17.9Z</time></trkpt><trkpt lat="42.2008867" lon="14.58189"><ele>14.666666666666666</ele><time>2026-05-02T08:09:19.899Z</time></trkpt><trkpt lat="42.2008933" lon="14.5817683"><ele>15.0</ele><time>2026-05-02T08:09:22.9Z</time></trkpt><trkpt lat="42.20089" lon="14.5816617"><ele>15.0</ele><time>2026-05-02T08:09:24.899Z</time></trkpt><trkpt lat="42.200885" lon="14.5815467"><ele>15.0</ele><time>2026-05-02T08:09:26.9Z</time></trkpt><trkpt lat="42.2008817" lon="14.5814233"><ele>15.0</ele><time>2026-05-02T08:09:28.9Z</time></trkpt><trkpt lat="42.2008683" lon="14.5813017"><ele>15.0</ele><time>2026-05-02T08:09:30.9Z</time></trkpt><trkpt lat="42.2008617" lon="14.5811767"><ele>15.0</ele><time>2026-05-02T08:09:32.9Z</time></trkpt><trkpt lat="42.2008733" lon="14.58106"><ele>15.0</ele><time>2026-05-02T08:09:34.899Z</time></trkpt><trkpt lat="42.200895" lon="14.580955"><ele>15.0</ele><time>2026-05-02T08:09:36.9Z</time></trkpt><trkpt lat="42.200915" lon="14.5808483"><ele>15.0</ele><time>2026-05-02T08:09:38.9Z</time></trkpt><trkpt lat="42.2009283" lon="14.5807383"><ele>15.0</ele><time>2026-05-02T08:09:40.9Z</time></trkpt><trkpt lat="42.2009417" lon="14.5806217"><ele>15.0</ele><time>2026-05-02T08:09:42.9Z</time></trkpt><trkpt lat="42.2009517" lon="14.5805183"><ele>15.0</ele><time>2026-05-02T08:09:44.899Z</time></trkpt><trkpt lat="42.2009417" lon="14.5804183"><ele>15.0</ele><time>2026-05-02T08:09:46.9Z</time></trkpt><trkpt lat="42.20095" lon="14.5803"><ele>15.2</ele><time>2026-05-02T08:09:48.899Z</time></trkpt><trkpt lat="42.2009617" lon="14.5801717"><ele>15.4</ele><time>2026-05-02T08:09:50.899Z</time></trkpt><trkpt lat="42.2009667" lon="14.5800517"><ele>15.600000000000001</ele><time>2026-05-02T08:09:52.9Z</time></trkpt><trkpt lat="42.2009783" lon="14.57992"><ele>15.8</ele><time>2026-05-02T08:09:54.9Z</time></trkpt><trkpt lat="42.200985" lon="14.5797983"><ele>16.0</ele><time>2026-05-02T08:09:56.899Z</time></trkpt><trkpt lat="42.20099" lon="14.5796683"><ele>15.999999999999998</ele><time>2026-05-02T08:09:58.9Z</time></trkpt><trkpt lat="42.2010033" lon="14.5795467"><ele>16.0</ele><time>2026-05-02T08:10:00.9Z</time></trkpt><trkpt lat="42.2010183" lon="14.5794283"><ele>16.0</ele><time>2026-05-02T08:10:02.899Z</time></trkpt><trkpt lat="42.2010317" lon="14.5793133"><ele>16.0</ele><time>2026-05-02T08:10:04.899Z</time></trkpt><trkpt lat="42.2010417" lon="14.5791967"><ele>15.999999999999998</ele><time>2026-05-02T08:10:06.899Z</time></trkpt><trkpt lat="42.2010517" lon="14.5790733"><ele>16.0</ele><time>2026-05-02T08:10:08.899Z</time></trkpt><trkpt lat="42.2010567" lon="14.5789483"><ele>15.999999999999998</ele><time>2026-05-02T08:10:10.9Z</time></trkpt><trkpt lat="42.201065" lon="14.5788267"><ele>16.0</ele><time>2026-05-02T08:10:12.899Z</time></trkpt><trkpt lat="42.201075" lon="14.5787083"><ele>16.0</ele><time>2026-05-02T08:10:14.899Z</time></trkpt><trkpt lat="42.20109" lon="14.5785917"><ele>16.0</ele><time>2026-05-02T08:10:16.9Z</time></trkpt><trkpt lat="42.20111" lon="14.5784767"><ele>15.999999999999998</ele><time>2026-05-02T08:10:18.9Z</time></trkpt><trkpt lat="42.2011267" lon="14.57837"><ele>16.0</ele><time>2026-05-02T08:10:20.9Z</time></trkpt><trkpt lat="42.2011217" lon="14.57827"><ele>16.166666666666664</ele><time>2026-05-02T08:10:22.899Z</time></trkpt><trkpt lat="42.2011317" lon="14.578165"><ele>16.333333333333332</ele><time>2026-05-02T08:10:24.899Z</time></trkpt><trkpt lat="42.20114" lon="14.5780583"><ele>16.5</ele><time>2026-05-02T08:10:26.899Z</time></trkpt><trkpt lat="42.201145" lon="14.5779483"><ele>16.666666666666668</ele><time>2026-05-02T08:10:28.899Z</time></trkpt><trkpt lat="42.2011533" lon="14.5778333"><ele>16.833333333333336</ele><time>2026-05-02T08:10:30.899Z</time></trkpt><trkpt lat="42.2011517" lon="14.577725"><ele>17.0</ele><time>2026-05-02T08:10:32.9Z</time></trkpt><trkpt lat="42.2011567" lon="14.5776183"><ele>17.0</ele><time>2026-05-02T08:10:34.9Z</time></trkpt><trkpt lat="42.2011717" lon="14.5775067"><ele>17.0</ele><time>2026-05-02T08:10:36.9Z</time></trkpt><trkpt lat="42.2011833" lon="14.5773983"><ele>17.0</ele><time>2026-05-02T08:10:38.899Z</time></trkpt><trkpt lat="42.20119" lon="14.5772883"><ele>17.0</ele><time>2026-05-02T08:10:40.899Z</time></trkpt><trkpt lat="42.2012017" lon="14.577175"><ele>17.0</ele><time>2026-05-02T08:10:42.9Z</time></trkpt><trkpt lat="42.2012183" lon="14.5770567"><ele>17.0</ele><time>2026-05-02T08:10:44.899Z</time></trkpt><trkpt lat="42.201235" lon="14.5769417"><ele>17.0</ele><time>2026-05-02T08:10:46.9Z</time></trkpt><trkpt lat="42.20125" lon="14.5768283"><ele>17.0</ele><time>2026-05-02T08:10:48.9Z</time></trkpt><trkpt lat="42.2012633" lon="14.5767167"><ele>17.0</ele><time>2026-05-02T08:10:50.9Z</time></trkpt><trkpt lat="42.2012733" lon="14.57661"><ele>17.0</ele><time>2026-05-02T08:10:52.9Z</time></trkpt><trkpt lat="42.20127" lon="14.5765"><ele>17.0</ele><time>2026-05-02T08:10:54.899Z</time></trkpt><trkpt lat="42.2012367" lon="14.57641"><ele>17.0</ele><time>2026-05-02T08:10:56.899Z</time></trkpt><trkpt lat="42.2011833" lon="14.5763483"><ele>16.999999999999996</ele><time>2026-05-02T08:10:58.9Z</time></trkpt><trkpt lat="42.201135" lon="14.5762733"><ele>17.0</ele><time>2026-05-02T08:11:00.9Z</time></trkpt><trkpt lat="42.2010917" lon="14.5762"><ele>17.0</ele><time>2026-05-02T08:11:02.899Z</time></trkpt><trkpt lat="42.2010583" lon="14.5761183"><ele>17.0</ele><time>2026-05-02T08:11:04.899Z</time></trkpt><trkpt lat="42.201055" lon="14.5760283"><ele>17.0</ele><time>2026-05-02T08:11:06.899Z</time></trkpt><trkpt lat="42.2010617" lon="14.57593"><ele>16.999999999999996</ele><time>2026-05-02T08:11:08.899Z</time></trkpt><trkpt lat="42.20108" lon="14.5758233"><ele>17.0</ele><time>2026-05-02T08:11:10.9Z</time></trkpt><trkpt lat="42.2010933" lon="14.5757083"><ele>17.166666666666668</ele><time>2026-05-02T08:11:12.899Z</time></trkpt><trkpt lat="42.2010983" lon="14.5755933"><ele>17.333333333333336</ele><time>2026-05-02T08:11:14.9Z</time></trkpt><trkpt lat="42.2011183" lon="14.5754817"><ele>17.5</ele><time>2026-05-02T08:11:16.899Z</time></trkpt><trkpt lat="42.20113" lon="14.5753717"><ele>17.666666666666668</ele><time>2026-05-02T08:11:18.9Z</time></trkpt><trkpt lat="42.201145" lon="14.575255"><ele>17.833333333333332</ele><time>2026-05-02T08:11:20.9Z</time></trkpt><trkpt lat="42.2011533" lon="14.5751383"><ele>18.0</ele><time>2026-05-02T08:11:22.9Z</time></trkpt><trkpt lat="42.2011617" lon="14.5750283"><ele>18.0</ele><time>2026-05-02T08:11:24.9Z</time></trkpt><trkpt lat="42.2011583" lon="14.5749133"><ele>18.0</ele><time>2026-05-02T08:11:26.899Z</time></trkpt><trkpt lat="42.2011617" lon="14.5748117"><ele>18.0</ele><time>2026-05-02T08:11:28.9Z</time></trkpt><trkpt lat="42.2011717" lon="14.5746983"><ele>18.0</ele><time>2026-05-02T08:11:30.899Z</time></trkpt><trkpt lat="42.2011867" lon="14.5745783"><ele>18.0</ele><time>2026-05-02T08:11:32.899Z</time></trkpt><trkpt lat="42.2012017" lon="14.57446"><ele>18.0</ele><time>2026-05-02T08:11:34.899Z</time></trkpt><trkpt lat="42.2012133" lon="14.5743333"><ele>18.0</ele><time>2026-05-02T08:11:36.899Z</time></trkpt><trkpt lat="42.20122" lon="14.5742167"><ele>18.0</ele><time>2026-05-02T08:11:38.9Z</time></trkpt><trkpt lat="42.201225" lon="14.57409"><ele>18.0</ele><time>2026-05-02T08:11:40.9Z</time></trkpt><trkpt lat="42.20123" lon="14.57397"><ele>18.0</ele><time>2026-05-02T08:11:42.899Z</time></trkpt><trkpt lat="42.2012333" lon="14.5738583"><ele>18.0</ele><time>2026-05-02T08:11:44.899Z</time></trkpt><trkpt lat="42.2012383" lon="14.5737467"><ele>18.0</ele><time>2026-05-02T08:11:46.899Z</time></trkpt><trkpt lat="42.2012517" lon="14.5736383"><ele>18.333333333333332</ele><time>2026-05-02T08:11:48.9Z</time></trkpt><trkpt lat="42.201265" lon="14.573525"><ele>18.666666666666668</ele><time>2026-05-02T08:11:50.9Z</time></trkpt><trkpt lat="42.201275" lon="14.573415"><ele>19.0</ele><time>2026-05-02T08:11:52.9Z</time></trkpt><trkpt lat="42.201295" lon="14.57331"><ele>19.333333333333336</ele><time>2026-05-02T08:11:54.9Z</time></trkpt><trkpt lat="42.2013083" lon="14.5731983"><ele>19.666666666666668</ele><time>2026-05-02T08:11:56.9Z</time></trkpt><trkpt lat="42.2013233" lon="14.5730983"><ele>20.0</ele><time>2026-05-02T08:11:58.9Z</time></trkpt><trkpt lat="42.2013367" lon="14.5729933"><ele>20.0</ele><time>2026-05-02T08:12:00.9Z</time></trkpt><trkpt lat="42.2013483" lon="14.572885"><ele>20.0</ele><time>2026-05-02T08:12:02.9Z</time></trkpt><trkpt lat="42.20135" lon="14.5727617"><ele>20.0</ele><time>2026-05-02T08:12:04.9Z</time></trkpt><trkpt lat="42.2013567" lon="14.5726483"><ele>20.0</ele><time>2026-05-02T08:12:06.9Z</time></trkpt><trkpt lat="42.2013617" lon="14.5725533"><ele>20.0</ele><time>2026-05-02T08:12:08.9Z</time></trkpt><trkpt lat="42.2014083" lon="14.572485"><ele>20.0</ele><time>2026-05-02T08:12:11.9Z</time></trkpt><trkpt lat="42.20148" lon="14.5725283"><ele>20.0</ele><time>2026-05-02T08:12:13.9Z</time></trkpt><trkpt lat="42.2015633" lon="14.5725733"><ele>20.0</ele><time>2026-05-02T08:12:15.9Z</time></trkpt><trkpt lat="42.2016517" lon="14.5726167"><ele>20.0</ele><time>2026-05-02T08:12:17.899Z</time></trkpt><trkpt lat="42.201735" lon="14.5726483"><ele>20.0</ele><time>2026-05-02T08:12:19.899Z</time></trkpt><trkpt lat="42.2018167" lon="14.5726833"><ele>20.0</ele><time>2026-05-02T08:12:21.899Z</time></trkpt><trkpt lat="42.2018967" lon="14.5727083"><ele>20.0</ele><time>2026-05-02T08:12:23.899Z</time></trkpt><trkpt lat="42.2019767" lon="14.5726983"><ele>20.0</ele><time>2026-05-02T08:12:25.899Z</time></trkpt><trkpt lat="42.2020533" lon="14.5726733"><ele>20.0</ele><time>2026-05-02T08:12:27.9Z</time></trkpt><trkpt lat="42.20211" lon="14.5726133"><ele>20.0</ele><time>2026-05-02T08:12:29.9Z</time></trkpt><trkpt lat="42.20212" lon="14.5724917"><ele>20.0</ele><time>2026-05-02T08:12:32.899Z</time></trkpt><trkpt lat="42.202125" lon="14.5723867"><ele>20.0</ele><time>2026-05-02T08:12:35.9Z</time></trkpt><trkpt lat="42.2021233" lon="14.5722967"><ele>20.0</ele><time>2026-05-02T08:12:37.899Z</time></trkpt><trkpt lat="42.2021267" lon="14.5721683"><ele>20.0</ele><time>2026-05-02T08:12:40.9Z</time></trkpt><trkpt lat="42.2021333" lon="14.57208"><ele>20.0</ele><time>2026-05-02T08:12:42.9Z</time></trkpt><trkpt lat="42.2021533" lon="14.5719833"><ele>20.0</ele><time>2026-05-02T08:12:44.899Z</time></trkpt><trkpt lat="42.2021767" lon="14.571855"><ele>20.0</ele><time>2026-05-02T08:12:46.9Z</time></trkpt><trkpt lat="42.202195" lon="14.5717133"><ele>20.0</ele><time>2026-05-02T08:12:48.9Z</time></trkpt><trkpt lat="42.2022067" lon="14.57159"><ele>20.0</ele><time>2026-05-02T08:12:50.9Z</time></trkpt><trkpt lat="42.202215" lon="14.5714817"><ele>20.0</ele><time>2026-05-02T08:12:52.9Z</time></trkpt><trkpt lat="42.202225" lon="14.571375"><ele>20.0</ele><time>2026-05-02T08:12:54.899Z</time></trkpt><trkpt lat="42.2022333" lon="14.57128"><ele>20.0</ele><time>2026-05-02T08:12:56.899Z</time></trkpt><trkpt lat="42.20225" lon="14.5711817"><ele>20.0</ele><time>2026-05-02T08:12:58.899Z</time></trkpt><trkpt lat="42.2022667" lon="14.5710717"><ele>20.0</ele><time>2026-05-02T08:13:00.899Z</time></trkpt><trkpt lat="42.2022783" lon="14.5709517"><ele>20.0</ele><time>2026-05-02T08:13:02.9Z</time></trkpt><trkpt lat="42.20229" lon="14.57083"><ele>20.0</ele><time>2026-05-02T08:13:04.9Z</time></trkpt><trkpt lat="42.2022967" lon="14.5707167"><ele>20.0</ele><time>2026-05-02T08:13:06.899Z</time></trkpt><trkpt lat="42.2023017" lon="14.570605"><ele>20.0</ele><time>2026-05-02T08:13:08.9Z</time></trkpt><trkpt lat="42.2023083" lon="14.5704933"><ele>20.0</ele><time>2026-05-02T08:13:10.9Z</time></trkpt><trkpt lat="42.2023183" lon="14.5703867"><ele>20.0</ele><time>2026-05-02T08:13:12.9Z</time></trkpt><trkpt lat="42.2023267" lon="14.5702783"><ele>20.0</ele><time>2026-05-02T08:13:14.9Z</time></trkpt><trkpt lat="42.20234" lon="14.57017"><ele>20.166666666666668</ele><time>2026-05-02T08:13:16.9Z</time></trkpt><trkpt lat="42.2023533" lon="14.5700533"><ele>20.333333333333336</ele><time>2026-05-02T08:13:18.9Z</time></trkpt><trkpt lat="42.2023667" lon="14.569935"><ele>20.5</ele><time>2026-05-02T08:13:20.9Z</time></trkpt><trkpt lat="42.20238" lon="14.5698217"><ele>20.666666666666668</ele><time>2026-05-02T08:13:22.9Z</time></trkpt><trkpt lat="42.202395" lon="14.5697083"><ele>20.833333333333332</ele><time>2026-05-02T08:13:24.9Z</time></trkpt><trkpt lat="42.2024083" lon="14.5695933"><ele>21.0</ele><time>2026-05-02T08:13:26.9Z</time></trkpt><trkpt lat="42.2024183" lon="14.5694767"><ele>21.166666666666668</ele><time>2026-05-02T08:13:28.9Z</time></trkpt><trkpt lat="42.20243" lon="14.5693583"><ele>21.333333333333332</ele><time>2026-05-02T08:13:30.9Z</time></trkpt><trkpt lat="42.2024417" lon="14.5692417"><ele>21.5</ele><time>2026-05-02T08:13:32.9Z</time></trkpt><trkpt lat="42.202455" lon="14.56912"><ele>21.666666666666664</ele><time>2026-05-02T08:13:34.9Z</time></trkpt><trkpt lat="42.2024717" lon="14.5690067"><ele>21.833333333333332</ele><time>2026-05-02T08:13:36.899Z</time></trkpt><trkpt lat="42.2024767" lon="14.5689017"><ele>22.0</ele><time>2026-05-02T08:13:38.9Z</time></trkpt><trkpt lat="42.202495" lon="14.56882"><ele>22.0</ele><time>2026-05-02T08:13:40.899Z</time></trkpt><trkpt lat="42.2025633" lon="14.5687917"><ele>22.0</ele><time>2026-05-02T08:13:42.9Z</time></trkpt><trkpt lat="42.202655" lon="14.56881"><ele>22.0</ele><time>2026-05-02T08:13:44.9Z</time></trkpt><trkpt lat="42.2027433" lon="14.5688317"><ele>22.0</ele><time>2026-05-02T08:13:46.9Z</time></trkpt><trkpt lat="42.2028267" lon="14.5688583"><ele>22.0</ele><time>2026-05-02T08:13:48.9Z</time></trkpt><trkpt lat="42.2029233" lon="14.5688817"><ele>22.0</ele><time>2026-05-02T08:13:50.9Z</time></trkpt><trkpt lat="42.2030083" lon="14.5689083"><ele>22.0</ele><time>2026-05-02T08:13:52.9Z</time></trkpt><trkpt lat="42.2030917" lon="14.5689217"><ele>22.0</ele><time>2026-05-02T08:13:54.9Z</time></trkpt><trkpt lat="42.2031817" lon="14.568915"><ele>22.0</ele><time>2026-05-02T08:13:56.9Z</time></trkpt><trkpt lat="42.203275" lon="14.5688767"><ele>22.0</ele><time>2026-05-02T08:13:58.9Z</time></trkpt><trkpt lat="42.2033517" lon="14.5688133"><ele>22.0</ele><time>2026-05-02T08:14:00.9Z</time></trkpt><trkpt lat="42.20343" lon="14.5687583"><ele>21.833333333333332</ele><time>2026-05-02T08:14:02.9Z</time></trkpt><trkpt lat="42.2034883" lon="14.5686917"><ele>21.666666666666664</ele><time>2026-05-02T08:14:04.899Z</time></trkpt><trkpt lat="42.2035217" lon="14.5686067"><ele>21.5</ele><time>2026-05-02T08:14:06.9Z</time></trkpt><trkpt lat="42.2035517" lon="14.56851"><ele>21.333333333333332</ele><time>2026-05-02T08:14:08.9Z</time></trkpt><trkpt lat="42.2035767" lon="14.5683967"><ele>21.166666666666668</ele><time>2026-05-02T08:14:10.899Z</time></trkpt><trkpt lat="42.2036133" lon="14.5682933"><ele>21.0</ele><time>2026-05-02T08:14:12.9Z</time></trkpt><trkpt lat="42.2036667" lon="14.5682"><ele>21.0</ele><time>2026-05-02T08:14:14.899Z</time></trkpt><trkpt lat="42.20374" lon="14.56813"><ele>21.0</ele><time>2026-05-02T08:14:16.899Z</time></trkpt><trkpt lat="42.2037983" lon="14.5680633"><ele>21.0</ele><time>2026-05-02T08:14:18.9Z</time></trkpt><trkpt lat="42.2038133" lon="14.5679617"><ele>21.0</ele><time>2026-05-02T08:14:20.899Z</time></trkpt><trkpt lat="42.2037967" lon="14.5678367"><ele>21.0</ele><time>2026-05-02T08:14:22.9Z</time></trkpt><trkpt lat="42.20379" lon="14.5677183"><ele>21.0</ele><time>2026-05-02T08:14:24.9Z</time></trkpt><trkpt lat="42.203795" lon="14.567595"><ele>21.166666666666668</ele><time>2026-05-02T08:14:26.899Z</time></trkpt><trkpt lat="42.203815" lon="14.567475"><ele>21.333333333333332</ele><time>2026-05-02T08:14:28.9Z</time></trkpt><trkpt lat="42.2038433" lon="14.5673683"><ele>21.5</ele><time>2026-05-02T08:14:30.9Z</time></trkpt><trkpt lat="42.2038717" lon="14.567285"><ele>21.666666666666664</ele><time>2026-05-02T08:14:32.9Z</time></trkpt><trkpt lat="42.2039033" lon="14.5672033"><ele>21.833333333333332</ele><time>2026-05-02T08:14:34.899Z</time></trkpt><trkpt lat="42.2039217" lon="14.5671183"><ele>22.0</ele><time>2026-05-02T08:14:36.9Z</time></trkpt><trkpt lat="42.20388" lon="14.5670117"><ele>22.200000000000003</ele><time>2026-05-02T08:14:39.9Z</time></trkpt><trkpt lat="42.2038233" lon="14.5669533"><ele>22.4</ele><time>2026-05-02T08:14:41.9Z</time></trkpt><trkpt lat="42.2037583" lon="14.566875"><ele>22.6</ele><time>2026-05-02T08:14:43.9Z</time></trkpt><trkpt lat="42.20368" lon="14.5667833"><ele>22.799999999999997</ele><time>2026-05-02T08:14:45.9Z</time></trkpt><trkpt lat="42.203575" lon="14.56669"><ele>23.0</ele><time>2026-05-02T08:14:47.9Z</time></trkpt><trkpt lat="42.2035217" lon="14.5666417"><ele>23.0</ele><time>2026-05-02T08:14:48.899Z</time></trkpt><trkpt lat="42.203445" lon="14.5665517"><ele>23.0</ele><time>2026-05-02T08:14:50.9Z</time></trkpt><trkpt lat="42.20336" lon="14.5664583"><ele>23.0</ele><time>2026-05-02T08:14:52.9Z</time></trkpt><trkpt lat="42.203275" lon="14.5663633"><ele>23.0</ele><time>2026-05-02T08:14:54.9Z</time></trkpt><trkpt lat="42.2031983" lon="14.56627"><ele>23.0</ele><time>2026-05-02T08:14:56.9Z</time></trkpt><trkpt lat="42.2031417" lon="14.56617"><ele>23.2</ele><time>2026-05-02T08:14:58.9Z</time></trkpt><trkpt lat="42.2031233" lon="14.5660483"><ele>23.4</ele><time>2026-05-02T08:15:00.899Z</time></trkpt><trkpt lat="42.20314" lon="14.565925"><ele>23.599999999999998</ele><time>2026-05-02T08:15:02.9Z</time></trkpt><trkpt lat="42.20316" lon="14.5658133"><ele>23.799999999999997</ele><time>2026-05-02T08:15:04.899Z</time></trkpt><trkpt lat="42.203165" lon="14.5656817"><ele>24.0</ele><time>2026-05-02T08:15:06.899Z</time></trkpt><trkpt lat="42.203175" lon="14.565535"><ele>24.0</ele><time>2026-05-02T08:15:08.9Z</time></trkpt><trkpt lat="42.203185" lon="14.5653783"><ele>24.0</ele><time>2026-05-02T08:15:10.9Z</time></trkpt><trkpt lat="42.2031933" lon="14.5652317"><ele>24.0</ele><time>2026-05-02T08:15:12.9Z</time></trkpt><trkpt lat="42.2032" lon="14.5650917"><ele>24.0</ele><time>2026-05-02T08:15:14.899Z</time></trkpt><trkpt lat="42.2032033" lon="14.5649433"><ele>24.0</ele><time>2026-05-02T08:15:16.9Z</time></trkpt><trkpt lat="42.2032067" lon="14.5648"><ele>24.0</ele><time>2026-05-02T08:15:18.899Z</time></trkpt><trkpt lat="42.2032117" lon="14.5646667"><ele>24.0</ele><time>2026-05-02T08:15:20.899Z</time></trkpt><trkpt lat="42.2032083" lon="14.5645317"><ele>24.0</ele><time>2026-05-02T08:15:22.9Z</time></trkpt><trkpt lat="42.2031983" lon="14.5643883"><ele>24.0</ele><time>2026-05-02T08:15:24.9Z</time></trkpt><trkpt lat="42.203175" lon="14.5642583"><ele>24.0</ele><time>2026-05-02T08:15:26.9Z</time></trkpt><trkpt lat="42.20314" lon="14.5641283"><ele>24.0</ele><time>2026-05-02T08:15:28.9Z</time></trkpt><trkpt lat="42.2030983" lon="14.564"><ele>24.0</ele><time>2026-05-02T08:15:30.9Z</time></trkpt><trkpt lat="42.20303" lon="14.5638933"><ele>24.0</ele><time>2026-05-02T08:15:32.899Z</time></trkpt><trkpt lat="42.202955" lon="14.563785"><ele>24.0</ele><time>2026-05-02T08:15:34.9Z</time></trkpt><trkpt lat="42.20287" lon="14.5636783"><ele>24.0</ele><time>2026-05-02T08:15:36.899Z</time></trkpt><trkpt lat="42.2028267" lon="14.56356"><ele>24.0</ele><time>2026-05-02T08:15:38.9Z</time></trkpt><trkpt lat="42.20285" lon="14.5634533"><ele>24.0</ele><time>2026-05-02T08:15:40.9Z</time></trkpt><trkpt lat="42.2028983" lon="14.5633483"><ele>24.0</ele><time>2026-05-02T08:15:42.9Z</time></trkpt><trkpt lat="42.202955" lon="14.5632367"><ele>24.0</ele><time>2026-05-02T08:15:44.9Z</time></trkpt><trkpt lat="42.2030133" lon="14.5631133"><ele>24.0</ele><time>2026-05-02T08:15:46.9Z</time></trkpt><trkpt lat="42.2030783" lon="14.56299"><ele>24.0</ele><time>2026-05-02T08:15:48.9Z</time></trkpt><trkpt lat="42.2031383" lon="14.5628683"><ele>24.0</ele><time>2026-05-02T08:15:50.9Z</time></trkpt><trkpt lat="42.20319" lon="14.5627583"><ele>24.0</ele><time>2026-05-02T08:15:52.899Z</time></trkpt><trkpt lat="42.203245" lon="14.5626533"><ele>24.0</ele><time>2026-05-02T08:15:54.9Z</time></trkpt><trkpt lat="42.2032833" lon="14.5625533"><ele>24.0</ele><time>2026-05-02T08:15:56.899Z</time></trkpt><trkpt lat="42.2032683" lon="14.56245"><ele>24.0</ele><time>2026-05-02T08:15:58.899Z</time></trkpt><trkpt lat="42.2032317" lon="14.5623367"><ele>24.0</ele><time>2026-05-02T08:16:00.899Z</time></trkpt><trkpt lat="42.203185" lon="14.562235"><ele>24.0</ele><time>2026-05-02T08:16:02.9Z</time></trkpt><trkpt lat="42.2031483" lon="14.562125"><ele>24.0</ele><time>2026-05-02T08:16:04.9Z</time></trkpt><trkpt lat="42.2031617" lon="14.5620383"><ele>24.0</ele><time>2026-05-02T08:16:08.9Z</time></trkpt><trkpt lat="42.2032117" lon="14.562125"><ele>24.0</ele><time>2026-05-02T08:16:11.899Z</time></trkpt><trkpt lat="42.2032567" lon="14.5622317"><ele>24.0</ele><time>2026-05-02T08:16:13.9Z</time></trkpt><trkpt lat="42.20331" lon="14.56235"><ele>24.0</ele><time>2026-05-02T08:16:15.899Z</time></trkpt><trkpt lat="42.2033633" lon="14.5624483"><ele>24.0</ele><time>2026-05-02T08:16:17.9Z</time></trkpt><trkpt lat="42.2034083" lon="14.5625367"><ele>24.0</ele><time>2026-05-02T08:16:19.9Z</time></trkpt><trkpt lat="42.2034683" lon="14.5625833"><ele>24.0</ele><time>2026-05-02T08:16:21.899Z</time></trkpt><trkpt lat="42.203535" lon="14.562545"><ele>24.0</ele><time>2026-05-02T08:16:23.899Z</time></trkpt><trkpt lat="42.2036183" lon="14.5624733"><ele>23.999999999999996</ele><time>2026-05-02T08:16:25.9Z</time></trkpt><trkpt lat="42.2037033" lon="14.562465"><ele>24.0</ele><time>2026-05-02T08:16:27.9Z</time></trkpt><trkpt lat="42.203765" lon="14.5624967"><ele>24.0</ele><time>2026-05-02T08:16:29.9Z</time></trkpt><trkpt lat="42.2038117" lon="14.562555"><ele>24.0</ele><time>2026-05-02T08:16:31.9Z</time></trkpt><trkpt lat="42.2038733" lon="14.5626283"><ele>24.0</ele><time>2026-05-02T08:16:33.899Z</time></trkpt><trkpt lat="42.20392" lon="14.5626967"><ele>23.999999999999996</ele><time>2026-05-02T08:16:35.9Z</time></trkpt><trkpt lat="42.2039967" lon="14.562705"><ele>24.0</ele><time>2026-05-02T08:16:38.899Z</time></trkpt><trkpt lat="42.2040667" lon="14.56274"><ele>23.666666666666668</ele><time>2026-05-02T08:16:41.899Z</time></trkpt><trkpt lat="42.2041217" lon="14.562835"><ele>23.333333333333332</ele><time>2026-05-02T08:16:44.9Z</time></trkpt><trkpt lat="42.20418" lon="14.5629033"><ele>23.0</ele><time>2026-05-02T08:16:46.899Z</time></trkpt><trkpt lat="42.2042383" lon="14.5629783"><ele>22.666666666666664</ele><time>2026-05-02T08:16:48.9Z</time></trkpt><trkpt lat="42.2043" lon="14.5630517"><ele>22.333333333333332</ele><time>2026-05-02T08:16:50.899Z</time></trkpt><trkpt lat="42.2043717" lon="14.5631233"><ele>22.0</ele><time>2026-05-02T08:16:52.899Z</time></trkpt><trkpt lat="42.2044467" lon="14.563195"><ele>22.0</ele><time>2026-05-02T08:16:54.9Z</time></trkpt><trkpt lat="42.2045267" lon="14.563255"><ele>22.0</ele><time>2026-05-02T08:16:56.9Z</time></trkpt><trkpt lat="42.2046217" lon="14.563315"><ele>22.0</ele><time>2026-05-02T08:16:58.9Z</time></trkpt><trkpt lat="42.20472" lon="14.5633483"><ele>22.0</ele><time>2026-05-02T08:17:00.9Z</time></trkpt><trkpt lat="42.2048133" lon="14.5633917"><ele>22.0</ele><time>2026-05-02T08:17:02.9Z</time></trkpt><trkpt lat="42.204905" lon="14.5634283"><ele>22.0</ele><time>2026-05-02T08:17:04.9Z</time></trkpt><trkpt lat="42.2049817" lon="14.5634767"><ele>22.0</ele><time>2026-05-02T08:17:06.899Z</time></trkpt><trkpt lat="42.2050533" lon="14.5635367"><ele>22.0</ele><time>2026-05-02T08:17:08.9Z</time></trkpt><trkpt lat="42.2051133" lon="14.56359"><ele>22.0</ele><time>2026-05-02T08:17:10.9Z</time></trkpt><trkpt lat="42.2051767" lon="14.5636583"><ele>22.0</ele><time>2026-05-02T08:17:12.9Z</time></trkpt><trkpt lat="42.20524" lon="14.5637167"><ele>22.0</ele><time>2026-05-02T08:17:14.9Z</time></trkpt><trkpt lat="42.2052733" lon="14.5638"><ele>22.0</ele><time>2026-05-02T08:17:16.899Z</time></trkpt><trkpt lat="42.20532" lon="14.5638983"><ele>22.0</ele><time>2026-05-02T08:17:18.899Z</time></trkpt><trkpt lat="42.205355" lon="14.5640067"><ele>22.0</ele><time>2026-05-02T08:17:20.899Z</time></trkpt><trkpt lat="42.2053733" lon="14.56412"><ele>22.0</ele><time>2026-05-02T08:17:22.9Z</time></trkpt><trkpt lat="42.2053683" lon="14.5642217"><ele>22.0</ele><time>2026-05-02T08:17:24.899Z</time></trkpt><trkpt lat="42.20534" lon="14.5643217"><ele>22.0</ele><time>2026-05-02T08:17:26.899Z</time></trkpt><trkpt lat="42.205305" lon="14.5644167"><ele>22.0</ele><time>2026-05-02T08:17:28.9Z</time></trkpt><trkpt lat="42.20526" lon="14.564485"><ele>22.0</ele><time>2026-05-02T08:17:30.9Z</time></trkpt><trkpt lat="42.2051967" lon="14.5645733"><ele>22.0</ele><time>2026-05-02T08:17:33.9Z</time></trkpt><trkpt lat="42.205135" lon="14.5646483"><ele>22.0</ele><time>2026-05-02T08:17:36.899Z</time></trkpt><trkpt lat="42.2051183" lon="14.5647517"><ele>22.0</ele><time>2026-05-02T08:17:40.899Z</time></trkpt><trkpt lat="42.2051483" lon="14.5648383"><ele>22.0</ele><time>2026-05-02T08:17:43.9Z</time></trkpt><trkpt lat="42.20519" lon="14.564925"><ele>22.285714285714285</ele><time>2026-05-02T08:17:46.899Z</time></trkpt><trkpt lat="42.2052267" lon="14.56502"><ele>22.57142857142857</ele><time>2026-05-02T08:17:50.9Z</time></trkpt><trkpt lat="42.2052683" lon="14.5650967"><ele>22.857142857142854</ele><time>2026-05-02T08:17:53.9Z</time></trkpt><trkpt lat="42.2053067" lon="14.565175"><ele>23.142857142857142</ele><time>2026-05-02T08:17:56.9Z</time></trkpt><trkpt lat="42.2053533" lon="14.5652583"><ele>23.428571428571427</ele><time>2026-05-02T08:17:59.9Z</time></trkpt><trkpt lat="42.2054183" lon="14.5653117"><ele>23.71428571428571</ele><time>2026-05-02T08:18:02.9Z</time></trkpt><trkpt lat="42.20548" lon="14.565255"><ele>24.0</ele><time>2026-05-02T08:18:06.9Z</time></trkpt><trkpt lat="42.2055267" lon="14.5651383"><ele>24.0</ele><time>2026-05-02T08:18:09.9Z</time></trkpt><trkpt lat="42.2055733" lon="14.5650483"><ele>24.0</ele><time>2026-05-02T08:18:11.9Z</time></trkpt><trkpt lat="42.20564" lon="14.5649817"><ele>24.0</ele><time>2026-05-02T08:18:13.9Z</time></trkpt><trkpt lat="42.2056967" lon="14.564905"><ele>24.0</ele><time>2026-05-02T08:18:16.899Z</time></trkpt><trkpt lat="42.2057167" lon="14.5647917"><ele>24.0</ele><time>2026-05-02T08:18:19.9Z</time></trkpt><trkpt lat="42.205755" lon="14.56465"><ele>24.0</ele><time>2026-05-02T08:18:21.9Z</time></trkpt><trkpt lat="42.20579" lon="14.564515"><ele>24.0</ele><time>2026-05-02T08:18:23.9Z</time></trkpt><trkpt lat="42.20581" lon="14.5643717"><ele>24.0</ele><time>2026-05-02T08:18:25.9Z</time></trkpt><trkpt lat="42.2058117" lon="14.5642833"><ele>24.0</ele><time>2026-05-02T08:18:26.9Z</time></trkpt><trkpt lat="42.2058167" lon="14.5641317"><ele>24.0</ele><time>2026-05-02T08:18:28.9Z</time></trkpt><trkpt lat="42.2058117" lon="14.5639883"><ele>24.0</ele><time>2026-05-02T08:18:30.9Z</time></trkpt><trkpt lat="42.2057967" lon="14.5638483"><ele>24.0</ele><time>2026-05-02T08:18:32.9Z</time></trkpt><trkpt lat="42.2057783" lon="14.563705"><ele>24.0</ele><time>2026-05-02T08:18:34.9Z</time></trkpt><trkpt lat="42.2057517" lon="14.5635867"><ele>24.0</ele><time>2026-05-02T08:18:36.899Z</time></trkpt><trkpt lat="42.2057133" lon="14.5635083"><ele>24.0</ele><time>2026-05-02T08:18:38.9Z</time></trkpt><trkpt lat="42.205675" lon="14.5634383"><ele>24.0</ele><time>2026-05-02T08:18:40.899Z</time></trkpt><trkpt lat="42.205625" lon="14.5633517"><ele>24.0</ele><time>2026-05-02T08:18:42.9Z</time></trkpt><trkpt lat="42.2055783" lon="14.5632583"><ele>23.4</ele><time>2026-05-02T08:18:44.899Z</time></trkpt><trkpt lat="42.2055233" lon="14.563165"><ele>22.799999999999997</ele><time>2026-05-02T08:18:46.899Z</time></trkpt><trkpt lat="42.2054633" lon="14.5630883"><ele>22.200000000000003</ele><time>2026-05-02T08:18:48.9Z</time></trkpt><trkpt lat="42.2053933" lon="14.5630133"><ele>21.6</ele><time>2026-05-02T08:18:50.899Z</time></trkpt><trkpt lat="42.2052917" lon="14.562955"><ele>21.0</ele><time>2026-05-02T08:18:52.9Z</time></trkpt><trkpt lat="42.20518" lon="14.5629083"><ele>21.0</ele><time>2026-05-02T08:18:54.9Z</time></trkpt><trkpt lat="42.2050667" lon="14.5628667"><ele>21.0</ele><time>2026-05-02T08:18:56.899Z</time></trkpt><trkpt lat="42.2050017" lon="14.5628183"><ele>21.0</ele><time>2026-05-02T08:18:58.899Z</time></trkpt><trkpt lat="42.2050033" lon="14.5627217"><ele>21.0</ele><time>2026-05-02T08:19:02.9Z</time></trkpt><trkpt lat="42.2050583" lon="14.56266"><ele>21.0</ele><time>2026-05-02T08:19:04.9Z</time></trkpt><trkpt lat="42.2051067" lon="14.5626017"><ele>21.0</ele><time>2026-05-02T08:19:06.899Z</time></trkpt><trkpt lat="42.2051617" lon="14.5625367"><ele>21.285714285714285</ele><time>2026-05-02T08:19:08.9Z</time></trkpt><trkpt lat="42.2052167" lon="14.5624667"><ele>21.57142857142857</ele><time>2026-05-02T08:19:10.9Z</time></trkpt><trkpt lat="42.2052633" lon="14.5623933"><ele>21.857142857142858</ele><time>2026-05-02T08:19:12.9Z</time></trkpt><trkpt lat="42.20533" lon="14.5623167"><ele>22.142857142857142</ele><time>2026-05-02T08:19:14.899Z</time></trkpt><trkpt lat="42.2053733" lon="14.56224"><ele>22.428571428571427</ele><time>2026-05-02T08:19:16.9Z</time></trkpt><trkpt lat="42.2053917" lon="14.5621583"><ele>22.714285714285715</ele><time>2026-05-02T08:19:18.9Z</time></trkpt><trkpt lat="42.2054083" lon="14.562065"><ele>23.0</ele><time>2026-05-02T08:19:20.899Z</time></trkpt><trkpt lat="42.2054333" lon="14.56196"><ele>23.5</ele><time>2026-05-02T08:19:22.899Z</time></trkpt><trkpt lat="42.20546" lon="14.561845"><ele>24.0</ele><time>2026-05-02T08:19:24.899Z</time></trkpt><trkpt lat="42.20548" lon="14.561725"><ele>24.5</ele><time>2026-05-02T08:19:26.899Z</time></trkpt><trkpt lat="42.2054733" lon="14.5616133"><ele>25.0</ele><time>2026-05-02T08:19:28.899Z</time></trkpt><trkpt lat="42.2054617" lon="14.5614983"><ele>25.499999999999996</ele><time>2026-05-02T08:19:30.9Z</time></trkpt><trkpt lat="42.2054633" lon="14.56138"><ele>26.0</ele><time>2026-05-02T08:19:32.899Z</time></trkpt><trkpt lat="42.2054633" lon="14.5612633"><ele>25.999999999999996</ele><time>2026-05-02T08:19:34.9Z</time></trkpt><trkpt lat="42.2054633" lon="14.5611533"><ele>26.0</ele><time>2026-05-02T08:19:36.9Z</time></trkpt><trkpt lat="42.2054617" lon="14.5610433"><ele>26.0</ele><time>2026-05-02T08:19:38.9Z</time></trkpt><trkpt lat="42.205475" lon="14.56094"><ele>26.0</ele><time>2026-05-02T08:19:40.899Z</time></trkpt><trkpt lat="42.2054833" lon="14.5608383"><ele>25.999999999999996</ele><time>2026-05-02T08:19:42.899Z</time></trkpt><trkpt lat="42.2054883" lon="14.56074"><ele>26.0</ele><time>2026-05-02T08:19:44.9Z</time></trkpt><trkpt lat="42.2055183" lon="14.5606417"><ele>25.999999999999996</ele><time>2026-05-02T08:19:46.9Z</time></trkpt><trkpt lat="42.20558" lon="14.5605567"><ele>26.0</ele><time>2026-05-02T08:19:49.9Z</time></trkpt><trkpt lat="42.2056583" lon="14.560485"><ele>26.0</ele><time>2026-05-02T08:19:52.9Z</time></trkpt><trkpt lat="42.2057117" lon="14.560435"><ele>26.0</ele><time>2026-05-02T08:19:54.899Z</time></trkpt><trkpt lat="42.2057517" lon="14.5603533"><ele>25.999999999999996</ele><time>2026-05-02T08:19:56.899Z</time></trkpt><trkpt lat="42.2057717" lon="14.56023"><ele>26.0</ele><time>2026-05-02T08:19:58.9Z</time></trkpt><trkpt lat="42.2057817" lon="14.5601133"><ele>26.166666666666664</ele><time>2026-05-02T08:20:00.9Z</time></trkpt><trkpt lat="42.2057983" lon="14.5600067"><ele>26.333333333333332</ele><time>2026-05-02T08:20:02.9Z</time></trkpt><trkpt lat="42.2058167" lon="14.5598933"><ele>26.5</ele><time>2026-05-02T08:20:04.899Z</time></trkpt><trkpt lat="42.205845" lon="14.5597833"><ele>26.666666666666664</ele><time>2026-05-02T08:20:06.899Z</time></trkpt><trkpt lat="42.2058867" lon="14.559715"><ele>26.833333333333332</ele><time>2026-05-02T08:20:10.9Z</time></trkpt><trkpt lat="42.2059767" lon="14.5597183"><ele>27.0</ele><time>2026-05-02T08:20:14.9Z</time></trkpt><trkpt lat="42.2060467" lon="14.55972"><ele>27.0</ele><time>2026-05-02T08:20:16.9Z</time></trkpt><trkpt lat="42.206115" lon="14.5597183"><ele>27.0</ele><time>2026-05-02T08:20:18.9Z</time></trkpt><trkpt lat="42.20619" lon="14.5597267"><ele>27.0</ele><time>2026-05-02T08:20:20.9Z</time></trkpt><trkpt lat="42.2062717" lon="14.5597383"><ele>27.0</ele><time>2026-05-02T08:20:22.899Z</time></trkpt><trkpt lat="42.206355" lon="14.5597467"><ele>27.0</ele><time>2026-05-02T08:20:24.899Z</time></trkpt><trkpt lat="42.2064217" lon="14.55975"><ele>27.0</ele><time>2026-05-02T08:20:26.9Z</time></trkpt><trkpt lat="42.206465" lon="14.5596867"><ele>27.0</ele><time>2026-05-02T08:20:30.9Z</time></trkpt><trkpt lat="42.2064333" lon="14.5595683"><ele>26.833333333333332</ele><time>2026-05-02T08:20:33.899Z</time></trkpt><trkpt lat="42.2064333" lon="14.5594833"><ele>26.666666666666664</ele><time>2026-05-02T08:20:35.9Z</time></trkpt><trkpt lat="42.20644" lon="14.559385"><ele>26.5</ele><time>2026-05-02T08:20:37.9Z</time></trkpt><trkpt lat="42.2064483" lon="14.5592817"><ele>26.333333333333332</ele><time>2026-05-02T08:20:39.9Z</time></trkpt><trkpt lat="42.2064633" lon="14.5591767"><ele>26.166666666666664</ele><time>2026-05-02T08:20:41.899Z</time></trkpt><trkpt lat="42.2064867" lon="14.559065"><ele>26.0</ele><time>2026-05-02T08:20:43.9Z</time></trkpt><trkpt lat="42.2065133" lon="14.5589533"><ele>26.4</ele><time>2026-05-02T08:20:45.9Z</time></trkpt><trkpt lat="42.20654" lon="14.5588417"><ele>26.8</ele><time>2026-05-02T08:20:47.899Z</time></trkpt><trkpt lat="42.20657" lon="14.5587317"><ele>27.199999999999996</ele><time>2026-05-02T08:20:49.9Z</time></trkpt><trkpt lat="42.206605" lon="14.55861"><ele>27.599999999999998</ele><time>2026-05-02T08:20:51.899Z</time></trkpt><trkpt lat="42.2066317" lon="14.55849"><ele>28.0</ele><time>2026-05-02T08:20:53.9Z</time></trkpt><trkpt lat="42.206655" lon="14.5583733"><ele>28.000000000000004</ele><time>2026-05-02T08:20:55.9Z</time></trkpt><trkpt lat="42.2066917" lon="14.5582683"><ele>28.0</ele><time>2026-05-02T08:20:57.9Z</time></trkpt><trkpt lat="42.2067317" lon="14.5581667"><ele>28.0</ele><time>2026-05-02T08:20:59.899Z</time></trkpt><trkpt lat="42.2067783" lon="14.5580667"><ele>28.0</ele><time>2026-05-02T08:21:01.9Z</time></trkpt><trkpt lat="42.2068283" lon="14.5579617"><ele>28.000000000000004</ele><time>2026-05-02T08:21:03.9Z</time></trkpt><trkpt lat="42.206875" lon="14.5578617"><ele>28.0</ele><time>2026-05-02T08:21:05.9Z</time></trkpt><trkpt lat="42.206885" lon="14.5577683"><ele>28.0</ele><time>2026-05-02T08:21:08.9Z</time></trkpt><trkpt lat="42.206815" lon="14.5577767"><ele>28.0</ele><time>2026-05-02T08:21:11.9Z</time></trkpt><trkpt lat="42.2067317" lon="14.55783"><ele>28.0</ele><time>2026-05-02T08:21:14.9Z</time></trkpt><trkpt lat="42.206665" lon="14.55786"><ele>28.0</ele><time>2026-05-02T08:21:16.899Z</time></trkpt><trkpt lat="42.2065967" lon="14.5578717"><ele>28.0</ele><time>2026-05-02T08:21:18.899Z</time></trkpt><trkpt lat="42.2065283" lon="14.557885"><ele>28.0</ele><time>2026-05-02T08:21:20.899Z</time></trkpt><trkpt lat="42.2064633" lon="14.5578733"><ele>28.0</ele><time>2026-05-02T08:21:22.899Z</time></trkpt><trkpt lat="42.206395" lon="14.5578617"><ele>27.833333333333336</ele><time>2026-05-02T08:21:24.9Z</time></trkpt><trkpt lat="42.20632" lon="14.5578567"><ele>27.666666666666668</ele><time>2026-05-02T08:21:26.9Z</time></trkpt><trkpt lat="42.20624" lon="14.5578483"><ele>27.5</ele><time>2026-05-02T08:21:28.899Z</time></trkpt><trkpt lat="42.2061533" lon="14.5578433"><ele>27.333333333333336</ele><time>2026-05-02T08:21:30.9Z</time></trkpt><trkpt lat="42.20608" lon="14.55784"><ele>27.166666666666668</ele><time>2026-05-02T08:21:32.9Z</time></trkpt><trkpt lat="42.2060083" lon="14.5578317"><ele>27.0</ele><time>2026-05-02T08:21:34.9Z</time></trkpt><trkpt lat="42.2059317" lon="14.5578133"><ele>27.0</ele><time>2026-05-02T08:21:36.9Z</time></trkpt><trkpt lat="42.2058483" lon="14.5577917"><ele>27.0</ele><time>2026-05-02T08:21:38.899Z</time></trkpt><trkpt lat="42.205775" lon="14.5577633"><ele>27.0</ele><time>2026-05-02T08:21:40.9Z</time></trkpt><trkpt lat="42.2056983" lon="14.55775"><ele>27.0</ele><time>2026-05-02T08:21:42.9Z</time></trkpt><trkpt lat="42.2056233" lon="14.55772"><ele>27.0</ele><time>2026-05-02T08:21:44.9Z</time></trkpt><trkpt lat="42.2055417" lon="14.5576567"><ele>27.0</ele><time>2026-05-02T08:21:46.9Z</time></trkpt><trkpt lat="42.205495" lon="14.5575867"><ele>27.0</ele><time>2026-05-02T08:21:48.899Z</time></trkpt><trkpt lat="42.2054517" lon="14.5574783"><ele>27.0</ele><time>2026-05-02T08:21:51.9Z</time></trkpt><trkpt lat="42.20541" lon="14.5573983"><ele>27.0</ele><time>2026-05-02T08:21:53.9Z</time></trkpt><trkpt lat="42.2053733" lon="14.5573233"><ele>27.0</ele><time>2026-05-02T08:21:55.9Z</time></trkpt><trkpt lat="42.2053217" lon="14.55723"><ele>27.0</ele><time>2026-05-02T08:21:57.9Z</time></trkpt><trkpt lat="42.205295" lon="14.557125"><ele>27.0</ele><time>2026-05-02T08:21:59.9Z</time></trkpt><trkpt lat="42.2052683" lon="14.55702"><ele>27.0</ele><time>2026-05-02T08:22:01.899Z</time></trkpt><trkpt lat="42.2052533" lon="14.5568967"><ele>27.000000000000004</ele><time>2026-05-02T08:22:03.899Z</time></trkpt><trkpt lat="42.2052383" lon="14.5567633"><ele>27.000000000000004</ele><time>2026-05-02T08:22:05.9Z</time></trkpt><trkpt lat="42.2051917" lon="14.5566283"><ele>27.0</ele><time>2026-05-02T08:22:07.899Z</time></trkpt><trkpt lat="42.2051467" lon="14.5565217"><ele>27.0</ele><time>2026-05-02T08:22:09.9Z</time></trkpt><trkpt lat="42.205105" lon="14.55645"><ele>27.0</ele><time>2026-05-02T08:22:12.9Z</time></trkpt><trkpt lat="42.205095" lon="14.5563633"><ele>27.0</ele><time>2026-05-02T08:22:18.899Z</time></trkpt><trkpt lat="42.20513" lon="14.5562867"><ele>27.0</ele><time>2026-05-02T08:22:23.9Z</time></trkpt><trkpt lat="42.20517" lon="14.556215"><ele>27.0</ele><time>2026-05-02T08:22:29.9Z</time></trkpt><trkpt lat="42.2052067" lon="14.556125"><ele>27.0</ele><time>2026-05-02T08:22:33.9Z</time></trkpt><trkpt lat="42.2052417" lon="14.5560367"><ele>27.0</ele><time>2026-05-02T08:22:36.9Z</time></trkpt><trkpt lat="42.2052817" lon="14.555965"><ele>27.0</ele><time>2026-05-02T08:22:38.9Z</time></trkpt><trkpt lat="42.20531" lon="14.55588"><ele>27.285714285714285</ele><time>2026-05-02T08:22:41.899Z</time></trkpt><trkpt lat="42.205345" lon="14.5557867"><ele>27.57142857142857</ele><time>2026-05-02T08:22:45.899Z</time></trkpt><trkpt lat="42.2053683" lon="14.5556883"><ele>27.85714285714286</ele><time>2026-05-02T08:22:52.9Z</time></trkpt><trkpt lat="42.2053883" lon="14.5556067"><ele>28.142857142857146</ele><time>2026-05-02T08:22:56.899Z</time></trkpt><trkpt lat="42.2054133" lon="14.55551"><ele>28.42857142857143</ele><time>2026-05-02T08:23:00.899Z</time></trkpt><trkpt lat="42.2054533" lon="14.5554333"><ele>28.71428571428572</ele><time>2026-05-02T08:23:03.9Z</time></trkpt><trkpt lat="42.2055" lon="14.5553583"><ele>29.000000000000004</ele><time>2026-05-02T08:23:05.899Z</time></trkpt><trkpt lat="42.2055533" lon="14.5552867"><ele>28.999999999999996</ele><time>2026-05-02T08:23:07.899Z</time></trkpt><trkpt lat="42.2056117" lon="14.5552017"><ele>29.0</ele><time>2026-05-02T08:23:09.9Z</time></trkpt><trkpt lat="42.2056733" lon="14.555125"><ele>29.0</ele><time>2026-05-02T08:23:11.9Z</time></trkpt><trkpt lat="42.2057233" lon="14.5550133"><ele>29.0</ele><time>2026-05-02T08:23:13.899Z</time></trkpt><trkpt lat="42.2057583" lon="14.5549217"><ele>28.999999999999996</ele><time>2026-05-02T08:23:15.9Z</time></trkpt><trkpt lat="42.2058167" lon="14.5548167"><ele>29.0</ele><time>2026-05-02T08:23:17.899Z</time></trkpt><trkpt lat="42.2058817" lon="14.5546967"><ele>28.999999999999996</ele><time>2026-05-02T08:23:19.899Z</time></trkpt><trkpt lat="42.20595" lon="14.5545867"><ele>29.0</ele><time>2026-05-02T08:23:21.899Z</time></trkpt><trkpt lat="42.20601" lon="14.5545133"><ele>29.0</ele><time>2026-05-02T08:23:23.9Z</time></trkpt><trkpt lat="42.206075" lon="14.5544333"><ele>29.0</ele><time>2026-05-02T08:23:26.9Z</time></trkpt><trkpt lat="42.2061117" lon="14.5543533"><ele>28.999999999999996</ele><time>2026-05-02T08:23:29.899Z</time></trkpt><trkpt lat="42.2061667" lon="14.5542667"><ele>29.0</ele><time>2026-05-02T08:23:32.899Z</time></trkpt><trkpt lat="42.2062067" lon="14.5541983"><ele>29.166666666666664</ele><time>2026-05-02T08:23:34.9Z</time></trkpt><trkpt lat="42.206275" lon="14.5541167"><ele>29.333333333333332</ele><time>2026-05-02T08:23:37.9Z</time></trkpt><trkpt lat="42.2063333" lon="14.554045"><ele>29.5</ele><time>2026-05-02T08:23:39.9Z</time></trkpt><trkpt lat="42.2063933" lon="14.5539817"><ele>29.666666666666664</ele><time>2026-05-02T08:23:41.9Z</time></trkpt><trkpt lat="42.2064467" lon="14.55392"><ele>29.833333333333332</ele><time>2026-05-02T08:23:43.9Z</time></trkpt><trkpt lat="42.2064983" lon="14.5538433"><ele>30.0</ele><time>2026-05-02T08:23:45.9Z</time></trkpt><trkpt lat="42.2065433" lon="14.55376"><ele>30.166666666666668</ele><time>2026-05-02T08:23:47.9Z</time></trkpt><trkpt lat="42.2066033" lon="14.55369"><ele>30.333333333333336</ele><time>2026-05-02T08:23:49.9Z</time></trkpt><trkpt lat="42.2066583" lon="14.553625"><ele>30.5</ele><time>2026-05-02T08:23:51.9Z</time></trkpt><trkpt lat="42.2067217" lon="14.5535333"><ele>30.666666666666668</ele><time>2026-05-02T08:23:54.899Z</time></trkpt><trkpt lat="42.206775" lon="14.5534667"><ele>30.833333333333336</ele><time>2026-05-02T08:23:56.9Z</time></trkpt><trkpt lat="42.2068233" lon="14.553405"><ele>31.0</ele><time>2026-05-02T08:23:58.9Z</time></trkpt><trkpt lat="42.20687" lon="14.55334"><ele>31.0</ele><time>2026-05-02T08:24:00.9Z</time></trkpt><trkpt lat="42.2069183" lon="14.5532767"><ele>31.000000000000004</ele><time>2026-05-02T08:24:02.9Z</time></trkpt><trkpt lat="42.20697" lon="14.5532133"><ele>31.0</ele><time>2026-05-02T08:24:04.899Z</time></trkpt><trkpt lat="42.2070217" lon="14.5531617"><ele>31.0</ele><time>2026-05-02T08:24:06.9Z</time></trkpt><trkpt lat="42.20707" lon="14.5531017"><ele>31.000000000000004</ele><time>2026-05-02T08:24:08.9Z</time></trkpt><trkpt lat="42.2071233" lon="14.5530267"><ele>31.0</ele><time>2026-05-02T08:24:10.899Z</time></trkpt><trkpt lat="42.207175" lon="14.5529467"><ele>31.0</ele><time>2026-05-02T08:24:12.9Z</time></trkpt><trkpt lat="42.2072267" lon="14.5528783"><ele>31.0</ele><time>2026-05-02T08:24:14.899Z</time></trkpt><trkpt lat="42.2072833" lon="14.5528183"><ele>31.000000000000004</ele><time>2026-05-02T08:24:16.9Z</time></trkpt><trkpt lat="42.2073483" lon="14.552785"><ele>31.0</ele><time>2026-05-02T08:24:18.899Z</time></trkpt><trkpt lat="42.207395" lon="14.5527167"><ele>31.0</ele><time>2026-05-02T08:24:20.899Z</time></trkpt><trkpt lat="42.2074433" lon="14.552655"><ele>31.000000000000004</ele><time>2026-05-02T08:24:22.9Z</time></trkpt><trkpt lat="42.2075017" lon="14.5525917"><ele>31.0</ele><time>2026-05-02T08:24:24.9Z</time></trkpt><trkpt lat="42.2075617" lon="14.5525233"><ele>31.0</ele><time>2026-05-02T08:24:26.9Z</time></trkpt><trkpt lat="42.2076117" lon="14.5524517"><ele>31.000000000000004</ele><time>2026-05-02T08:24:28.9Z</time></trkpt><trkpt lat="42.2076617" lon="14.5523683"><ele>31.0</ele><time>2026-05-02T08:24:30.9Z</time></trkpt><trkpt lat="42.2077117" lon="14.5522883"><ele>31.0</ele><time>2026-05-02T08:24:32.9Z</time></trkpt><trkpt lat="42.207775" lon="14.552205"><ele>31.0</ele><time>2026-05-02T08:24:34.9Z</time></trkpt><trkpt lat="42.2078367" lon="14.55213"><ele>31.000000000000004</ele><time>2026-05-02T08:24:36.899Z</time></trkpt><trkpt lat="42.2078817" lon="14.5520567"><ele>31.0</ele><time>2026-05-02T08:24:38.899Z</time></trkpt><trkpt lat="42.2079367" lon="14.55197"><ele>31.000000000000004</ele><time>2026-05-02T08:24:40.899Z</time></trkpt><trkpt lat="42.2079967" lon="14.5518817"><ele>31.0</ele><time>2026-05-02T08:24:42.899Z</time></trkpt><trkpt lat="42.2080483" lon="14.5517917"><ele>31.0</ele><time>2026-05-02T08:24:44.9Z</time></trkpt><trkpt lat="42.2080983" lon="14.5517167"><ele>31.0</ele><time>2026-05-02T08:24:46.9Z</time></trkpt><trkpt lat="42.2081517" lon="14.5516383"><ele>31.000000000000004</ele><time>2026-05-02T08:24:48.9Z</time></trkpt><trkpt lat="42.2082" lon="14.5515567"><ele>31.0</ele><time>2026-05-02T08:24:50.899Z</time></trkpt><trkpt lat="42.2082517" lon="14.5514733"><ele>31.000000000000004</ele><time>2026-05-02T08:24:52.9Z</time></trkpt><trkpt lat="42.2083033" lon="14.55139"><ele>31.0</ele><time>2026-05-02T08:24:54.9Z</time></trkpt><trkpt lat="42.20836" lon="14.5513067"><ele>31.0</ele><time>2026-05-02T08:24:56.9Z</time></trkpt><trkpt lat="42.2084133" lon="14.55122"><ele>31.0</ele><time>2026-05-02T08:24:58.9Z</time></trkpt><trkpt lat="42.2084633" lon="14.55114"><ele>31.000000000000004</ele><time>2026-05-02T08:25:00.899Z</time></trkpt><trkpt lat="42.2085217" lon="14.5510583"><ele>31.0</ele><time>2026-05-02T08:25:02.9Z</time></trkpt><trkpt lat="42.2085783" lon="14.5509817"><ele>31.000000000000004</ele><time>2026-05-02T08:25:04.9Z</time></trkpt><trkpt lat="42.2086283" lon="14.5509067"><ele>31.0</ele><time>2026-05-02T08:25:06.9Z</time></trkpt><trkpt lat="42.20868" lon="14.5508317"><ele>31.0</ele><time>2026-05-02T08:25:08.9Z</time></trkpt><trkpt lat="42.2087283" lon="14.55076"><ele>31.0</ele><time>2026-05-02T08:25:10.899Z</time></trkpt><trkpt lat="42.2087833" lon="14.5506983"><ele>31.000000000000004</ele><time>2026-05-02T08:25:12.899Z</time></trkpt><trkpt lat="42.2088417" lon="14.55062"><ele>31.0</ele><time>2026-05-02T08:25:14.9Z</time></trkpt><trkpt lat="42.2088917" lon="14.55054"><ele>31.000000000000004</ele><time>2026-05-02T08:25:16.9Z</time></trkpt><trkpt lat="42.20894" lon="14.5504533"><ele>31.0</ele><time>2026-05-02T08:25:18.9Z</time></trkpt><trkpt lat="42.2089883" lon="14.5503767"><ele>31.0</ele><time>2026-05-02T08:25:20.899Z</time></trkpt><trkpt lat="42.20904" lon="14.550295"><ele>31.0</ele><time>2026-05-02T08:25:22.899Z</time></trkpt><trkpt lat="42.2090917" lon="14.5502217"><ele>31.000000000000004</ele><time>2026-05-02T08:25:24.9Z</time></trkpt><trkpt lat="42.209145" lon="14.5501433"><ele>31.0</ele><time>2026-05-02T08:25:26.9Z</time></trkpt><trkpt lat="42.2091967" lon="14.5500667"><ele>31.500000000000004</ele><time>2026-05-02T08:25:28.9Z</time></trkpt><trkpt lat="42.209245" lon="14.5499917"><ele>32.0</ele><time>2026-05-02T08:25:30.899Z</time></trkpt><trkpt lat="42.209295" lon="14.5499317"><ele>32.5</ele><time>2026-05-02T08:25:32.899Z</time></trkpt><trkpt lat="42.2093567" lon="14.54988"><ele>33.0</ele><time>2026-05-02T08:25:34.9Z</time></trkpt><trkpt lat="42.2094283" lon="14.5498617"><ele>33.5</ele><time>2026-05-02T08:25:36.9Z</time></trkpt><trkpt lat="42.2095233" lon="14.5498717"><ele>34.0</ele><time>2026-05-02T08:25:39.9Z</time></trkpt><trkpt lat="42.2095967" lon="14.5498783"><ele>34.0</ele><time>2026-05-02T08:25:41.9Z</time></trkpt><trkpt lat="42.2096617" lon="14.5498833"><ele>34.0</ele><time>2026-05-02T08:25:43.9Z</time></trkpt><trkpt lat="42.209725" lon="14.5498917"><ele>34.0</ele><time>2026-05-02T08:25:45.899Z</time></trkpt><trkpt lat="42.2098133" lon="14.5499017"><ele>34.0</ele><time>2026-05-02T08:25:48.9Z</time></trkpt><trkpt lat="42.2098983" lon="14.5499117"><ele>34.0</ele><time>2026-05-02T08:25:51.9Z</time></trkpt><trkpt lat="42.2099667" lon="14.5499233"><ele>34.0</ele><time>2026-05-02T08:25:55.9Z</time></trkpt><trkpt lat="42.2100417" lon="14.5499617"><ele>35.16666666666667</ele><time>2026-05-02T08:26:07.9Z</time></trkpt><trkpt lat="42.21011" lon="14.54999"><ele>36.333333333333336</ele><time>2026-05-02T08:26:09.899Z</time></trkpt><trkpt lat="42.2101717" lon="14.5500133"><ele>37.5</ele><time>2026-05-02T08:26:11.9Z</time></trkpt><trkpt lat="42.2102583" lon="14.5500333"><ele>38.666666666666664</ele><time>2026-05-02T08:26:14.899Z</time></trkpt><trkpt lat="42.210325" lon="14.5500433"><ele>39.83333333333333</ele><time>2026-05-02T08:26:16.9Z</time></trkpt><trkpt lat="42.210415" lon="14.5500567"><ele>41.0</ele><time>2026-05-02T08:26:19.9Z</time></trkpt><trkpt lat="42.2105017" lon="14.550085"><ele>40.99999999999999</ele><time>2026-05-02T08:26:22.899Z</time></trkpt><trkpt lat="42.2105667" lon="14.55011"><ele>41.0</ele><time>2026-05-02T08:26:24.9Z</time></trkpt><trkpt lat="42.2106483" lon="14.550135"><ele>41.0</ele><time>2026-05-02T08:26:27.9Z</time></trkpt><trkpt lat="42.2107117" lon="14.550145"><ele>41.0</ele><time>2026-05-02T08:26:29.9Z</time></trkpt><trkpt lat="42.2108" lon="14.5501717"><ele>41.0</ele><time>2026-05-02T08:26:32.899Z</time></trkpt><trkpt lat="42.21086" lon="14.5501983"><ele>40.99999999999999</ele><time>2026-05-02T08:26:34.9Z</time></trkpt><trkpt lat="42.2109233" lon="14.550205"><ele>41.0</ele><time>2026-05-02T08:26:36.9Z</time></trkpt><trkpt lat="42.210995" lon="14.5502217"><ele>41.71428571428571</ele><time>2026-05-02T08:26:38.899Z</time></trkpt><trkpt lat="42.211065" lon="14.5502283"><ele>42.42857142857143</ele><time>2026-05-02T08:26:40.899Z</time></trkpt><trkpt lat="42.21113" lon="14.5502333"><ele>43.14285714285714</ele><time>2026-05-02T08:26:42.9Z</time></trkpt><trkpt lat="42.211195" lon="14.5502467"><ele>43.857142857142854</ele><time>2026-05-02T08:26:44.899Z</time></trkpt><trkpt lat="42.2112633" lon="14.5502567"><ele>44.57142857142857</ele><time>2026-05-02T08:26:46.9Z</time></trkpt><trkpt lat="42.2113317" lon="14.5502517"><ele>45.285714285714285</ele><time>2026-05-02T08:26:48.899Z</time></trkpt><trkpt lat="42.21143" lon="14.5502617"><ele>46.0</ele><time>2026-05-02T08:26:51.9Z</time></trkpt><trkpt lat="42.2114983" lon="14.5502683"><ele>47.5</ele><time>2026-05-02T08:26:53.9Z</time></trkpt><trkpt lat="42.2115617" lon="14.5502717"><ele>49.0</ele><time>2026-05-02T08:26:55.9Z</time></trkpt><trkpt lat="42.2116483" lon="14.550285"><ele>50.5</ele><time>2026-05-02T08:26:58.899Z</time></trkpt><trkpt lat="42.2117267" lon="14.5502983"><ele>52.0</ele><time>2026-05-02T08:27:01.9Z</time></trkpt><trkpt lat="42.2118167" lon="14.5502983"><ele>53.49999999999999</ele><time>2026-05-02T08:27:05.9Z</time></trkpt><trkpt lat="42.2118933" lon="14.5502933"><ele>55.0</ele><time>2026-05-02T08:27:08.899Z</time></trkpt><trkpt lat="42.21198" lon="14.5503167"><ele>54.99999999999999</ele><time>2026-05-02T08:27:11.9Z</time></trkpt><trkpt lat="42.21205" lon="14.550365"><ele>55.0</ele><time>2026-05-02T08:27:14.9Z</time></trkpt><trkpt lat="42.212115" lon="14.5504067"><ele>55.0</ele><time>2026-05-02T08:27:17.9Z</time></trkpt><trkpt lat="42.2121517" lon="14.5504883"><ele>55.0</ele><time>2026-05-02T08:27:21.9Z</time></trkpt><trkpt lat="42.2121917" lon="14.5505683"><ele>54.99999999999999</ele><time>2026-05-02T08:27:25.899Z</time></trkpt><trkpt lat="42.2122133" lon="14.550665"><ele>55.0</ele><time>2026-05-02T08:27:28.9Z</time></trkpt><trkpt lat="42.2122283" lon="14.5508083"><ele>55.83333333333333</ele><time>2026-05-02T08:27:31.9Z</time></trkpt><trkpt lat="42.2122417" lon="14.5509217"><ele>56.666666666666664</ele><time>2026-05-02T08:27:34.899Z</time></trkpt><trkpt lat="42.2122433" lon="14.5510267"><ele>57.5</ele><time>2026-05-02T08:27:37.899Z</time></trkpt><trkpt lat="42.2122667" lon="14.5511183"><ele>58.33333333333333</ele><time>2026-05-02T08:27:40.899Z</time></trkpt><trkpt lat="42.2122883" lon="14.5512133"><ele>59.166666666666664</ele><time>2026-05-02T08:27:43.899Z</time></trkpt><trkpt lat="42.21232" lon="14.55131"><ele>60.0</ele><time>2026-05-02T08:27:46.9Z</time></trkpt><trkpt lat="42.2123467" lon="14.5514317"><ele>62.666666666666664</ele><time>2026-05-02T08:27:49.9Z</time></trkpt><trkpt lat="42.2123817" lon="14.55152"><ele>65.33333333333333</ele><time>2026-05-02T08:27:52.9Z</time></trkpt><trkpt lat="42.2124133" lon="14.5516117"><ele>68.0</ele><time>2026-05-02T08:27:55.9Z</time></trkpt><trkpt lat="42.2124383" lon="14.5516933"><ele>70.66666666666666</ele><time>2026-05-02T08:27:58.9Z</time></trkpt><trkpt lat="42.212475" lon="14.5517767"><ele>73.33333333333333</ele><time>2026-05-02T08:28:02.9Z</time></trkpt><trkpt lat="42.212475" lon="14.55189"><ele>76.0</ele><time>2026-05-02T08:28:06.899Z</time></trkpt><trkpt lat="42.2124883" lon="14.55201"><ele>76.6</ele><time>2026-05-02T08:28:09.899Z</time></trkpt><trkpt lat="42.2124967" lon="14.5521233"><ele>77.19999999999999</ele><time>2026-05-02T08:28:12.9Z</time></trkpt><trkpt lat="42.2125" lon="14.5522367"><ele>77.80000000000001</ele><time>2026-05-02T08:28:15.9Z</time></trkpt><trkpt lat="42.2125067" lon="14.552375"><ele>78.4</ele><time>2026-05-02T08:28:18.9Z</time></trkpt><trkpt lat="42.21249" lon="14.552495"><ele>79.0</ele><time>2026-05-02T08:28:21.9Z</time></trkpt><trkpt lat="42.21246" lon="14.5526133"><ele>79.0</ele><time>2026-05-02T08:28:24.9Z</time></trkpt><trkpt lat="42.2124167" lon="14.552685"><ele>79.0</ele><time>2026-05-02T08:28:26.9Z</time></trkpt><trkpt lat="42.2123783" lon="14.552795"><ele>79.0</ele><time>2026-05-02T08:28:29.899Z</time></trkpt><trkpt lat="42.21235" lon="14.55291"><ele>79.0</ele><time>2026-05-02T08:28:32.9Z</time></trkpt><trkpt lat="42.2123133" lon="14.5530133"><ele>79.0</ele><time>2026-05-02T08:28:35.9Z</time></trkpt><trkpt lat="42.212275" lon="14.55312"><ele>79.0</ele><time>2026-05-02T08:28:38.899Z</time></trkpt><trkpt lat="42.21224" lon="14.55323"><ele>80.0</ele><time>2026-05-02T08:28:41.899Z</time></trkpt><trkpt lat="42.2122217" lon="14.5533267"><ele>81.0</ele><time>2026-05-02T08:28:44.9Z</time></trkpt><trkpt lat="42.21226" lon="14.5533983"><ele>82.0</ele><time>2026-05-02T08:28:47.899Z</time></trkpt><trkpt lat="42.2123233" lon="14.5534117"><ele>83.0</ele><time>2026-05-02T08:28:50.899Z</time></trkpt><trkpt lat="42.2124083" lon="14.5534517"><ele>84.0</ele><time>2026-05-02T08:28:53.9Z</time></trkpt><trkpt lat="42.21249" lon="14.5534833"><ele>85.0</ele><time>2026-05-02T08:28:56.899Z</time></trkpt><trkpt lat="42.2125617" lon="14.5535117"><ele>85.0</ele><time>2026-05-02T08:28:59.9Z</time></trkpt><trkpt lat="42.2126317" lon="14.5535367"><ele>85.0</ele><time>2026-05-02T08:29:02.9Z</time></trkpt><trkpt lat="42.2126983" lon="14.55356"><ele>85.0</ele><time>2026-05-02T08:29:05.9Z</time></trkpt><trkpt lat="42.21277" lon="14.5535967"><ele>85.0</ele><time>2026-05-02T08:29:09.9Z</time></trkpt><trkpt lat="42.212845" lon="14.5536383"><ele>85.0</ele><time>2026-05-02T08:29:13.9Z</time></trkpt><trkpt lat="42.2129033" lon="14.5536717"><ele>85.0</ele><time>2026-05-02T08:29:16.9Z</time></trkpt><trkpt lat="42.212965" lon="14.5537067"><ele>85.0</ele><time>2026-05-02T08:29:19.899Z</time></trkpt><trkpt lat="42.21303" lon="14.5537483"><ele>85.0</ele><time>2026-05-02T08:29:22.9Z</time></trkpt><trkpt lat="42.2130967" lon="14.5537983"><ele>85.0</ele><time>2026-05-02T08:29:25.899Z</time></trkpt><trkpt lat="42.2130467" lon="14.553735"><ele>85.0</ele><time>2026-05-02T08:30:20.9Z</time></trkpt><trkpt lat="42.21297" lon="14.5536783"><ele>85.0</ele><time>2026-05-02T08:30:23.9Z</time></trkpt><trkpt lat="42.2129017" lon="14.5536467"><ele>85.0</ele><time>2026-05-02T08:30:26.9Z</time></trkpt><trkpt lat="42.212955" lon="14.5537"><ele>85.0</ele><time>2026-05-02T08:34:28.899Z</time></trkpt><trkpt lat="42.2130133" lon="14.553735"><ele>85.0</ele><time>2026-05-02T08:34:31.9Z</time></trkpt><trkpt lat="42.2130867" lon="14.5537833"><ele>86.0</ele><time>2026-05-02T08:34:35.899Z</time></trkpt><trkpt lat="42.2131483" lon="14.5538283"><ele>87.0</ele><time>2026-05-02T08:34:38.9Z</time></trkpt><trkpt lat="42.2132117" lon="14.55388"><ele>88.0</ele><time>2026-05-02T08:34:41.9Z</time></trkpt><trkpt lat="42.2132883" lon="14.5539383"><ele>89.0</ele><time>2026-05-02T08:34:44.9Z</time></trkpt><trkpt lat="42.213345" lon="14.5539817"><ele>90.0</ele><time>2026-05-02T08:34:46.9Z</time></trkpt><trkpt lat="42.213425" lon="14.5540367"><ele>91.0</ele><time>2026-05-02T08:34:49.899Z</time></trkpt><trkpt lat="42.2135033" lon="14.5541"><ele>91.66666666666666</ele><time>2026-05-02T08:34:52.9Z</time></trkpt><trkpt lat="42.213565" lon="14.55415"><ele>92.33333333333333</ele><time>2026-05-02T08:34:54.9Z</time></trkpt><trkpt lat="42.213635" lon="14.554205"><ele>93.0</ele><time>2026-05-02T08:34:56.899Z</time></trkpt><trkpt lat="42.2137167" lon="14.5542633"><ele>93.66666666666667</ele><time>2026-05-02T08:34:58.9Z</time></trkpt><trkpt lat="42.213805" lon="14.55432"><ele>94.33333333333334</ele><time>2026-05-02T08:35:00.9Z</time></trkpt><trkpt lat="42.213895" lon="14.55438"><ele>95.0</ele><time>2026-05-02T08:35:02.9Z</time></trkpt><trkpt lat="42.2139867" lon="14.5544467"><ele>94.75</ele><time>2026-05-02T08:35:04.899Z</time></trkpt><trkpt lat="42.214075" lon="14.5545233"><ele>94.5</ele><time>2026-05-02T08:35:06.9Z</time></trkpt><trkpt lat="42.21417" lon="14.5546067"><ele>94.25</ele><time>2026-05-02T08:35:08.9Z</time></trkpt><trkpt lat="42.2142667" lon="14.5546917"><ele>94.0</ele><time>2026-05-02T08:35:10.9Z</time></trkpt><trkpt lat="42.2143683" lon="14.5547733"><ele>93.0</ele><time>2026-05-02T08:35:12.9Z</time></trkpt><trkpt lat="42.2144683" lon="14.5548483"><ele>92.0</ele><time>2026-05-02T08:35:14.899Z</time></trkpt><trkpt lat="42.2145617" lon="14.5549133"><ele>91.0</ele><time>2026-05-02T08:35:16.9Z</time></trkpt><trkpt lat="42.2146383" lon="14.5549817"><ele>90.0</ele><time>2026-05-02T08:35:18.9Z</time></trkpt><trkpt lat="42.2147" lon="14.5550483"><ele>89.0</ele><time>2026-05-02T08:35:20.9Z</time></trkpt><trkpt lat="42.2147533" lon="14.55511"><ele>88.99999999999999</ele><time>2026-05-02T08:35:22.9Z</time></trkpt><trkpt lat="42.214815" lon="14.5551767"><ele>89.0</ele><time>2026-05-02T08:35:24.899Z</time></trkpt><trkpt lat="42.2148717" lon="14.5552333"><ele>89.0</ele><time>2026-05-02T08:35:26.9Z</time></trkpt><trkpt lat="42.2149267" lon="14.5552817"><ele>89.0</ele><time>2026-05-02T08:35:28.9Z</time></trkpt><trkpt lat="42.21501" lon="14.5553417"><ele>89.0</ele><time>2026-05-02T08:35:31.9Z</time></trkpt><trkpt lat="42.2150683" lon="14.55539"><ele>88.99999999999999</ele><time>2026-05-02T08:35:33.899Z</time></trkpt><trkpt lat="42.2151283" lon="14.55544"><ele>89.0</ele><time>2026-05-02T08:35:35.9Z</time></trkpt><trkpt lat="42.215205" lon="14.5555183"><ele>89.85714285714285</ele><time>2026-05-02T08:35:38.9Z</time></trkpt><trkpt lat="42.2152583" lon="14.555575"><ele>90.71428571428571</ele><time>2026-05-02T08:35:40.9Z</time></trkpt><trkpt lat="42.2153233" lon="14.5556133"><ele>91.57142857142857</ele><time>2026-05-02T08:35:42.899Z</time></trkpt><trkpt lat="42.2153783" lon="14.5556567"><ele>92.42857142857142</ele><time>2026-05-02T08:35:44.9Z</time></trkpt><trkpt lat="42.2154383" lon="14.5557067"><ele>93.28571428571429</ele><time>2026-05-02T08:35:46.899Z</time></trkpt><trkpt lat="42.2155" lon="14.5557633"><ele>94.14285714285714</ele><time>2026-05-02T08:35:48.9Z</time></trkpt><trkpt lat="42.21556" lon="14.5558117"><ele>95.0</ele><time>2026-05-02T08:35:50.9Z</time></trkpt><trkpt lat="42.2156217" lon="14.55586"><ele>95.42857142857143</ele><time>2026-05-02T08:35:52.899Z</time></trkpt><trkpt lat="42.21568" lon="14.5559117"><ele>95.85714285714286</ele><time>2026-05-02T08:35:54.9Z</time></trkpt><trkpt lat="42.2157417" lon="14.555965"><ele>96.28571428571428</ele><time>2026-05-02T08:35:56.9Z</time></trkpt><trkpt lat="42.2158067" lon="14.556015"><ele>96.71428571428572</ele><time>2026-05-02T08:35:58.899Z</time></trkpt><trkpt lat="42.2158683" lon="14.5560633"><ele>97.14285714285714</ele><time>2026-05-02T08:36:00.9Z</time></trkpt><trkpt lat="42.215925" lon="14.5561117"><ele>97.57142857142857</ele><time>2026-05-02T08:36:02.9Z</time></trkpt><trkpt lat="42.216005" lon="14.5561733"><ele>98.0</ele><time>2026-05-02T08:36:05.9Z</time></trkpt><trkpt lat="42.2160533" lon="14.5562333"><ele>97.99999999999999</ele><time>2026-05-02T08:36:07.899Z</time></trkpt><trkpt lat="42.2161133" lon="14.5562917"><ele>98.0</ele><time>2026-05-02T08:36:09.9Z</time></trkpt><trkpt lat="42.2161767" lon="14.556355"><ele>98.0</ele><time>2026-05-02T08:36:11.899Z</time></trkpt><trkpt lat="42.216245" lon="14.5564217"><ele>98.0</ele><time>2026-05-02T08:36:13.899Z</time></trkpt><trkpt lat="42.216315" lon="14.5564983"><ele>97.99999999999999</ele><time>2026-05-02T08:36:15.899Z</time></trkpt><trkpt lat="42.2163867" lon="14.556575"><ele>98.0</ele><time>2026-05-02T08:36:17.9Z</time></trkpt><trkpt lat="42.2164683" lon="14.55665"><ele>98.0</ele><time>2026-05-02T08:36:19.899Z</time></trkpt><trkpt lat="42.21655" lon="14.5567333"><ele>98.0</ele><time>2026-05-02T08:36:21.9Z</time></trkpt><trkpt lat="42.2166317" lon="14.5568183"><ele>98.0</ele><time>2026-05-02T08:36:23.899Z</time></trkpt><trkpt lat="42.2167117" lon="14.5568867"><ele>98.0</ele><time>2026-05-02T08:36:25.899Z</time></trkpt><trkpt lat="42.2167917" lon="14.5569583"><ele>98.0</ele><time>2026-05-02T08:36:27.899Z</time></trkpt><trkpt lat="42.2168717" lon="14.5570267"><ele>97.83333333333333</ele><time>2026-05-02T08:36:29.9Z</time></trkpt><trkpt lat="42.2169517" lon="14.557095"><ele>97.66666666666666</ele><time>2026-05-02T08:36:31.899Z</time></trkpt><trkpt lat="42.21703" lon="14.55716"><ele>97.5</ele><time>2026-05-02T08:36:33.899Z</time></trkpt><trkpt lat="42.2171033" lon="14.557225"><ele>97.33333333333334</ele><time>2026-05-02T08:36:35.9Z</time></trkpt><trkpt lat="42.21716" lon="14.5572717"><ele>97.16666666666667</ele><time>2026-05-02T08:36:37.899Z</time></trkpt><trkpt lat="42.217215" lon="14.55732"><ele>97.0</ele><time>2026-05-02T08:36:39.9Z</time></trkpt><trkpt lat="42.217275" lon="14.55736"><ele>96.8</ele><time>2026-05-02T08:36:41.899Z</time></trkpt><trkpt lat="42.2173483" lon="14.557425"><ele>96.6</ele><time>2026-05-02T08:36:43.9Z</time></trkpt><trkpt lat="42.2174367" lon="14.5575117"><ele>96.39999999999999</ele><time>2026-05-02T08:36:45.9Z</time></trkpt><trkpt lat="42.217545" lon="14.557605"><ele>96.19999999999999</ele><time>2026-05-02T08:36:47.899Z</time></trkpt><trkpt lat="42.2176083" lon="14.55765"><ele>96.0</ele><time>2026-05-02T08:36:48.9Z</time></trkpt><trkpt lat="42.2176867" lon="14.5577033"><ele>96.0</ele><time>2026-05-02T08:36:49.899Z</time></trkpt><trkpt lat="42.2177717" lon="14.55776"><ele>96.0</ele><time>2026-05-02T08:36:50.9Z</time></trkpt><trkpt lat="42.2178583" lon="14.5578233"><ele>96.0</ele><time>2026-05-02T08:36:51.9Z</time></trkpt><trkpt lat="42.2179433" lon="14.5579017"><ele>96.0</ele><time>2026-05-02T08:36:52.899Z</time></trkpt><trkpt lat="42.2180167" lon="14.5579783"><ele>96.0</ele><time>2026-05-02T08:36:53.899Z</time></trkpt><trkpt lat="42.218075" lon="14.558045"><ele>95.6</ele><time>2026-05-02T08:36:54.899Z</time></trkpt><trkpt lat="42.2181583" lon="14.5581267"><ele>95.19999999999999</ele><time>2026-05-02T08:36:56.9Z</time></trkpt><trkpt lat="42.218225" lon="14.55816"><ele>94.80000000000001</ele><time>2026-05-02T08:36:58.899Z</time></trkpt><trkpt lat="42.21831" lon="14.558235"><ele>94.4</ele><time>2026-05-02T08:37:01.9Z</time></trkpt><trkpt lat="42.2183733" lon="14.5583"><ele>94.0</ele><time>2026-05-02T08:37:03.899Z</time></trkpt><trkpt lat="42.21845" lon="14.5583767"><ele>94.0</ele><time>2026-05-02T08:37:05.899Z</time></trkpt><trkpt lat="42.2185317" lon="14.5584483"><ele>94.0</ele><time>2026-05-02T08:37:07.9Z</time></trkpt><trkpt lat="42.2186033" lon="14.5585083"><ele>94.0</ele><time>2026-05-02T08:37:09.899Z</time></trkpt><trkpt lat="42.21867" lon="14.55857"><ele>94.0</ele><time>2026-05-02T08:37:11.899Z</time></trkpt><trkpt lat="42.2187367" lon="14.5586317"><ele>94.0</ele><time>2026-05-02T08:37:13.9Z</time></trkpt><trkpt lat="42.2188033" lon="14.55869"><ele>94.0</ele><time>2026-05-02T08:37:15.899Z</time></trkpt><trkpt lat="42.21887" lon="14.55875"><ele>94.0</ele><time>2026-05-02T08:37:17.9Z</time></trkpt><trkpt lat="42.2189333" lon="14.558805"><ele>94.0</ele><time>2026-05-02T08:37:19.9Z</time></trkpt><trkpt lat="42.218995" lon="14.5588533"><ele>94.0</ele><time>2026-05-02T08:37:21.9Z</time></trkpt><trkpt lat="42.2190483" lon="14.5589033"><ele>94.0</ele><time>2026-05-02T08:37:23.899Z</time></trkpt><trkpt lat="42.2191183" lon="14.558965"><ele>94.0</ele><time>2026-05-02T08:37:25.9Z</time></trkpt><trkpt lat="42.2191883" lon="14.5590117"><ele>94.0</ele><time>2026-05-02T08:37:27.9Z</time></trkpt><trkpt lat="42.21926" lon="14.5590667"><ele>94.5</ele><time>2026-05-02T08:37:29.899Z</time></trkpt><trkpt lat="42.2193317" lon="14.5591217"><ele>95.0</ele><time>2026-05-02T08:37:31.9Z</time></trkpt><trkpt lat="42.2194117" lon="14.55918"><ele>95.5</ele><time>2026-05-02T08:37:33.899Z</time></trkpt><trkpt lat="42.21949" lon="14.559245"><ele>96.0</ele><time>2026-05-02T08:37:35.9Z</time></trkpt><trkpt lat="42.2195617" lon="14.5593083"><ele>96.50000000000001</ele><time>2026-05-02T08:37:37.9Z</time></trkpt><trkpt lat="42.2196217" lon="14.5593917"><ele>97.0</ele><time>2026-05-02T08:37:39.9Z</time></trkpt><trkpt lat="42.2196267" lon="14.5595017"><ele>96.66666666666667</ele><time>2026-05-02T08:37:41.9Z</time></trkpt><trkpt lat="42.2195767" lon="14.5595767"><ele>96.33333333333334</ele><time>2026-05-02T08:37:43.899Z</time></trkpt><trkpt lat="42.219505" lon="14.5596617"><ele>96.0</ele><time>2026-05-02T08:37:46.9Z</time></trkpt><trkpt lat="42.219465" lon="14.5597417"><ele>95.66666666666667</ele><time>2026-05-02T08:37:48.9Z</time></trkpt><trkpt lat="42.2194217" lon="14.55982"><ele>95.33333333333334</ele><time>2026-05-02T08:37:50.9Z</time></trkpt><trkpt lat="42.2193717" lon="14.5599117"><ele>95.0</ele><time>2026-05-02T08:37:52.899Z</time></trkpt><trkpt lat="42.2193283" lon="14.5600017"><ele>95.0</ele><time>2026-05-02T08:37:54.9Z</time></trkpt><trkpt lat="42.2192867" lon="14.5601183"><ele>95.0</ele><time>2026-05-02T08:37:56.9Z</time></trkpt><trkpt lat="42.219245" lon="14.560245"><ele>95.0</ele><time>2026-05-02T08:37:58.9Z</time></trkpt><trkpt lat="42.2191983" lon="14.56039"><ele>95.0</ele><time>2026-05-02T08:38:00.9Z</time></trkpt><trkpt lat="42.2191667" lon="14.560535"><ele>95.0</ele><time>2026-05-02T08:38:02.9Z</time></trkpt><trkpt lat="42.2191317" lon="14.56067"><ele>93.4</ele><time>2026-05-02T08:38:04.9Z</time></trkpt><trkpt lat="42.21909" lon="14.5607933"><ele>91.8</ele><time>2026-05-02T08:38:06.899Z</time></trkpt><trkpt lat="42.2190683" lon="14.56092"><ele>90.19999999999999</ele><time>2026-05-02T08:38:08.9Z</time></trkpt><trkpt lat="42.2190567" lon="14.5610533"><ele>88.6</ele><time>2026-05-02T08:38:10.899Z</time></trkpt><trkpt lat="42.219035" lon="14.5611883"><ele>87.0</ele><time>2026-05-02T08:38:12.9Z</time></trkpt><trkpt lat="42.2190117" lon="14.5613067"><ele>87.25</ele><time>2026-05-02T08:38:14.9Z</time></trkpt><trkpt lat="42.218985" lon="14.5614583"><ele>87.5</ele><time>2026-05-02T08:38:16.9Z</time></trkpt><trkpt lat="42.218955" lon="14.5616067"><ele>87.75</ele><time>2026-05-02T08:38:18.899Z</time></trkpt><trkpt lat="42.21894" lon="14.5617667"><ele>88.0</ele><time>2026-05-02T08:38:20.9Z</time></trkpt><trkpt lat="42.2189483" lon="14.5619067"><ele>88.16666666666666</ele><time>2026-05-02T08:38:22.9Z</time></trkpt><trkpt lat="42.2189617" lon="14.5620417"><ele>88.33333333333333</ele><time>2026-05-02T08:38:24.9Z</time></trkpt><trkpt lat="42.2190017" lon="14.5621367"><ele>88.5</ele><time>2026-05-02T08:38:26.9Z</time></trkpt><trkpt lat="42.2190717" lon="14.5621367"><ele>88.66666666666667</ele><time>2026-05-02T08:38:28.9Z</time></trkpt><trkpt lat="42.21913" lon="14.5620833"><ele>88.83333333333334</ele><time>2026-05-02T08:38:30.9Z</time></trkpt><trkpt lat="42.219165" lon="14.5619633"><ele>89.0</ele><time>2026-05-02T08:38:33.9Z</time></trkpt><trkpt lat="42.2192383" lon="14.5618483"><ele>87.66666666666667</ele><time>2026-05-02T08:38:35.9Z</time></trkpt><trkpt lat="42.21932" lon="14.5617083"><ele>86.33333333333334</ele><time>2026-05-02T08:38:37.9Z</time></trkpt><trkpt lat="42.2193717" lon="14.5616417"><ele>85.0</ele><time>2026-05-02T08:38:38.9Z</time></trkpt><trkpt lat="42.2194283" lon="14.561575"><ele>83.66666666666667</ele><time>2026-05-02T08:38:39.899Z</time></trkpt><trkpt lat="42.2194833" lon="14.5615133"><ele>82.33333333333333</ele><time>2026-05-02T08:38:40.9Z</time></trkpt><trkpt lat="42.2195367" lon="14.56145"><ele>81.0</ele><time>2026-05-02T08:38:41.899Z</time></trkpt><trkpt lat="42.2196283" lon="14.5613433"><ele>81.0</ele><time>2026-05-02T08:38:43.9Z</time></trkpt><trkpt lat="42.21972" lon="14.561265"><ele>81.0</ele><time>2026-05-02T08:38:45.9Z</time></trkpt><trkpt lat="42.2198167" lon="14.5611933"><ele>81.0</ele><time>2026-05-02T08:38:47.9Z</time></trkpt><trkpt lat="42.219875" lon="14.5611583"><ele>81.0</ele><time>2026-05-02T08:38:49.899Z</time></trkpt><trkpt lat="42.21995" lon="14.561105"><ele>81.0</ele><time>2026-05-02T08:38:52.9Z</time></trkpt><trkpt lat="42.2200117" lon="14.56106"><ele>81.0</ele><time>2026-05-02T08:38:55.9Z</time></trkpt><trkpt lat="42.22007" lon="14.560995"><ele>80.33333333333333</ele><time>2026-05-02T08:38:57.899Z</time></trkpt><trkpt lat="42.2201383" lon="14.5609333"><ele>79.66666666666667</ele><time>2026-05-02T08:38:59.9Z</time></trkpt><trkpt lat="42.2202267" lon="14.5608667"><ele>79.0</ele><time>2026-05-02T08:39:01.9Z</time></trkpt><trkpt lat="42.2203017" lon="14.5608233"><ele>78.33333333333334</ele><time>2026-05-02T08:39:03.899Z</time></trkpt><trkpt lat="42.220375" lon="14.5607783"><ele>77.66666666666667</ele><time>2026-05-02T08:39:05.9Z</time></trkpt><trkpt lat="42.22044" lon="14.560725"><ele>77.0</ele><time>2026-05-02T08:39:07.899Z</time></trkpt><trkpt lat="42.22051" lon="14.5606667"><ele>77.0</ele><time>2026-05-02T08:39:09.899Z</time></trkpt><trkpt lat="42.220575" lon="14.5606117"><ele>77.0</ele><time>2026-05-02T08:39:11.9Z</time></trkpt><trkpt lat="42.2206633" lon="14.5605283"><ele>77.0</ele><time>2026-05-02T08:39:13.899Z</time></trkpt><trkpt lat="42.2207383" lon="14.5604567"><ele>77.0</ele><time>2026-05-02T08:39:15.9Z</time></trkpt><trkpt lat="42.2207817" lon="14.5603917"><ele>77.0</ele><time>2026-05-02T08:39:17.899Z</time></trkpt><trkpt lat="42.220825" lon="14.5603233"><ele>77.0</ele><time>2026-05-02T08:39:19.899Z</time></trkpt><trkpt lat="42.220885" lon="14.5602333"><ele>76.0</ele><time>2026-05-02T08:39:21.899Z</time></trkpt><trkpt lat="42.2209617" lon="14.5601333"><ele>75.0</ele><time>2026-05-02T08:39:23.899Z</time></trkpt><trkpt lat="42.221035" lon="14.560055"><ele>74.0</ele><time>2026-05-02T08:39:25.9Z</time></trkpt><trkpt lat="42.22111" lon="14.5599683"><ele>73.0</ele><time>2026-05-02T08:39:27.9Z</time></trkpt><trkpt lat="42.2211717" lon="14.55992"><ele>72.0</ele><time>2026-05-02T08:39:29.9Z</time></trkpt><trkpt lat="42.2212533" lon="14.5598633"><ele>72.0</ele><time>2026-05-02T08:39:31.9Z</time></trkpt><trkpt lat="42.2213167" lon="14.559795"><ele>72.0</ele><time>2026-05-02T08:39:33.899Z</time></trkpt><trkpt lat="42.2213733" lon="14.5597317"><ele>72.0</ele><time>2026-05-02T08:39:35.9Z</time></trkpt><trkpt lat="42.2214217" lon="14.559645"><ele>72.0</ele><time>2026-05-02T08:39:38.9Z</time></trkpt><trkpt lat="42.2214867" lon="14.5595217"><ele>72.0</ele><time>2026-05-02T08:39:43.899Z</time></trkpt><trkpt lat="42.22152" lon="14.5594483"><ele>72.0</ele><time>2026-05-02T08:39:46.899Z</time></trkpt><trkpt lat="42.22156" lon="14.5593483"><ele>71.5</ele><time>2026-05-02T08:39:50.9Z</time></trkpt><trkpt lat="42.2216033" lon="14.559215"><ele>71.0</ele><time>2026-05-02T08:39:52.9Z</time></trkpt><trkpt lat="42.22163" lon="14.559115"><ele>70.5</ele><time>2026-05-02T08:39:54.9Z</time></trkpt><trkpt lat="42.22165" lon="14.559025"><ele>70.0</ele><time>2026-05-02T08:39:56.899Z</time></trkpt><trkpt lat="42.22168" lon="14.558915"><ele>69.5</ele><time>2026-05-02T08:39:58.9Z</time></trkpt><trkpt lat="42.2216983" lon="14.5587783"><ele>69.0</ele><time>2026-05-02T08:40:01.9Z</time></trkpt><trkpt lat="42.2217133" lon="14.5586783"><ele>69.0</ele><time>2026-05-02T08:40:04.9Z</time></trkpt><trkpt lat="42.221735" lon="14.5584567"><ele>69.0</ele><time>2026-05-02T08:40:11.9Z</time></trkpt><trkpt lat="42.2217667" lon="14.5583533"><ele>69.0</ele><time>2026-05-02T08:40:13.9Z</time></trkpt><trkpt lat="42.2217717" lon="14.5582617"><ele>69.0</ele><time>2026-05-02T08:40:15.9Z</time></trkpt><trkpt lat="42.2217783" lon="14.5581733"><ele>69.0</ele><time>2026-05-02T08:40:17.899Z</time></trkpt><trkpt lat="42.2217867" lon="14.558085"><ele>69.0</ele><time>2026-05-02T08:40:19.9Z</time></trkpt><trkpt lat="42.2217717" lon="14.5579733"><ele>69.5</ele><time>2026-05-02T08:40:22.899Z</time></trkpt><trkpt lat="42.2217683" lon="14.5578083"><ele>70.0</ele><time>2026-05-02T08:40:26.899Z</time></trkpt><trkpt lat="42.2218" lon="14.5577117"><ele>70.5</ele><time>2026-05-02T08:40:29.9Z</time></trkpt><trkpt lat="42.2218067" lon="14.5575933"><ele>71.0</ele><time>2026-05-02T08:40:33.899Z</time></trkpt><trkpt lat="42.221825" lon="14.557495"><ele>71.5</ele><time>2026-05-02T08:40:36.9Z</time></trkpt><trkpt lat="42.22184" lon="14.5573917"><ele>72.0</ele><time>2026-05-02T08:40:39.899Z</time></trkpt><trkpt lat="42.22187" lon="14.557305"><ele>72.00000000000001</ele><time>2026-05-02T08:40:42.9Z</time></trkpt><trkpt lat="42.22191" lon="14.5572383"><ele>72.0</ele><time>2026-05-02T08:40:44.9Z</time></trkpt><trkpt lat="42.2219483" lon="14.55716"><ele>72.0</ele><time>2026-05-02T08:40:46.9Z</time></trkpt><trkpt lat="42.2219867" lon="14.557065"><ele>72.0</ele><time>2026-05-02T08:40:48.9Z</time></trkpt><trkpt lat="42.222035" lon="14.5569833"><ele>72.0</ele><time>2026-05-02T08:40:50.9Z</time></trkpt><trkpt lat="42.2221" lon="14.556905"><ele>72.00000000000001</ele><time>2026-05-02T08:40:53.9Z</time></trkpt><trkpt lat="42.2221533" lon="14.5568583"><ele>72.0</ele><time>2026-05-02T08:40:55.9Z</time></trkpt><trkpt lat="42.22221" lon="14.5567883"><ele>72.2</ele><time>2026-05-02T08:40:58.899Z</time></trkpt><trkpt lat="42.2222633" lon="14.55672"><ele>72.4</ele><time>2026-05-02T08:41:01.899Z</time></trkpt><trkpt lat="42.2223233" lon="14.5566317"><ele>72.6</ele><time>2026-05-02T08:41:04.9Z</time></trkpt><trkpt lat="42.2223733" lon="14.5565433"><ele>72.8</ele><time>2026-05-02T08:41:06.9Z</time></trkpt><trkpt lat="42.2224133" lon="14.5564183"><ele>73.0</ele><time>2026-05-02T08:41:08.9Z</time></trkpt><trkpt lat="42.2224467" lon="14.5562833"><ele>74.83333333333333</ele><time>2026-05-02T08:41:10.9Z</time></trkpt><trkpt lat="42.2224583" lon="14.5561983"><ele>76.66666666666666</ele><time>2026-05-02T08:41:12.9Z</time></trkpt><trkpt lat="42.2224833" lon="14.5561183"><ele>78.5</ele><time>2026-05-02T08:41:13.899Z</time></trkpt><trkpt lat="42.222535" lon="14.5559817"><ele>80.33333333333333</ele><time>2026-05-02T08:41:15.9Z</time></trkpt><trkpt lat="42.2225817" lon="14.5558983"><ele>82.16666666666667</ele><time>2026-05-02T08:41:17.9Z</time></trkpt><trkpt lat="42.2226117" lon="14.555815"><ele>84.0</ele><time>2026-05-02T08:41:19.9Z</time></trkpt><trkpt lat="42.22265" lon="14.5556967"><ele>84.0</ele><time>2026-05-02T08:41:22.9Z</time></trkpt><trkpt lat="42.2226733" lon="14.555615"><ele>84.0</ele><time>2026-05-02T08:41:24.899Z</time></trkpt><trkpt lat="42.2226883" lon="14.555495"><ele>84.0</ele><time>2026-05-02T08:41:27.9Z</time></trkpt><trkpt lat="42.222715" lon="14.5553533"><ele>84.0</ele><time>2026-05-02T08:41:29.9Z</time></trkpt><trkpt lat="42.2227133" lon="14.555245"><ele>84.0</ele><time>2026-05-02T08:41:31.9Z</time></trkpt><trkpt lat="42.222715" lon="14.5551417"><ele>84.0</ele><time>2026-05-02T08:41:33.9Z</time></trkpt><trkpt lat="42.2227117" lon="14.5549967"><ele>84.83333333333333</ele><time>2026-05-02T08:41:35.899Z</time></trkpt><trkpt lat="42.2227233" lon="14.55488"><ele>85.66666666666667</ele><time>2026-05-02T08:41:37.899Z</time></trkpt><trkpt lat="42.2227433" lon="14.55475"><ele>86.5</ele><time>2026-05-02T08:41:39.899Z</time></trkpt><trkpt lat="42.2227517" lon="14.5546583"><ele>87.33333333333334</ele><time>2026-05-02T08:41:41.9Z</time></trkpt><trkpt lat="42.22276" lon="14.5545617"><ele>88.16666666666667</ele><time>2026-05-02T08:41:44.9Z</time></trkpt><trkpt lat="42.2227817" lon="14.55448"><ele>89.0</ele><time>2026-05-02T08:41:46.899Z</time></trkpt><trkpt lat="42.2227983" lon="14.5543933"><ele>90.0</ele><time>2026-05-02T08:41:48.9Z</time></trkpt><trkpt lat="42.222815" lon="14.5543"><ele>91.0</ele><time>2026-05-02T08:41:51.9Z</time></trkpt><trkpt lat="42.2228317" lon="14.5541917"><ele>92.0</ele><time>2026-05-02T08:41:53.9Z</time></trkpt><trkpt lat="42.2228533" lon="14.5540767"><ele>93.0</ele><time>2026-05-02T08:41:55.9Z</time></trkpt><trkpt lat="42.2228783" lon="14.5538967"><ele>94.0</ele><time>2026-05-02T08:41:58.9Z</time></trkpt><trkpt lat="42.22289" lon="14.5537867"><ele>94.0</ele><time>2026-05-02T08:42:01.9Z</time></trkpt><trkpt lat="42.2229283" lon="14.5537083"><ele>94.0</ele><time>2026-05-02T08:42:03.899Z</time></trkpt><trkpt lat="42.22297" lon="14.5535967"><ele>94.0</ele><time>2026-05-02T08:42:06.9Z</time></trkpt><trkpt lat="42.2230383" lon="14.553475"><ele>94.0</ele><time>2026-05-02T08:42:08.9Z</time></trkpt><trkpt lat="42.2230833" lon="14.55339"><ele>94.0</ele><time>2026-05-02T08:42:11.899Z</time></trkpt><trkpt lat="42.2231383" lon="14.5532583"><ele>92.4</ele><time>2026-05-02T08:42:13.9Z</time></trkpt><trkpt lat="42.2231733" lon="14.5531517"><ele>90.80000000000001</ele><time>2026-05-02T08:42:15.899Z</time></trkpt><trkpt lat="42.223195" lon="14.5530467"><ele>89.19999999999999</ele><time>2026-05-02T08:42:18.899Z</time></trkpt><trkpt lat="42.22325" lon="14.5528983"><ele>87.6</ele><time>2026-05-02T08:42:21.9Z</time></trkpt><trkpt lat="42.2232933" lon="14.5528183"><ele>86.0</ele><time>2026-05-02T08:42:23.9Z</time></trkpt><trkpt lat="42.223345" lon="14.55272"><ele>86.0</ele><time>2026-05-02T08:42:26.9Z</time></trkpt><trkpt lat="42.223385" lon="14.5526533"><ele>86.0</ele><time>2026-05-02T08:42:28.9Z</time></trkpt><trkpt lat="42.22342" lon="14.5525683"><ele>86.0</ele><time>2026-05-02T08:42:29.899Z</time></trkpt><trkpt lat="42.22346" lon="14.5524967"><ele>86.0</ele><time>2026-05-02T08:42:30.899Z</time></trkpt><trkpt lat="42.2235183" lon="14.5524183"><ele>86.0</ele><time>2026-05-02T08:42:32.9Z</time></trkpt><trkpt lat="42.2235733" lon="14.5523233"><ele>86.0</ele><time>2026-05-02T08:42:34.899Z</time></trkpt><trkpt lat="42.2236233" lon="14.5522217"><ele>86.0</ele><time>2026-05-02T08:42:36.9Z</time></trkpt><trkpt lat="42.2236783" lon="14.552105"><ele>86.0</ele><time>2026-05-02T08:42:38.9Z</time></trkpt><trkpt lat="42.22372" lon="14.5520283"><ele>86.0</ele><time>2026-05-02T08:42:40.9Z</time></trkpt><trkpt lat="42.2237617" lon="14.5519367"><ele>86.0</ele><time>2026-05-02T08:42:42.899Z</time></trkpt><trkpt lat="42.2237983" lon="14.5518317"><ele>86.0</ele><time>2026-05-02T08:42:44.9Z</time></trkpt><trkpt lat="42.22382" lon="14.55175"><ele>86.0</ele><time>2026-05-02T08:42:46.899Z</time></trkpt><trkpt lat="42.22383" lon="14.5516217"><ele>87.6</ele><time>2026-05-02T08:42:47.899Z</time></trkpt><trkpt lat="42.2238483" lon="14.551445"><ele>89.19999999999999</ele><time>2026-05-02T08:42:49.899Z</time></trkpt><trkpt lat="42.22388" lon="14.5513267"><ele>90.80000000000001</ele><time>2026-05-02T08:42:50.9Z</time></trkpt><trkpt lat="42.2238983" lon="14.5512183"><ele>92.4</ele><time>2026-05-02T08:42:51.9Z</time></trkpt><trkpt lat="42.2238967" lon="14.5511183"><ele>94.0</ele><time>2026-05-02T08:42:53.899Z</time></trkpt><trkpt lat="42.2239083" lon="14.55101"><ele>95.33333333333333</ele><time>2026-05-02T08:42:55.9Z</time></trkpt><trkpt lat="42.2239467" lon="14.5509183"><ele>96.66666666666666</ele><time>2026-05-02T08:42:58.9Z</time></trkpt><trkpt lat="42.2239967" lon="14.5508433"><ele>98.0</ele><time>2026-05-02T08:43:01.9Z</time></trkpt><trkpt lat="42.2240683" lon="14.5507533"><ele>99.33333333333333</ele><time>2026-05-02T08:43:04.9Z</time></trkpt><trkpt lat="42.22412" lon="14.5506917"><ele>100.66666666666667</ele><time>2026-05-02T08:43:07.899Z</time></trkpt><trkpt lat="42.224165" lon="14.5506233"><ele>102.0</ele><time>2026-05-02T08:43:09.9Z</time></trkpt><trkpt lat="42.2242183" lon="14.5505433"><ele>100.0</ele><time>2026-05-02T08:43:12.9Z</time></trkpt><trkpt lat="42.2242667" lon="14.5504767"><ele>98.0</ele><time>2026-05-02T08:43:14.899Z</time></trkpt><trkpt lat="42.224325" lon="14.5504117"><ele>96.0</ele><time>2026-05-02T08:43:16.899Z</time></trkpt><trkpt lat="42.2244083" lon="14.55031"><ele>94.0</ele><time>2026-05-02T08:43:18.9Z</time></trkpt><trkpt lat="42.2244667" lon="14.550235"><ele>92.0</ele><time>2026-05-02T08:43:20.899Z</time></trkpt><trkpt lat="42.2245117" lon="14.550165"><ele>90.0</ele><time>2026-05-02T08:43:22.899Z</time></trkpt><trkpt lat="42.2245683" lon="14.55006"><ele>90.0</ele><time>2026-05-02T08:43:25.9Z</time></trkpt><trkpt lat="42.22462" lon="14.5499767"><ele>90.0</ele><time>2026-05-02T08:43:27.9Z</time></trkpt><trkpt lat="42.2246817" lon="14.54985"><ele>90.0</ele><time>2026-05-02T08:43:28.9Z</time></trkpt><trkpt lat="42.224725" lon="14.549775"><ele>90.0</ele><time>2026-05-02T08:43:29.9Z</time></trkpt><trkpt lat="42.224785" lon="14.5496933"><ele>90.0</ele><time>2026-05-02T08:43:30.9Z</time></trkpt><trkpt lat="42.22483" lon="14.5495967"><ele>90.0</ele><time>2026-05-02T08:43:31.899Z</time></trkpt><trkpt lat="42.2248733" lon="14.5495067"><ele>88.4</ele><time>2026-05-02T08:43:32.9Z</time></trkpt><trkpt lat="42.22493" lon="14.5493767"><ele>86.8</ele><time>2026-05-02T08:43:34.899Z</time></trkpt><trkpt lat="42.2249733" lon="14.5492467"><ele>85.19999999999999</ele><time>2026-05-02T08:43:36.9Z</time></trkpt><trkpt lat="42.2250133" lon="14.5490867"><ele>83.6</ele><time>2026-05-02T08:43:38.9Z</time></trkpt><trkpt lat="42.2250417" lon="14.5490083"><ele>82.0</ele><time>2026-05-02T08:43:39.9Z</time></trkpt><trkpt lat="42.2251" lon="14.5488817"><ele>82.0</ele><time>2026-05-02T08:43:41.9Z</time></trkpt><trkpt lat="42.2251417" lon="14.5487833"><ele>82.0</ele><time>2026-05-02T08:43:43.9Z</time></trkpt><trkpt lat="42.2251733" lon="14.5486967"><ele>82.0</ele><time>2026-05-02T08:43:45.9Z</time></trkpt><trkpt lat="42.2252183" lon="14.5485967"><ele>82.0</ele><time>2026-05-02T08:43:47.9Z</time></trkpt><trkpt lat="42.2252567" lon="14.5485267"><ele>82.0</ele><time>2026-05-02T08:43:49.9Z</time></trkpt><trkpt lat="42.2252983" lon="14.54846"><ele>82.0</ele><time>2026-05-02T08:43:50.9Z</time></trkpt><trkpt lat="42.2253633" lon="14.5482767"><ele>83.5</ele><time>2026-05-02T08:43:52.9Z</time></trkpt><trkpt lat="42.2254167" lon="14.548165"><ele>85.0</ele><time>2026-05-02T08:43:53.899Z</time></trkpt><trkpt lat="42.2254483" lon="14.548085"><ele>86.5</ele><time>2026-05-02T08:43:54.899Z</time></trkpt><trkpt lat="42.22548" lon="14.5479967"><ele>88.0</ele><time>2026-05-02T08:43:55.899Z</time></trkpt><trkpt lat="42.2255083" lon="14.5479167"><ele>89.5</ele><time>2026-05-02T08:43:56.899Z</time></trkpt><trkpt lat="42.2255367" lon="14.5478383"><ele>91.0</ele><time>2026-05-02T08:43:57.899Z</time></trkpt><trkpt lat="42.2256017" lon="14.5476783"><ele>92.33333333333333</ele><time>2026-05-02T08:43:59.899Z</time></trkpt><trkpt lat="42.22564" lon="14.547605"><ele>93.66666666666666</ele><time>2026-05-02T08:44:00.899Z</time></trkpt><trkpt lat="42.2256783" lon="14.547535"><ele>95.0</ele><time>2026-05-02T08:44:01.9Z</time></trkpt><trkpt lat="42.2257467" lon="14.547395"><ele>96.33333333333333</ele><time>2026-05-02T08:44:03.9Z</time></trkpt><trkpt lat="42.2257817" lon="14.5473183"><ele>97.66666666666667</ele><time>2026-05-02T08:44:04.9Z</time></trkpt><trkpt lat="42.22582" lon="14.5472483"><ele>99.0</ele><time>2026-05-02T08:44:05.899Z</time></trkpt><trkpt lat="42.2259033" lon="14.54714"><ele>97.33333333333333</ele><time>2026-05-02T08:44:07.9Z</time></trkpt><trkpt lat="42.225995" lon="14.5470817"><ele>95.66666666666667</ele><time>2026-05-02T08:44:09.899Z</time></trkpt><trkpt lat="42.2260667" lon="14.5470483"><ele>94.0</ele><time>2026-05-02T08:44:11.9Z</time></trkpt><trkpt lat="42.2261367" lon="14.54695"><ele>92.33333333333334</ele><time>2026-05-02T08:44:14.899Z</time></trkpt><trkpt lat="42.2261817" lon="14.54688"><ele>90.66666666666667</ele><time>2026-05-02T08:44:16.9Z</time></trkpt><trkpt lat="42.22624" lon="14.5467933"><ele>89.0</ele><time>2026-05-02T08:44:19.899Z</time></trkpt><trkpt lat="42.2262933" lon="14.5467117"><ele>89.0</ele><time>2026-05-02T08:44:22.899Z</time></trkpt><trkpt lat="42.226345" lon="14.5466517"><ele>89.0</ele><time>2026-05-02T08:44:25.899Z</time></trkpt><trkpt lat="42.2264083" lon="14.5465733"><ele>89.0</ele><time>2026-05-02T08:44:27.899Z</time></trkpt><trkpt lat="42.226585" lon="14.54637"><ele>89.0</ele><time>2026-05-02T08:44:34.899Z</time></trkpt><trkpt lat="42.2266367" lon="14.5462917"><ele>87.5</ele><time>2026-05-02T08:44:35.899Z</time></trkpt><trkpt lat="42.226685" lon="14.5462367"><ele>86.0</ele><time>2026-05-02T08:44:37.899Z</time></trkpt><trkpt lat="42.22674" lon="14.5461517"><ele>84.5</ele><time>2026-05-02T08:44:39.9Z</time></trkpt><trkpt lat="42.2267683" lon="14.54606"><ele>83.0</ele><time>2026-05-02T08:44:40.9Z</time></trkpt><trkpt lat="42.2268033" lon="14.545945"><ele>81.5</ele><time>2026-05-02T08:44:42.899Z</time></trkpt><trkpt lat="42.226815" lon="14.545855"><ele>80.0</ele><time>2026-05-02T08:44:43.9Z</time></trkpt><trkpt lat="42.2268617" lon="14.54569"><ele>80.0</ele><time>2026-05-02T08:44:45.9Z</time></trkpt><trkpt lat="42.2269267" lon="14.5455233"><ele>80.0</ele><time>2026-05-02T08:44:47.9Z</time></trkpt><trkpt lat="42.2269683" lon="14.5453967"><ele>80.0</ele><time>2026-05-02T08:44:49.9Z</time></trkpt><trkpt lat="42.2270317" lon="14.5452717"><ele>80.0</ele><time>2026-05-02T08:44:51.9Z</time></trkpt><trkpt lat="42.2271067" lon="14.5451567"><ele>79.4</ele><time>2026-05-02T08:44:53.9Z</time></trkpt><trkpt lat="42.2271667" lon="14.5450533"><ele>78.8</ele><time>2026-05-02T08:44:55.9Z</time></trkpt><trkpt lat="42.2272117" lon="14.5449817"><ele>78.2</ele><time>2026-05-02T08:44:57.9Z</time></trkpt><trkpt lat="42.2272417" lon="14.5448283"><ele>77.6</ele><time>2026-05-02T08:44:59.899Z</time></trkpt><trkpt lat="42.2273" lon="14.544735"><ele>77.0</ele><time>2026-05-02T08:45:01.9Z</time></trkpt><trkpt lat="42.2273733" lon="14.5446517"><ele>77.0</ele><time>2026-05-02T08:45:03.9Z</time></trkpt><trkpt lat="42.227425" lon="14.5445867"><ele>77.0</ele><time>2026-05-02T08:45:05.9Z</time></trkpt><trkpt lat="42.227475" lon="14.5445317"><ele>77.0</ele><time>2026-05-02T08:45:07.899Z</time></trkpt><trkpt lat="42.227565" lon="14.54445"><ele>77.0</ele><time>2026-05-02T08:45:10.899Z</time></trkpt><trkpt lat="42.227625" lon="14.5443783"><ele>77.0</ele><time>2026-05-02T08:45:12.899Z</time></trkpt><trkpt lat="42.2276767" lon="14.544305"><ele>77.0</ele><time>2026-05-02T08:45:14.899Z</time></trkpt><trkpt lat="42.2277433" lon="14.5442383"><ele>78.0</ele><time>2026-05-02T08:45:16.899Z</time></trkpt><trkpt lat="42.227795" lon="14.54418"><ele>79.0</ele><time>2026-05-02T08:45:17.9Z</time></trkpt><trkpt lat="42.2278667" lon="14.54416"><ele>80.0</ele><time>2026-05-02T08:45:19.9Z</time></trkpt><trkpt lat="42.2279333" lon="14.544185"><ele>81.0</ele><time>2026-05-02T08:45:24.9Z</time></trkpt><trkpt lat="42.228005" lon="14.5442467"><ele>82.0</ele><time>2026-05-02T08:45:27.9Z</time></trkpt><trkpt lat="42.2280333" lon="14.5443283"><ele>83.0</ele><time>2026-05-02T08:45:29.899Z</time></trkpt><trkpt lat="42.228075" lon="14.5444017"><ele>84.0</ele><time>2026-05-02T08:45:32.9Z</time></trkpt><trkpt lat="42.2280983" lon="14.5445017"><ele>82.83333333333333</ele><time>2026-05-02T08:45:36.899Z</time></trkpt><trkpt lat="42.2281067" lon="14.544655"><ele>81.66666666666667</ele><time>2026-05-02T08:45:39.899Z</time></trkpt><trkpt lat="42.22811" lon="14.54475"><ele>80.5</ele><time>2026-05-02T08:45:41.9Z</time></trkpt><trkpt lat="42.2281417" lon="14.5448283"><ele>79.33333333333334</ele><time>2026-05-02T08:45:43.899Z</time></trkpt><trkpt lat="42.2281767" lon="14.5449"><ele>78.16666666666667</ele><time>2026-05-02T08:45:45.9Z</time></trkpt><trkpt lat="42.2282267" lon="14.54497"><ele>77.0</ele><time>2026-05-02T08:45:47.9Z</time></trkpt><trkpt lat="42.2282767" lon="14.54505"><ele>75.71428571428571</ele><time>2026-05-02T08:45:49.899Z</time></trkpt><trkpt lat="42.2283433" lon="14.5451167"><ele>74.42857142857143</ele><time>2026-05-02T08:45:52.9Z</time></trkpt><trkpt lat="42.2284033" lon="14.545185"><ele>73.14285714285714</ele><time>2026-05-02T08:45:54.9Z</time></trkpt><trkpt lat="42.2284683" lon="14.54524"><ele>71.85714285714286</ele><time>2026-05-02T08:45:56.899Z</time></trkpt><trkpt lat="42.2285333" lon="14.54528"><ele>70.57142857142857</ele><time>2026-05-02T08:45:58.9Z</time></trkpt><trkpt lat="42.2285933" lon="14.54531"><ele>69.28571428571428</ele><time>2026-05-02T08:46:00.899Z</time></trkpt><trkpt lat="42.228665" lon="14.545325"><ele>68.0</ele><time>2026-05-02T08:46:02.9Z</time></trkpt><trkpt lat="42.2287417" lon="14.5453333"><ele>66.85714285714285</ele><time>2026-05-02T08:46:05.899Z</time></trkpt><trkpt lat="42.228805" lon="14.5453867"><ele>65.71428571428571</ele><time>2026-05-02T08:46:10.9Z</time></trkpt><trkpt lat="42.22885" lon="14.5454667"><ele>64.57142857142857</ele><time>2026-05-02T08:46:14.899Z</time></trkpt><trkpt lat="42.228915" lon="14.54552"><ele>63.42857142857142</ele><time>2026-05-02T08:46:17.899Z</time></trkpt><trkpt lat="42.228975" lon="14.5455517"><ele>62.28571428571428</ele><time>2026-05-02T08:46:19.9Z</time></trkpt><trkpt lat="42.2290367" lon="14.5455767"><ele>61.142857142857146</ele><time>2026-05-02T08:46:21.9Z</time></trkpt><trkpt lat="42.2291033" lon="14.54562"><ele>60.0</ele><time>2026-05-02T08:46:24.9Z</time></trkpt><trkpt lat="42.2291617" lon="14.545675"><ele>58.42857142857143</ele><time>2026-05-02T08:46:26.9Z</time></trkpt><trkpt lat="42.2292017" lon="14.545745"><ele>56.857142857142854</ele><time>2026-05-02T08:46:28.899Z</time></trkpt><trkpt lat="42.2292433" lon="14.545825"><ele>55.285714285714285</ele><time>2026-05-02T08:46:30.9Z</time></trkpt><trkpt lat="42.2292883" lon="14.545915"><ele>53.714285714285715</ele><time>2026-05-02T08:46:33.9Z</time></trkpt><trkpt lat="42.2293" lon="14.546015"><ele>52.14285714285714</ele><time>2026-05-02T08:46:37.9Z</time></trkpt><trkpt lat="42.2292983" lon="14.546105"><ele>50.57142857142857</ele><time>2026-05-02T08:46:41.899Z</time></trkpt><trkpt lat="42.2292933" lon="14.5461933"><ele>49.0</ele><time>2026-05-02T08:46:46.9Z</time></trkpt><trkpt lat="42.229255" lon="14.5462633"><ele>49.49999999999999</ele><time>2026-05-02T08:46:50.9Z</time></trkpt><trkpt lat="42.2291883" lon="14.5464283"><ele>50.0</ele><time>2026-05-02T08:47:00.899Z</time></trkpt><trkpt lat="42.2291433" lon="14.5464883"><ele>50.5</ele><time>2026-05-02T08:47:03.899Z</time></trkpt><trkpt lat="42.2290783" lon="14.5465633"><ele>51.0</ele><time>2026-05-02T08:47:06.9Z</time></trkpt><trkpt lat="42.2290317" lon="14.5466333"><ele>51.49999999999999</ele><time>2026-05-02T08:47:09.899Z</time></trkpt><trkpt lat="42.2289983" lon="14.5467267"><ele>52.0</ele><time>2026-05-02T08:47:12.9Z</time></trkpt><trkpt lat="42.228955" lon="14.5468117"><ele>51.99999999999999</ele><time>2026-05-02T08:47:15.9Z</time></trkpt><trkpt lat="42.2289233" lon="14.5468883"><ele>52.0</ele><time>2026-05-02T08:47:18.899Z</time></trkpt><trkpt lat="42.2288683" lon="14.54708"><ele>52.0</ele><time>2026-05-02T08:47:27.899Z</time></trkpt><trkpt lat="42.2288333" lon="14.547155"><ele>52.0</ele><time>2026-05-02T08:47:30.899Z</time></trkpt><trkpt lat="42.2287983" lon="14.5472633"><ele>51.99999999999999</ele><time>2026-05-02T08:47:34.899Z</time></trkpt><trkpt lat="42.228765" lon="14.54736"><ele>52.0</ele><time>2026-05-02T08:47:37.899Z</time></trkpt><trkpt lat="42.2287333" lon="14.5474517"><ele>51.166666666666664</ele><time>2026-05-02T08:48:11.899Z</time></trkpt><trkpt lat="42.2286917" lon="14.5475733"><ele>50.33333333333333</ele><time>2026-05-02T08:48:12.9Z</time></trkpt><trkpt lat="42.2286467" lon="14.5476333"><ele>49.5</ele><time>2026-05-02T08:48:16.9Z</time></trkpt><trkpt lat="42.2285983" lon="14.5477"><ele>48.666666666666664</ele><time>2026-05-02T08:48:19.899Z</time></trkpt><trkpt lat="42.22856" lon="14.54777"><ele>47.83333333333333</ele><time>2026-05-02T08:48:22.9Z</time></trkpt><trkpt lat="42.2285183" lon="14.5478483"><ele>47.0</ele><time>2026-05-02T08:48:26.9Z</time></trkpt><trkpt lat="42.2284767" lon="14.5479533"><ele>46.166666666666664</ele><time>2026-05-02T08:48:30.899Z</time></trkpt><trkpt lat="42.2284183" lon="14.5480533"><ele>45.33333333333333</ele><time>2026-05-02T08:48:33.9Z</time></trkpt><trkpt lat="42.228385" lon="14.5481267"><ele>44.5</ele><time>2026-05-02T08:48:35.9Z</time></trkpt><trkpt lat="42.2283467" lon="14.5482233"><ele>43.666666666666664</ele><time>2026-05-02T08:48:37.9Z</time></trkpt><trkpt lat="42.228315" lon="14.5483333"><ele>42.833333333333336</ele><time>2026-05-02T08:48:39.9Z</time></trkpt><trkpt lat="42.2282767" lon="14.5484667"><ele>42.0</ele><time>2026-05-02T08:48:41.899Z</time></trkpt><trkpt lat="42.22823" lon="14.548605"><ele>42.0</ele><time>2026-05-02T08:48:43.899Z</time></trkpt><trkpt lat="42.228195" lon="14.548705"><ele>42.0</ele><time>2026-05-02T08:48:45.9Z</time></trkpt><trkpt lat="42.22817" lon="14.5488217"><ele>42.0</ele><time>2026-05-02T08:48:48.9Z</time></trkpt><trkpt lat="42.2281417" lon="14.5489017"><ele>42.0</ele><time>2026-05-02T08:48:50.9Z</time></trkpt><trkpt lat="42.2280883" lon="14.5490133"><ele>42.0</ele><time>2026-05-02T08:48:53.899Z</time></trkpt><trkpt lat="42.2280567" lon="14.5491233"><ele>42.0</ele><time>2026-05-02T08:48:56.9Z</time></trkpt><trkpt lat="42.2280183" lon="14.5492217"><ele>43.166666666666664</ele><time>2026-05-02T08:48:59.899Z</time></trkpt><trkpt lat="42.22799" lon="14.5493"><ele>44.33333333333333</ele><time>2026-05-02T08:49:01.9Z</time></trkpt><trkpt lat="42.2279417" lon="14.5494167"><ele>45.5</ele><time>2026-05-02T08:49:04.9Z</time></trkpt><trkpt lat="42.22791" lon="14.5495017"><ele>46.666666666666664</ele><time>2026-05-02T08:49:06.9Z</time></trkpt><trkpt lat="42.2278667" lon="14.5495833"><ele>47.83333333333333</ele><time>2026-05-02T08:49:09.9Z</time></trkpt><trkpt lat="42.22782" lon="14.5496633"><ele>49.0</ele><time>2026-05-02T08:49:12.899Z</time></trkpt><trkpt lat="42.22776" lon="14.5497717"><ele>48.99999999999999</ele><time>2026-05-02T08:49:23.9Z</time></trkpt><trkpt lat="42.22779" lon="14.5498817"><ele>49.0</ele><time>2026-05-02T08:49:51.899Z</time></trkpt><trkpt lat="42.2277233" lon="14.54997"><ele>49.0</ele><time>2026-05-02T08:50:25.9Z</time></trkpt><trkpt lat="42.2277783" lon="14.5500767"><ele>49.0</ele><time>2026-05-02T08:50:33.9Z</time></trkpt><trkpt lat="42.2278083" lon="14.5501583"><ele>48.99999999999999</ele><time>2026-05-02T08:50:35.899Z</time></trkpt><trkpt lat="42.2278417" lon="14.5502383"><ele>49.0</ele><time>2026-05-02T08:50:37.9Z</time></trkpt><trkpt lat="42.2278633" lon="14.5503233"><ele>48.33333333333333</ele><time>2026-05-02T08:50:39.899Z</time></trkpt><trkpt lat="42.2278717" lon="14.5504267"><ele>47.666666666666664</ele><time>2026-05-02T08:50:42.9Z</time></trkpt><trkpt lat="42.2278783" lon="14.5505467"><ele>47.0</ele><time>2026-05-02T08:50:45.899Z</time></trkpt><trkpt lat="42.22789" lon="14.550635"><ele>46.33333333333333</ele><time>2026-05-02T08:50:47.9Z</time></trkpt><trkpt lat="42.2279117" lon="14.550735"><ele>45.666666666666664</ele><time>2026-05-02T08:50:50.899Z</time></trkpt><trkpt lat="42.2279017" lon="14.5508517"><ele>45.0</ele><time>2026-05-02T08:50:54.9Z</time></trkpt><trkpt lat="42.2278833" lon="14.55097"><ele>45.0</ele><time>2026-05-02T08:50:57.899Z</time></trkpt><trkpt lat="42.22786" lon="14.551055"><ele>45.0</ele><time>2026-05-02T08:50:59.899Z</time></trkpt><trkpt lat="42.227805" lon="14.55115"><ele>45.0</ele><time>2026-05-02T08:51:02.899Z</time></trkpt><trkpt lat="42.2277617" lon="14.5512217"><ele>45.0</ele><time>2026-05-02T08:51:04.9Z</time></trkpt><trkpt lat="42.2277017" lon="14.551295"><ele>45.0</ele><time>2026-05-02T08:51:07.899Z</time></trkpt><trkpt lat="42.2276367" lon="14.55133"><ele>45.0</ele><time>2026-05-02T08:51:10.9Z</time></trkpt><trkpt lat="42.2275733" lon="14.55136"><ele>45.0</ele><time>2026-05-02T08:51:14.9Z</time></trkpt><trkpt lat="42.2275017" lon="14.5514017"><ele>43.5</ele><time>2026-05-02T08:51:17.9Z</time></trkpt><trkpt lat="42.2274267" lon="14.5514683"><ele>42.0</ele><time>2026-05-02T08:51:23.9Z</time></trkpt><trkpt lat="42.2273667" lon="14.551525"><ele>40.5</ele><time>2026-05-02T08:51:26.899Z</time></trkpt><trkpt lat="42.2273117" lon="14.5515817"><ele>39.0</ele><time>2026-05-02T08:51:29.9Z</time></trkpt><trkpt lat="42.2272617" lon="14.5516633"><ele>37.5</ele><time>2026-05-02T08:51:32.9Z</time></trkpt><trkpt lat="42.2272183" lon="14.55173"><ele>36.0</ele><time>2026-05-02T08:51:34.899Z</time></trkpt><trkpt lat="42.2271567" lon="14.5518233"><ele>37.5</ele><time>2026-05-02T08:51:37.899Z</time></trkpt><trkpt lat="42.22711" lon="14.5519017"><ele>39.0</ele><time>2026-05-02T08:51:39.899Z</time></trkpt><trkpt lat="42.2270517" lon="14.552"><ele>40.5</ele><time>2026-05-02T08:51:42.9Z</time></trkpt><trkpt lat="42.227005" lon="14.5520683"><ele>42.0</ele><time>2026-05-02T08:51:44.9Z</time></trkpt><trkpt lat="42.22695" lon="14.5521317"><ele>43.5</ele><time>2026-05-02T08:51:46.9Z</time></trkpt><trkpt lat="42.2269033" lon="14.552195"><ele>45.0</ele><time>2026-05-02T08:51:48.9Z</time></trkpt><trkpt lat="42.22685" lon="14.5522767"><ele>45.0</ele><time>2026-05-02T08:51:51.9Z</time></trkpt><trkpt lat="42.2267933" lon="14.5523433"><ele>45.0</ele><time>2026-05-02T08:51:54.9Z</time></trkpt><trkpt lat="42.2267217" lon="14.5524117"><ele>45.0</ele><time>2026-05-02T08:51:57.9Z</time></trkpt><trkpt lat="42.2266383" lon="14.5524633"><ele>45.0</ele><time>2026-05-02T08:52:00.899Z</time></trkpt><trkpt lat="42.226425" lon="14.5526267"><ele>46.75</ele><time>2026-05-02T08:52:13.9Z</time></trkpt><trkpt lat="42.226355" lon="14.552665"><ele>48.5</ele><time>2026-05-02T08:52:15.9Z</time></trkpt><trkpt lat="42.226175" lon="14.5528033"><ele>50.25</ele><time>2026-05-02T08:52:24.899Z</time></trkpt><trkpt lat="42.2260817" lon="14.5528883"><ele>52.0</ele><time>2026-05-02T08:52:26.9Z</time></trkpt><trkpt lat="42.2259983" lon="14.5529667"><ele>51.99999999999999</ele><time>2026-05-02T08:52:28.9Z</time></trkpt><trkpt lat="42.2259267" lon="14.5530383"><ele>52.0</ele><time>2026-05-02T08:52:30.899Z</time></trkpt><trkpt lat="42.2258683" lon="14.5531033"><ele>52.0</ele><time>2026-05-02T08:52:32.9Z</time></trkpt><trkpt lat="42.2258217" lon="14.5531633"><ele>52.0</ele><time>2026-05-02T08:52:34.9Z</time></trkpt><trkpt lat="42.2257633" lon="14.553245"><ele>51.99999999999999</ele><time>2026-05-02T08:52:37.9Z</time></trkpt><trkpt lat="42.22571" lon="14.553325"><ele>52.0</ele><time>2026-05-02T08:52:40.9Z</time></trkpt><trkpt lat="42.22565" lon="14.55339"><ele>53.33333333333333</ele><time>2026-05-02T08:52:43.9Z</time></trkpt><trkpt lat="42.2255717" lon="14.55346"><ele>54.666666666666664</ele><time>2026-05-02T08:52:46.9Z</time></trkpt><trkpt lat="42.2255083" lon="14.5535117"><ele>56.0</ele><time>2026-05-02T08:52:48.9Z</time></trkpt><trkpt lat="42.225465" lon="14.55358"><ele>57.33333333333333</ele><time>2026-05-02T08:52:50.899Z</time></trkpt><trkpt lat="42.2254067" lon="14.5536333"><ele>58.666666666666664</ele><time>2026-05-02T08:52:52.899Z</time></trkpt><trkpt lat="42.2253467" lon="14.5537017"><ele>60.0</ele><time>2026-05-02T08:52:55.9Z</time></trkpt><trkpt lat="42.2252767" lon="14.55379"><ele>60.0</ele><time>2026-05-02T08:52:58.899Z</time></trkpt><trkpt lat="42.225225" lon="14.5538433"><ele>60.0</ele><time>2026-05-02T08:53:00.9Z</time></trkpt><trkpt lat="42.2251617" lon="14.5539083"><ele>60.0</ele><time>2026-05-02T08:53:02.899Z</time></trkpt><trkpt lat="42.225105" lon="14.5539817"><ele>60.0</ele><time>2026-05-02T08:53:04.9Z</time></trkpt><trkpt lat="42.2250617" lon="14.554045"><ele>60.0</ele><time>2026-05-02T08:53:06.899Z</time></trkpt><trkpt lat="42.2250033" lon="14.5541383"><ele>60.0</ele><time>2026-05-02T08:53:09.899Z</time></trkpt><trkpt lat="42.2249583" lon="14.5542"><ele>60.0</ele><time>2026-05-02T08:53:11.9Z</time></trkpt><trkpt lat="42.2249167" lon="14.5542667"><ele>60.0</ele><time>2026-05-02T08:53:13.9Z</time></trkpt><trkpt lat="42.2248767" lon="14.5543417"><ele>60.0</ele><time>2026-05-02T08:53:15.9Z</time></trkpt><trkpt lat="42.2248333" lon="14.5544067"><ele>60.0</ele><time>2026-05-02T08:53:17.899Z</time></trkpt><trkpt lat="42.22477" lon="14.5544717"><ele>60.0</ele><time>2026-05-02T08:53:19.9Z</time></trkpt><trkpt lat="42.22472" lon="14.5545367"><ele>60.0</ele><time>2026-05-02T08:53:21.899Z</time></trkpt><trkpt lat="42.22466" lon="14.5546017"><ele>60.0</ele><time>2026-05-02T08:53:23.9Z</time></trkpt><trkpt lat="42.2245833" lon="14.5546783"><ele>60.333333333333336</ele><time>2026-05-02T08:53:25.899Z</time></trkpt><trkpt lat="42.2245267" lon="14.5547617"><ele>60.66666666666667</ele><time>2026-05-02T08:53:27.9Z</time></trkpt><trkpt lat="42.224475" lon="14.55487"><ele>61.0</ele><time>2026-05-02T08:53:29.9Z</time></trkpt><trkpt lat="42.2244183" lon="14.554955"><ele>61.333333333333336</ele><time>2026-05-02T08:53:31.9Z</time></trkpt><trkpt lat="42.224355" lon="14.5550133"><ele>61.66666666666667</ele><time>2026-05-02T08:53:33.899Z</time></trkpt><trkpt lat="42.2242917" lon="14.5550683"><ele>62.0</ele><time>2026-05-02T08:53:35.899Z</time></trkpt><trkpt lat="42.2242383" lon="14.55512"><ele>62.00000000000001</ele><time>2026-05-02T08:53:37.899Z</time></trkpt><trkpt lat="42.2241667" lon="14.5551617"><ele>62.0</ele><time>2026-05-02T08:53:39.9Z</time></trkpt><trkpt lat="42.224095" lon="14.5552017"><ele>62.0</ele><time>2026-05-02T08:53:41.9Z</time></trkpt><trkpt lat="42.224025" lon="14.5552633"><ele>62.0</ele><time>2026-05-02T08:53:43.9Z</time></trkpt><trkpt lat="42.223945" lon="14.5553267"><ele>62.00000000000001</ele><time>2026-05-02T08:53:45.899Z</time></trkpt><trkpt lat="42.223875" lon="14.555385"><ele>62.0</ele><time>2026-05-02T08:53:47.899Z</time></trkpt><trkpt lat="42.2238167" lon="14.55543"><ele>63.2</ele><time>2026-05-02T08:53:49.899Z</time></trkpt><trkpt lat="42.2237533" lon="14.5555017"><ele>64.4</ele><time>2026-05-02T08:53:52.9Z</time></trkpt><trkpt lat="42.2237" lon="14.55557"><ele>65.6</ele><time>2026-05-02T08:53:55.9Z</time></trkpt><trkpt lat="42.2235683" lon="14.5557"><ele>66.8</ele><time>2026-05-02T08:54:01.899Z</time></trkpt><trkpt lat="42.2235333" lon="14.5557883"><ele>68.0</ele><time>2026-05-02T08:54:09.899Z</time></trkpt><trkpt lat="42.2235267" lon="14.555895"><ele>68.0</ele><time>2026-05-02T08:54:12.9Z</time></trkpt><trkpt lat="42.22353" lon="14.55601"><ele>68.0</ele><time>2026-05-02T08:54:15.9Z</time></trkpt><trkpt lat="42.22351" lon="14.5561133"><ele>68.0</ele><time>2026-05-02T08:54:18.899Z</time></trkpt><trkpt lat="42.22345" lon="14.5563283"><ele>68.0</ele><time>2026-05-02T08:54:28.9Z</time></trkpt><trkpt lat="42.223415" lon="14.5564383"><ele>68.0</ele><time>2026-05-02T08:54:30.9Z</time></trkpt><trkpt lat="42.2234083" lon="14.55653"><ele>66.5</ele><time>2026-05-02T08:54:32.899Z</time></trkpt><trkpt lat="42.2234067" lon="14.556625"><ele>65.0</ele><time>2026-05-02T08:54:34.9Z</time></trkpt><trkpt lat="42.22342" lon="14.5567183"><ele>63.5</ele><time>2026-05-02T08:54:36.9Z</time></trkpt><trkpt lat="42.2234183" lon="14.5568083"><ele>62.0</ele><time>2026-05-02T08:54:38.9Z</time></trkpt><trkpt lat="42.223405" lon="14.5569267"><ele>60.50000000000001</ele><time>2026-05-02T08:54:40.9Z</time></trkpt><trkpt lat="42.223395" lon="14.557055"><ele>59.0</ele><time>2026-05-02T08:54:42.899Z</time></trkpt><trkpt lat="42.2233767" lon="14.557165"><ele>60.00000000000001</ele><time>2026-05-02T08:54:44.9Z</time></trkpt><trkpt lat="42.2233517" lon="14.5572833"><ele>61.0</ele><time>2026-05-02T08:54:47.9Z</time></trkpt><trkpt lat="42.2233133" lon="14.5573783"><ele>62.0</ele><time>2026-05-02T08:54:50.899Z</time></trkpt><trkpt lat="42.2233" lon="14.5574733"><ele>63.0</ele><time>2026-05-02T08:54:53.9Z</time></trkpt><trkpt lat="42.2232733" lon="14.5576133"><ele>64.0</ele><time>2026-05-02T08:55:00.9Z</time></trkpt><trkpt lat="42.2232067" lon="14.5576917"><ele>65.0</ele><time>2026-05-02T08:55:09.9Z</time></trkpt><trkpt lat="42.223135" lon="14.5577117"><ele>65.0</ele><time>2026-05-02T08:55:12.9Z</time></trkpt><trkpt lat="42.2230217" lon="14.55776"><ele>65.0</ele><time>2026-05-02T08:55:16.899Z</time></trkpt><trkpt lat="42.2229533" lon="14.5577833"><ele>65.0</ele><time>2026-05-02T08:55:18.899Z</time></trkpt><trkpt lat="42.22287" lon="14.5578117"><ele>65.0</ele><time>2026-05-02T08:55:21.9Z</time></trkpt><trkpt lat="42.22281" lon="14.55784"><ele>65.0</ele><time>2026-05-02T08:55:23.9Z</time></trkpt><trkpt lat="42.2227483" lon="14.55789"><ele>65.0</ele><time>2026-05-02T08:55:25.899Z</time></trkpt><trkpt lat="42.222685" lon="14.5579417"><ele>65.66666666666667</ele><time>2026-05-02T08:55:27.899Z</time></trkpt><trkpt lat="42.2226267" lon="14.5580083"><ele>66.33333333333334</ele><time>2026-05-02T08:55:29.899Z</time></trkpt><trkpt lat="42.2225683" lon="14.5580667"><ele>67.0</ele><time>2026-05-02T08:55:31.9Z</time></trkpt><trkpt lat="42.22251" lon="14.5581317"><ele>67.66666666666667</ele><time>2026-05-02T08:55:33.9Z</time></trkpt><trkpt lat="42.2224383" lon="14.5582133"><ele>68.33333333333333</ele><time>2026-05-02T08:55:36.899Z</time></trkpt><trkpt lat="42.2223833" lon="14.5582617"><ele>69.0</ele><time>2026-05-02T08:55:38.9Z</time></trkpt><trkpt lat="42.2223033" lon="14.5583167"><ele>69.0</ele><time>2026-05-02T08:55:41.9Z</time></trkpt><trkpt lat="42.222235" lon="14.55837"><ele>69.0</ele><time>2026-05-02T08:55:43.9Z</time></trkpt><trkpt lat="42.222185" lon="14.55843"><ele>69.0</ele><time>2026-05-02T08:55:45.899Z</time></trkpt><trkpt lat="42.2221333" lon="14.5584833"><ele>69.0</ele><time>2026-05-02T08:55:47.899Z</time></trkpt><trkpt lat="42.2220667" lon="14.5585533"><ele>69.0</ele><time>2026-05-02T08:55:49.9Z</time></trkpt><trkpt lat="42.2220017" lon="14.5586333"><ele>69.0</ele><time>2026-05-02T08:55:51.9Z</time></trkpt><trkpt lat="42.2219333" lon="14.5587117"><ele>68.83333333333333</ele><time>2026-05-02T08:55:53.9Z</time></trkpt><trkpt lat="42.2218617" lon="14.5587967"><ele>68.66666666666667</ele><time>2026-05-02T08:55:55.899Z</time></trkpt><trkpt lat="42.2218" lon="14.5588717"><ele>68.5</ele><time>2026-05-02T08:55:57.9Z</time></trkpt><trkpt lat="42.221735" lon="14.5589483"><ele>68.33333333333334</ele><time>2026-05-02T08:55:59.9Z</time></trkpt><trkpt lat="42.2216917" lon="14.55902"><ele>68.16666666666667</ele><time>2026-05-02T08:56:01.9Z</time></trkpt><trkpt lat="42.2216283" lon="14.5590933"><ele>68.0</ele><time>2026-05-02T08:56:04.899Z</time></trkpt><trkpt lat="42.2215383" lon="14.55925"><ele>68.0</ele><time>2026-05-02T08:56:17.9Z</time></trkpt><trkpt lat="42.221505" lon="14.5593283"><ele>68.0</ele><time>2026-05-02T08:56:19.9Z</time></trkpt><trkpt lat="42.2214883" lon="14.559435"><ele>68.0</ele><time>2026-05-02T08:56:22.9Z</time></trkpt><trkpt lat="42.2214733" lon="14.5595267"><ele>68.0</ele><time>2026-05-02T08:56:25.899Z</time></trkpt><trkpt lat="42.2214467" lon="14.5596083"><ele>68.0</ele><time>2026-05-02T08:56:27.9Z</time></trkpt><trkpt lat="42.2214217" lon="14.5597133"><ele>68.0</ele><time>2026-05-02T08:56:29.9Z</time></trkpt><trkpt lat="42.2213833" lon="14.5598383"><ele>67.4</ele><time>2026-05-02T08:56:31.9Z</time></trkpt><trkpt lat="42.2213533" lon="14.5599633"><ele>66.8</ele><time>2026-05-02T08:56:33.899Z</time></trkpt><trkpt lat="42.22132" lon="14.5600633"><ele>66.2</ele><time>2026-05-02T08:56:35.9Z</time></trkpt><trkpt lat="42.2212717" lon="14.5601783"><ele>65.6</ele><time>2026-05-02T08:56:37.9Z</time></trkpt><trkpt lat="42.2212167" lon="14.5603067"><ele>65.0</ele><time>2026-05-02T08:56:39.899Z</time></trkpt><trkpt lat="42.2211533" lon="14.560425"><ele>65.0</ele><time>2026-05-02T08:56:41.9Z</time></trkpt><trkpt lat="42.22109" lon="14.560545"><ele>65.0</ele><time>2026-05-02T08:56:43.9Z</time></trkpt><trkpt lat="42.2210367" lon="14.56068"><ele>65.0</ele><time>2026-05-02T08:56:45.9Z</time></trkpt><trkpt lat="42.2209883" lon="14.5607967"><ele>65.0</ele><time>2026-05-02T08:56:47.9Z</time></trkpt><trkpt lat="42.2209533" lon="14.5609083"><ele>65.0</ele><time>2026-05-02T08:56:49.9Z</time></trkpt><trkpt lat="42.2209217" lon="14.561015"><ele>65.0</ele><time>2026-05-02T08:56:51.9Z</time></trkpt><trkpt lat="42.22087" lon="14.5610933"><ele>65.0</ele><time>2026-05-02T08:56:53.899Z</time></trkpt><trkpt lat="42.2208333" lon="14.5612367"><ele>65.0</ele><time>2026-05-02T08:56:55.899Z</time></trkpt><trkpt lat="42.2208" lon="14.5613617"><ele>65.0</ele><time>2026-05-02T08:56:57.9Z</time></trkpt><trkpt lat="42.2207983" lon="14.5614583"><ele>65.0</ele><time>2026-05-02T08:56:58.9Z</time></trkpt><trkpt lat="42.2208067" lon="14.5615617"><ele>65.0</ele><time>2026-05-02T08:56:59.899Z</time></trkpt><trkpt lat="42.2207617" lon="14.5616283"><ele>64.83333333333334</ele><time>2026-05-02T08:57:01.9Z</time></trkpt><trkpt lat="42.2207267" lon="14.5617167"><ele>64.66666666666667</ele><time>2026-05-02T08:57:03.9Z</time></trkpt><trkpt lat="42.2206867" lon="14.5617933"><ele>64.5</ele><time>2026-05-02T08:57:05.9Z</time></trkpt><trkpt lat="42.2206567" lon="14.5619033"><ele>64.33333333333333</ele><time>2026-05-02T08:57:07.9Z</time></trkpt><trkpt lat="42.220615" lon="14.5619933"><ele>64.16666666666666</ele><time>2026-05-02T08:57:09.9Z</time></trkpt><trkpt lat="42.220555" lon="14.5621"><ele>64.0</ele><time>2026-05-02T08:57:11.899Z</time></trkpt><trkpt lat="42.220495" lon="14.56221"><ele>64.0</ele><time>2026-05-02T08:57:13.9Z</time></trkpt><trkpt lat="42.2204267" lon="14.5623467"><ele>64.0</ele><time>2026-05-02T08:57:15.899Z</time></trkpt><trkpt lat="42.2203717" lon="14.5624667"><ele>64.0</ele><time>2026-05-02T08:57:17.899Z</time></trkpt><trkpt lat="42.2203133" lon="14.56259"><ele>64.0</ele><time>2026-05-02T08:57:19.9Z</time></trkpt><trkpt lat="42.2202583" lon="14.5627117"><ele>64.0</ele><time>2026-05-02T08:57:21.9Z</time></trkpt><trkpt lat="42.220215" lon="14.5628183"><ele>63.400000000000006</ele><time>2026-05-02T08:57:23.899Z</time></trkpt><trkpt lat="42.2201683" lon="14.5629183"><ele>62.800000000000004</ele><time>2026-05-02T08:57:25.9Z</time></trkpt><trkpt lat="42.22011" lon="14.5630217"><ele>62.199999999999996</ele><time>2026-05-02T08:57:27.9Z</time></trkpt><trkpt lat="42.2200617" lon="14.5631233"><ele>61.599999999999994</ele><time>2026-05-02T08:57:29.899Z</time></trkpt><trkpt lat="42.2200217" lon="14.563245"><ele>61.0</ele><time>2026-05-02T08:57:31.9Z</time></trkpt><trkpt lat="42.2199817" lon="14.5633667"><ele>61.0</ele><time>2026-05-02T08:57:33.9Z</time></trkpt><trkpt lat="42.2199583" lon="14.5634467"><ele>60.99999999999999</ele><time>2026-05-02T08:57:34.899Z</time></trkpt><trkpt lat="42.2199233" lon="14.5635983"><ele>60.99999999999999</ele><time>2026-05-02T08:57:36.9Z</time></trkpt><trkpt lat="42.219885" lon="14.5637133"><ele>61.0</ele><time>2026-05-02T08:57:38.899Z</time></trkpt><trkpt lat="42.21985" lon="14.5638383"><ele>61.0</ele><time>2026-05-02T08:57:40.899Z</time></trkpt><trkpt lat="42.2198083" lon="14.5639883"><ele>61.428571428571416</ele><time>2026-05-02T08:57:42.9Z</time></trkpt><trkpt lat="42.2197817" lon="14.5640667"><ele>61.857142857142854</ele><time>2026-05-02T08:57:43.9Z</time></trkpt><trkpt lat="42.21976" lon="14.5641617"><ele>62.28571428571428</ele><time>2026-05-02T08:57:44.9Z</time></trkpt><trkpt lat="42.219735" lon="14.56426"><ele>62.71428571428571</ele><time>2026-05-02T08:57:45.9Z</time></trkpt><trkpt lat="42.2197067" lon="14.5643483"><ele>63.14285714285714</ele><time>2026-05-02T08:57:46.9Z</time></trkpt><trkpt lat="42.21968" lon="14.564435"><ele>63.57142857142857</ele><time>2026-05-02T08:57:47.899Z</time></trkpt><trkpt lat="42.21965" lon="14.56451"><ele>64.0</ele><time>2026-05-02T08:57:48.9Z</time></trkpt><trkpt lat="42.2195833" lon="14.5646483"><ele>63.99999999999999</ele><time>2026-05-02T08:57:50.9Z</time></trkpt><trkpt lat="42.2195317" lon="14.564795"><ele>64.0</ele><time>2026-05-02T08:57:52.9Z</time></trkpt><trkpt lat="42.2195" lon="14.56487"><ele>64.0</ele><time>2026-05-02T08:57:53.9Z</time></trkpt><trkpt lat="42.2194617" lon="14.5649383"><ele>64.0</ele><time>2026-05-02T08:57:54.9Z</time></trkpt><trkpt lat="42.219405" lon="14.565065"><ele>63.99999999999999</ele><time>2026-05-02T08:57:56.899Z</time></trkpt><trkpt lat="42.21936" lon="14.5651717"><ele>64.0</ele><time>2026-05-02T08:57:58.899Z</time></trkpt><trkpt lat="42.2193183" lon="14.5652833"><ele>63.166666666666664</ele><time>2026-05-02T08:58:00.899Z</time></trkpt><trkpt lat="42.2192833" lon="14.56539"><ele>62.33333333333333</ele><time>2026-05-02T08:58:02.899Z</time></trkpt><trkpt lat="42.21925" lon="14.56548"><ele>61.5</ele><time>2026-05-02T08:58:04.9Z</time></trkpt><trkpt lat="42.2192167" lon="14.5655567"><ele>60.66666666666667</ele><time>2026-05-02T08:58:06.9Z</time></trkpt><trkpt lat="42.2191667" lon="14.5656317"><ele>59.833333333333336</ele><time>2026-05-02T08:58:08.899Z</time></trkpt><trkpt lat="42.2191033" lon="14.565715"><ele>59.0</ele><time>2026-05-02T08:58:10.9Z</time></trkpt><trkpt lat="42.2190483" lon="14.5658"><ele>59.0</ele><time>2026-05-02T08:58:12.9Z</time></trkpt><trkpt lat="42.21899" lon="14.5659033"><ele>59.00000000000001</ele><time>2026-05-02T08:58:14.899Z</time></trkpt><trkpt lat="42.2189233" lon="14.566025"><ele>59.00000000000001</ele><time>2026-05-02T08:58:16.899Z</time></trkpt><trkpt lat="42.218855" lon="14.5661633"><ele>59.0</ele><time>2026-05-02T08:58:18.9Z</time></trkpt><trkpt lat="42.2188183" lon="14.5662483"><ele>59.0</ele><time>2026-05-02T08:58:19.899Z</time></trkpt><trkpt lat="42.218785" lon="14.566325"><ele>61.5</ele><time>2026-05-02T08:58:20.9Z</time></trkpt><trkpt lat="42.218725" lon="14.5664633"><ele>64.0</ele><time>2026-05-02T08:58:22.9Z</time></trkpt><trkpt lat="42.2186483" lon="14.56656"><ele>66.5</ele><time>2026-05-02T08:58:24.899Z</time></trkpt><trkpt lat="42.2185517" lon="14.566645"><ele>69.0</ele><time>2026-05-02T08:58:26.899Z</time></trkpt><trkpt lat="42.21846" lon="14.5667617"><ele>69.0</ele><time>2026-05-02T08:58:28.9Z</time></trkpt><trkpt lat="42.21841" lon="14.56685"><ele>69.0</ele><time>2026-05-02T08:58:29.899Z</time></trkpt><trkpt lat="42.2183517" lon="14.566945"><ele>69.0</ele><time>2026-05-02T08:58:30.9Z</time></trkpt><trkpt lat="42.2182967" lon="14.5670583"><ele>69.0</ele><time>2026-05-02T08:58:31.9Z</time></trkpt><trkpt lat="42.2182617" lon="14.56716"><ele>69.0</ele><time>2026-05-02T08:58:32.899Z</time></trkpt><trkpt lat="42.218235" lon="14.5672433"><ele>69.0</ele><time>2026-05-02T08:58:33.9Z</time></trkpt><trkpt lat="42.21819" lon="14.5673883"><ele>70.75</ele><time>2026-05-02T08:58:35.899Z</time></trkpt><trkpt lat="42.21816" lon="14.5675333"><ele>72.5</ele><time>2026-05-02T08:58:37.9Z</time></trkpt><trkpt lat="42.2181383" lon="14.56768"><ele>74.25</ele><time>2026-05-02T08:58:39.9Z</time></trkpt><trkpt lat="42.2181217" lon="14.56783"><ele>76.0</ele><time>2026-05-02T08:58:41.9Z</time></trkpt><trkpt lat="42.2181017" lon="14.5679833"><ele>76.0</ele><time>2026-05-02T08:58:43.9Z</time></trkpt><trkpt lat="42.2180833" lon="14.5681283"><ele>76.0</ele><time>2026-05-02T08:58:45.9Z</time></trkpt><trkpt lat="42.2180517" lon="14.5682833"><ele>76.0</ele><time>2026-05-02T08:58:47.899Z</time></trkpt><trkpt lat="42.218005" lon="14.56843"><ele>76.0</ele><time>2026-05-02T08:58:49.9Z</time></trkpt><trkpt lat="42.2179467" lon="14.56856"><ele>73.0</ele><time>2026-05-02T08:58:51.899Z</time></trkpt><trkpt lat="42.2178817" lon="14.5686933"><ele>70.0</ele><time>2026-05-02T08:58:53.9Z</time></trkpt><trkpt lat="42.21782" lon="14.5688"><ele>67.0</ele><time>2026-05-02T08:58:55.899Z</time></trkpt><trkpt lat="42.217765" lon="14.5689"><ele>64.0</ele><time>2026-05-02T08:58:57.9Z</time></trkpt><trkpt lat="42.217735" lon="14.5689933"><ele>61.0</ele><time>2026-05-02T08:58:59.899Z</time></trkpt><trkpt lat="42.2177167" lon="14.569095"><ele>61.0</ele><time>2026-05-02T08:59:01.899Z</time></trkpt><trkpt lat="42.2176633" lon="14.5692033"><ele>60.99999999999999</ele><time>2026-05-02T08:59:04.901Z</time></trkpt><trkpt lat="42.2175867" lon="14.569305"><ele>60.99999999999999</ele><time>2026-05-02T08:59:06.901Z</time></trkpt><trkpt lat="42.2175133" lon="14.5694133"><ele>61.0</ele><time>2026-05-02T08:59:08.9Z</time></trkpt><trkpt lat="42.2174217" lon="14.56951"><ele>61.0</ele><time>2026-05-02T08:59:10.901Z</time></trkpt><trkpt lat="42.2173467" lon="14.5696217"><ele>63.599999999999994</ele><time>2026-05-02T08:59:12.901Z</time></trkpt><trkpt lat="42.217305" lon="14.5696917"><ele>66.19999999999999</ele><time>2026-05-02T08:59:13.9Z</time></trkpt><trkpt lat="42.21723" lon="14.5698117"><ele>68.80000000000001</ele><time>2026-05-02T08:59:15.9Z</time></trkpt><trkpt lat="42.217145" lon="14.56995"><ele>71.4</ele><time>2026-05-02T08:59:17.901Z</time></trkpt><trkpt lat="42.2171033" lon="14.5700267"><ele>74.0</ele><time>2026-05-02T08:59:18.9Z</time></trkpt><trkpt lat="42.2170617" lon="14.5700933"><ele>74.0</ele><time>2026-05-02T08:59:19.9Z</time></trkpt><trkpt lat="42.2169833" lon="14.5702017"><ele>74.0</ele><time>2026-05-02T08:59:21.9Z</time></trkpt><trkpt lat="42.2169167" lon="14.5703233"><ele>74.0</ele><time>2026-05-02T08:59:23.901Z</time></trkpt><trkpt lat="42.216875" lon="14.57039"><ele>74.0</ele><time>2026-05-02T08:59:24.9Z</time></trkpt><trkpt lat="42.2168067" lon="14.5705117"><ele>74.0</ele><time>2026-05-02T08:59:26.901Z</time></trkpt><trkpt lat="42.21676" lon="14.5706417"><ele>72.0</ele><time>2026-05-02T08:59:28.901Z</time></trkpt><trkpt lat="42.2167367" lon="14.57078"><ele>70.0</ele><time>2026-05-02T08:59:30.901Z</time></trkpt><trkpt lat="42.2167267" lon="14.5709167"><ele>68.0</ele><time>2026-05-02T08:59:32.9Z</time></trkpt><trkpt lat="42.2167283" lon="14.5710533"><ele>66.0</ele><time>2026-05-02T08:59:34.9Z</time></trkpt><trkpt lat="42.2167317" lon="14.5711883"><ele>64.0</ele><time>2026-05-02T08:59:36.9Z</time></trkpt><trkpt lat="42.2167217" lon="14.5712733"><ele>63.33333333333333</ele><time>2026-05-02T08:59:37.901Z</time></trkpt><trkpt lat="42.216705" lon="14.5713583"><ele>62.666666666666664</ele><time>2026-05-02T08:59:38.901Z</time></trkpt><trkpt lat="42.2166833" lon="14.5715083"><ele>62.0</ele><time>2026-05-02T08:59:40.9Z</time></trkpt><trkpt lat="42.2166733" lon="14.5715933"><ele>61.33333333333333</ele><time>2026-05-02T08:59:41.901Z</time></trkpt><trkpt lat="42.2166817" lon="14.5717617"><ele>60.666666666666664</ele><time>2026-05-02T08:59:43.901Z</time></trkpt><trkpt lat="42.2166817" lon="14.5718483"><ele>60.0</ele><time>2026-05-02T08:59:44.901Z</time></trkpt><trkpt lat="42.21669" lon="14.5720217"><ele>58.833333333333336</ele><time>2026-05-02T08:59:46.901Z</time></trkpt><trkpt lat="42.21669" lon="14.57211"><ele>57.66666666666667</ele><time>2026-05-02T08:59:47.9Z</time></trkpt><trkpt lat="42.2166817" lon="14.572205"><ele>56.5</ele><time>2026-05-02T08:59:48.9Z</time></trkpt><trkpt lat="42.2166633" lon="14.5722917"><ele>55.333333333333336</ele><time>2026-05-02T08:59:49.9Z</time></trkpt><trkpt lat="42.2166467" lon="14.5724167"><ele>54.16666666666667</ele><time>2026-05-02T08:59:51.9Z</time></trkpt><trkpt lat="42.2166167" lon="14.5725433"><ele>53.0</ele><time>2026-05-02T08:59:53.9Z</time></trkpt><trkpt lat="42.216575" lon="14.5726383"><ele>53.0</ele><time>2026-05-02T08:59:55.901Z</time></trkpt><trkpt lat="42.2165433" lon="14.5727333"><ele>53.0</ele><time>2026-05-02T08:59:57.901Z</time></trkpt><trkpt lat="42.216505" lon="14.57284"><ele>53.0</ele><time>2026-05-02T08:59:59.901Z</time></trkpt><trkpt lat="42.21646" lon="14.5729133"><ele>53.0</ele><time>2026-05-02T09:00:01.9Z</time></trkpt><trkpt lat="42.2164067" lon="14.5729783"><ele>53.0</ele><time>2026-05-02T09:00:03.9Z</time></trkpt><trkpt lat="42.2163483" lon="14.573045"><ele>53.0</ele><time>2026-05-02T09:00:05.9Z</time></trkpt><trkpt lat="42.216295" lon="14.5730933"><ele>53.0</ele><time>2026-05-02T09:00:07.901Z</time></trkpt><trkpt lat="42.2162317" lon="14.5731533"><ele>57.0</ele><time>2026-05-02T09:00:09.901Z</time></trkpt><trkpt lat="42.2161633" lon="14.573215"><ele>61.0</ele><time>2026-05-02T09:00:11.901Z</time></trkpt><trkpt lat="42.216115" lon="14.5733017"><ele>65.0</ele><time>2026-05-02T09:00:13.901Z</time></trkpt><trkpt lat="42.2160767" lon="14.57341"><ele>69.0</ele><time>2026-05-02T09:00:15.901Z</time></trkpt><trkpt lat="42.2160283" lon="14.5735267"><ele>73.0</ele><time>2026-05-02T09:00:17.901Z</time></trkpt><trkpt lat="42.2159683" lon="14.5736483"><ele>71.14285714285714</ele><time>2026-05-02T09:00:19.901Z</time></trkpt><trkpt lat="42.215945" lon="14.5737317"><ele>69.28571428571429</ele><time>2026-05-02T09:00:20.9Z</time></trkpt><trkpt lat="42.21593" lon="14.57384"><ele>67.42857142857143</ele><time>2026-05-02T09:00:22.901Z</time></trkpt><trkpt lat="42.2159167" lon="14.573935"><ele>65.57142857142857</ele><time>2026-05-02T09:00:24.901Z</time></trkpt><trkpt lat="42.2158917" lon="14.57402"><ele>63.71428571428571</ele><time>2026-05-02T09:00:26.9Z</time></trkpt><trkpt lat="42.2158733" lon="14.5741183"><ele>61.85714285714286</ele><time>2026-05-02T09:00:28.901Z</time></trkpt><trkpt lat="42.21585" lon="14.5742317"><ele>60.0</ele><time>2026-05-02T09:00:30.901Z</time></trkpt><trkpt lat="42.21582" lon="14.5743767"><ele>60.0</ele><time>2026-05-02T09:00:32.901Z</time></trkpt><trkpt lat="42.21579" lon="14.574505"><ele>60.0</ele><time>2026-05-02T09:00:34.901Z</time></trkpt><trkpt lat="42.21576" lon="14.5746383"><ele>60.0</ele><time>2026-05-02T09:00:36.9Z</time></trkpt><trkpt lat="42.2157183" lon="14.57476"><ele>60.0</ele><time>2026-05-02T09:00:38.901Z</time></trkpt><trkpt lat="42.2156683" lon="14.57488"><ele>60.0</ele><time>2026-05-02T09:00:40.901Z</time></trkpt><trkpt lat="42.2156067" lon="14.5749967"><ele>59.8</ele><time>2026-05-02T09:00:42.901Z</time></trkpt><trkpt lat="42.2155283" lon="14.5751083"><ele>59.6</ele><time>2026-05-02T09:00:44.9Z</time></trkpt><trkpt lat="42.21545" lon="14.5752167"><ele>59.400000000000006</ele><time>2026-05-02T09:00:46.901Z</time></trkpt><trkpt lat="42.2153833" lon="14.575325"><ele>59.2</ele><time>2026-05-02T09:00:48.9Z</time></trkpt><trkpt lat="42.2153017" lon="14.5753967"><ele>59.0</ele><time>2026-05-02T09:00:50.901Z</time></trkpt><trkpt lat="42.215215" lon="14.5754667"><ele>59.00000000000001</ele><time>2026-05-02T09:00:52.9Z</time></trkpt><trkpt lat="42.2151817" lon="14.5755517"><ele>59.0</ele><time>2026-05-02T09:00:54.9Z</time></trkpt><trkpt lat="42.21515" lon="14.5756283"><ele>59.0</ele><time>2026-05-02T09:00:56.9Z</time></trkpt><trkpt lat="42.2151167" lon="14.5757217"><ele>59.0</ele><time>2026-05-02T09:00:58.9Z</time></trkpt><trkpt lat="42.21508" lon="14.5758217"><ele>59.00000000000001</ele><time>2026-05-02T09:01:00.901Z</time></trkpt><trkpt lat="42.215045" lon="14.5759417"><ele>59.0</ele><time>2026-05-02T09:01:02.901Z</time></trkpt><trkpt lat="42.2150367" lon="14.5760667"><ele>59.00000000000001</ele><time>2026-05-02T09:01:04.901Z</time></trkpt><trkpt lat="42.21504" lon="14.5761667"><ele>59.0</ele><time>2026-05-02T09:01:06.901Z</time></trkpt><trkpt lat="42.2150167" lon="14.5762633"><ele>59.0</ele><time>2026-05-02T09:01:08.901Z</time></trkpt><trkpt lat="42.214975" lon="14.5763533"><ele>59.0</ele><time>2026-05-02T09:01:10.901Z</time></trkpt><trkpt lat="42.2149217" lon="14.5764567"><ele>59.00000000000001</ele><time>2026-05-02T09:01:13.901Z</time></trkpt><trkpt lat="42.2148833" lon="14.57656"><ele>59.0</ele><time>2026-05-02T09:01:16.901Z</time></trkpt><trkpt lat="42.2148583" lon="14.57667"><ele>60.333333333333336</ele><time>2026-05-02T09:01:19.901Z</time></trkpt><trkpt lat="42.2148517" lon="14.5767767"><ele>61.66666666666667</ele><time>2026-05-02T09:01:21.901Z</time></trkpt><trkpt lat="42.2148483" lon="14.5768967"><ele>63.0</ele><time>2026-05-02T09:01:23.901Z</time></trkpt><trkpt lat="42.2148317" lon="14.5770117"><ele>64.33333333333333</ele><time>2026-05-02T09:01:25.901Z</time></trkpt><trkpt lat="42.214795" lon="14.57711"><ele>65.66666666666666</ele><time>2026-05-02T09:01:27.901Z</time></trkpt><trkpt lat="42.2147717" lon="14.5772333"><ele>67.0</ele><time>2026-05-02T09:01:29.9Z</time></trkpt><trkpt lat="42.21478" lon="14.5773183"><ele>67.0</ele><time>2026-05-02T09:01:30.9Z</time></trkpt><trkpt lat="42.2147817" lon="14.57741"><ele>67.0</ele><time>2026-05-02T09:01:31.901Z</time></trkpt><trkpt lat="42.21478" lon="14.5775033"><ele>67.0</ele><time>2026-05-02T09:01:32.901Z</time></trkpt><trkpt lat="42.2147717" lon="14.57761"><ele>67.0</ele><time>2026-05-02T09:01:33.9Z</time></trkpt><trkpt lat="42.2147583" lon="14.5777083"><ele>67.0</ele><time>2026-05-02T09:01:34.9Z</time></trkpt><trkpt lat="42.21473" lon="14.577805"><ele>67.0</ele><time>2026-05-02T09:01:35.9Z</time></trkpt><trkpt lat="42.214705" lon="14.5778883"><ele>67.0</ele><time>2026-05-02T09:01:36.901Z</time></trkpt><trkpt lat="42.21468" lon="14.5779717"><ele>65.5</ele><time>2026-05-02T09:01:37.9Z</time></trkpt><trkpt lat="42.214645" lon="14.5780533"><ele>64.0</ele><time>2026-05-02T09:01:38.901Z</time></trkpt><trkpt lat="42.2145983" lon="14.5781317"><ele>62.5</ele><time>2026-05-02T09:01:39.9Z</time></trkpt><trkpt lat="42.2145483" lon="14.5781933"><ele>61.0</ele><time>2026-05-02T09:01:40.9Z</time></trkpt><trkpt lat="42.2144767" lon="14.5782833"><ele>59.49999999999999</ele><time>2026-05-02T09:01:42.901Z</time></trkpt><trkpt lat="42.2144233" lon="14.57838"><ele>58.0</ele><time>2026-05-02T09:01:44.9Z</time></trkpt><trkpt lat="42.214395" lon="14.5784883"><ele>58.0</ele><time>2026-05-02T09:01:46.9Z</time></trkpt><trkpt lat="42.2143683" lon="14.5786267"><ele>58.0</ele><time>2026-05-02T09:01:48.901Z</time></trkpt><trkpt lat="42.2143233" lon="14.5787567"><ele>58.0</ele><time>2026-05-02T09:01:50.901Z</time></trkpt><trkpt lat="42.2142883" lon="14.5788833"><ele>58.0</ele><time>2026-05-02T09:01:52.9Z</time></trkpt><trkpt lat="42.2142433" lon="14.5790117"><ele>58.0</ele><time>2026-05-02T09:01:54.901Z</time></trkpt><trkpt lat="42.2142133" lon="14.57912"><ele>56.49999999999999</ele><time>2026-05-02T09:01:56.901Z</time></trkpt><trkpt lat="42.21419" lon="14.579225"><ele>55.0</ele><time>2026-05-02T09:01:58.901Z</time></trkpt><trkpt lat="42.2141767" lon="14.579335"><ele>53.5</ele><time>2026-05-02T09:02:00.901Z</time></trkpt><trkpt lat="42.2141533" lon="14.5794483"><ele>52.0</ele><time>2026-05-02T09:02:02.901Z</time></trkpt><trkpt lat="42.2141433" lon="14.5795667"><ele>50.49999999999999</ele><time>2026-05-02T09:02:04.9Z</time></trkpt><trkpt lat="42.214115" lon="14.5796967"><ele>49.0</ele><time>2026-05-02T09:02:06.901Z</time></trkpt><trkpt lat="42.2140817" lon="14.5798233"><ele>49.0</ele><time>2026-05-02T09:02:08.901Z</time></trkpt><trkpt lat="42.2140517" lon="14.5799783"><ele>49.0</ele><time>2026-05-02T09:02:10.901Z</time></trkpt><trkpt lat="42.2140067" lon="14.580135"><ele>49.0</ele><time>2026-05-02T09:02:12.901Z</time></trkpt><trkpt lat="42.2139717" lon="14.5802117"><ele>49.0</ele><time>2026-05-02T09:02:13.901Z</time></trkpt><trkpt lat="42.213915" lon="14.58034"><ele>49.0</ele><time>2026-05-02T09:02:15.901Z</time></trkpt><trkpt lat="42.2138817" lon="14.5804767"><ele>49.0</ele><time>2026-05-02T09:02:17.901Z</time></trkpt><trkpt lat="42.2138617" lon="14.5806217"><ele>49.0</ele><time>2026-05-02T09:02:19.901Z</time></trkpt><trkpt lat="42.213855" lon="14.5807783"><ele>49.0</ele><time>2026-05-02T09:02:21.901Z</time></trkpt><trkpt lat="42.2138333" lon="14.5809233"><ele>49.0</ele><time>2026-05-02T09:02:23.901Z</time></trkpt><trkpt lat="42.2138017" lon="14.58107"><ele>49.0</ele><time>2026-05-02T09:02:25.901Z</time></trkpt><trkpt lat="42.2137867" lon="14.5812333"><ele>46.800000000000004</ele><time>2026-05-02T09:02:27.901Z</time></trkpt><trkpt lat="42.2137783" lon="14.5813917"><ele>44.6</ele><time>2026-05-02T09:02:29.901Z</time></trkpt><trkpt lat="42.2137667" lon="14.5815317"><ele>42.4</ele><time>2026-05-02T09:02:31.9Z</time></trkpt><trkpt lat="42.2137617" lon="14.581655"><ele>40.2</ele><time>2026-05-02T09:02:33.901Z</time></trkpt><trkpt lat="42.2138317" lon="14.58174"><ele>38.0</ele><time>2026-05-02T09:02:35.901Z</time></trkpt><trkpt lat="42.2139067" lon="14.581845"><ele>38.0</ele><time>2026-05-02T09:02:37.901Z</time></trkpt><trkpt lat="42.2139833" lon="14.5819033"><ele>38.0</ele><time>2026-05-02T09:02:39.901Z</time></trkpt><trkpt lat="42.2140483" lon="14.5819533"><ele>38.0</ele><time>2026-05-02T09:02:40.9Z</time></trkpt><trkpt lat="42.2141083" lon="14.582005"><ele>38.0</ele><time>2026-05-02T09:02:41.9Z</time></trkpt><trkpt lat="42.2141717" lon="14.5820717"><ele>38.0</ele><time>2026-05-02T09:02:43.901Z</time></trkpt><trkpt lat="42.2141967" lon="14.58215"><ele>38.0</ele><time>2026-05-02T09:02:51.901Z</time></trkpt><trkpt lat="42.2141633" lon="14.58228"><ele>34.83333333333333</ele><time>2026-05-02T09:02:54.901Z</time></trkpt><trkpt lat="42.2141317" lon="14.5823783"><ele>31.666666666666664</ele><time>2026-05-02T09:02:56.9Z</time></trkpt><trkpt lat="42.2141183" lon="14.5824717"><ele>28.5</ele><time>2026-05-02T09:02:58.901Z</time></trkpt><trkpt lat="42.2141983" lon="14.58247"><ele>25.333333333333332</ele><time>2026-05-02T09:03:01.901Z</time></trkpt><trkpt lat="42.2142633" lon="14.5823933"><ele>22.166666666666664</ele><time>2026-05-02T09:03:03.9Z</time></trkpt><trkpt lat="42.2143617" lon="14.58241"><ele>19.0</ele><time>2026-05-02T09:03:05.9Z</time></trkpt><trkpt lat="42.2144717" lon="14.58248"><ele>19.0</ele><time>2026-05-02T09:03:07.9Z</time></trkpt><trkpt lat="42.2145617" lon="14.5825483"><ele>19.0</ele><time>2026-05-02T09:03:09.901Z</time></trkpt><trkpt lat="42.214625" lon="14.5825783"><ele>19.0</ele><time>2026-05-02T09:03:11.901Z</time></trkpt><trkpt lat="42.2146967" lon="14.5825833"><ele>19.0</ele><time>2026-05-02T09:03:15.9Z</time></trkpt><trkpt lat="42.2147683" lon="14.5825667"><ele>19.0</ele><time>2026-05-02T09:03:20.9Z</time></trkpt><trkpt lat="42.21484" lon="14.582535"><ele>19.0</ele><time>2026-05-02T09:03:24.901Z</time></trkpt><trkpt lat="42.2147733" lon="14.5825883"><ele>19.0</ele><time>2026-05-02T09:03:31.9Z</time></trkpt><trkpt lat="42.2147333" lon="14.5826633"><ele>19.0</ele><time>2026-05-02T09:03:34.901Z</time></trkpt><trkpt lat="42.2146817" lon="14.5827417"><ele>19.0</ele><time>2026-05-02T09:03:37.9Z</time></trkpt><trkpt lat="42.2146267" lon="14.582825"><ele>19.0</ele><time>2026-05-02T09:03:40.9Z</time></trkpt><trkpt lat="42.2145883" lon="14.5828967"><ele>19.0</ele><time>2026-05-02T09:03:42.901Z</time></trkpt><trkpt lat="42.214545" lon="14.582985"><ele>19.0</ele><time>2026-05-02T09:03:44.901Z</time></trkpt><trkpt lat="42.2144967" lon="14.583055"><ele>19.0</ele><time>2026-05-02T09:03:46.9Z</time></trkpt><trkpt lat="42.2144433" lon="14.5831467"><ele>18.333333333333332</ele><time>2026-05-02T09:03:48.901Z</time></trkpt><trkpt lat="42.2144" lon="14.5832267"><ele>17.666666666666664</ele><time>2026-05-02T09:03:50.9Z</time></trkpt><trkpt lat="42.2143617" lon="14.5832967"><ele>17.0</ele><time>2026-05-02T09:03:52.901Z</time></trkpt><trkpt lat="42.21433" lon="14.5833817"><ele>16.333333333333332</ele><time>2026-05-02T09:03:54.901Z</time></trkpt><trkpt lat="42.214275" lon="14.5834683"><ele>15.666666666666666</ele><time>2026-05-02T09:03:56.901Z</time></trkpt><trkpt lat="42.2142183" lon="14.5835583"><ele>15.0</ele><time>2026-05-02T09:03:58.9Z</time></trkpt><trkpt lat="42.2141617" lon="14.58365"><ele>16.4</ele><time>2026-05-02T09:04:00.901Z</time></trkpt><trkpt lat="42.2141167" lon="14.5837467"><ele>17.8</ele><time>2026-05-02T09:04:02.901Z</time></trkpt><trkpt lat="42.21406" lon="14.5838583"><ele>19.200000000000003</ele><time>2026-05-02T09:04:04.901Z</time></trkpt><trkpt lat="42.2139917" lon="14.5839717"><ele>20.6</ele><time>2026-05-02T09:04:06.9Z</time></trkpt><trkpt lat="42.2139167" lon="14.5840917"><ele>22.0</ele><time>2026-05-02T09:04:08.901Z</time></trkpt><trkpt lat="42.2138333" lon="14.5842017"><ele>22.0</ele><time>2026-05-02T09:04:10.9Z</time></trkpt><trkpt lat="42.213745" lon="14.58432"><ele>22.0</ele><time>2026-05-02T09:04:12.901Z</time></trkpt><trkpt lat="42.2136633" lon="14.584445"><ele>22.0</ele><time>2026-05-02T09:04:14.9Z</time></trkpt><trkpt lat="42.2135917" lon="14.5845633"><ele>22.0</ele><time>2026-05-02T09:04:16.9Z</time></trkpt><trkpt lat="42.2135083" lon="14.5846733"><ele>20.0</ele><time>2026-05-02T09:04:18.901Z</time></trkpt><trkpt lat="42.2134233" lon="14.5847817"><ele>18.0</ele><time>2026-05-02T09:04:20.901Z</time></trkpt><trkpt lat="42.2133717" lon="14.5849083"><ele>16.0</ele><time>2026-05-02T09:04:22.9Z</time></trkpt><trkpt lat="42.2133367" lon="14.5850317"><ele>14.0</ele><time>2026-05-02T09:04:24.901Z</time></trkpt><trkpt lat="42.2132933" lon="14.5851517"><ele>12.0</ele><time>2026-05-02T09:04:26.9Z</time></trkpt><trkpt lat="42.2132417" lon="14.5852417"><ele>12.0</ele><time>2026-05-02T09:04:28.901Z</time></trkpt><trkpt lat="42.21319" lon="14.5853417"><ele>12.0</ele><time>2026-05-02T09:04:30.9Z</time></trkpt><trkpt lat="42.2131317" lon="14.5854267"><ele>12.0</ele><time>2026-05-02T09:04:32.9Z</time></trkpt><trkpt lat="42.2130683" lon="14.5855433"><ele>12.0</ele><time>2026-05-02T09:04:34.901Z</time></trkpt><trkpt lat="42.2130083" lon="14.5856417"><ele>12.0</ele><time>2026-05-02T09:04:36.9Z</time></trkpt><trkpt lat="42.2129467" lon="14.5857317"><ele>11.4</ele><time>2026-05-02T09:04:38.901Z</time></trkpt><trkpt lat="42.2128933" lon="14.5858383"><ele>10.799999999999999</ele><time>2026-05-02T09:04:40.901Z</time></trkpt><trkpt lat="42.2128433" lon="14.5859333"><ele>10.2</ele><time>2026-05-02T09:04:42.901Z</time></trkpt><trkpt lat="42.2127983" lon="14.5860233"><ele>9.6</ele><time>2026-05-02T09:04:44.9Z</time></trkpt><trkpt lat="42.212745" lon="14.5861283"><ele>9.0</ele><time>2026-05-02T09:04:46.901Z</time></trkpt><trkpt lat="42.2126933" lon="14.5862433"><ele>9.0</ele><time>2026-05-02T09:04:48.901Z</time></trkpt><trkpt lat="42.212625" lon="14.58636"><ele>9.0</ele><time>2026-05-02T09:04:50.901Z</time></trkpt><trkpt lat="42.2125617" lon="14.5864817"><ele>9.0</ele><time>2026-05-02T09:04:52.9Z</time></trkpt><trkpt lat="42.2125133" lon="14.5866017"><ele>9.0</ele><time>2026-05-02T09:04:54.901Z</time></trkpt><trkpt lat="42.212465" lon="14.58671"><ele>9.0</ele><time>2026-05-02T09:04:56.901Z</time></trkpt><trkpt lat="42.2124033" lon="14.58681"><ele>9.0</ele><time>2026-05-02T09:04:58.901Z</time></trkpt><trkpt lat="42.212355" lon="14.5869167"><ele>9.0</ele><time>2026-05-02T09:05:00.9Z</time></trkpt><trkpt lat="42.2122983" lon="14.587025"><ele>9.0</ele><time>2026-05-02T09:05:02.901Z</time></trkpt><trkpt lat="42.21224" lon="14.5871483"><ele>9.0</ele><time>2026-05-02T09:05:04.901Z</time></trkpt><trkpt lat="42.2121883" lon="14.5872533"><ele>9.0</ele><time>2026-05-02T09:05:06.9Z</time></trkpt><trkpt lat="42.2121367" lon="14.587365"><ele>10.0</ele><time>2026-05-02T09:05:08.9Z</time></trkpt><trkpt lat="42.21209" lon="14.5874733"><ele>11.0</ele><time>2026-05-02T09:05:10.9Z</time></trkpt><trkpt lat="42.2120467" lon="14.587575"><ele>12.0</ele><time>2026-05-02T09:05:12.901Z</time></trkpt><trkpt lat="42.2119983" lon="14.5876817"><ele>13.0</ele><time>2026-05-02T09:05:14.901Z</time></trkpt><trkpt lat="42.2119517" lon="14.5877817"><ele>14.0</ele><time>2026-05-02T09:05:16.9Z</time></trkpt><trkpt lat="42.2119" lon="14.5878783"><ele>15.0</ele><time>2026-05-02T09:05:18.901Z</time></trkpt><trkpt lat="42.2118533" lon="14.587975"><ele>15.0</ele><time>2026-05-02T09:05:20.9Z</time></trkpt><trkpt lat="42.2118" lon="14.5880833"><ele>15.0</ele><time>2026-05-02T09:05:22.901Z</time></trkpt><trkpt lat="42.211735" lon="14.5881967"><ele>15.0</ele><time>2026-05-02T09:05:24.901Z</time></trkpt><trkpt lat="42.21167" lon="14.588295"><ele>15.0</ele><time>2026-05-02T09:05:26.9Z</time></trkpt><trkpt lat="42.2116033" lon="14.588395"><ele>15.0</ele><time>2026-05-02T09:05:28.901Z</time></trkpt><trkpt lat="42.211555" lon="14.588485"><ele>15.0</ele><time>2026-05-02T09:05:30.901Z</time></trkpt><trkpt lat="42.2115017" lon="14.5885933"><ele>15.0</ele><time>2026-05-02T09:05:32.901Z</time></trkpt><trkpt lat="42.2114533" lon="14.5887117"><ele>15.0</ele><time>2026-05-02T09:05:34.901Z</time></trkpt><trkpt lat="42.211405" lon="14.5888383"><ele>15.0</ele><time>2026-05-02T09:05:36.901Z</time></trkpt><trkpt lat="42.21135" lon="14.5889633"><ele>15.0</ele><time>2026-05-02T09:05:38.9Z</time></trkpt><trkpt lat="42.211295" lon="14.5890967"><ele>14.8</ele><time>2026-05-02T09:05:40.901Z</time></trkpt><trkpt lat="42.21124" lon="14.589235"><ele>14.6</ele><time>2026-05-02T09:05:42.901Z</time></trkpt><trkpt lat="42.2111883" lon="14.5893567"><ele>14.399999999999999</ele><time>2026-05-02T09:05:44.901Z</time></trkpt><trkpt lat="42.2111367" lon="14.5894867"><ele>14.2</ele><time>2026-05-02T09:05:46.9Z</time></trkpt><trkpt lat="42.2110883" lon="14.589625"><ele>14.0</ele><time>2026-05-02T09:05:48.901Z</time></trkpt><trkpt lat="42.2110417" lon="14.5897683"><ele>14.0</ele><time>2026-05-02T09:05:50.9Z</time></trkpt><trkpt lat="42.2109917" lon="14.5899017"><ele>13.999999999999998</ele><time>2026-05-02T09:05:52.9Z</time></trkpt><trkpt lat="42.2109433" lon="14.5900267"><ele>13.999999999999998</ele><time>2026-05-02T09:05:54.901Z</time></trkpt><trkpt lat="42.21089" lon="14.5901567"><ele>14.0</ele><time>2026-05-02T09:05:56.901Z</time></trkpt><trkpt lat="42.2108483" lon="14.5902733"><ele>14.0</ele><time>2026-05-02T09:05:58.901Z</time></trkpt><trkpt lat="42.2108" lon="14.5904033"><ele>12.2</ele><time>2026-05-02T09:06:00.9Z</time></trkpt><trkpt lat="42.21074" lon="14.5905317"><ele>10.399999999999999</ele><time>2026-05-02T09:06:02.901Z</time></trkpt><trkpt lat="42.2106917" lon="14.5906717"><ele>8.6</ele><time>2026-05-02T09:06:04.9Z</time></trkpt><trkpt lat="42.21064" lon="14.5907917"><ele>6.8</ele><time>2026-05-02T09:06:06.9Z</time></trkpt><trkpt lat="42.2105883" lon="14.59091"><ele>5.0</ele><time>2026-05-02T09:06:08.901Z</time></trkpt><trkpt lat="42.21054" lon="14.591035"><ele>7.0</ele><time>2026-05-02T09:06:10.9Z</time></trkpt><trkpt lat="42.21049" lon="14.5911567"><ele>9.0</ele><time>2026-05-02T09:06:12.9Z</time></trkpt><trkpt lat="42.2104333" lon="14.59129"><ele>11.0</ele><time>2026-05-02T09:06:14.9Z</time></trkpt><trkpt lat="42.210385" lon="14.59142"><ele>13.0</ele><time>2026-05-02T09:06:16.901Z</time></trkpt><trkpt lat="42.21033" lon="14.591555"><ele>15.0</ele><time>2026-05-02T09:06:18.9Z</time></trkpt><trkpt lat="42.210275" lon="14.5916817"><ele>15.0</ele><time>2026-05-02T09:06:20.901Z</time></trkpt><trkpt lat="42.2102167" lon="14.5918183"><ele>15.0</ele><time>2026-05-02T09:06:22.9Z</time></trkpt><trkpt lat="42.210155" lon="14.5919433"><ele>15.0</ele><time>2026-05-02T09:06:24.901Z</time></trkpt><trkpt lat="42.2101" lon="14.5920733"><ele>15.0</ele><time>2026-05-02T09:06:26.901Z</time></trkpt><trkpt lat="42.21004" lon="14.5922"><ele>13.4</ele><time>2026-05-02T09:06:28.901Z</time></trkpt><trkpt lat="42.20997" lon="14.5923267"><ele>11.8</ele><time>2026-05-02T09:06:30.9Z</time></trkpt><trkpt lat="42.20991" lon="14.592455"><ele>10.2</ele><time>2026-05-02T09:06:32.901Z</time></trkpt><trkpt lat="42.2098417" lon="14.5925767"><ele>8.6</ele><time>2026-05-02T09:06:34.9Z</time></trkpt><trkpt lat="42.2097733" lon="14.592685"><ele>7.0</ele><time>2026-05-02T09:06:36.901Z</time></trkpt><trkpt lat="42.2097133" lon="14.5928017"><ele>8.2</ele><time>2026-05-02T09:06:38.901Z</time></trkpt><trkpt lat="42.20964" lon="14.5929067"><ele>9.399999999999999</ele><time>2026-05-02T09:06:40.901Z</time></trkpt><trkpt lat="42.2095717" lon="14.5930133"><ele>10.600000000000001</ele><time>2026-05-02T09:06:42.901Z</time></trkpt><trkpt lat="42.2095033" lon="14.593125"><ele>11.8</ele><time>2026-05-02T09:06:44.901Z</time></trkpt><trkpt lat="42.2094383" lon="14.5932517"><ele>13.0</ele><time>2026-05-02T09:06:46.9Z</time></trkpt><trkpt lat="42.209375" lon="14.5933767"><ele>13.0</ele><time>2026-05-02T09:06:48.901Z</time></trkpt><trkpt lat="42.2093117" lon="14.593505"><ele>13.0</ele><time>2026-05-02T09:06:50.901Z</time></trkpt><trkpt lat="42.209275" lon="14.593575"><ele>13.0</ele><time>2026-05-02T09:06:51.9Z</time></trkpt><trkpt lat="42.2092383" lon="14.593645"><ele>13.0</ele><time>2026-05-02T09:06:52.9Z</time></trkpt><trkpt lat="42.2091783" lon="14.5937717"><ele>13.0</ele><time>2026-05-02T09:06:54.901Z</time></trkpt><trkpt lat="42.2091033" lon="14.593895"><ele>14.25</ele><time>2026-05-02T09:06:56.901Z</time></trkpt><trkpt lat="42.209035" lon="14.5940183"><ele>15.5</ele><time>2026-05-02T09:06:58.901Z</time></trkpt><trkpt lat="42.2089633" lon="14.5941533"><ele>16.75</ele><time>2026-05-02T09:07:00.901Z</time></trkpt><trkpt lat="42.2088883" lon="14.5942817"><ele>18.0</ele><time>2026-05-02T09:07:02.901Z</time></trkpt><trkpt lat="42.2088133" lon="14.59441"><ele>17.0</ele><time>2026-05-02T09:07:04.9Z</time></trkpt><trkpt lat="42.2087533" lon="14.59454"><ele>16.0</ele><time>2026-05-02T09:07:06.901Z</time></trkpt><trkpt lat="42.2086733" lon="14.5946617"><ele>15.0</ele><time>2026-05-02T09:07:08.9Z</time></trkpt><trkpt lat="42.2086033" lon="14.59478"><ele>14.0</ele><time>2026-05-02T09:07:10.9Z</time></trkpt><trkpt lat="42.208525" lon="14.5948933"><ele>14.0</ele><time>2026-05-02T09:07:12.901Z</time></trkpt><trkpt lat="42.2084517" lon="14.5950233"><ele>14.0</ele><time>2026-05-02T09:07:14.9Z</time></trkpt><trkpt lat="42.2083833" lon="14.595145"><ele>14.0</ele><time>2026-05-02T09:07:16.901Z</time></trkpt><trkpt lat="42.2083183" lon="14.5952633"><ele>14.0</ele><time>2026-05-02T09:07:18.901Z</time></trkpt><trkpt lat="42.2082583" lon="14.595385"><ele>14.799999999999999</ele><time>2026-05-02T09:07:20.901Z</time></trkpt><trkpt lat="42.2081967" lon="14.5954967"><ele>15.599999999999998</ele><time>2026-05-02T09:07:22.901Z</time></trkpt><trkpt lat="42.2081367" lon="14.5956033"><ele>16.4</ele><time>2026-05-02T09:07:24.9Z</time></trkpt><trkpt lat="42.2080733" lon="14.59573"><ele>17.2</ele><time>2026-05-02T09:07:26.901Z</time></trkpt><trkpt lat="42.2080133" lon="14.5958517"><ele>18.0</ele><time>2026-05-02T09:07:28.9Z</time></trkpt><trkpt lat="42.20796" lon="14.5959617"><ele>18.0</ele><time>2026-05-02T09:07:30.9Z</time></trkpt><trkpt lat="42.207905" lon="14.5960867"><ele>18.0</ele><time>2026-05-02T09:07:32.901Z</time></trkpt><trkpt lat="42.2078533" lon="14.5962017"><ele>18.0</ele><time>2026-05-02T09:07:34.901Z</time></trkpt><trkpt lat="42.2078017" lon="14.59632"><ele>18.0</ele><time>2026-05-02T09:07:36.9Z</time></trkpt><trkpt lat="42.20775" lon="14.5964333"><ele>18.0</ele><time>2026-05-02T09:07:38.901Z</time></trkpt><trkpt lat="42.2076967" lon="14.59655"><ele>17.333333333333332</ele><time>2026-05-02T09:07:40.901Z</time></trkpt><trkpt lat="42.207665" lon="14.5966533"><ele>16.666666666666668</ele><time>2026-05-02T09:07:42.9Z</time></trkpt><trkpt lat="42.2076317" lon="14.5967567"><ele>16.0</ele><time>2026-05-02T09:07:44.901Z</time></trkpt><trkpt lat="42.2075917" lon="14.596845"><ele>15.333333333333334</ele><time>2026-05-02T09:07:46.9Z</time></trkpt><trkpt lat="42.20756" lon="14.5969517"><ele>14.666666666666668</ele><time>2026-05-02T09:07:49.9Z</time></trkpt><trkpt lat="42.2075167" lon="14.5970333"><ele>14.0</ele><time>2026-05-02T09:08:00.901Z</time></trkpt><trkpt lat="42.2074733" lon="14.5971067"><ele>13.0</ele><time>2026-05-02T09:08:03.901Z</time></trkpt><trkpt lat="42.207455" lon="14.5971917"><ele>12.0</ele><time>2026-05-02T09:08:07.901Z</time></trkpt><trkpt lat="42.2074817" lon="14.5972733"><ele>11.0</ele><time>2026-05-02T09:08:11.9Z</time></trkpt><trkpt lat="42.20754" lon="14.5973333"><ele>10.0</ele><time>2026-05-02T09:08:13.9Z</time></trkpt><trkpt lat="42.2076117" lon="14.5973767"><ele>9.0</ele><time>2026-05-02T09:08:15.901Z</time></trkpt><trkpt lat="42.2076683" lon="14.5974217"><ele>8.0</ele><time>2026-05-02T09:08:17.901Z</time></trkpt><trkpt lat="42.2077383" lon="14.5974767"><ele>7.0</ele><time>2026-05-02T09:08:20.901Z</time></trkpt><trkpt lat="42.207805" lon="14.5974867"><ele>14.0</ele><time>2026-05-02T09:08:25.9Z</time></trkpt><trkpt lat="42.2078314" lon="14.596639"><ele>10.5</ele><time>2026-05-02T09:09:32.171Z</time></trkpt><trkpt lat="42.2076423" lon="14.5971062"><ele>7.0</ele><time>2026-05-02T09:09:34.402Z</time></trkpt><trkpt lat="42.2076078" lon="14.5972469"><ele>7.0</ele><time>2026-05-02T09:09:35.902Z</time></trkpt><trkpt lat="42.2077649" lon="14.5971914"><ele>6.999999999999999</ele><time>2026-05-02T09:09:40.902Z</time></trkpt><trkpt lat="42.2077958" lon="14.5970563"><ele>6.999999999999999</ele><time>2026-05-02T09:10:49.902Z</time></trkpt><trkpt lat="42.2078144" lon="14.5969632"><ele>7.0</ele><time>2026-05-02T09:10:55.901Z</time></trkpt><trkpt lat="42.2077774" lon="14.5970734"><ele>7.0</ele><time>2026-05-02T09:11:16.901Z</time></trkpt><trkpt lat="42.2077489" lon="14.5972046"><ele>7.000000000000001</ele><time>2026-05-02T09:12:23.112Z</time></trkpt><trkpt lat="42.2078716" lon="14.5971667"><ele>7.0</ele><time>2026-05-02T09:19:44.899Z</time></trkpt><trkpt lat="42.2078001" lon="14.5971703"><ele>7.0</ele><time>2026-05-02T09:19:49.898Z</time></trkpt><trkpt lat="42.2077089" lon="14.5972051"><ele>7.0</ele><time>2026-05-02T09:30:11.4Z</time></trkpt><trkpt lat="42.2077676" lon="14.5971737"><ele>7.000000000000001</ele><time>2026-05-02T09:30:28.9Z</time></trkpt><trkpt lat="42.2077378" lon="14.597254"><ele>7.0</ele><time>2026-05-02T09:37:29.902Z</time></trkpt><trkpt lat="42.2077847" lon="14.5973217"><ele>7.000000000000001</ele><time>2026-05-02T09:37:42.902Z</time></trkpt><trkpt lat="42.2078411" lon="14.5973939"><ele>7.0</ele><time>2026-05-02T09:38:21.902Z</time></trkpt><trkpt lat="42.207796" lon="14.5974755"><ele>7.0</ele><time>2026-05-02T09:38:54.901Z</time></trkpt><trkpt lat="42.2077515" lon="14.5975636"><ele>7.0</ele><time>2026-05-02T09:38:58.902Z</time></trkpt><trkpt lat="42.207717" lon="14.597652"><ele>7.000000000000001</ele><time>2026-05-02T09:39:01.902Z</time></trkpt><trkpt lat="42.2076748" lon="14.5977389"><ele>7.0</ele><time>2026-05-02T09:39:04.902Z</time></trkpt><trkpt lat="42.2076396" lon="14.5978264"><ele>6.333333333333334</ele><time>2026-05-02T09:39:07.902Z</time></trkpt><trkpt lat="42.207612" lon="14.5979168"><ele>5.666666666666667</ele><time>2026-05-02T09:39:10.902Z</time></trkpt><trkpt lat="42.2075786" lon="14.5980241"><ele>5.0</ele><time>2026-05-02T09:39:13.901Z</time></trkpt><trkpt lat="42.2075383" lon="14.5981233"><ele>4.333333333333334</ele><time>2026-05-02T09:39:16.901Z</time></trkpt><trkpt lat="42.2074967" lon="14.5982067"><ele>3.666666666666667</ele><time>2026-05-02T09:39:19.902Z</time></trkpt><trkpt lat="42.2074517" lon="14.59832"><ele>3.0</ele><time>2026-05-02T09:39:22.901Z</time></trkpt><trkpt lat="42.2074133" lon="14.5983933"><ele>2.9999999999999996</ele><time>2026-05-02T09:39:24.902Z</time></trkpt><trkpt lat="42.2073767" lon="14.598465"><ele>3.0</ele><time>2026-05-02T09:39:26.902Z</time></trkpt><trkpt lat="42.207345" lon="14.5985417"><ele>3.0</ele><time>2026-05-02T09:39:28.901Z</time></trkpt><trkpt lat="42.2073083" lon="14.5986433"><ele>3.0</ele><time>2026-05-02T09:39:31.902Z</time></trkpt><trkpt lat="42.2072683" lon="14.598745"><ele>3.0</ele><time>2026-05-02T09:39:34.901Z</time></trkpt><trkpt lat="42.2072383" lon="14.59882"><ele>2.9999999999999996</ele><time>2026-05-02T09:39:36.901Z</time></trkpt><trkpt lat="42.207205" lon="14.5988933"><ele>3.0</ele><time>2026-05-02T09:39:38.902Z</time></trkpt><trkpt lat="42.2071517" lon="14.599"><ele>3.1666666666666665</ele><time>2026-05-02T09:39:41.902Z</time></trkpt><trkpt lat="42.2071117" lon="14.5990733"><ele>3.333333333333333</ele><time>2026-05-02T09:39:43.902Z</time></trkpt><trkpt lat="42.20708" lon="14.59916"><ele>3.5</ele><time>2026-05-02T09:39:45.902Z</time></trkpt><trkpt lat="42.207045" lon="14.5992517"><ele>3.6666666666666665</ele><time>2026-05-02T09:39:47.902Z</time></trkpt><trkpt lat="42.207015" lon="14.5993433"><ele>3.833333333333333</ele><time>2026-05-02T09:39:49.901Z</time></trkpt><trkpt lat="42.20698" lon="14.59944"><ele>4.0</ele><time>2026-05-02T09:39:51.902Z</time></trkpt><trkpt lat="42.2069383" lon="14.5995333"><ele>3.9999999999999996</ele><time>2026-05-02T09:39:53.901Z</time></trkpt><trkpt lat="42.2068983" lon="14.5996317"><ele>4.0</ele><time>2026-05-02T09:39:55.902Z</time></trkpt><trkpt lat="42.2068517" lon="14.5997283"><ele>4.0</ele><time>2026-05-02T09:39:57.901Z</time></trkpt><trkpt lat="42.2068067" lon="14.59982"><ele>4.0</ele><time>2026-05-02T09:39:59.901Z</time></trkpt><trkpt lat="42.2067683" lon="14.5999167"><ele>3.9999999999999996</ele><time>2026-05-02T09:40:01.901Z</time></trkpt><trkpt lat="42.2067267" lon="14.6000167"><ele>4.0</ele><time>2026-05-02T09:40:03.902Z</time></trkpt><trkpt lat="42.206695" lon="14.6001217"><ele>3.9999999999999996</ele><time>2026-05-02T09:40:05.901Z</time></trkpt><trkpt lat="42.2066617" lon="14.6002183"><ele>4.0</ele><time>2026-05-02T09:40:07.901Z</time></trkpt><trkpt lat="42.206625" lon="14.60031"><ele>4.0</ele><time>2026-05-02T09:40:09.902Z</time></trkpt><trkpt lat="42.2065867" lon="14.6003983"><ele>4.0</ele><time>2026-05-02T09:40:11.902Z</time></trkpt><trkpt lat="42.2065483" lon="14.6004933"><ele>3.9999999999999996</ele><time>2026-05-02T09:40:13.902Z</time></trkpt><trkpt lat="42.2065117" lon="14.6005883"><ele>4.0</ele><time>2026-05-02T09:40:15.902Z</time></trkpt><trkpt lat="42.2064717" lon="14.6006817"><ele>3.833333333333333</ele><time>2026-05-02T09:40:17.902Z</time></trkpt><trkpt lat="42.2064333" lon="14.6007783"><ele>3.6666666666666665</ele><time>2026-05-02T09:40:19.901Z</time></trkpt><trkpt lat="42.2063967" lon="14.60087"><ele>3.5</ele><time>2026-05-02T09:40:21.901Z</time></trkpt><trkpt lat="42.2063567" lon="14.6009517"><ele>3.333333333333333</ele><time>2026-05-02T09:40:23.902Z</time></trkpt><trkpt lat="42.2063217" lon="14.6010333"><ele>3.1666666666666665</ele><time>2026-05-02T09:40:25.901Z</time></trkpt><trkpt lat="42.2062783" lon="14.60114"><ele>3.0</ele><time>2026-05-02T09:40:28.901Z</time></trkpt><trkpt lat="42.20624" lon="14.60125"><ele>3.0</ele><time>2026-05-02T09:40:31.902Z</time></trkpt><trkpt lat="42.2062017" lon="14.6013583"><ele>3.0</ele><time>2026-05-02T09:40:34.901Z</time></trkpt><trkpt lat="42.2061667" lon="14.6014533"><ele>3.0</ele><time>2026-05-02T09:40:37.902Z</time></trkpt><trkpt lat="42.20612" lon="14.601555"><ele>3.0</ele><time>2026-05-02T09:40:40.901Z</time></trkpt><trkpt lat="42.2060733" lon="14.6016483"><ele>3.0</ele><time>2026-05-02T09:40:43.901Z</time></trkpt><trkpt lat="42.2060367" lon="14.601725"><ele>3.0</ele><time>2026-05-02T09:40:46.901Z</time></trkpt><trkpt lat="42.2059967" lon="14.6018283"><ele>2.9999999999999996</ele><time>2026-05-02T09:40:49.902Z</time></trkpt><trkpt lat="42.2059633" lon="14.6019183"><ele>3.0</ele><time>2026-05-02T09:40:52.901Z</time></trkpt><trkpt lat="42.2059283" lon="14.60201"><ele>3.0</ele><time>2026-05-02T09:40:55.901Z</time></trkpt><trkpt lat="42.2058883" lon="14.6021283"><ele>3.0</ele><time>2026-05-02T09:40:58.901Z</time></trkpt><trkpt lat="42.20586" lon="14.602205"><ele>3.0</ele><time>2026-05-02T09:41:00.901Z</time></trkpt><trkpt lat="42.2058267" lon="14.6022833"><ele>2.9999999999999996</ele><time>2026-05-02T09:41:02.902Z</time></trkpt><trkpt lat="42.2057933" lon="14.602365"><ele>3.0</ele><time>2026-05-02T09:41:04.902Z</time></trkpt><trkpt lat="42.2057583" lon="14.6024533"><ele>3.0</ele><time>2026-05-02T09:41:06.902Z</time></trkpt><trkpt lat="42.2057233" lon="14.6025483"><ele>3.0</ele><time>2026-05-02T09:41:08.902Z</time></trkpt><trkpt lat="42.2056883" lon="14.6026367"><ele>3.0</ele><time>2026-05-02T09:41:10.902Z</time></trkpt><trkpt lat="42.20565" lon="14.602725"><ele>3.0</ele><time>2026-05-02T09:41:12.901Z</time></trkpt><trkpt lat="42.2056133" lon="14.6028183"><ele>3.0</ele><time>2026-05-02T09:41:14.901Z</time></trkpt><trkpt lat="42.205585" lon="14.6029133"><ele>3.0</ele><time>2026-05-02T09:41:16.902Z</time></trkpt><trkpt lat="42.20555" lon="14.6029917"><ele>3.1428571428571423</ele><time>2026-05-02T09:41:18.902Z</time></trkpt><trkpt lat="42.205515" lon="14.603065"><ele>3.2857142857142856</ele><time>2026-05-02T09:41:20.902Z</time></trkpt><trkpt lat="42.205475" lon="14.6031333"><ele>3.4285714285714284</ele><time>2026-05-02T09:41:22.902Z</time></trkpt><trkpt lat="42.2054383" lon="14.6032083"><ele>3.571428571428571</ele><time>2026-05-02T09:41:24.901Z</time></trkpt><trkpt lat="42.2054017" lon="14.6032933"><ele>3.714285714285714</ele><time>2026-05-02T09:41:26.902Z</time></trkpt><trkpt lat="42.205365" lon="14.6033783"><ele>3.8571428571428568</ele><time>2026-05-02T09:41:28.902Z</time></trkpt><trkpt lat="42.20533" lon="14.6034683"><ele>4.0</ele><time>2026-05-02T09:41:30.902Z</time></trkpt><trkpt lat="42.2052917" lon="14.6035617"><ele>3.9999999999999996</ele><time>2026-05-02T09:41:32.902Z</time></trkpt><trkpt lat="42.2052533" lon="14.6036533"><ele>4.0</ele><time>2026-05-02T09:41:34.902Z</time></trkpt><trkpt lat="42.205215" lon="14.603745"><ele>4.0</ele><time>2026-05-02T09:41:36.901Z</time></trkpt><trkpt lat="42.2051783" lon="14.6038383"><ele>4.0</ele><time>2026-05-02T09:41:38.901Z</time></trkpt><trkpt lat="42.2051433" lon="14.6039283"><ele>3.9999999999999996</ele><time>2026-05-02T09:41:40.902Z</time></trkpt><trkpt lat="42.20511" lon="14.6040183"><ele>4.0</ele><time>2026-05-02T09:41:42.902Z</time></trkpt><trkpt lat="42.2050783" lon="14.604115"><ele>3.571428571428571</ele><time>2026-05-02T09:41:44.902Z</time></trkpt><trkpt lat="42.2050467" lon="14.6042033"><ele>3.1428571428571423</ele><time>2026-05-02T09:41:46.902Z</time></trkpt><trkpt lat="42.205015" lon="14.6042833"><ele>2.714285714285714</ele><time>2026-05-02T09:41:48.902Z</time></trkpt><trkpt lat="42.2049267" lon="14.6043483"><ele>2.2857142857142856</ele><time>2026-05-02T09:41:51.902Z</time></trkpt><trkpt lat="42.2048533" lon="14.6043267"><ele>1.857142857142857</ele><time>2026-05-02T09:41:53.902Z</time></trkpt><trkpt lat="42.2047933" lon="14.604295"><ele>1.4285714285714284</ele><time>2026-05-02T09:41:55.901Z</time></trkpt><trkpt lat="42.2047367" lon="14.6042483"><ele>1.0</ele><time>2026-05-02T09:41:57.901Z</time></trkpt><trkpt lat="42.2046817" lon="14.6042"><ele>0.8333333333333333</ele><time>2026-05-02T09:41:59.902Z</time></trkpt><trkpt lat="42.2046233" lon="14.6041517"><ele>0.6666666666666666</ele><time>2026-05-02T09:42:01.901Z</time></trkpt><trkpt lat="42.2045467" lon="14.6040817"><ele>0.5</ele><time>2026-05-02T09:42:04.902Z</time></trkpt><trkpt lat="42.2044867" lon="14.6040383"><ele>0.3333333333333333</ele><time>2026-05-02T09:42:06.902Z</time></trkpt><trkpt lat="42.20443" lon="14.6039733"><ele>0.16666666666666666</ele><time>2026-05-02T09:42:08.901Z</time></trkpt><trkpt lat="42.2043633" lon="14.60392"><ele>0.0</ele><time>2026-05-02T09:42:10.901Z</time></trkpt><trkpt lat="42.2042983" lon="14.6038733"><ele>0.0</ele><time>2026-05-02T09:42:13.902Z</time></trkpt><trkpt lat="42.204215" lon="14.60379"><ele>0.0</ele><time>2026-05-02T09:42:16.901Z</time></trkpt><trkpt lat="42.2041633" lon="14.6037133"><ele>0.0</ele><time>2026-05-02T09:42:18.902Z</time></trkpt><trkpt lat="42.20425" lon="14.6037117"><ele>0.0</ele><time>2026-05-02T09:42:23.902Z</time></trkpt><trkpt lat="42.2043317" lon="14.6037667"><ele>0.0</ele><time>2026-05-02T09:42:25.902Z</time></trkpt><trkpt lat="42.2044133" lon="14.6037567"><ele>0.0</ele><time>2026-05-02T09:42:27.901Z</time></trkpt><trkpt lat="42.2044967" lon="14.6037133"><ele>0.0</ele><time>2026-05-02T09:42:29.902Z</time></trkpt><trkpt lat="42.2045567" lon="14.6036617"><ele>0.0</ele><time>2026-05-02T09:42:31.902Z</time></trkpt><trkpt lat="42.20462" lon="14.60364"><ele>0.0</ele><time>2026-05-02T09:42:34.902Z</time></trkpt><trkpt lat="42.2045967" lon="14.6037383"><ele>0.0</ele><time>2026-05-02T09:42:38.902Z</time></trkpt><trkpt lat="42.2045317" lon="14.603825"><ele>0.0</ele><time>2026-05-02T09:42:40.901Z</time></trkpt><trkpt lat="42.204475" lon="14.60393"><ele>0.0</ele><time>2026-05-02T09:42:42.902Z</time></trkpt><trkpt lat="42.204425" lon="14.6040383"><ele>0.0</ele><time>2026-05-02T09:42:44.902Z</time></trkpt><trkpt lat="42.2043783" lon="14.6041483"><ele>0.0</ele><time>2026-05-02T09:42:46.902Z</time></trkpt><trkpt lat="42.20434" lon="14.6042483"><ele>0.0</ele><time>2026-05-02T09:42:48.902Z</time></trkpt><trkpt lat="42.2042967" lon="14.60434"><ele>0.0</ele><time>2026-05-02T09:42:50.901Z</time></trkpt><trkpt lat="42.2042433" lon="14.6044483"><ele>0.0</ele><time>2026-05-02T09:42:52.902Z</time></trkpt><trkpt lat="42.20419" lon="14.6045717"><ele>0.2</ele><time>2026-05-02T09:42:54.901Z</time></trkpt><trkpt lat="42.2041367" lon="14.6046933"><ele>0.4</ele><time>2026-05-02T09:42:56.902Z</time></trkpt><trkpt lat="42.2040867" lon="14.6048117"><ele>0.6000000000000001</ele><time>2026-05-02T09:42:58.902Z</time></trkpt><trkpt lat="42.204035" lon="14.6049467"><ele>0.8</ele><time>2026-05-02T09:43:00.901Z</time></trkpt><trkpt lat="42.203985" lon="14.6050867"><ele>1.0</ele><time>2026-05-02T09:43:02.902Z</time></trkpt><trkpt lat="42.2039317" lon="14.60522"><ele>0.8</ele><time>2026-05-02T09:43:04.901Z</time></trkpt><trkpt lat="42.2038717" lon="14.6053567"><ele>0.6000000000000001</ele><time>2026-05-02T09:43:06.902Z</time></trkpt><trkpt lat="42.2038217" lon="14.605475"><ele>0.4</ele><time>2026-05-02T09:43:08.902Z</time></trkpt><trkpt lat="42.2037817" lon="14.6055717"><ele>0.2</ele><time>2026-05-02T09:43:10.902Z</time></trkpt><trkpt lat="42.2037333" lon="14.605645"><ele>0.0</ele><time>2026-05-02T09:43:13.902Z</time></trkpt><trkpt lat="42.2036883" lon="14.6057383"><ele>0.0</ele><time>2026-05-02T09:43:17.901Z</time></trkpt><trkpt lat="42.2036533" lon="14.605825"><ele>0.0</ele><time>2026-05-02T09:43:20.902Z</time></trkpt><trkpt lat="42.2036083" lon="14.605925"><ele>0.0</ele><time>2026-05-02T09:43:23.901Z</time></trkpt><trkpt lat="42.2035617" lon="14.6060417"><ele>0.0</ele><time>2026-05-02T09:43:26.901Z</time></trkpt><trkpt lat="42.2035233" lon="14.60613"><ele>0.0</ele><time>2026-05-02T09:43:28.902Z</time></trkpt><trkpt lat="42.2034867" lon="14.60622"><ele>0.0</ele><time>2026-05-02T09:43:31.902Z</time></trkpt><trkpt lat="42.2034917" lon="14.6063383"><ele>0.2</ele><time>2026-05-02T09:43:35.902Z</time></trkpt><trkpt lat="42.203485" lon="14.6064383"><ele>0.4</ele><time>2026-05-02T09:43:37.902Z</time></trkpt><trkpt lat="42.2034683" lon="14.6065633"><ele>0.6000000000000001</ele><time>2026-05-02T09:43:39.901Z</time></trkpt><trkpt lat="42.2034267" lon="14.6067033"><ele>0.8</ele><time>2026-05-02T09:43:41.901Z</time></trkpt><trkpt lat="42.2033833" lon="14.606825"><ele>1.0</ele><time>2026-05-02T09:43:43.902Z</time></trkpt><trkpt lat="42.2033433" lon="14.60693"><ele>1.3333333333333333</ele><time>2026-05-02T09:43:45.902Z</time></trkpt><trkpt lat="42.2033067" lon="14.6070283"><ele>1.6666666666666665</ele><time>2026-05-02T09:43:47.902Z</time></trkpt><trkpt lat="42.2032733" lon="14.60712"><ele>2.0</ele><time>2026-05-02T09:43:49.901Z</time></trkpt><trkpt lat="42.203245" lon="14.6072083"><ele>2.3333333333333335</ele><time>2026-05-02T09:43:51.902Z</time></trkpt><trkpt lat="42.2032067" lon="14.6073017"><ele>2.6666666666666665</ele><time>2026-05-02T09:43:53.902Z</time></trkpt><trkpt lat="42.2031683" lon="14.6073867"><ele>3.0</ele><time>2026-05-02T09:43:55.901Z</time></trkpt><trkpt lat="42.2031233" lon="14.6074783"><ele>3.0</ele><time>2026-05-02T09:43:57.902Z</time></trkpt><trkpt lat="42.20307" lon="14.60756"><ele>3.0</ele><time>2026-05-02T09:43:59.901Z</time></trkpt><trkpt lat="42.203025" lon="14.6076433"><ele>3.0</ele><time>2026-05-02T09:44:01.902Z</time></trkpt><trkpt lat="42.2029817" lon="14.6077433"><ele>3.0</ele><time>2026-05-02T09:44:03.902Z</time></trkpt><trkpt lat="42.2029383" lon="14.6078433"><ele>3.0</ele><time>2026-05-02T09:44:05.901Z</time></trkpt><trkpt lat="42.2029067" lon="14.60793"><ele>3.0</ele><time>2026-05-02T09:44:07.901Z</time></trkpt><trkpt lat="42.202875" lon="14.6080267"><ele>3.1428571428571423</ele><time>2026-05-02T09:44:09.902Z</time></trkpt><trkpt lat="42.2028367" lon="14.60811"><ele>3.2857142857142856</ele><time>2026-05-02T09:44:11.902Z</time></trkpt><trkpt lat="42.2027933" lon="14.6081883"><ele>3.4285714285714284</ele><time>2026-05-02T09:44:13.902Z</time></trkpt><trkpt lat="42.2027583" lon="14.6082767"><ele>3.571428571428571</ele><time>2026-05-02T09:44:15.902Z</time></trkpt><trkpt lat="42.202725" lon="14.608365"><ele>3.714285714285714</ele><time>2026-05-02T09:44:17.902Z</time></trkpt><trkpt lat="42.202685" lon="14.6084533"><ele>3.8571428571428568</ele><time>2026-05-02T09:44:19.901Z</time></trkpt><trkpt lat="42.20264" lon="14.60853"><ele>4.0</ele><time>2026-05-02T09:44:21.902Z</time></trkpt><trkpt lat="42.2026033" lon="14.6086217"><ele>4.166666666666666</ele><time>2026-05-02T09:44:23.901Z</time></trkpt><trkpt lat="42.2025717" lon="14.60872"><ele>4.333333333333333</ele><time>2026-05-02T09:44:25.902Z</time></trkpt><trkpt lat="42.20254" lon="14.6088133"><ele>4.5</ele><time>2026-05-02T09:44:27.901Z</time></trkpt><trkpt lat="42.2024967" lon="14.6089017"><ele>4.666666666666667</ele><time>2026-05-02T09:44:29.902Z</time></trkpt><trkpt lat="42.20245" lon="14.6089883"><ele>4.833333333333334</ele><time>2026-05-02T09:44:31.902Z</time></trkpt><trkpt lat="42.2024083" lon="14.60908"><ele>5.0</ele><time>2026-05-02T09:44:33.902Z</time></trkpt><trkpt lat="42.20237" lon="14.6091833"><ele>4.666666666666667</ele><time>2026-05-02T09:44:35.901Z</time></trkpt><trkpt lat="42.2023233" lon="14.6092767"><ele>4.333333333333334</ele><time>2026-05-02T09:44:37.902Z</time></trkpt><trkpt lat="42.2022867" lon="14.6093817"><ele>4.0</ele><time>2026-05-02T09:44:39.902Z</time></trkpt><trkpt lat="42.2022533" lon="14.6094683"><ele>3.666666666666667</ele><time>2026-05-02T09:44:41.901Z</time></trkpt><trkpt lat="42.2022183" lon="14.60956"><ele>3.3333333333333335</ele><time>2026-05-02T09:44:43.902Z</time></trkpt><trkpt lat="42.2021817" lon="14.6096567"><ele>3.0</ele><time>2026-05-02T09:44:45.902Z</time></trkpt><trkpt lat="42.2021483" lon="14.6097383"><ele>3.0</ele><time>2026-05-02T09:44:47.902Z</time></trkpt><trkpt lat="42.202125" lon="14.6098617"><ele>3.0</ele><time>2026-05-02T09:44:50.901Z</time></trkpt><trkpt lat="42.2020917" lon="14.6099833"><ele>3.0</ele><time>2026-05-02T09:44:53.901Z</time></trkpt><trkpt lat="42.20205" lon="14.6100983"><ele>3.0</ele><time>2026-05-02T09:44:55.902Z</time></trkpt><trkpt lat="42.2020117" lon="14.6102117"><ele>3.0</ele><time>2026-05-02T09:44:57.902Z</time></trkpt><trkpt lat="42.2019783" lon="14.610315"><ele>3.3333333333333335</ele><time>2026-05-02T09:44:59.902Z</time></trkpt><trkpt lat="42.2019483" lon="14.6104067"><ele>3.666666666666667</ele><time>2026-05-02T09:45:01.901Z</time></trkpt><trkpt lat="42.2019217" lon="14.6105133"><ele>4.0</ele><time>2026-05-02T09:45:04.902Z</time></trkpt><trkpt lat="42.2018833" lon="14.61061"><ele>4.333333333333334</ele><time>2026-05-02T09:45:07.901Z</time></trkpt><trkpt lat="42.2018517" lon="14.6107067"><ele>4.666666666666667</ele><time>2026-05-02T09:45:09.902Z</time></trkpt><trkpt lat="42.2018117" lon="14.6107983"><ele>5.0</ele><time>2026-05-02T09:45:11.902Z</time></trkpt><trkpt lat="42.201775" lon="14.6109083"><ele>5.0</ele><time>2026-05-02T09:45:13.901Z</time></trkpt><trkpt lat="42.2017367" lon="14.6110217"><ele>5.0</ele><time>2026-05-02T09:45:15.901Z</time></trkpt><trkpt lat="42.201695" lon="14.6111317"><ele>5.0</ele><time>2026-05-02T09:45:17.902Z</time></trkpt><trkpt lat="42.2016567" lon="14.6112533"><ele>5.0</ele><time>2026-05-02T09:45:19.901Z</time></trkpt><trkpt lat="42.2016217" lon="14.6113683"><ele>5.0</ele><time>2026-05-02T09:45:21.902Z</time></trkpt><trkpt lat="42.20158" lon="14.6114867"><ele>5.0</ele><time>2026-05-02T09:45:23.902Z</time></trkpt><trkpt lat="42.201545" lon="14.6115917"><ele>5.0</ele><time>2026-05-02T09:45:25.901Z</time></trkpt><trkpt lat="42.2015033" lon="14.6117033"><ele>5.0</ele><time>2026-05-02T09:45:27.902Z</time></trkpt><trkpt lat="42.20147" lon="14.6118183"><ele>5.0</ele><time>2026-05-02T09:45:29.901Z</time></trkpt><trkpt lat="42.2014383" lon="14.61193"><ele>5.0</ele><time>2026-05-02T09:45:31.901Z</time></trkpt><trkpt lat="42.2014067" lon="14.6120567"><ele>5.2</ele><time>2026-05-02T09:45:33.901Z</time></trkpt><trkpt lat="42.20137" lon="14.6121717"><ele>5.4</ele><time>2026-05-02T09:45:35.902Z</time></trkpt><trkpt lat="42.2013367" lon="14.61229"><ele>5.6</ele><time>2026-05-02T09:45:37.901Z</time></trkpt><trkpt lat="42.201305" lon="14.6124067"><ele>5.8</ele><time>2026-05-02T09:45:39.902Z</time></trkpt><trkpt lat="42.2012767" lon="14.6125283"><ele>6.0</ele><time>2026-05-02T09:45:41.901Z</time></trkpt><trkpt lat="42.2012433" lon="14.6126467"><ele>6.0</ele><time>2026-05-02T09:45:43.902Z</time></trkpt><trkpt lat="42.2012083" lon="14.612765"><ele>6.0</ele><time>2026-05-02T09:45:45.902Z</time></trkpt><trkpt lat="42.201175" lon="14.61288"><ele>6.0</ele><time>2026-05-02T09:45:47.902Z</time></trkpt><trkpt lat="42.2011433" lon="14.6129983"><ele>6.0</ele><time>2026-05-02T09:45:49.902Z</time></trkpt><trkpt lat="42.20111" lon="14.6131133"><ele>6.0</ele><time>2026-05-02T09:45:51.902Z</time></trkpt><trkpt lat="42.201075" lon="14.613225"><ele>6.166666666666667</ele><time>2026-05-02T09:45:53.902Z</time></trkpt><trkpt lat="42.2010333" lon="14.6133283"><ele>6.333333333333334</ele><time>2026-05-02T09:45:55.902Z</time></trkpt><trkpt lat="42.2009983" lon="14.6134383"><ele>6.5</ele><time>2026-05-02T09:45:57.902Z</time></trkpt><trkpt lat="42.20096" lon="14.61354"><ele>6.666666666666667</ele><time>2026-05-02T09:45:59.901Z</time></trkpt><trkpt lat="42.2009233" lon="14.6136517"><ele>6.833333333333334</ele><time>2026-05-02T09:46:01.902Z</time></trkpt><trkpt lat="42.2008883" lon="14.6137567"><ele>7.0</ele><time>2026-05-02T09:46:03.902Z</time></trkpt><trkpt lat="42.2008533" lon="14.6138617"><ele>6.6</ele><time>2026-05-02T09:46:05.901Z</time></trkpt><trkpt lat="42.2008217" lon="14.61397"><ele>6.199999999999999</ele><time>2026-05-02T09:46:07.902Z</time></trkpt><trkpt lat="42.200795" lon="14.6140917"><ele>5.8</ele><time>2026-05-02T09:46:09.902Z</time></trkpt><trkpt lat="42.2007617" lon="14.6142117"><ele>5.4</ele><time>2026-05-02T09:46:11.902Z</time></trkpt><trkpt lat="42.2007283" lon="14.6143333"><ele>5.0</ele><time>2026-05-02T09:46:13.901Z</time></trkpt><trkpt lat="42.2006967" lon="14.6144533"><ele>4.6</ele><time>2026-05-02T09:46:15.902Z</time></trkpt><trkpt lat="42.2006717" lon="14.614565"><ele>4.2</ele><time>2026-05-02T09:46:17.901Z</time></trkpt><trkpt lat="42.20066" lon="14.61469"><ele>3.8</ele><time>2026-05-02T09:46:19.902Z</time></trkpt><trkpt lat="42.2006633" lon="14.61482"><ele>3.4</ele><time>2026-05-02T09:46:21.901Z</time></trkpt><trkpt lat="42.2006483" lon="14.6149483"><ele>3.0</ele><time>2026-05-02T09:46:23.902Z</time></trkpt><trkpt lat="42.2006083" lon="14.6150567"><ele>3.1666666666666665</ele><time>2026-05-02T09:46:25.902Z</time></trkpt><trkpt lat="42.2005567" lon="14.615145"><ele>3.333333333333333</ele><time>2026-05-02T09:46:27.902Z</time></trkpt><trkpt lat="42.200505" lon="14.615225"><ele>3.5</ele><time>2026-05-02T09:46:29.902Z</time></trkpt><trkpt lat="42.2004483" lon="14.6153083"><ele>3.6666666666666665</ele><time>2026-05-02T09:46:31.901Z</time></trkpt><trkpt lat="42.2004" lon="14.6154033"><ele>3.833333333333333</ele><time>2026-05-02T09:46:33.901Z</time></trkpt><trkpt lat="42.200355" lon="14.6154967"><ele>4.0</ele><time>2026-05-02T09:46:35.902Z</time></trkpt><trkpt lat="42.20032" lon="14.6155917"><ele>4.0</ele><time>2026-05-02T09:46:37.902Z</time></trkpt><trkpt lat="42.2002817" lon="14.61569"><ele>4.0</ele><time>2026-05-02T09:46:39.902Z</time></trkpt><trkpt lat="42.2002383" lon="14.6158"><ele>4.0</ele><time>2026-05-02T09:46:41.902Z</time></trkpt><trkpt lat="42.20019" lon="14.615905"><ele>4.0</ele><time>2026-05-02T09:46:43.901Z</time></trkpt><trkpt lat="42.2001467" lon="14.6160083"><ele>4.0</ele><time>2026-05-02T09:46:45.902Z</time></trkpt><trkpt lat="42.2001117" lon="14.6161317"><ele>3.4000000000000004</ele><time>2026-05-02T09:46:47.902Z</time></trkpt><trkpt lat="42.2000717" lon="14.616245"><ele>2.8000000000000003</ele><time>2026-05-02T09:46:49.902Z</time></trkpt><trkpt lat="42.2000367" lon="14.6163633"><ele>2.2</ele><time>2026-05-02T09:46:51.902Z</time></trkpt><trkpt lat="42.199995" lon="14.61648"><ele>1.6</ele><time>2026-05-02T09:46:53.901Z</time></trkpt><trkpt lat="42.199955" lon="14.6166017"><ele>1.0</ele><time>2026-05-02T09:46:55.901Z</time></trkpt><trkpt lat="42.1999133" lon="14.6167467"><ele>1.0</ele><time>2026-05-02T09:46:57.902Z</time></trkpt><trkpt lat="42.1998783" lon="14.6168883"><ele>1.0</ele><time>2026-05-02T09:46:59.901Z</time></trkpt><trkpt lat="42.1998367" lon="14.6170117"><ele>1.0</ele><time>2026-05-02T09:47:01.902Z</time></trkpt><trkpt lat="42.1997983" lon="14.6171383"><ele>1.0</ele><time>2026-05-02T09:47:03.902Z</time></trkpt><trkpt lat="42.1997567" lon="14.6172583"><ele>1.0</ele><time>2026-05-02T09:47:05.901Z</time></trkpt><trkpt lat="42.1997167" lon="14.6173717"><ele>1.3333333333333333</ele><time>2026-05-02T09:47:07.901Z</time></trkpt><trkpt lat="42.1996817" lon="14.6174833"><ele>1.6666666666666665</ele><time>2026-05-02T09:47:09.901Z</time></trkpt><trkpt lat="42.1996433" lon="14.617595"><ele>2.0</ele><time>2026-05-02T09:47:11.901Z</time></trkpt><trkpt lat="42.1996" lon="14.6176967"><ele>2.3333333333333335</ele><time>2026-05-02T09:47:13.902Z</time></trkpt><trkpt lat="42.1995617" lon="14.6178017"><ele>2.6666666666666665</ele><time>2026-05-02T09:47:15.902Z</time></trkpt><trkpt lat="42.199525" lon="14.61791"><ele>3.0</ele><time>2026-05-02T09:47:17.902Z</time></trkpt><trkpt lat="42.1994883" lon="14.618015"><ele>3.0</ele><time>2026-05-02T09:47:19.902Z</time></trkpt><trkpt lat="42.199455" lon="14.618115"><ele>3.0</ele><time>2026-05-02T09:47:21.902Z</time></trkpt><trkpt lat="42.1994217" lon="14.61822"><ele>3.0</ele><time>2026-05-02T09:47:23.902Z</time></trkpt><trkpt lat="42.1993917" lon="14.6183217"><ele>3.0</ele><time>2026-05-02T09:47:25.902Z</time></trkpt><trkpt lat="42.199355" lon="14.618415"><ele>3.0</ele><time>2026-05-02T09:47:27.902Z</time></trkpt><trkpt lat="42.1993233" lon="14.6185183"><ele>3.0</ele><time>2026-05-02T09:47:29.902Z</time></trkpt><trkpt lat="42.1992917" lon="14.61863"><ele>2.8333333333333335</ele><time>2026-05-02T09:47:31.902Z</time></trkpt><trkpt lat="42.199255" lon="14.6187333"><ele>2.6666666666666665</ele><time>2026-05-02T09:47:33.901Z</time></trkpt><trkpt lat="42.19922" lon="14.6188317"><ele>2.5</ele><time>2026-05-02T09:47:35.902Z</time></trkpt><trkpt lat="42.1991817" lon="14.6189433"><ele>2.333333333333333</ele><time>2026-05-02T09:47:37.902Z</time></trkpt><trkpt lat="42.1991417" lon="14.6190467"><ele>2.1666666666666665</ele><time>2026-05-02T09:47:39.902Z</time></trkpt><trkpt lat="42.1991067" lon="14.6191567"><ele>2.0</ele><time>2026-05-02T09:47:41.902Z</time></trkpt><trkpt lat="42.1990667" lon="14.6192667"><ele>1.9999999999999998</ele><time>2026-05-02T09:47:43.902Z</time></trkpt><trkpt lat="42.1990317" lon="14.6193717"><ele>2.0</ele><time>2026-05-02T09:47:45.902Z</time></trkpt><trkpt lat="42.1989967" lon="14.619475"><ele>2.0</ele><time>2026-05-02T09:47:47.902Z</time></trkpt><trkpt lat="42.19896" lon="14.6195783"><ele>2.0</ele><time>2026-05-02T09:47:49.901Z</time></trkpt><trkpt lat="42.1989233" lon="14.619675"><ele>1.9999999999999998</ele><time>2026-05-02T09:47:51.902Z</time></trkpt><trkpt lat="42.1988917" lon="14.619775"><ele>2.0</ele><time>2026-05-02T09:47:53.901Z</time></trkpt><trkpt lat="42.1988567" lon="14.6198733"><ele>3.4000000000000004</ele><time>2026-05-02T09:47:55.901Z</time></trkpt><trkpt lat="42.1988233" lon="14.6199833"><ele>4.800000000000001</ele><time>2026-05-02T09:47:57.901Z</time></trkpt><trkpt lat="42.1987933" lon="14.6200983"><ele>6.2</ele><time>2026-05-02T09:47:59.901Z</time></trkpt><trkpt lat="42.19876" lon="14.6202217"><ele>7.6000000000000005</ele><time>2026-05-02T09:48:01.902Z</time></trkpt><trkpt lat="42.1987317" lon="14.620335"><ele>9.0</ele><time>2026-05-02T09:48:03.901Z</time></trkpt><trkpt lat="42.1987017" lon="14.620455"><ele>9.0</ele><time>2026-05-02T09:48:05.902Z</time></trkpt><trkpt lat="42.1986683" lon="14.6205717"><ele>9.0</ele><time>2026-05-02T09:48:07.902Z</time></trkpt><trkpt lat="42.1986367" lon="14.6206933"><ele>9.0</ele><time>2026-05-02T09:48:09.902Z</time></trkpt><trkpt lat="42.198605" lon="14.6208083"><ele>9.0</ele><time>2026-05-02T09:48:11.902Z</time></trkpt><trkpt lat="42.1985767" lon="14.6209283"><ele>9.0</ele><time>2026-05-02T09:48:13.901Z</time></trkpt><trkpt lat="42.1985367" lon="14.6210433"><ele>8.8</ele><time>2026-05-02T09:48:15.901Z</time></trkpt><trkpt lat="42.1985017" lon="14.6211583"><ele>8.600000000000001</ele><time>2026-05-02T09:48:17.902Z</time></trkpt><trkpt lat="42.198465" lon="14.6212783"><ele>8.4</ele><time>2026-05-02T09:48:19.901Z</time></trkpt><trkpt lat="42.1984317" lon="14.6213933"><ele>8.200000000000001</ele><time>2026-05-02T09:48:21.902Z</time></trkpt><trkpt lat="42.1983983" lon="14.621505"><ele>8.0</ele><time>2026-05-02T09:48:23.902Z</time></trkpt><trkpt lat="42.1983717" lon="14.62161"><ele>7.999999999999999</ele><time>2026-05-02T09:48:25.902Z</time></trkpt><trkpt lat="42.19834" lon="14.62171"><ele>8.0</ele><time>2026-05-02T09:48:27.902Z</time></trkpt><trkpt lat="42.19831" lon="14.6218117"><ele>8.0</ele><time>2026-05-02T09:48:29.901Z</time></trkpt><trkpt lat="42.1982767" lon="14.6219233"><ele>8.0</ele><time>2026-05-02T09:48:31.901Z</time></trkpt><trkpt lat="42.1982433" lon="14.6220317"><ele>7.999999999999999</ele><time>2026-05-02T09:48:33.902Z</time></trkpt><trkpt lat="42.198215" lon="14.6221333"><ele>8.0</ele><time>2026-05-02T09:48:35.901Z</time></trkpt><trkpt lat="42.1981833" lon="14.6222383"><ele>8.5</ele><time>2026-05-02T09:48:37.901Z</time></trkpt><trkpt lat="42.19815" lon="14.62234"><ele>9.0</ele><time>2026-05-02T09:48:39.902Z</time></trkpt><trkpt lat="42.1981183" lon="14.6224367"><ele>9.5</ele><time>2026-05-02T09:48:41.901Z</time></trkpt><trkpt lat="42.198095" lon="14.6225483"><ele>10.0</ele><time>2026-05-02T09:48:43.902Z</time></trkpt><trkpt lat="42.1980667" lon="14.62265"><ele>10.5</ele><time>2026-05-02T09:48:45.902Z</time></trkpt><trkpt lat="42.1980383" lon="14.6227517"><ele>11.0</ele><time>2026-05-02T09:48:47.902Z</time></trkpt><trkpt lat="42.198005" lon="14.6228617"><ele>11.0</ele><time>2026-05-02T09:48:49.901Z</time></trkpt><trkpt lat="42.1979717" lon="14.62296"><ele>11.0</ele><time>2026-05-02T09:48:51.901Z</time></trkpt><trkpt lat="42.19794" lon="14.623065"><ele>11.0</ele><time>2026-05-02T09:48:53.902Z</time></trkpt><trkpt lat="42.19791" lon="14.623175"><ele>11.0</ele><time>2026-05-02T09:48:55.902Z</time></trkpt><trkpt lat="42.1978817" lon="14.623285"><ele>11.0</ele><time>2026-05-02T09:48:57.902Z</time></trkpt><trkpt lat="42.1978467" lon="14.6233967"><ele>11.0</ele><time>2026-05-02T09:48:59.902Z</time></trkpt><trkpt lat="42.1978133" lon="14.6235117"><ele>11.0</ele><time>2026-05-02T09:49:01.902Z</time></trkpt><trkpt lat="42.19778" lon="14.6236267"><ele>11.0</ele><time>2026-05-02T09:49:03.901Z</time></trkpt><trkpt lat="42.1977517" lon="14.6237317"><ele>11.0</ele><time>2026-05-02T09:49:05.902Z</time></trkpt><trkpt lat="42.19772" lon="14.623835"><ele>11.0</ele><time>2026-05-02T09:49:07.902Z</time></trkpt><trkpt lat="42.1976867" lon="14.62394"><ele>11.0</ele><time>2026-05-02T09:49:09.901Z</time></trkpt><trkpt lat="42.197655" lon="14.62405"><ele>11.0</ele><time>2026-05-02T09:49:11.901Z</time></trkpt><trkpt lat="42.1976283" lon="14.624165"><ele>10.666666666666666</ele><time>2026-05-02T09:49:13.901Z</time></trkpt><trkpt lat="42.1975967" lon="14.62428"><ele>10.333333333333332</ele><time>2026-05-02T09:49:15.901Z</time></trkpt><trkpt lat="42.197565" lon="14.62439"><ele>10.0</ele><time>2026-05-02T09:49:17.901Z</time></trkpt><trkpt lat="42.1975283" lon="14.6244767"><ele>9.666666666666666</ele><time>2026-05-02T09:49:19.902Z</time></trkpt><trkpt lat="42.1974933" lon="14.62457"><ele>9.333333333333334</ele><time>2026-05-02T09:49:21.902Z</time></trkpt><trkpt lat="42.19746" lon="14.6246683"><ele>9.0</ele><time>2026-05-02T09:49:23.901Z</time></trkpt><trkpt lat="42.197425" lon="14.6247733"><ele>8.666666666666666</ele><time>2026-05-02T09:49:25.901Z</time></trkpt><trkpt lat="42.19739" lon="14.62487"><ele>8.333333333333334</ele><time>2026-05-02T09:49:27.902Z</time></trkpt><trkpt lat="42.1973517" lon="14.6249667"><ele>8.0</ele><time>2026-05-02T09:49:29.902Z</time></trkpt><trkpt lat="42.1973183" lon="14.6250617"><ele>7.666666666666667</ele><time>2026-05-02T09:49:31.902Z</time></trkpt><trkpt lat="42.1972817" lon="14.6251633"><ele>7.333333333333334</ele><time>2026-05-02T09:49:33.902Z</time></trkpt><trkpt lat="42.1972417" lon="14.6252867"><ele>7.0</ele><time>2026-05-02T09:49:35.901Z</time></trkpt><trkpt lat="42.1971983" lon="14.6254033"><ele>7.000000000000001</ele><time>2026-05-02T09:49:37.901Z</time></trkpt><trkpt lat="42.19716" lon="14.6255117"><ele>7.0</ele><time>2026-05-02T09:49:39.902Z</time></trkpt><trkpt lat="42.197125" lon="14.6256133"><ele>7.0</ele><time>2026-05-02T09:49:41.901Z</time></trkpt><trkpt lat="42.1970917" lon="14.6257117"><ele>7.0</ele><time>2026-05-02T09:49:43.902Z</time></trkpt><trkpt lat="42.1970533" lon="14.625815"><ele>7.000000000000001</ele><time>2026-05-02T09:49:45.902Z</time></trkpt><trkpt lat="42.1970183" lon="14.6259167"><ele>7.0</ele><time>2026-05-02T09:49:47.902Z</time></trkpt><trkpt lat="42.19699" lon="14.62601"><ele>7.000000000000001</ele><time>2026-05-02T09:49:49.901Z</time></trkpt><trkpt lat="42.1969617" lon="14.6261067"><ele>7.0</ele><time>2026-05-02T09:49:51.902Z</time></trkpt><trkpt lat="42.1969233" lon="14.6262083"><ele>7.0</ele><time>2026-05-02T09:49:53.901Z</time></trkpt><trkpt lat="42.1968833" lon="14.6263117"><ele>7.0</ele><time>2026-05-02T09:49:55.902Z</time></trkpt><trkpt lat="42.1968467" lon="14.6264083"><ele>7.000000000000001</ele><time>2026-05-02T09:49:57.902Z</time></trkpt><trkpt lat="42.196815" lon="14.6264983"><ele>7.0</ele><time>2026-05-02T09:49:59.902Z</time></trkpt><trkpt lat="42.1967833" lon="14.6265883"><ele>6.285714285714286</ele><time>2026-05-02T09:50:01.902Z</time></trkpt><trkpt lat="42.1967517" lon="14.626675"><ele>5.571428571428571</ele><time>2026-05-02T09:50:03.902Z</time></trkpt><trkpt lat="42.1967233" lon="14.6267583"><ele>4.857142857142857</ele><time>2026-05-02T09:50:05.901Z</time></trkpt><trkpt lat="42.196695" lon="14.62684"><ele>4.142857142857142</ele><time>2026-05-02T09:50:07.902Z</time></trkpt><trkpt lat="42.196665" lon="14.6269233"><ele>3.4285714285714284</ele><time>2026-05-02T09:50:09.901Z</time></trkpt><trkpt lat="42.1966283" lon="14.6270433"><ele>2.7142857142857144</ele><time>2026-05-02T09:50:12.903Z</time></trkpt><trkpt lat="42.196595" lon="14.627135"><ele>2.0</ele><time>2026-05-02T09:50:14.903Z</time></trkpt><trkpt lat="42.1965567" lon="14.62724"><ele>2.0</ele><time>2026-05-02T09:50:16.902Z</time></trkpt><trkpt lat="42.19652" lon="14.62734"><ele>1.9999999999999998</ele><time>2026-05-02T09:50:18.903Z</time></trkpt><trkpt lat="42.1964883" lon="14.62743"><ele>2.0</ele><time>2026-05-02T09:50:20.903Z</time></trkpt><trkpt lat="42.1964583" lon="14.6275167"><ele>2.0</ele><time>2026-05-02T09:50:22.902Z</time></trkpt><trkpt lat="42.1964267" lon="14.627605"><ele>1.9999999999999998</ele><time>2026-05-02T09:50:24.902Z</time></trkpt><trkpt lat="42.1964" lon="14.6276917"><ele>2.0</ele><time>2026-05-02T09:50:26.902Z</time></trkpt><trkpt lat="42.1963717" lon="14.62778"><ele>2.0</ele><time>2026-05-02T09:50:28.902Z</time></trkpt><trkpt lat="42.19634" lon="14.6278633"><ele>2.2857142857142856</ele><time>2026-05-02T09:50:30.902Z</time></trkpt><trkpt lat="42.1963083" lon="14.6279533"><ele>2.571428571428571</ele><time>2026-05-02T09:50:32.903Z</time></trkpt><trkpt lat="42.1962817" lon="14.628035"><ele>2.8571428571428568</ele><time>2026-05-02T09:50:34.902Z</time></trkpt><trkpt lat="42.1962533" lon="14.6281117"><ele>3.142857142857143</ele><time>2026-05-02T09:50:36.902Z</time></trkpt><trkpt lat="42.1962233" lon="14.62819"><ele>3.428571428571428</ele><time>2026-05-02T09:50:38.903Z</time></trkpt><trkpt lat="42.1961967" lon="14.62827"><ele>3.714285714285714</ele><time>2026-05-02T09:50:40.903Z</time></trkpt><trkpt lat="42.19616" lon="14.628375"><ele>4.0</ele><time>2026-05-02T09:50:43.903Z</time></trkpt><trkpt lat="42.1961217" lon="14.628475"><ele>3.9999999999999996</ele><time>2026-05-02T09:50:46.902Z</time></trkpt><trkpt lat="42.1960883" lon="14.6285717"><ele>4.0</ele><time>2026-05-02T09:50:49.903Z</time></trkpt><trkpt lat="42.1960533" lon="14.628645"><ele>4.0</ele><time>2026-05-02T09:50:52.903Z</time></trkpt><trkpt lat="42.1960067" lon="14.6287333"><ele>4.0</ele><time>2026-05-02T09:50:56.902Z</time></trkpt><trkpt lat="42.1959433" lon="14.6287683"><ele>3.9999999999999996</ele><time>2026-05-02T09:51:00.902Z</time></trkpt><trkpt lat="42.195895" lon="14.6286717"><ele>4.0</ele><time>2026-05-02T09:51:03.902Z</time></trkpt><trkpt lat="42.19587" lon="14.6285683"><ele>3.9999999999999996</ele><time>2026-05-02T09:51:05.903Z</time></trkpt><trkpt lat="42.19584" lon="14.628465"><ele>4.0</ele><time>2026-05-02T09:51:07.903Z</time></trkpt><trkpt lat="42.1958033" lon="14.6283633"><ele>4.0</ele><time>2026-05-02T09:51:09.902Z</time></trkpt><trkpt lat="42.1957583" lon="14.628265"><ele>4.0</ele><time>2026-05-02T09:51:11.903Z</time></trkpt><trkpt lat="42.1957083" lon="14.6281683"><ele>3.9999999999999996</ele><time>2026-05-02T09:51:13.903Z</time></trkpt><trkpt lat="42.19565" lon="14.6280733"><ele>4.0</ele><time>2026-05-02T09:51:15.902Z</time></trkpt><trkpt lat="42.195595" lon="14.627975"><ele>4.666666666666666</ele><time>2026-05-02T09:51:17.902Z</time></trkpt><trkpt lat="42.19554" lon="14.6278817"><ele>5.333333333333333</ele><time>2026-05-02T09:51:19.902Z</time></trkpt><trkpt lat="42.1954983" lon="14.627795"><ele>6.0</ele><time>2026-05-02T09:51:21.903Z</time></trkpt><trkpt lat="42.1954617" lon="14.627715"><ele>6.666666666666666</ele><time>2026-05-02T09:51:23.903Z</time></trkpt><trkpt lat="42.1953983" lon="14.6276267"><ele>7.333333333333333</ele><time>2026-05-02T09:51:25.902Z</time></trkpt><trkpt lat="42.195345" lon="14.62755"><ele>8.0</ele><time>2026-05-02T09:51:27.903Z</time></trkpt><trkpt lat="42.1953083" lon="14.6274683"><ele>8.166666666666666</ele><time>2026-05-02T09:51:29.903Z</time></trkpt><trkpt lat="42.195275" lon="14.6273833"><ele>8.333333333333332</ele><time>2026-05-02T09:51:31.903Z</time></trkpt><trkpt lat="42.1952683" lon="14.6272583"><ele>8.5</ele><time>2026-05-02T09:51:34.902Z</time></trkpt><trkpt lat="42.19527" lon="14.62716"><ele>8.666666666666666</ele><time>2026-05-02T09:51:36.903Z</time></trkpt><trkpt lat="42.1952533" lon="14.6270583"><ele>8.833333333333334</ele><time>2026-05-02T09:51:38.903Z</time></trkpt><trkpt lat="42.1952517" lon="14.62695"><ele>9.0</ele><time>2026-05-02T09:51:40.902Z</time></trkpt><trkpt lat="42.1952583" lon="14.62684"><ele>9.0</ele><time>2026-05-02T09:51:42.903Z</time></trkpt><trkpt lat="42.1952833" lon="14.6267383"><ele>9.0</ele><time>2026-05-02T09:51:44.902Z</time></trkpt><trkpt lat="42.1953183" lon="14.6266417"><ele>9.0</ele><time>2026-05-02T09:51:46.903Z</time></trkpt><trkpt lat="42.1953683" lon="14.6265517"><ele>9.0</ele><time>2026-05-02T09:51:48.902Z</time></trkpt><trkpt lat="42.1954217" lon="14.62646"><ele>9.0</ele><time>2026-05-02T09:51:50.902Z</time></trkpt><trkpt lat="42.1954883" lon="14.6263517"><ele>9.0</ele><time>2026-05-02T09:51:52.902Z</time></trkpt><trkpt lat="42.195555" lon="14.62625"><ele>9.0</ele><time>2026-05-02T09:51:54.903Z</time></trkpt><trkpt lat="42.19562" lon="14.6261467"><ele>9.0</ele><time>2026-05-02T09:51:56.902Z</time></trkpt><trkpt lat="42.1956767" lon="14.62604"><ele>9.0</ele><time>2026-05-02T09:51:58.903Z</time></trkpt><trkpt lat="42.1957117" lon="14.625935"><ele>9.0</ele><time>2026-05-02T09:52:00.902Z</time></trkpt><trkpt lat="42.1957267" lon="14.6258183"><ele>9.0</ele><time>2026-05-02T09:52:02.902Z</time></trkpt><trkpt lat="42.1957317" lon="14.62568"><ele>9.0</ele><time>2026-05-02T09:52:04.903Z</time></trkpt><trkpt lat="42.1957267" lon="14.6255433"><ele>9.0</ele><time>2026-05-02T09:52:06.902Z</time></trkpt><trkpt lat="42.1957283" lon="14.6254033"><ele>9.0</ele><time>2026-05-02T09:52:08.902Z</time></trkpt><trkpt lat="42.19573" lon="14.625275"><ele>9.0</ele><time>2026-05-02T09:52:10.902Z</time></trkpt><trkpt lat="42.1957267" lon="14.6251467"><ele>9.0</ele><time>2026-05-02T09:52:12.903Z</time></trkpt><trkpt lat="42.1957217" lon="14.625025"><ele>9.0</ele><time>2026-05-02T09:52:14.902Z</time></trkpt><trkpt lat="42.195715" lon="14.6249083"><ele>9.0</ele><time>2026-05-02T09:52:16.903Z</time></trkpt><trkpt lat="42.1957133" lon="14.6247867"><ele>9.0</ele><time>2026-05-02T09:52:18.903Z</time></trkpt><trkpt lat="42.195715" lon="14.62467"><ele>9.0</ele><time>2026-05-02T09:52:20.903Z</time></trkpt><trkpt lat="42.195705" lon="14.62455"><ele>9.0</ele><time>2026-05-02T09:52:22.903Z</time></trkpt><trkpt lat="42.19568" lon="14.6244283"><ele>9.0</ele><time>2026-05-02T09:52:24.903Z</time></trkpt><trkpt lat="42.1956483" lon="14.6243117"><ele>9.5</ele><time>2026-05-02T09:52:26.903Z</time></trkpt><trkpt lat="42.1956183" lon="14.62419"><ele>10.0</ele><time>2026-05-02T09:52:28.903Z</time></trkpt><trkpt lat="42.19559" lon="14.6240767"><ele>10.5</ele><time>2026-05-02T09:52:30.902Z</time></trkpt><trkpt lat="42.1955633" lon="14.6239533"><ele>11.0</ele><time>2026-05-02T09:52:32.903Z</time></trkpt><trkpt lat="42.1955417" lon="14.6238633"><ele>11.5</ele><time>2026-05-02T09:52:34.903Z</time></trkpt><trkpt lat="42.195525" lon="14.6237633"><ele>12.0</ele><time>2026-05-02T09:52:36.902Z</time></trkpt><trkpt lat="42.195505" lon="14.6236633"><ele>12.166666666666666</ele><time>2026-05-02T09:52:38.903Z</time></trkpt><trkpt lat="42.1954917" lon="14.6235433"><ele>12.333333333333332</ele><time>2026-05-02T09:52:40.903Z</time></trkpt><trkpt lat="42.1954783" lon="14.6234133"><ele>12.5</ele><time>2026-05-02T09:52:42.903Z</time></trkpt><trkpt lat="42.1954583" lon="14.623305"><ele>12.666666666666666</ele><time>2026-05-02T09:52:44.902Z</time></trkpt><trkpt lat="42.1954383" lon="14.6231983"><ele>12.833333333333332</ele><time>2026-05-02T09:52:46.903Z</time></trkpt><trkpt lat="42.19542" lon="14.6230883"><ele>13.0</ele><time>2026-05-02T09:52:48.903Z</time></trkpt><trkpt lat="42.195395" lon="14.6229717"><ele>13.0</ele><time>2026-05-02T09:52:50.903Z</time></trkpt><trkpt lat="42.1953617" lon="14.6228533"><ele>13.0</ele><time>2026-05-02T09:52:52.903Z</time></trkpt><trkpt lat="42.195315" lon="14.6227417"><ele>13.0</ele><time>2026-05-02T09:52:54.903Z</time></trkpt><trkpt lat="42.1952667" lon="14.6226433"><ele>13.0</ele><time>2026-05-02T09:52:56.902Z</time></trkpt><trkpt lat="42.1952167" lon="14.62255"><ele>13.0</ele><time>2026-05-02T09:52:58.903Z</time></trkpt><trkpt lat="42.1951683" lon="14.6224417"><ele>12.499999999999998</ele><time>2026-05-02T09:53:00.903Z</time></trkpt><trkpt lat="42.1951217" lon="14.62234"><ele>12.0</ele><time>2026-05-02T09:53:02.903Z</time></trkpt><trkpt lat="42.19509" lon="14.6222467"><ele>11.5</ele><time>2026-05-02T09:53:04.903Z</time></trkpt><trkpt lat="42.195025" lon="14.6221733"><ele>11.0</ele><time>2026-05-02T09:53:06.903Z</time></trkpt><trkpt lat="42.19499" lon="14.622075"><ele>10.5</ele><time>2026-05-02T09:53:08.902Z</time></trkpt><trkpt lat="42.1949333" lon="14.621975"><ele>10.0</ele><time>2026-05-02T09:53:10.902Z</time></trkpt><trkpt lat="42.19487" lon="14.62187"><ele>10.8</ele><time>2026-05-02T09:53:12.902Z</time></trkpt><trkpt lat="42.1947967" lon="14.621765"><ele>11.6</ele><time>2026-05-02T09:53:14.903Z</time></trkpt><trkpt lat="42.1947283" lon="14.6216717"><ele>12.399999999999999</ele><time>2026-05-02T09:53:16.902Z</time></trkpt><trkpt lat="42.1946717" lon="14.6215833"><ele>13.2</ele><time>2026-05-02T09:53:18.903Z</time></trkpt><trkpt lat="42.1946183" lon="14.6214933"><ele>14.0</ele><time>2026-05-02T09:53:20.902Z</time></trkpt><trkpt lat="42.1945633" lon="14.6214033"><ele>14.0</ele><time>2026-05-02T09:53:22.902Z</time></trkpt><trkpt lat="42.1945183" lon="14.6213033"><ele>13.999999999999998</ele><time>2026-05-02T09:53:24.903Z</time></trkpt><trkpt lat="42.194475" lon="14.6211967"><ele>13.999999999999998</ele><time>2026-05-02T09:53:26.902Z</time></trkpt><trkpt lat="42.1944433" lon="14.6210767"><ele>14.0</ele><time>2026-05-02T09:53:28.902Z</time></trkpt><trkpt lat="42.19441" lon="14.6209533"><ele>14.0</ele><time>2026-05-02T09:53:30.903Z</time></trkpt><trkpt lat="42.1943683" lon="14.6208267"><ele>13.799999999999999</ele><time>2026-05-02T09:53:32.902Z</time></trkpt><trkpt lat="42.1943317" lon="14.6207067"><ele>13.599999999999998</ele><time>2026-05-02T09:53:34.902Z</time></trkpt><trkpt lat="42.1942967" lon="14.6205933"><ele>13.4</ele><time>2026-05-02T09:53:36.903Z</time></trkpt><trkpt lat="42.194265" lon="14.6204833"><ele>13.2</ele><time>2026-05-02T09:53:38.902Z</time></trkpt><trkpt lat="42.1942333" lon="14.6203667"><ele>13.0</ele><time>2026-05-02T09:53:40.902Z</time></trkpt><trkpt lat="42.1942017" lon="14.620255"><ele>13.0</ele><time>2026-05-02T09:53:42.903Z</time></trkpt><trkpt lat="42.1941717" lon="14.6201367"><ele>13.0</ele><time>2026-05-02T09:53:44.903Z</time></trkpt><trkpt lat="42.1941433" lon="14.6200217"><ele>13.0</ele><time>2026-05-02T09:53:46.903Z</time></trkpt><trkpt lat="42.1941083" lon="14.61991"><ele>13.0</ele><time>2026-05-02T09:53:48.903Z</time></trkpt><trkpt lat="42.194075" lon="14.6197867"><ele>13.0</ele><time>2026-05-02T09:53:50.903Z</time></trkpt><trkpt lat="42.1940433" lon="14.61965"><ele>17.2</ele><time>2026-05-02T09:53:52.903Z</time></trkpt><trkpt lat="42.1940033" lon="14.6195217"><ele>21.4</ele><time>2026-05-02T09:53:54.903Z</time></trkpt><trkpt lat="42.1939633" lon="14.6193983"><ele>25.599999999999998</ele><time>2026-05-02T09:53:56.903Z</time></trkpt><trkpt lat="42.193925" lon="14.6192767"><ele>29.8</ele><time>2026-05-02T09:53:58.902Z</time></trkpt><trkpt lat="42.1938883" lon="14.6191567"><ele>34.0</ele><time>2026-05-02T09:54:00.903Z</time></trkpt><trkpt lat="42.1938533" lon="14.61903"><ele>34.0</ele><time>2026-05-02T09:54:02.903Z</time></trkpt><trkpt lat="42.19382" lon="14.6188983"><ele>34.0</ele><time>2026-05-02T09:54:04.902Z</time></trkpt><trkpt lat="42.193795" lon="14.6187683"><ele>34.0</ele><time>2026-05-02T09:54:06.903Z</time></trkpt><trkpt lat="42.1937733" lon="14.61864"><ele>34.0</ele><time>2026-05-02T09:54:08.903Z</time></trkpt><trkpt lat="42.1937567" lon="14.6185133"><ele>34.0</ele><time>2026-05-02T09:54:10.903Z</time></trkpt><trkpt lat="42.1937433" lon="14.61839"><ele>32.833333333333336</ele><time>2026-05-02T09:54:12.903Z</time></trkpt><trkpt lat="42.19373" lon="14.6182683"><ele>31.666666666666668</ele><time>2026-05-02T09:54:14.902Z</time></trkpt><trkpt lat="42.1937183" lon="14.6181467"><ele>30.5</ele><time>2026-05-02T09:54:16.902Z</time></trkpt><trkpt lat="42.1937083" lon="14.618025"><ele>29.333333333333336</ele><time>2026-05-02T09:54:18.903Z</time></trkpt><trkpt lat="42.1936967" lon="14.6179083"><ele>28.166666666666668</ele><time>2026-05-02T09:54:20.903Z</time></trkpt><trkpt lat="42.1936833" lon="14.6177933"><ele>27.0</ele><time>2026-05-02T09:54:22.903Z</time></trkpt><trkpt lat="42.1936717" lon="14.61767"><ele>25.200000000000003</ele><time>2026-05-02T09:54:24.903Z</time></trkpt><trkpt lat="42.1936583" lon="14.61753"><ele>23.400000000000002</ele><time>2026-05-02T09:54:26.903Z</time></trkpt><trkpt lat="42.1936467" lon="14.6174033"><ele>21.6</ele><time>2026-05-02T09:54:28.903Z</time></trkpt><trkpt lat="42.193615" lon="14.6172883"><ele>19.8</ele><time>2026-05-02T09:54:30.902Z</time></trkpt><trkpt lat="42.1935617" lon="14.6171967"><ele>18.0</ele><time>2026-05-02T09:54:32.902Z</time></trkpt><trkpt lat="42.19349" lon="14.6171617"><ele>18.0</ele><time>2026-05-02T09:54:34.903Z</time></trkpt><trkpt lat="42.1933733" lon="14.61716"><ele>18.0</ele><time>2026-05-02T09:54:36.903Z</time></trkpt><trkpt lat="42.193265" lon="14.617195"><ele>18.0</ele><time>2026-05-02T09:54:38.903Z</time></trkpt><trkpt lat="42.193165" lon="14.617235"><ele>18.0</ele><time>2026-05-02T09:54:40.903Z</time></trkpt><trkpt lat="42.193065" lon="14.61728"><ele>18.0</ele><time>2026-05-02T09:54:42.903Z</time></trkpt><trkpt lat="42.192965" lon="14.6173267"><ele>18.8</ele><time>2026-05-02T09:54:44.903Z</time></trkpt><trkpt lat="42.19287" lon="14.6173533"><ele>19.6</ele><time>2026-05-02T09:54:46.902Z</time></trkpt><trkpt lat="42.1927817" lon="14.61738"><ele>20.400000000000002</ele><time>2026-05-02T09:54:48.903Z</time></trkpt><trkpt lat="42.19269" lon="14.6174317"><ele>21.200000000000003</ele><time>2026-05-02T09:54:50.902Z</time></trkpt><trkpt lat="42.1925967" lon="14.6174733"><ele>22.0</ele><time>2026-05-02T09:54:52.903Z</time></trkpt><trkpt lat="42.1924967" lon="14.6175033"><ele>22.0</ele><time>2026-05-02T09:54:54.902Z</time></trkpt><trkpt lat="42.1924067" lon="14.617505"><ele>22.0</ele><time>2026-05-02T09:54:56.903Z</time></trkpt><trkpt lat="42.192315" lon="14.6174767"><ele>22.0</ele><time>2026-05-02T09:54:58.903Z</time></trkpt><trkpt lat="42.1922317" lon="14.6174167"><ele>22.0</ele><time>2026-05-02T09:55:00.903Z</time></trkpt><trkpt lat="42.192155" lon="14.61733"><ele>22.0</ele><time>2026-05-02T09:55:02.902Z</time></trkpt><trkpt lat="42.1920883" lon="14.6172317"><ele>21.6</ele><time>2026-05-02T09:55:04.903Z</time></trkpt><trkpt lat="42.1920267" lon="14.6171367"><ele>21.200000000000003</ele><time>2026-05-02T09:55:06.903Z</time></trkpt><trkpt lat="42.1919633" lon="14.6170433"><ele>20.8</ele><time>2026-05-02T09:55:08.903Z</time></trkpt><trkpt lat="42.1918983" lon="14.61695"><ele>20.4</ele><time>2026-05-02T09:55:10.903Z</time></trkpt><trkpt lat="42.1918333" lon="14.616865"><ele>20.0</ele><time>2026-05-02T09:55:12.903Z</time></trkpt><trkpt lat="42.1917517" lon="14.6167867"><ele>20.0</ele><time>2026-05-02T09:55:14.903Z</time></trkpt><trkpt lat="42.1916783" lon="14.6167083"><ele>20.0</ele><time>2026-05-02T09:55:16.902Z</time></trkpt><trkpt lat="42.1916217" lon="14.6166167"><ele>20.0</ele><time>2026-05-02T09:55:18.902Z</time></trkpt><trkpt lat="42.1915683" lon="14.61652"><ele>20.0</ele><time>2026-05-02T09:55:20.902Z</time></trkpt><trkpt lat="42.1915217" lon="14.6164183"><ele>20.0</ele><time>2026-05-02T09:55:22.902Z</time></trkpt><trkpt lat="42.1914833" lon="14.6163283"><ele>20.0</ele><time>2026-05-02T09:55:24.903Z</time></trkpt><trkpt lat="42.1914317" lon="14.61624"><ele>20.5</ele><time>2026-05-02T09:55:26.902Z</time></trkpt><trkpt lat="42.1913883" lon="14.6161517"><ele>21.0</ele><time>2026-05-02T09:55:28.903Z</time></trkpt><trkpt lat="42.1913433" lon="14.616065"><ele>21.5</ele><time>2026-05-02T09:55:30.902Z</time></trkpt><trkpt lat="42.191305" lon="14.6159883"><ele>22.0</ele><time>2026-05-02T09:55:32.902Z</time></trkpt><trkpt lat="42.1912517" lon="14.6159217"><ele>22.5</ele><time>2026-05-02T09:55:34.902Z</time></trkpt><trkpt lat="42.19118" lon="14.6158617"><ele>23.0</ele><time>2026-05-02T09:55:36.903Z</time></trkpt><trkpt lat="42.191105" lon="14.615845"><ele>23.0</ele><time>2026-05-02T09:55:38.903Z</time></trkpt><trkpt lat="42.1910367" lon="14.6158383"><ele>23.0</ele><time>2026-05-02T09:55:40.903Z</time></trkpt><trkpt lat="42.1909667" lon="14.61584"><ele>23.0</ele><time>2026-05-02T09:55:42.902Z</time></trkpt><trkpt lat="42.1908983" lon="14.6158333"><ele>23.0</ele><time>2026-05-02T09:55:44.903Z</time></trkpt><trkpt lat="42.1908133" lon="14.6158133"><ele>23.0</ele><time>2026-05-02T09:55:46.903Z</time></trkpt><trkpt lat="42.1907333" lon="14.6158033"><ele>23.0</ele><time>2026-05-02T09:55:48.902Z</time></trkpt><trkpt lat="42.1906617" lon="14.615795"><ele>23.0</ele><time>2026-05-02T09:55:50.903Z</time></trkpt><trkpt lat="42.19059" lon="14.6157717"><ele>24.4</ele><time>2026-05-02T09:55:52.903Z</time></trkpt><trkpt lat="42.1904967" lon="14.6157367"><ele>25.799999999999997</ele><time>2026-05-02T09:55:54.903Z</time></trkpt><trkpt lat="42.190405" lon="14.6157033"><ele>27.2</ele><time>2026-05-02T09:55:56.902Z</time></trkpt><trkpt lat="42.1903167" lon="14.615695"><ele>28.6</ele><time>2026-05-02T09:55:58.903Z</time></trkpt><trkpt lat="42.190215" lon="14.6157067"><ele>30.0</ele><time>2026-05-02T09:56:00.903Z</time></trkpt><trkpt lat="42.1901183" lon="14.6157217"><ele>30.0</ele><time>2026-05-02T09:56:02.903Z</time></trkpt><trkpt lat="42.1900167" lon="14.6157433"><ele>30.0</ele><time>2026-05-02T09:56:04.902Z</time></trkpt><trkpt lat="42.1899183" lon="14.6157733"><ele>30.0</ele><time>2026-05-02T09:56:06.903Z</time></trkpt><trkpt lat="42.18983" lon="14.6157983"><ele>30.0</ele><time>2026-05-02T09:56:08.903Z</time></trkpt><trkpt lat="42.1897433" lon="14.615805"><ele>30.0</ele><time>2026-05-02T09:56:10.903Z</time></trkpt><trkpt lat="42.18966" lon="14.61579"><ele>30.833333333333332</ele><time>2026-05-02T09:56:12.903Z</time></trkpt><trkpt lat="42.18958" lon="14.6157567"><ele>31.666666666666664</ele><time>2026-05-02T09:56:14.903Z</time></trkpt><trkpt lat="42.1894967" lon="14.61573"><ele>32.5</ele><time>2026-05-02T09:56:16.903Z</time></trkpt><trkpt lat="42.1894183" lon="14.615695"><ele>33.33333333333333</ele><time>2026-05-02T09:56:18.903Z</time></trkpt><trkpt lat="42.18934" lon="14.6156583"><ele>34.166666666666664</ele><time>2026-05-02T09:56:20.902Z</time></trkpt><trkpt lat="42.18927" lon="14.6156317"><ele>35.0</ele><time>2026-05-02T09:56:22.902Z</time></trkpt><trkpt lat="42.1892083" lon="14.61561"><ele>35.0</ele><time>2026-05-02T09:56:24.903Z</time></trkpt><trkpt lat="42.1891417" lon="14.6155767"><ele>35.0</ele><time>2026-05-02T09:56:26.902Z</time></trkpt><trkpt lat="42.1890633" lon="14.6155333"><ele>35.0</ele><time>2026-05-02T09:56:28.902Z</time></trkpt><trkpt lat="42.1889767" lon="14.61547"><ele>35.0</ele><time>2026-05-02T09:56:30.902Z</time></trkpt><trkpt lat="42.1888933" lon="14.6154233"><ele>35.0</ele><time>2026-05-02T09:56:32.902Z</time></trkpt><trkpt lat="42.1888267" lon="14.61538"><ele>35.0</ele><time>2026-05-02T09:56:34.903Z</time></trkpt><trkpt lat="42.1887267" lon="14.6153433"><ele>35.0</ele><time>2026-05-02T09:56:36.903Z</time></trkpt><trkpt lat="42.1886617" lon="14.6153233"><ele>35.0</ele><time>2026-05-02T09:56:37.903Z</time></trkpt><trkpt lat="42.188555" lon="14.6152533"><ele>35.0</ele><time>2026-05-02T09:56:39.902Z</time></trkpt><trkpt lat="42.1884683" lon="14.6151833"><ele>35.0</ele><time>2026-05-02T09:56:41.903Z</time></trkpt><trkpt lat="42.1883983" lon="14.615115"><ele>35.0</ele><time>2026-05-02T09:56:43.903Z</time></trkpt><trkpt lat="42.1883217" lon="14.6150383"><ele>35.0</ele><time>2026-05-02T09:56:45.903Z</time></trkpt><trkpt lat="42.188245" lon="14.6149733"><ele>35.0</ele><time>2026-05-02T09:56:47.903Z</time></trkpt><trkpt lat="42.1881717" lon="14.6149033"><ele>35.0</ele><time>2026-05-02T09:56:49.903Z</time></trkpt><trkpt lat="42.1880967" lon="14.6148317"><ele>35.0</ele><time>2026-05-02T09:56:51.903Z</time></trkpt><trkpt lat="42.188025" lon="14.6147533"><ele>35.0</ele><time>2026-05-02T09:56:53.903Z</time></trkpt><trkpt lat="42.187965" lon="14.6146783"><ele>35.0</ele><time>2026-05-02T09:56:55.903Z</time></trkpt><trkpt lat="42.187905" lon="14.6146083"><ele>35.166666666666664</ele><time>2026-05-02T09:56:57.903Z</time></trkpt><trkpt lat="42.1878417" lon="14.61456"><ele>35.33333333333333</ele><time>2026-05-02T09:56:59.902Z</time></trkpt><trkpt lat="42.1877767" lon="14.6145117"><ele>35.5</ele><time>2026-05-02T09:57:01.902Z</time></trkpt><trkpt lat="42.1876983" lon="14.6144633"><ele>35.666666666666664</ele><time>2026-05-02T09:57:03.903Z</time></trkpt><trkpt lat="42.1876267" lon="14.6144183"><ele>35.833333333333336</ele><time>2026-05-02T09:57:05.902Z</time></trkpt><trkpt lat="42.1875583" lon="14.6143767"><ele>36.0</ele><time>2026-05-02T09:57:07.903Z</time></trkpt><trkpt lat="42.1874933" lon="14.6143383"><ele>36.0</ele><time>2026-05-02T09:57:09.903Z</time></trkpt><trkpt lat="42.1874267" lon="14.6142967"><ele>36.0</ele><time>2026-05-02T09:57:11.903Z</time></trkpt><trkpt lat="42.18736" lon="14.6142483"><ele>36.0</ele><time>2026-05-02T09:57:13.903Z</time></trkpt><trkpt lat="42.18729" lon="14.614205"><ele>36.0</ele><time>2026-05-02T09:57:15.902Z</time></trkpt><trkpt lat="42.1872167" lon="14.6141567"><ele>36.0</ele><time>2026-05-02T09:57:17.903Z</time></trkpt><trkpt lat="42.18714" lon="14.6141033"><ele>36.0</ele><time>2026-05-02T09:57:19.903Z</time></trkpt><trkpt lat="42.1870667" lon="14.61405"><ele>39.5</ele><time>2026-05-02T09:57:21.902Z</time></trkpt><trkpt lat="42.1869933" lon="14.6139983"><ele>43.0</ele><time>2026-05-02T09:57:23.903Z</time></trkpt><trkpt lat="42.186935" lon="14.61394"><ele>46.5</ele><time>2026-05-02T09:57:25.903Z</time></trkpt><trkpt lat="42.18688" lon="14.6138717"><ele>50.0</ele><time>2026-05-02T09:57:27.903Z</time></trkpt><trkpt lat="42.1868183" lon="14.6138017"><ele>53.5</ele><time>2026-05-02T09:57:29.902Z</time></trkpt><trkpt lat="42.18675" lon="14.613735"><ele>57.0</ele><time>2026-05-02T09:57:31.902Z</time></trkpt><trkpt lat="42.186685" lon="14.6136583"><ele>57.166666666666664</ele><time>2026-05-02T09:57:33.903Z</time></trkpt><trkpt lat="42.1866217" lon="14.61358"><ele>57.33333333333333</ele><time>2026-05-02T09:57:35.902Z</time></trkpt><trkpt lat="42.1865633" lon="14.613505"><ele>57.5</ele><time>2026-05-02T09:57:37.903Z</time></trkpt><trkpt lat="42.1865133" lon="14.613425"><ele>57.666666666666664</ele><time>2026-05-02T09:57:39.903Z</time></trkpt><trkpt lat="42.1864683" lon="14.61335"><ele>57.83333333333333</ele><time>2026-05-02T09:57:41.903Z</time></trkpt><trkpt lat="42.18642" lon="14.61328"><ele>58.0</ele><time>2026-05-02T09:57:43.903Z</time></trkpt><trkpt lat="42.1863517" lon="14.613225"><ele>58.0</ele><time>2026-05-02T09:57:45.903Z</time></trkpt><trkpt lat="42.18627" lon="14.61318"><ele>58.0</ele><time>2026-05-02T09:57:47.903Z</time></trkpt><trkpt lat="42.186185" lon="14.6131267"><ele>58.0</ele><time>2026-05-02T09:57:49.903Z</time></trkpt><trkpt lat="42.1861017" lon="14.6130717"><ele>58.0</ele><time>2026-05-02T09:57:51.902Z</time></trkpt><trkpt lat="42.1860217" lon="14.613015"><ele>58.0</ele><time>2026-05-02T09:57:53.902Z</time></trkpt><trkpt lat="42.1859417" lon="14.6129667"><ele>57.99999999999999</ele><time>2026-05-02T09:57:55.903Z</time></trkpt><trkpt lat="42.185865" lon="14.6129067"><ele>58.0</ele><time>2026-05-02T09:57:57.902Z</time></trkpt><trkpt lat="42.1857883" lon="14.6128583"><ele>58.0</ele><time>2026-05-02T09:57:59.902Z</time></trkpt><trkpt lat="42.1857233" lon="14.61281"><ele>58.0</ele><time>2026-05-02T09:58:01.903Z</time></trkpt><trkpt lat="42.1856583" lon="14.6127583"><ele>57.99999999999999</ele><time>2026-05-02T09:58:03.903Z</time></trkpt><trkpt lat="42.1855933" lon="14.6127033"><ele>58.0</ele><time>2026-05-02T09:58:05.902Z</time></trkpt><trkpt lat="42.185535" lon="14.6126533"><ele>56.99999999999999</ele><time>2026-05-02T09:58:07.903Z</time></trkpt><trkpt lat="42.1854783" lon="14.6125983"><ele>56.0</ele><time>2026-05-02T09:58:09.903Z</time></trkpt><trkpt lat="42.18542" lon="14.6125467"><ele>55.0</ele><time>2026-05-02T09:58:11.903Z</time></trkpt><trkpt lat="42.1853417" lon="14.6124817"><ele>54.0</ele><time>2026-05-02T09:58:14.903Z</time></trkpt><trkpt lat="42.1852867" lon="14.6124317"><ele>52.99999999999999</ele><time>2026-05-02T09:58:16.903Z</time></trkpt><trkpt lat="42.1852083" lon="14.6123583"><ele>52.0</ele><time>2026-05-02T09:58:19.903Z</time></trkpt><trkpt lat="42.18515" lon="14.6123133"><ele>51.99999999999999</ele><time>2026-05-02T09:58:21.902Z</time></trkpt><trkpt lat="42.1850717" lon="14.61225"><ele>52.0</ele><time>2026-05-02T09:58:24.902Z</time></trkpt><trkpt lat="42.185005" lon="14.6122133"><ele>52.0</ele><time>2026-05-02T09:58:26.902Z</time></trkpt><trkpt lat="42.1849367" lon="14.61217"><ele>52.0</ele><time>2026-05-02T09:58:28.903Z</time></trkpt><trkpt lat="42.18487" lon="14.61212"><ele>51.99999999999999</ele><time>2026-05-02T09:58:30.902Z</time></trkpt><trkpt lat="42.1847883" lon="14.6120483"><ele>52.0</ele><time>2026-05-02T09:58:33.903Z</time></trkpt><trkpt lat="42.1847333" lon="14.612"><ele>50.99999999999999</ele><time>2026-05-02T09:58:35.903Z</time></trkpt><trkpt lat="42.184675" lon="14.6119567"><ele>50.0</ele><time>2026-05-02T09:58:37.903Z</time></trkpt><trkpt lat="42.1846333" lon="14.6118667"><ele>49.0</ele><time>2026-05-02T09:58:40.902Z</time></trkpt><trkpt lat="42.1846183" lon="14.6117817"><ele>48.0</ele><time>2026-05-02T09:58:42.902Z</time></trkpt><trkpt lat="42.184645" lon="14.611675"><ele>47.0</ele><time>2026-05-02T09:58:44.902Z</time></trkpt><trkpt lat="42.184685" lon="14.6115267"><ele>46.0</ele><time>2026-05-02T09:58:46.903Z</time></trkpt><trkpt lat="42.1847033" lon="14.6114283"><ele>46.0</ele><time>2026-05-02T09:58:47.903Z</time></trkpt><trkpt lat="42.1847267" lon="14.6113433"><ele>46.0</ele><time>2026-05-02T09:58:48.902Z</time></trkpt><trkpt lat="42.1847417" lon="14.61126"><ele>46.0</ele><time>2026-05-02T09:58:49.903Z</time></trkpt><trkpt lat="42.1847433" lon="14.6111117"><ele>46.0</ele><time>2026-05-02T09:58:51.903Z</time></trkpt><trkpt lat="42.1847067" lon="14.6109967"><ele>46.0</ele><time>2026-05-02T09:58:53.903Z</time></trkpt><trkpt lat="42.1846533" lon="14.610915"><ele>46.0</ele><time>2026-05-02T09:58:55.903Z</time></trkpt><trkpt lat="42.1845917" lon="14.61085"><ele>45.57142857142858</ele><time>2026-05-02T09:58:57.903Z</time></trkpt><trkpt lat="42.1845567" lon="14.6107733"><ele>45.14285714285714</ele><time>2026-05-02T09:58:59.902Z</time></trkpt><trkpt lat="42.1845117" lon="14.6107067"><ele>44.714285714285715</ele><time>2026-05-02T09:59:02.903Z</time></trkpt><trkpt lat="42.1844317" lon="14.6106683"><ele>44.28571428571429</ele><time>2026-05-02T09:59:05.902Z</time></trkpt><trkpt lat="42.1843617" lon="14.6106133"><ele>43.85714285714286</ele><time>2026-05-02T09:59:08.903Z</time></trkpt><trkpt lat="42.1842867" lon="14.6106083"><ele>43.42857142857143</ele><time>2026-05-02T09:59:12.903Z</time></trkpt><trkpt lat="42.1842217" lon="14.61064"><ele>43.0</ele><time>2026-05-02T09:59:15.903Z</time></trkpt><trkpt lat="42.1841583" lon="14.6106567"><ele>43.0</ele><time>2026-05-02T09:59:17.903Z</time></trkpt><trkpt lat="42.1840783" lon="14.610675"><ele>43.0</ele><time>2026-05-02T09:59:19.902Z</time></trkpt><trkpt lat="42.18399" lon="14.6106933"><ele>43.0</ele><time>2026-05-02T09:59:21.903Z</time></trkpt><trkpt lat="42.1839083" lon="14.61071"><ele>43.0</ele><time>2026-05-02T09:59:23.903Z</time></trkpt><trkpt lat="42.1838283" lon="14.61073"><ele>43.0</ele><time>2026-05-02T09:59:25.903Z</time></trkpt><trkpt lat="42.183745" lon="14.61074"><ele>43.0</ele><time>2026-05-02T09:59:27.903Z</time></trkpt><trkpt lat="42.1836633" lon="14.610755"><ele>43.4</ele><time>2026-05-02T09:59:29.903Z</time></trkpt><trkpt lat="42.1835517" lon="14.6107767"><ele>43.8</ele><time>2026-05-02T09:59:31.903Z</time></trkpt><trkpt lat="42.1834417" lon="14.61078"><ele>44.2</ele><time>2026-05-02T09:59:33.902Z</time></trkpt><trkpt lat="42.1833367" lon="14.6107633"><ele>44.6</ele><time>2026-05-02T09:59:35.902Z</time></trkpt><trkpt lat="42.1832367" lon="14.6107367"><ele>45.0</ele><time>2026-05-02T09:59:37.902Z</time></trkpt><trkpt lat="42.1831367" lon="14.6107183"><ele>45.666666666666664</ele><time>2026-05-02T09:59:39.903Z</time></trkpt><trkpt lat="42.1830467" lon="14.6107167"><ele>46.33333333333333</ele><time>2026-05-02T09:59:41.903Z</time></trkpt><trkpt lat="42.1829617" lon="14.6107117"><ele>47.0</ele><time>2026-05-02T09:59:43.903Z</time></trkpt><trkpt lat="42.18288" lon="14.61071"><ele>47.666666666666664</ele><time>2026-05-02T09:59:45.903Z</time></trkpt><trkpt lat="42.1828033" lon="14.6107133"><ele>48.33333333333333</ele><time>2026-05-02T09:59:47.902Z</time></trkpt><trkpt lat="42.18272" lon="14.61071"><ele>49.0</ele><time>2026-05-02T09:59:49.903Z</time></trkpt><trkpt lat="42.1826283" lon="14.6106967"><ele>49.0</ele><time>2026-05-02T09:59:51.902Z</time></trkpt><trkpt lat="42.1825333" lon="14.6106933"><ele>49.0</ele><time>2026-05-02T09:59:53.903Z</time></trkpt><trkpt lat="42.1824417" lon="14.6106983"><ele>49.0</ele><time>2026-05-02T09:59:55.902Z</time></trkpt><trkpt lat="42.1823517" lon="14.6106983"><ele>49.0</ele><time>2026-05-02T09:59:57.902Z</time></trkpt><trkpt lat="42.1822667" lon="14.6106983"><ele>49.0</ele><time>2026-05-02T09:59:59.903Z</time></trkpt><trkpt lat="42.182175" lon="14.6106933"><ele>49.400000000000006</ele><time>2026-05-02T10:00:01.902Z</time></trkpt><trkpt lat="42.1820817" lon="14.6106883"><ele>49.8</ele><time>2026-05-02T10:00:03.902Z</time></trkpt><trkpt lat="42.181985" lon="14.6106967"><ele>50.2</ele><time>2026-05-02T10:00:05.903Z</time></trkpt><trkpt lat="42.1818967" lon="14.6107133"><ele>50.599999999999994</ele><time>2026-05-02T10:00:07.902Z</time></trkpt><trkpt lat="42.1817933" lon="14.6107417"><ele>51.0</ele><time>2026-05-02T10:00:09.903Z</time></trkpt><trkpt lat="42.1816967" lon="14.6107567"><ele>51.0</ele><time>2026-05-02T10:00:11.902Z</time></trkpt><trkpt lat="42.181605" lon="14.61076"><ele>51.0</ele><time>2026-05-02T10:00:13.903Z</time></trkpt><trkpt lat="42.181515" lon="14.6107783"><ele>51.0</ele><time>2026-05-02T10:00:15.903Z</time></trkpt><trkpt lat="42.181425" lon="14.61081"><ele>51.0</ele><time>2026-05-02T10:00:17.902Z</time></trkpt><trkpt lat="42.1813283" lon="14.610855"><ele>51.0</ele><time>2026-05-02T10:00:19.903Z</time></trkpt><trkpt lat="42.1812283" lon="14.6109"><ele>52.199999999999996</ele><time>2026-05-02T10:00:21.902Z</time></trkpt><trkpt lat="42.1811217" lon="14.6109483"><ele>53.4</ele><time>2026-05-02T10:00:23.902Z</time></trkpt><trkpt lat="42.1810167" lon="14.611005"><ele>54.6</ele><time>2026-05-02T10:00:25.903Z</time></trkpt><trkpt lat="42.1809267" lon="14.6110533"><ele>55.8</ele><time>2026-05-02T10:00:27.902Z</time></trkpt><trkpt lat="42.1808433" lon="14.611105"><ele>57.0</ele><time>2026-05-02T10:00:29.903Z</time></trkpt><trkpt lat="42.1807667" lon="14.6111483"><ele>56.0</ele><time>2026-05-02T10:00:31.903Z</time></trkpt><trkpt lat="42.1806867" lon="14.6111917"><ele>55.0</ele><time>2026-05-02T10:00:34.903Z</time></trkpt><trkpt lat="42.1806067" lon="14.611245"><ele>54.0</ele><time>2026-05-02T10:00:37.903Z</time></trkpt><trkpt lat="42.18053" lon="14.6113"><ele>53.0</ele><time>2026-05-02T10:00:39.903Z</time></trkpt><trkpt lat="42.180455" lon="14.611365"><ele>52.0</ele><time>2026-05-02T10:00:41.903Z</time></trkpt><trkpt lat="42.1803883" lon="14.6114167"><ele>51.0</ele><time>2026-05-02T10:00:43.903Z</time></trkpt><trkpt lat="42.180325" lon="14.6114717"><ele>51.0</ele><time>2026-05-02T10:00:45.903Z</time></trkpt><trkpt lat="42.1802583" lon="14.6115033"><ele>51.0</ele><time>2026-05-02T10:00:47.902Z</time></trkpt><trkpt lat="42.1801717" lon="14.6115483"><ele>51.0</ele><time>2026-05-02T10:00:50.903Z</time></trkpt><trkpt lat="42.1800967" lon="14.6115733"><ele>51.0</ele><time>2026-05-02T10:00:52.903Z</time></trkpt><trkpt lat="42.1800133" lon="14.6115917"><ele>51.0</ele><time>2026-05-02T10:00:54.902Z</time></trkpt><trkpt lat="42.1799467" lon="14.6115917"><ele>51.0</ele><time>2026-05-02T10:00:56.903Z</time></trkpt><trkpt lat="42.17988" lon="14.611615"><ele>51.5</ele><time>2026-05-02T10:01:41.903Z</time></trkpt><trkpt lat="42.179795" lon="14.6115917"><ele>52.0</ele><time>2026-05-02T10:01:44.903Z</time></trkpt><trkpt lat="42.1797083" lon="14.6115783"><ele>52.5</ele><time>2026-05-02T10:01:46.902Z</time></trkpt><trkpt lat="42.179595" lon="14.6115833"><ele>53.0</ele><time>2026-05-02T10:01:48.903Z</time></trkpt><trkpt lat="42.1795233" lon="14.6115883"><ele>53.5</ele><time>2026-05-02T10:01:49.902Z</time></trkpt><trkpt lat="42.1794517" lon="14.6115967"><ele>54.0</ele><time>2026-05-02T10:01:50.903Z</time></trkpt><trkpt lat="42.179375" lon="14.6116117"><ele>54.0</ele><time>2026-05-02T10:01:51.903Z</time></trkpt><trkpt lat="42.179305" lon="14.61162"><ele>54.0</ele><time>2026-05-02T10:01:52.902Z</time></trkpt><trkpt lat="42.179235" lon="14.6116317"><ele>54.0</ele><time>2026-05-02T10:01:53.903Z</time></trkpt><trkpt lat="42.1791683" lon="14.6116233"><ele>54.0</ele><time>2026-05-02T10:01:54.903Z</time></trkpt><trkpt lat="42.1791" lon="14.6116117"><ele>54.0</ele><time>2026-05-02T10:01:55.903Z</time></trkpt><trkpt lat="42.1790333" lon="14.6116017"><ele>54.0</ele><time>2026-05-02T10:01:56.902Z</time></trkpt><trkpt lat="42.1789683" lon="14.61159"><ele>54.0</ele><time>2026-05-02T10:01:57.902Z</time></trkpt><trkpt lat="42.1788983" lon="14.6115783"><ele>54.166666666666664</ele><time>2026-05-02T10:01:58.903Z</time></trkpt><trkpt lat="42.1788317" lon="14.6115767"><ele>54.33333333333333</ele><time>2026-05-02T10:01:59.902Z</time></trkpt><trkpt lat="42.1787667" lon="14.611575"><ele>54.5</ele><time>2026-05-02T10:02:00.903Z</time></trkpt><trkpt lat="42.1787033" lon="14.6115733"><ele>54.666666666666664</ele><time>2026-05-02T10:02:01.903Z</time></trkpt><trkpt lat="42.1785867" lon="14.6115617"><ele>54.83333333333333</ele><time>2026-05-02T10:02:03.903Z</time></trkpt><trkpt lat="42.1784833" lon="14.611545"><ele>55.0</ele><time>2026-05-02T10:02:05.903Z</time></trkpt><trkpt lat="42.17839" lon="14.6114983"><ele>55.0</ele><time>2026-05-02T10:02:07.903Z</time></trkpt><trkpt lat="42.1782917" lon="14.6114417"><ele>55.0</ele><time>2026-05-02T10:02:09.902Z</time></trkpt><trkpt lat="42.1781983" lon="14.6113733"><ele>55.0</ele><time>2026-05-02T10:02:11.903Z</time></trkpt><trkpt lat="42.1780983" lon="14.6112983"><ele>55.0</ele><time>2026-05-02T10:02:13.903Z</time></trkpt><trkpt lat="42.1779917" lon="14.6112383"><ele>55.0</ele><time>2026-05-02T10:02:15.903Z</time></trkpt><trkpt lat="42.177875" lon="14.6112417"><ele>55.14285714285714</ele><time>2026-05-02T10:02:17.903Z</time></trkpt><trkpt lat="42.1778117" lon="14.61125"><ele>55.285714285714285</ele><time>2026-05-02T10:02:18.903Z</time></trkpt><trkpt lat="42.1777467" lon="14.61126"><ele>55.42857142857143</ele><time>2026-05-02T10:02:19.902Z</time></trkpt><trkpt lat="42.1776817" lon="14.6112633"><ele>55.57142857142857</ele><time>2026-05-02T10:02:20.903Z</time></trkpt><trkpt lat="42.177615" lon="14.6112683"><ele>55.714285714285715</ele><time>2026-05-02T10:02:21.903Z</time></trkpt><trkpt lat="42.1775467" lon="14.6112717"><ele>55.857142857142854</ele><time>2026-05-02T10:02:22.903Z</time></trkpt><trkpt lat="42.17748" lon="14.6112833"><ele>56.0</ele><time>2026-05-02T10:02:23.902Z</time></trkpt><trkpt lat="42.1774183" lon="14.6113017"><ele>56.599999999999994</ele><time>2026-05-02T10:02:24.902Z</time></trkpt><trkpt lat="42.17731" lon="14.611335"><ele>57.199999999999996</ele><time>2026-05-02T10:02:26.903Z</time></trkpt><trkpt lat="42.17721" lon="14.61135"><ele>57.800000000000004</ele><time>2026-05-02T10:02:28.902Z</time></trkpt><trkpt lat="42.1771283" lon="14.6113467"><ele>58.400000000000006</ele><time>2026-05-02T10:02:30.903Z</time></trkpt><trkpt lat="42.1770367" lon="14.6113483"><ele>59.0</ele><time>2026-05-02T10:02:32.903Z</time></trkpt><trkpt lat="42.176925" lon="14.6113817"><ele>59.0</ele><time>2026-05-02T10:02:34.903Z</time></trkpt><trkpt lat="42.1768133" lon="14.6114067"><ele>59.00000000000001</ele><time>2026-05-02T10:02:36.903Z</time></trkpt><trkpt lat="42.1767067" lon="14.6114067"><ele>59.00000000000001</ele><time>2026-05-02T10:02:38.903Z</time></trkpt><trkpt lat="42.17661" lon="14.6113717"><ele>59.0</ele><time>2026-05-02T10:02:40.903Z</time></trkpt><trkpt lat="42.176535" lon="14.6113117"><ele>59.0</ele><time>2026-05-02T10:02:42.903Z</time></trkpt><trkpt lat="42.1764667" lon="14.61124"><ele>59.66666666666667</ele><time>2026-05-02T10:02:44.903Z</time></trkpt><trkpt lat="42.1764033" lon="14.61116"><ele>60.333333333333336</ele><time>2026-05-02T10:02:46.902Z</time></trkpt><trkpt lat="42.176345" lon="14.6110833"><ele>61.0</ele><time>2026-05-02T10:02:48.902Z</time></trkpt><trkpt lat="42.176295" lon="14.611015"><ele>61.66666666666667</ele><time>2026-05-02T10:02:50.903Z</time></trkpt><trkpt lat="42.1762417" lon="14.6109417"><ele>62.333333333333336</ele><time>2026-05-02T10:02:52.903Z</time></trkpt><trkpt lat="42.1761867" lon="14.61087"><ele>63.0</ele><time>2026-05-02T10:02:54.902Z</time></trkpt><trkpt lat="42.1761317" lon="14.6107983"><ele>63.42857142857143</ele><time>2026-05-02T10:02:56.903Z</time></trkpt><trkpt lat="42.1760733" lon="14.610735"><ele>63.85714285714286</ele><time>2026-05-02T10:02:58.903Z</time></trkpt><trkpt lat="42.1760217" lon="14.6106717"><ele>64.28571428571428</ele><time>2026-05-02T10:03:00.903Z</time></trkpt><trkpt lat="42.1759667" lon="14.610605"><ele>64.71428571428572</ele><time>2026-05-02T10:03:02.903Z</time></trkpt><trkpt lat="42.17591" lon="14.610545"><ele>65.14285714285714</ele><time>2026-05-02T10:03:04.903Z</time></trkpt><trkpt lat="42.1758533" lon="14.6104833"><ele>65.57142857142857</ele><time>2026-05-02T10:03:06.903Z</time></trkpt><trkpt lat="42.1757933" lon="14.6104383"><ele>66.0</ele><time>2026-05-02T10:03:08.902Z</time></trkpt><trkpt lat="42.1757267" lon="14.6104117"><ele>67.28571428571428</ele><time>2026-05-02T10:03:10.902Z</time></trkpt><trkpt lat="42.1756567" lon="14.6103867"><ele>68.57142857142857</ele><time>2026-05-02T10:03:12.903Z</time></trkpt><trkpt lat="42.1755883" lon="14.6103733"><ele>69.85714285714286</ele><time>2026-05-02T10:03:14.903Z</time></trkpt><trkpt lat="42.1755217" lon="14.6103567"><ele>71.14285714285714</ele><time>2026-05-02T10:03:16.903Z</time></trkpt><trkpt lat="42.1754567" lon="14.6103383"><ele>72.42857142857143</ele><time>2026-05-02T10:03:18.903Z</time></trkpt><trkpt lat="42.175385" lon="14.61031"><ele>73.71428571428571</ele><time>2026-05-02T10:03:20.903Z</time></trkpt><trkpt lat="42.1753117" lon="14.6102983"><ele>75.0</ele><time>2026-05-02T10:03:22.903Z</time></trkpt><trkpt lat="42.1752333" lon="14.6102917"><ele>76.33333333333333</ele><time>2026-05-02T10:03:24.903Z</time></trkpt><trkpt lat="42.1751567" lon="14.6102833"><ele>77.66666666666667</ele><time>2026-05-02T10:03:26.903Z</time></trkpt><trkpt lat="42.1750767" lon="14.6102583"><ele>79.0</ele><time>2026-05-02T10:03:28.903Z</time></trkpt><trkpt lat="42.1750067" lon="14.6102417"><ele>80.33333333333334</ele><time>2026-05-02T10:03:30.903Z</time></trkpt><trkpt lat="42.1749317" lon="14.61022"><ele>81.66666666666667</ele><time>2026-05-02T10:03:32.903Z</time></trkpt><trkpt lat="42.1748533" lon="14.6101967"><ele>83.0</ele><time>2026-05-02T10:03:34.902Z</time></trkpt><trkpt lat="42.1747733" lon="14.6101767"><ele>84.66666666666667</ele><time>2026-05-02T10:03:36.902Z</time></trkpt><trkpt lat="42.174695" lon="14.6101533"><ele>86.33333333333334</ele><time>2026-05-02T10:03:38.902Z</time></trkpt><trkpt lat="42.1746117" lon="14.6101367"><ele>88.0</ele><time>2026-05-02T10:03:40.903Z</time></trkpt><trkpt lat="42.174535" lon="14.6101117"><ele>89.66666666666667</ele><time>2026-05-02T10:03:42.902Z</time></trkpt><trkpt lat="42.1744617" lon="14.6100933"><ele>91.33333333333333</ele><time>2026-05-02T10:03:44.903Z</time></trkpt><trkpt lat="42.17439" lon="14.6100667"><ele>93.0</ele><time>2026-05-02T10:03:46.903Z</time></trkpt><trkpt lat="42.1743217" lon="14.610045"><ele>93.00000000000001</ele><time>2026-05-02T10:03:48.903Z</time></trkpt><trkpt lat="42.1742533" lon="14.6100183"><ele>93.0</ele><time>2026-05-02T10:03:50.903Z</time></trkpt><trkpt lat="42.1741833" lon="14.6100017"><ele>93.0</ele><time>2026-05-02T10:03:52.902Z</time></trkpt><trkpt lat="42.174115" lon="14.609995"><ele>93.0</ele><time>2026-05-02T10:03:54.902Z</time></trkpt><trkpt lat="42.1740333" lon="14.6099917"><ele>93.0</ele><time>2026-05-02T10:03:56.903Z</time></trkpt><trkpt lat="42.17396" lon="14.60998"><ele>93.00000000000001</ele><time>2026-05-02T10:03:58.903Z</time></trkpt><trkpt lat="42.1738917" lon="14.6099767"><ele>93.0</ele><time>2026-05-02T10:04:00.903Z</time></trkpt><trkpt lat="42.1738167" lon="14.6099767"><ele>94.0</ele><time>2026-05-02T10:04:02.903Z</time></trkpt><trkpt lat="42.1737433" lon="14.609985"><ele>95.0</ele><time>2026-05-02T10:04:04.902Z</time></trkpt><trkpt lat="42.1736633" lon="14.6100067"><ele>96.0</ele><time>2026-05-02T10:04:06.902Z</time></trkpt><trkpt lat="42.17358" lon="14.61003"><ele>97.0</ele><time>2026-05-02T10:04:08.902Z</time></trkpt><trkpt lat="42.1735017" lon="14.6100333"><ele>98.0</ele><time>2026-05-02T10:04:10.902Z</time></trkpt><trkpt lat="42.1734383" lon="14.6100017"><ele>99.0</ele><time>2026-05-02T10:04:12.902Z</time></trkpt><trkpt lat="42.1733767" lon="14.6099467"><ele>99.0</ele><time>2026-05-02T10:04:14.902Z</time></trkpt><trkpt lat="42.1732983" lon="14.6098817"><ele>99.0</ele><time>2026-05-02T10:04:16.903Z</time></trkpt><trkpt lat="42.17321" lon="14.6097983"><ele>99.0</ele><time>2026-05-02T10:04:18.903Z</time></trkpt><trkpt lat="42.17312" lon="14.6097067"><ele>99.0</ele><time>2026-05-02T10:04:20.902Z</time></trkpt><trkpt lat="42.1730233" lon="14.6096283"><ele>99.0</ele><time>2026-05-02T10:04:22.903Z</time></trkpt><trkpt lat="42.1729117" lon="14.60957"><ele>99.2</ele><time>2026-05-02T10:04:24.903Z</time></trkpt><trkpt lat="42.172805" lon="14.60952"><ele>99.4</ele><time>2026-05-02T10:04:26.902Z</time></trkpt><trkpt lat="42.17272" lon="14.609455"><ele>99.6</ele><time>2026-05-02T10:04:28.902Z</time></trkpt><trkpt lat="42.172655" lon="14.609385"><ele>99.8</ele><time>2026-05-02T10:04:30.903Z</time></trkpt><trkpt lat="42.1725917" lon="14.6092967"><ele>100.0</ele><time>2026-05-02T10:04:32.903Z</time></trkpt><trkpt lat="42.172515" lon="14.6091967"><ele>102.0</ele><time>2026-05-02T10:04:34.903Z</time></trkpt><trkpt lat="42.1724333" lon="14.6090867"><ele>104.0</ele><time>2026-05-02T10:04:36.903Z</time></trkpt><trkpt lat="42.17236" lon="14.608975"><ele>106.0</ele><time>2026-05-02T10:04:38.903Z</time></trkpt><trkpt lat="42.1722833" lon="14.6088683"><ele>108.0</ele><time>2026-05-02T10:04:40.903Z</time></trkpt><trkpt lat="42.1721983" lon="14.6087617"><ele>108.0</ele><time>2026-05-02T10:04:42.903Z</time></trkpt><trkpt lat="42.172115" lon="14.608665"><ele>108.00000000000001</ele><time>2026-05-02T10:04:44.903Z</time></trkpt><trkpt lat="42.1720267" lon="14.6085733"><ele>108.00000000000001</ele><time>2026-05-02T10:04:46.903Z</time></trkpt><trkpt lat="42.17194" lon="14.6084817"><ele>108.0</ele><time>2026-05-02T10:04:48.903Z</time></trkpt><trkpt lat="42.1718517" lon="14.608395"><ele>108.0</ele><time>2026-05-02T10:04:50.903Z</time></trkpt><trkpt lat="42.1717683" lon="14.6083"><ele>109.0</ele><time>2026-05-02T10:04:52.902Z</time></trkpt><trkpt lat="42.17169" lon="14.6081933"><ele>110.0</ele><time>2026-05-02T10:04:54.903Z</time></trkpt><trkpt lat="42.1716083" lon="14.60809"><ele>111.0</ele><time>2026-05-02T10:04:56.903Z</time></trkpt><trkpt lat="42.171535" lon="14.6079783"><ele>112.0</ele><time>2026-05-02T10:04:58.902Z</time></trkpt><trkpt lat="42.1714567" lon="14.6078617"><ele>112.6</ele><time>2026-05-02T10:05:00.903Z</time></trkpt><trkpt lat="42.17141" lon="14.6078033"><ele>113.19999999999999</ele><time>2026-05-02T10:05:01.903Z</time></trkpt><trkpt lat="42.171335" lon="14.607685"><ele>113.8</ele><time>2026-05-02T10:05:03.903Z</time></trkpt><trkpt lat="42.1712633" lon="14.6075667"><ele>114.4</ele><time>2026-05-02T10:05:05.903Z</time></trkpt><trkpt lat="42.1711767" lon="14.6074533"><ele>115.0</ele><time>2026-05-02T10:05:07.903Z</time></trkpt><trkpt lat="42.171105" lon="14.6073367"><ele>115.0</ele><time>2026-05-02T10:05:09.903Z</time></trkpt><trkpt lat="42.1710217" lon="14.60723"><ele>115.0</ele><time>2026-05-02T10:05:11.903Z</time></trkpt><trkpt lat="42.1709417" lon="14.60712"><ele>115.0</ele><time>2026-05-02T10:05:13.903Z</time></trkpt><trkpt lat="42.1708617" lon="14.6070033"><ele>115.0</ele><time>2026-05-02T10:05:15.903Z</time></trkpt><trkpt lat="42.170775" lon="14.60689"><ele>115.4</ele><time>2026-05-02T10:05:17.903Z</time></trkpt><trkpt lat="42.1706833" lon="14.60679"><ele>115.8</ele><time>2026-05-02T10:05:19.902Z</time></trkpt><trkpt lat="42.1706" lon="14.6066867"><ele>116.19999999999999</ele><time>2026-05-02T10:05:21.902Z</time></trkpt><trkpt lat="42.170535" lon="14.606595"><ele>116.6</ele><time>2026-05-02T10:05:23.902Z</time></trkpt><trkpt lat="42.170465" lon="14.60649"><ele>117.0</ele><time>2026-05-02T10:05:25.903Z</time></trkpt><trkpt lat="42.170395" lon="14.606385"><ele>117.0</ele><time>2026-05-02T10:05:27.902Z</time></trkpt><trkpt lat="42.1703267" lon="14.606285"><ele>116.99999999999999</ele><time>2026-05-02T10:05:29.903Z</time></trkpt><trkpt lat="42.17025" lon="14.6061933"><ele>116.99999999999999</ele><time>2026-05-02T10:05:31.903Z</time></trkpt><trkpt lat="42.1701683" lon="14.6061117"><ele>117.0</ele><time>2026-05-02T10:05:33.903Z</time></trkpt><trkpt lat="42.1700917" lon="14.6060267"><ele>117.0</ele><time>2026-05-02T10:05:35.903Z</time></trkpt><trkpt lat="42.1700233" lon="14.6059333"><ele>117.0</ele><time>2026-05-02T10:05:37.903Z</time></trkpt><trkpt lat="42.16996" lon="14.6058467"><ele>116.99999999999999</ele><time>2026-05-02T10:05:39.903Z</time></trkpt><trkpt lat="42.1698833" lon="14.6057683"><ele>116.99999999999999</ele><time>2026-05-02T10:05:41.903Z</time></trkpt><trkpt lat="42.1698117" lon="14.6056833"><ele>117.0</ele><time>2026-05-02T10:05:43.903Z</time></trkpt><trkpt lat="42.1697433" lon="14.6055933"><ele>117.0</ele><time>2026-05-02T10:05:45.903Z</time></trkpt><trkpt lat="42.1696617" lon="14.6055017"><ele>117.39999999999999</ele><time>2026-05-02T10:05:47.902Z</time></trkpt><trkpt lat="42.1695867" lon="14.605415"><ele>117.79999999999998</ele><time>2026-05-02T10:05:49.902Z</time></trkpt><trkpt lat="42.1695033" lon="14.60532"><ele>118.2</ele><time>2026-05-02T10:05:51.902Z</time></trkpt><trkpt lat="42.1694267" lon="14.60522"><ele>118.6</ele><time>2026-05-02T10:05:53.903Z</time></trkpt><trkpt lat="42.1693483" lon="14.6051233"><ele>119.0</ele><time>2026-05-02T10:05:55.903Z</time></trkpt><trkpt lat="42.169275" lon="14.6050267"><ele>119.0</ele><time>2026-05-02T10:05:57.902Z</time></trkpt><trkpt lat="42.1692017" lon="14.6049133"><ele>119.0</ele><time>2026-05-02T10:05:59.903Z</time></trkpt><trkpt lat="42.1691333" lon="14.6048067"><ele>119.0</ele><time>2026-05-02T10:06:01.903Z</time></trkpt><trkpt lat="42.16905" lon="14.6047033"><ele>119.0</ele><time>2026-05-02T10:06:03.903Z</time></trkpt><trkpt lat="42.1689667" lon="14.6046033"><ele>119.0</ele><time>2026-05-02T10:06:05.902Z</time></trkpt><trkpt lat="42.1688933" lon="14.6044933"><ele>119.6</ele><time>2026-05-02T10:06:07.902Z</time></trkpt><trkpt lat="42.1688217" lon="14.604385"><ele>120.2</ele><time>2026-05-02T10:06:09.903Z</time></trkpt><trkpt lat="42.16875" lon="14.604285"><ele>120.79999999999998</ele><time>2026-05-02T10:06:11.903Z</time></trkpt><trkpt lat="42.1686717" lon="14.60418"><ele>121.39999999999999</ele><time>2026-05-02T10:06:13.903Z</time></trkpt><trkpt lat="42.1686" lon="14.6040817"><ele>122.0</ele><time>2026-05-02T10:06:15.903Z</time></trkpt><trkpt lat="42.1685183" lon="14.60398"><ele>122.0</ele><time>2026-05-02T10:06:17.903Z</time></trkpt><trkpt lat="42.1684417" lon="14.603875"><ele>121.99999999999999</ele><time>2026-05-02T10:06:19.903Z</time></trkpt><trkpt lat="42.1683767" lon="14.6037633"><ele>121.99999999999999</ele><time>2026-05-02T10:06:21.903Z</time></trkpt><trkpt lat="42.1683183" lon="14.6036467"><ele>122.0</ele><time>2026-05-02T10:06:23.902Z</time></trkpt><trkpt lat="42.168265" lon="14.6035367"><ele>122.0</ele><time>2026-05-02T10:06:25.903Z</time></trkpt><trkpt lat="42.1681983" lon="14.603425"><ele>122.6</ele><time>2026-05-02T10:06:27.903Z</time></trkpt><trkpt lat="42.1681283" lon="14.603315"><ele>123.19999999999999</ele><time>2026-05-02T10:06:29.903Z</time></trkpt><trkpt lat="42.168065" lon="14.6031967"><ele>123.8</ele><time>2026-05-02T10:06:31.903Z</time></trkpt><trkpt lat="42.1679967" lon="14.603085"><ele>124.4</ele><time>2026-05-02T10:06:33.903Z</time></trkpt><trkpt lat="42.1679133" lon="14.6029817"><ele>125.0</ele><time>2026-05-02T10:06:35.902Z</time></trkpt><trkpt lat="42.1678367" lon="14.602905"><ele>124.8</ele><time>2026-05-02T10:06:37.903Z</time></trkpt><trkpt lat="42.1677567" lon="14.6028183"><ele>124.6</ele><time>2026-05-02T10:06:39.903Z</time></trkpt><trkpt lat="42.16768" lon="14.602735"><ele>124.4</ele><time>2026-05-02T10:06:41.902Z</time></trkpt><trkpt lat="42.1676233" lon="14.602655"><ele>124.2</ele><time>2026-05-02T10:06:43.903Z</time></trkpt><trkpt lat="42.16755" lon="14.602565"><ele>124.0</ele><time>2026-05-02T10:06:45.902Z</time></trkpt><trkpt lat="42.1674767" lon="14.602465"><ele>124.0</ele><time>2026-05-02T10:06:47.903Z</time></trkpt><trkpt lat="42.167395" lon="14.6023717"><ele>124.0</ele><time>2026-05-02T10:06:49.903Z</time></trkpt><trkpt lat="42.167315" lon="14.6022817"><ele>124.0</ele><time>2026-05-02T10:06:51.903Z</time></trkpt><trkpt lat="42.167245" lon="14.602185"><ele>124.0</ele><time>2026-05-02T10:06:53.903Z</time></trkpt><trkpt lat="42.1671767" lon="14.60209"><ele>124.0</ele><time>2026-05-02T10:06:55.903Z</time></trkpt><trkpt lat="42.1671133" lon="14.6019983"><ele>124.50000000000001</ele><time>2026-05-02T10:06:57.903Z</time></trkpt><trkpt lat="42.16706" lon="14.601905"><ele>125.0</ele><time>2026-05-02T10:06:59.903Z</time></trkpt><trkpt lat="42.167" lon="14.6018333"><ele>125.5</ele><time>2026-05-02T10:07:01.902Z</time></trkpt><trkpt lat="42.1669383" lon="14.6017617"><ele>126.0</ele><time>2026-05-02T10:07:03.902Z</time></trkpt><trkpt lat="42.1668733" lon="14.6017183"><ele>126.50000000000001</ele><time>2026-05-02T10:07:05.902Z</time></trkpt><trkpt lat="42.1668167" lon="14.6016467"><ele>127.0</ele><time>2026-05-02T10:07:07.903Z</time></trkpt><trkpt lat="42.1667433" lon="14.6015617"><ele>127.0</ele><time>2026-05-02T10:07:09.903Z</time></trkpt><trkpt lat="42.1666717" lon="14.6014767"><ele>126.99999999999999</ele><time>2026-05-02T10:07:11.903Z</time></trkpt><trkpt lat="42.1665967" lon="14.6013833"><ele>126.99999999999999</ele><time>2026-05-02T10:07:13.903Z</time></trkpt><trkpt lat="42.166525" lon="14.6012983"><ele>127.0</ele><time>2026-05-02T10:07:15.903Z</time></trkpt><trkpt lat="42.166455" lon="14.601215"><ele>127.0</ele><time>2026-05-02T10:07:17.902Z</time></trkpt><trkpt lat="42.1663817" lon="14.6011267"><ele>127.6</ele><time>2026-05-02T10:07:19.903Z</time></trkpt><trkpt lat="42.1663083" lon="14.60104"><ele>128.2</ele><time>2026-05-02T10:07:21.903Z</time></trkpt><trkpt lat="42.16622" lon="14.600945"><ele>128.8</ele><time>2026-05-02T10:07:23.903Z</time></trkpt><trkpt lat="42.1661217" lon="14.6008483"><ele>129.4</ele><time>2026-05-02T10:07:25.902Z</time></trkpt><trkpt lat="42.166035" lon="14.6007483"><ele>130.0</ele><time>2026-05-02T10:07:27.902Z</time></trkpt><trkpt lat="42.1659517" lon="14.6006533"><ele>130.0</ele><time>2026-05-02T10:07:29.903Z</time></trkpt><trkpt lat="42.16587" lon="14.6005483"><ele>130.0</ele><time>2026-05-02T10:07:31.903Z</time></trkpt><trkpt lat="42.1657883" lon="14.6004433"><ele>130.0</ele><time>2026-05-02T10:07:33.903Z</time></trkpt><trkpt lat="42.165705" lon="14.6003533"><ele>130.0</ele><time>2026-05-02T10:07:35.903Z</time></trkpt><trkpt lat="42.165635" lon="14.60027"><ele>130.0</ele><time>2026-05-02T10:07:37.902Z</time></trkpt><trkpt lat="42.1655617" lon="14.6001933"><ele>130.33333333333334</ele><time>2026-05-02T10:07:39.902Z</time></trkpt><trkpt lat="42.1655" lon="14.6001183"><ele>130.66666666666669</ele><time>2026-05-02T10:07:41.903Z</time></trkpt><trkpt lat="42.1654433" lon="14.60004"><ele>131.0</ele><time>2026-05-02T10:07:43.902Z</time></trkpt><trkpt lat="42.165385" lon="14.599975"><ele>131.33333333333334</ele><time>2026-05-02T10:07:45.903Z</time></trkpt><trkpt lat="42.165335" lon="14.5998467"><ele>131.66666666666666</ele><time>2026-05-02T10:07:47.903Z</time></trkpt><trkpt lat="42.1652883" lon="14.599725"><ele>132.0</ele><time>2026-05-02T10:07:49.902Z</time></trkpt><trkpt lat="42.16525" lon="14.59961"><ele>132.0</ele><time>2026-05-02T10:07:51.903Z</time></trkpt><trkpt lat="42.1652233" lon="14.599495"><ele>132.0</ele><time>2026-05-02T10:07:53.903Z</time></trkpt><trkpt lat="42.165195" lon="14.5993733"><ele>132.0</ele><time>2026-05-02T10:07:55.903Z</time></trkpt><trkpt lat="42.16515" lon="14.599245"><ele>132.0</ele><time>2026-05-02T10:07:57.903Z</time></trkpt><trkpt lat="42.1650933" lon="14.5991417"><ele>132.0</ele><time>2026-05-02T10:07:59.902Z</time></trkpt><trkpt lat="42.1650267" lon="14.5990417"><ele>132.0</ele><time>2026-05-02T10:08:01.903Z</time></trkpt><trkpt lat="42.1649683" lon="14.5989533"><ele>132.0</ele><time>2026-05-02T10:08:03.903Z</time></trkpt><trkpt lat="42.1649167" lon="14.5988617"><ele>132.0</ele><time>2026-05-02T10:08:05.903Z</time></trkpt><trkpt lat="42.164855" lon="14.598765"><ele>132.0</ele><time>2026-05-02T10:08:07.902Z</time></trkpt><trkpt lat="42.1647867" lon="14.5986683"><ele>132.0</ele><time>2026-05-02T10:08:09.903Z</time></trkpt><trkpt lat="42.16471" lon="14.5985583"><ele>132.5</ele><time>2026-05-02T10:08:11.903Z</time></trkpt><trkpt lat="42.1646283" lon="14.5984483"><ele>133.0</ele><time>2026-05-02T10:08:13.903Z</time></trkpt><trkpt lat="42.16454" lon="14.598355"><ele>133.5</ele><time>2026-05-02T10:08:15.902Z</time></trkpt><trkpt lat="42.1644483" lon="14.59827"><ele>134.0</ele><time>2026-05-02T10:08:17.902Z</time></trkpt><trkpt lat="42.164355" lon="14.5981817"><ele>134.0</ele><time>2026-05-02T10:08:19.903Z</time></trkpt><trkpt lat="42.164255" lon="14.5981083"><ele>134.0</ele><time>2026-05-02T10:08:21.902Z</time></trkpt><trkpt lat="42.1641583" lon="14.59804"><ele>134.0</ele><time>2026-05-02T10:08:23.903Z</time></trkpt><trkpt lat="42.1640617" lon="14.5979717"><ele>134.0</ele><time>2026-05-02T10:08:25.902Z</time></trkpt><trkpt lat="42.163955" lon="14.5979167"><ele>134.0</ele><time>2026-05-02T10:08:27.903Z</time></trkpt><trkpt lat="42.1638533" lon="14.5978633"><ele>134.6</ele><time>2026-05-02T10:08:29.902Z</time></trkpt><trkpt lat="42.1637533" lon="14.5978133"><ele>135.2</ele><time>2026-05-02T10:08:31.903Z</time></trkpt><trkpt lat="42.16367" lon="14.59774"><ele>135.79999999999998</ele><time>2026-05-02T10:08:33.903Z</time></trkpt><trkpt lat="42.1635833" lon="14.5976367"><ele>136.4</ele><time>2026-05-02T10:08:35.902Z</time></trkpt><trkpt lat="42.1635033" lon="14.5975267"><ele>137.0</ele><time>2026-05-02T10:08:37.903Z</time></trkpt><trkpt lat="42.1634417" lon="14.5974217"><ele>137.0</ele><time>2026-05-02T10:08:39.903Z</time></trkpt><trkpt lat="42.1633717" lon="14.5973067"><ele>137.0</ele><time>2026-05-02T10:08:41.902Z</time></trkpt><trkpt lat="42.1632967" lon="14.5971833"><ele>137.0</ele><time>2026-05-02T10:08:43.902Z</time></trkpt><trkpt lat="42.163215" lon="14.59706"><ele>137.0</ele><time>2026-05-02T10:08:45.902Z</time></trkpt><trkpt lat="42.16314" lon="14.5969317"><ele>138.0</ele><time>2026-05-02T10:08:47.903Z</time></trkpt><trkpt lat="42.1630733" lon="14.596805"><ele>139.0</ele><time>2026-05-02T10:08:49.903Z</time></trkpt><trkpt lat="42.1629967" lon="14.5966733"><ele>140.0</ele><time>2026-05-02T10:08:51.903Z</time></trkpt><trkpt lat="42.1629167" lon="14.596545"><ele>141.0</ele><time>2026-05-02T10:08:53.902Z</time></trkpt><trkpt lat="42.162835" lon="14.596425"><ele>141.0</ele><time>2026-05-02T10:08:55.902Z</time></trkpt><trkpt lat="42.16276" lon="14.5963017"><ele>141.0</ele><time>2026-05-02T10:08:57.903Z</time></trkpt><trkpt lat="42.162685" lon="14.5961683"><ele>141.0</ele><time>2026-05-02T10:08:59.903Z</time></trkpt><trkpt lat="42.16261" lon="14.5960383"><ele>141.0</ele><time>2026-05-02T10:09:01.903Z</time></trkpt><trkpt lat="42.1625267" lon="14.59592"><ele>141.0</ele><time>2026-05-02T10:09:03.903Z</time></trkpt><trkpt lat="42.1624883" lon="14.5958517"><ele>141.0</ele><time>2026-05-02T10:09:04.902Z</time></trkpt><trkpt lat="42.162445" lon="14.595785"><ele>141.0</ele><time>2026-05-02T10:09:05.903Z</time></trkpt><trkpt lat="42.1623983" lon="14.5957183"><ele>141.0</ele><time>2026-05-02T10:09:06.903Z</time></trkpt><trkpt lat="42.1623617" lon="14.5956483"><ele>141.0</ele><time>2026-05-02T10:09:07.903Z</time></trkpt><trkpt lat="42.16232" lon="14.5955783"><ele>141.0</ele><time>2026-05-02T10:09:08.902Z</time></trkpt><trkpt lat="42.1622483" lon="14.5954433"><ele>141.25</ele><time>2026-05-02T10:09:10.903Z</time></trkpt><trkpt lat="42.1621717" lon="14.5953133"><ele>141.5</ele><time>2026-05-02T10:09:12.903Z</time></trkpt><trkpt lat="42.16209" lon="14.5951933"><ele>141.75</ele><time>2026-05-02T10:09:14.902Z</time></trkpt><trkpt lat="42.1620133" lon="14.5950667"><ele>142.0</ele><time>2026-05-02T10:09:16.902Z</time></trkpt><trkpt lat="42.1619333" lon="14.5949467"><ele>142.0</ele><time>2026-05-02T10:09:18.903Z</time></trkpt><trkpt lat="42.161885" lon="14.5948867"><ele>142.0</ele><time>2026-05-02T10:09:19.903Z</time></trkpt><trkpt lat="42.1618383" lon="14.5948283"><ele>142.0</ele><time>2026-05-02T10:09:20.903Z</time></trkpt><trkpt lat="42.16179" lon="14.5947717"><ele>142.0</ele><time>2026-05-02T10:09:21.903Z</time></trkpt><trkpt lat="42.161745" lon="14.5947117"><ele>142.0</ele><time>2026-05-02T10:09:22.903Z</time></trkpt><trkpt lat="42.1616567" lon="14.594595"><ele>142.0</ele><time>2026-05-02T10:09:24.902Z</time></trkpt><trkpt lat="42.1616133" lon="14.5945333"><ele>142.0</ele><time>2026-05-02T10:09:25.903Z</time></trkpt><trkpt lat="42.1615683" lon="14.5944733"><ele>142.83333333333334</ele><time>2026-05-02T10:09:26.903Z</time></trkpt><trkpt lat="42.1615217" lon="14.594415"><ele>143.66666666666669</ele><time>2026-05-02T10:09:27.902Z</time></trkpt><trkpt lat="42.1614333" lon="14.5942967"><ele>144.5</ele><time>2026-05-02T10:09:29.903Z</time></trkpt><trkpt lat="42.1613867" lon="14.5942383"><ele>145.33333333333334</ele><time>2026-05-02T10:09:30.903Z</time></trkpt><trkpt lat="42.1612967" lon="14.5941183"><ele>146.16666666666666</ele><time>2026-05-02T10:09:32.902Z</time></trkpt><trkpt lat="42.1612483" lon="14.59406"><ele>147.0</ele><time>2026-05-02T10:09:33.903Z</time></trkpt><trkpt lat="42.1611983" lon="14.5939983"><ele>147.0</ele><time>2026-05-02T10:09:34.902Z</time></trkpt><trkpt lat="42.16111" lon="14.5938767"><ele>147.0</ele><time>2026-05-02T10:09:36.903Z</time></trkpt><trkpt lat="42.1610583" lon="14.5938167"><ele>147.0</ele><time>2026-05-02T10:09:37.903Z</time></trkpt><trkpt lat="42.1610117" lon="14.5937533"><ele>147.0</ele><time>2026-05-02T10:09:38.903Z</time></trkpt><trkpt lat="42.1609667" lon="14.5936867"><ele>147.0</ele><time>2026-05-02T10:09:39.902Z</time></trkpt><trkpt lat="42.1609183" lon="14.593625"><ele>147.0</ele><time>2026-05-02T10:09:40.903Z</time></trkpt><trkpt lat="42.1608283" lon="14.5935083"><ele>147.14285714285714</ele><time>2026-05-02T10:09:42.903Z</time></trkpt><trkpt lat="42.1607817" lon="14.5934483"><ele>147.28571428571428</ele><time>2026-05-02T10:09:43.903Z</time></trkpt><trkpt lat="42.160735" lon="14.5933883"><ele>147.42857142857144</ele><time>2026-05-02T10:09:44.902Z</time></trkpt><trkpt lat="42.1606883" lon="14.5933283"><ele>147.57142857142856</ele><time>2026-05-02T10:09:45.902Z</time></trkpt><trkpt lat="42.1606417" lon="14.5932683"><ele>147.71428571428572</ele><time>2026-05-02T10:09:46.903Z</time></trkpt><trkpt lat="42.1605467" lon="14.5931567"><ele>147.85714285714286</ele><time>2026-05-02T10:09:48.903Z</time></trkpt><trkpt lat="42.1605017" lon="14.5930933"><ele>148.0</ele><time>2026-05-02T10:09:49.903Z</time></trkpt><trkpt lat="42.160415" lon="14.5929933"><ele>148.4</ele><time>2026-05-02T10:09:51.903Z</time></trkpt><trkpt lat="42.1603467" lon="14.592875"><ele>148.8</ele><time>2026-05-02T10:09:53.903Z</time></trkpt><trkpt lat="42.1602567" lon="14.5927633"><ele>149.2</ele><time>2026-05-02T10:09:55.903Z</time></trkpt><trkpt lat="42.160205" lon="14.5927117"><ele>149.6</ele><time>2026-05-02T10:09:56.903Z</time></trkpt><trkpt lat="42.1601017" lon="14.5926067"><ele>150.0</ele><time>2026-05-02T10:09:58.903Z</time></trkpt><trkpt lat="42.1600483" lon="14.5925517"><ele>150.28571428571428</ele><time>2026-05-02T10:09:59.903Z</time></trkpt><trkpt lat="42.159995" lon="14.5924967"><ele>150.57142857142856</ele><time>2026-05-02T10:10:00.903Z</time></trkpt><trkpt lat="42.1599433" lon="14.592445"><ele>150.85714285714283</ele><time>2026-05-02T10:10:01.903Z</time></trkpt><trkpt lat="42.1598933" lon="14.5923933"><ele>151.14285714285714</ele><time>2026-05-02T10:10:02.903Z</time></trkpt><trkpt lat="42.1597983" lon="14.5922933"><ele>151.42857142857144</ele><time>2026-05-02T10:10:04.902Z</time></trkpt><trkpt lat="42.1597483" lon="14.59224"><ele>151.7142857142857</ele><time>2026-05-02T10:10:05.902Z</time></trkpt><trkpt lat="42.1596983" lon="14.5921883"><ele>152.0</ele><time>2026-05-02T10:10:06.902Z</time></trkpt><trkpt lat="42.1595967" lon="14.5920917"><ele>152.2</ele><time>2026-05-02T10:10:08.903Z</time></trkpt><trkpt lat="42.1595467" lon="14.59204"><ele>152.39999999999998</ele><time>2026-05-02T10:10:09.903Z</time></trkpt><trkpt lat="42.1594967" lon="14.5919867"><ele>152.60000000000002</ele><time>2026-05-02T10:10:10.903Z</time></trkpt><trkpt lat="42.159405" lon="14.5918833"><ele>152.8</ele><time>2026-05-02T10:10:12.903Z</time></trkpt><trkpt lat="42.15931" lon="14.59178"><ele>153.0</ele><time>2026-05-02T10:10:14.903Z</time></trkpt><trkpt lat="42.1592117" lon="14.591675"><ele>153.20000000000002</ele><time>2026-05-02T10:10:16.903Z</time></trkpt><trkpt lat="42.1591617" lon="14.59162"><ele>153.4</ele><time>2026-05-02T10:10:17.903Z</time></trkpt><trkpt lat="42.159065" lon="14.591515"><ele>153.60000000000002</ele><time>2026-05-02T10:10:19.902Z</time></trkpt><trkpt lat="42.1589683" lon="14.5914117"><ele>153.8</ele><time>2026-05-02T10:10:21.903Z</time></trkpt><trkpt lat="42.1588767" lon="14.5913017"><ele>154.0</ele><time>2026-05-02T10:10:23.903Z</time></trkpt><trkpt lat="42.1588283" lon="14.591245"><ele>154.16666666666669</ele><time>2026-05-02T10:10:24.903Z</time></trkpt><trkpt lat="42.1587817" lon="14.591185"><ele>154.33333333333334</ele><time>2026-05-02T10:10:25.903Z</time></trkpt><trkpt lat="42.15871" lon="14.5911067"><ele>154.5</ele><time>2026-05-02T10:10:27.903Z</time></trkpt><trkpt lat="42.1586567" lon="14.5910417"><ele>154.66666666666666</ele><time>2026-05-02T10:10:29.903Z</time></trkpt><trkpt lat="42.1586033" lon="14.590965"><ele>154.83333333333331</ele><time>2026-05-02T10:10:31.902Z</time></trkpt><trkpt lat="42.1585483" lon="14.590895"><ele>155.0</ele><time>2026-05-02T10:10:33.903Z</time></trkpt><trkpt lat="42.1584883" lon="14.5908233"><ele>155.0</ele><time>2026-05-02T10:10:35.902Z</time></trkpt><trkpt lat="42.158435" lon="14.5907767"><ele>155.0</ele><time>2026-05-02T10:10:37.903Z</time></trkpt><trkpt lat="42.1583917" lon="14.5906983"><ele>155.0</ele><time>2026-05-02T10:10:40.902Z</time></trkpt><trkpt lat="42.1583217" lon="14.5906217"><ele>155.0</ele><time>2026-05-02T10:10:43.903Z</time></trkpt><trkpt lat="42.158255" lon="14.590545"><ele>155.0</ele><time>2026-05-02T10:10:46.903Z</time></trkpt><trkpt lat="42.1581967" lon="14.5904933"><ele>155.0</ele><time>2026-05-02T10:10:48.903Z</time></trkpt><trkpt lat="42.1581383" lon="14.5904417"><ele>155.0</ele><time>2026-05-02T10:10:50.902Z</time></trkpt><trkpt lat="42.1580767" lon="14.59039"><ele>155.0</ele><time>2026-05-02T10:10:52.903Z</time></trkpt><trkpt lat="42.158015" lon="14.5903483"><ele>155.0</ele><time>2026-05-02T10:10:54.902Z</time></trkpt><trkpt lat="42.1579467" lon="14.5902917"><ele>155.0</ele><time>2026-05-02T10:10:57.903Z</time></trkpt><trkpt lat="42.15787" lon="14.5902333"><ele>155.0</ele><time>2026-05-02T10:11:00.903Z</time></trkpt><trkpt lat="42.157815" lon="14.5901817"><ele>155.0</ele><time>2026-05-02T10:11:02.903Z</time></trkpt><trkpt lat="42.15774" lon="14.59013"><ele>155.0</ele><time>2026-05-02T10:11:05.902Z</time></trkpt><trkpt lat="42.1576833" lon="14.5900667"><ele>155.0</ele><time>2026-05-02T10:11:08.903Z</time></trkpt><trkpt lat="42.1576267" lon="14.5900117"><ele>155.0</ele><time>2026-05-02T10:11:10.903Z</time></trkpt><trkpt lat="42.157575" lon="14.5899433"><ele>155.0</ele><time>2026-05-02T10:11:12.903Z</time></trkpt><trkpt lat="42.1575083" lon="14.5898917"><ele>155.0</ele><time>2026-05-02T10:11:14.903Z</time></trkpt><trkpt lat="42.15744" lon="14.589835"><ele>155.0</ele><time>2026-05-02T10:11:16.903Z</time></trkpt><trkpt lat="42.157355" lon="14.58977"><ele>155.0</ele><time>2026-05-02T10:11:18.903Z</time></trkpt><trkpt lat="42.157285" lon="14.5897083"><ele>155.0</ele><time>2026-05-02T10:11:20.903Z</time></trkpt><trkpt lat="42.1572117" lon="14.5896533"><ele>155.0</ele><time>2026-05-02T10:11:22.903Z</time></trkpt><trkpt lat="42.157145" lon="14.58959"><ele>155.0</ele><time>2026-05-02T10:11:24.903Z</time></trkpt><trkpt lat="42.1570817" lon="14.5895283"><ele>155.0</ele><time>2026-05-02T10:11:26.903Z</time></trkpt><trkpt lat="42.1570117" lon="14.5894617"><ele>155.0</ele><time>2026-05-02T10:11:28.903Z</time></trkpt><trkpt lat="42.15695" lon="14.58938"><ele>155.8</ele><time>2026-05-02T10:11:30.903Z</time></trkpt><trkpt lat="42.1568783" lon="14.58929"><ele>156.6</ele><time>2026-05-02T10:11:32.902Z</time></trkpt><trkpt lat="42.1568067" lon="14.5891917"><ele>157.4</ele><time>2026-05-02T10:11:34.902Z</time></trkpt><trkpt lat="42.1567367" lon="14.58909"><ele>158.2</ele><time>2026-05-02T10:11:36.903Z</time></trkpt><trkpt lat="42.1566767" lon="14.5889817"><ele>159.0</ele><time>2026-05-02T10:11:38.903Z</time></trkpt><trkpt lat="42.1566083" lon="14.58888"><ele>159.0</ele><time>2026-05-02T10:11:40.903Z</time></trkpt><trkpt lat="42.156545" lon="14.5887783"><ele>159.0</ele><time>2026-05-02T10:11:42.903Z</time></trkpt><trkpt lat="42.1564867" lon="14.5886817"><ele>159.0</ele><time>2026-05-02T10:11:44.903Z</time></trkpt><trkpt lat="42.15642" lon="14.5885833"><ele>159.0</ele><time>2026-05-02T10:11:46.903Z</time></trkpt><trkpt lat="42.15635" lon="14.5884783"><ele>159.0</ele><time>2026-05-02T10:11:48.903Z</time></trkpt><trkpt lat="42.1562867" lon="14.588385"><ele>159.16666666666666</ele><time>2026-05-02T10:11:50.903Z</time></trkpt><trkpt lat="42.1562333" lon="14.5882917"><ele>159.33333333333334</ele><time>2026-05-02T10:11:52.903Z</time></trkpt><trkpt lat="42.1561867" lon="14.5882067"><ele>159.5</ele><time>2026-05-02T10:11:54.903Z</time></trkpt><trkpt lat="42.1561267" lon="14.588115"><ele>159.66666666666669</ele><time>2026-05-02T10:11:56.902Z</time></trkpt><trkpt lat="42.1560633" lon="14.5880233"><ele>159.83333333333334</ele><time>2026-05-02T10:11:58.903Z</time></trkpt><trkpt lat="42.15601" lon="14.587935"><ele>160.0</ele><time>2026-05-02T10:12:00.903Z</time></trkpt><trkpt lat="42.155955" lon="14.5878417"><ele>160.4</ele><time>2026-05-02T10:12:02.902Z</time></trkpt><trkpt lat="42.1559067" lon="14.5877533"><ele>160.8</ele><time>2026-05-02T10:12:04.903Z</time></trkpt><trkpt lat="42.155855" lon="14.5876633"><ele>161.2</ele><time>2026-05-02T10:12:06.902Z</time></trkpt><trkpt lat="42.1557883" lon="14.587575"><ele>161.6</ele><time>2026-05-02T10:12:08.903Z</time></trkpt><trkpt lat="42.15572" lon="14.58749"><ele>162.0</ele><time>2026-05-02T10:12:10.903Z</time></trkpt><trkpt lat="42.1556433" lon="14.5873983"><ele>162.0</ele><time>2026-05-02T10:12:12.902Z</time></trkpt><trkpt lat="42.1555633" lon="14.5873167"><ele>162.0</ele><time>2026-05-02T10:12:14.903Z</time></trkpt><trkpt lat="42.1554967" lon="14.5872283"><ele>162.0</ele><time>2026-05-02T10:12:16.903Z</time></trkpt><trkpt lat="42.1554333" lon="14.5871233"><ele>162.0</ele><time>2026-05-02T10:12:18.903Z</time></trkpt><trkpt lat="42.1553633" lon="14.587035"><ele>162.0</ele><time>2026-05-02T10:12:20.903Z</time></trkpt><trkpt lat="42.1552833" lon="14.5869367"><ele>162.39999999999998</ele><time>2026-05-02T10:12:22.903Z</time></trkpt><trkpt lat="42.1552083" lon="14.5868267"><ele>162.79999999999998</ele><time>2026-05-02T10:12:24.903Z</time></trkpt><trkpt lat="42.1551417" lon="14.5867133"><ele>163.2</ele><time>2026-05-02T10:12:26.902Z</time></trkpt><trkpt lat="42.1550733" lon="14.586595"><ele>163.6</ele><time>2026-05-02T10:12:28.902Z</time></trkpt><trkpt lat="42.155015" lon="14.5864833"><ele>164.0</ele><time>2026-05-02T10:12:30.902Z</time></trkpt><trkpt lat="42.1549683" lon="14.5863833"><ele>164.0</ele><time>2026-05-02T10:12:32.902Z</time></trkpt><trkpt lat="42.1549267" lon="14.5862883"><ele>164.0</ele><time>2026-05-02T10:12:34.903Z</time></trkpt><trkpt lat="42.1548783" lon="14.5861917"><ele>164.0</ele><time>2026-05-02T10:12:36.902Z</time></trkpt><trkpt lat="42.1548333" lon="14.5860883"><ele>164.0</ele><time>2026-05-02T10:12:38.903Z</time></trkpt><trkpt lat="42.15479" lon="14.58599"><ele>164.0</ele><time>2026-05-02T10:12:40.903Z</time></trkpt><trkpt lat="42.1547533" lon="14.585895"><ele>164.0</ele><time>2026-05-02T10:12:42.903Z</time></trkpt><trkpt lat="42.1547233" lon="14.58582"><ele>165.0</ele><time>2026-05-02T10:12:44.903Z</time></trkpt><trkpt lat="42.1546883" lon="14.5857317"><ele>166.0</ele><time>2026-05-02T10:12:46.903Z</time></trkpt><trkpt lat="42.1546517" lon="14.5856367"><ele>167.0</ele><time>2026-05-02T10:12:48.902Z</time></trkpt><trkpt lat="42.1546083" lon="14.5855383"><ele>168.0</ele><time>2026-05-02T10:12:50.903Z</time></trkpt><trkpt lat="42.1545667" lon="14.5854633"><ele>169.0</ele><time>2026-05-02T10:12:52.903Z</time></trkpt><trkpt lat="42.1545233" lon="14.5853583"><ele>170.0</ele><time>2026-05-02T10:12:54.902Z</time></trkpt><trkpt lat="42.1544483" lon="14.5852667"><ele>170.5</ele><time>2026-05-02T10:12:56.903Z</time></trkpt><trkpt lat="42.1543517" lon="14.5852083"><ele>171.0</ele><time>2026-05-02T10:12:58.903Z</time></trkpt><trkpt lat="42.15424" lon="14.5851833"><ele>171.5</ele><time>2026-05-02T10:13:00.902Z</time></trkpt><trkpt lat="42.1541267" lon="14.5851767"><ele>172.0</ele><time>2026-05-02T10:13:02.902Z</time></trkpt><trkpt lat="42.1540067" lon="14.5851717"><ele>173.0</ele><time>2026-05-02T10:13:04.903Z</time></trkpt><trkpt lat="42.15389" lon="14.5851733"><ele>174.0</ele><time>2026-05-02T10:13:06.903Z</time></trkpt><trkpt lat="42.1537767" lon="14.5851833"><ele>175.0</ele><time>2026-05-02T10:13:08.903Z</time></trkpt><trkpt lat="42.15367" lon="14.585205"><ele>176.0</ele><time>2026-05-02T10:13:10.903Z</time></trkpt><trkpt lat="42.15357" lon="14.585225"><ele>177.0</ele><time>2026-05-02T10:13:12.903Z</time></trkpt><trkpt lat="42.1534767" lon="14.58523"><ele>177.0</ele><time>2026-05-02T10:13:14.902Z</time></trkpt><trkpt lat="42.1534117" lon="14.5852267"><ele>177.0</ele><time>2026-05-02T10:13:16.903Z</time></trkpt><trkpt lat="42.1533633" lon="14.5851433"><ele>177.0</ele><time>2026-05-02T10:13:18.903Z</time></trkpt><trkpt lat="42.153355" lon="14.5850583"><ele>177.0</ele><time>2026-05-02T10:13:19.903Z</time></trkpt><trkpt lat="42.1533467" lon="14.5849667"><ele>177.0</ele><time>2026-05-02T10:13:20.903Z</time></trkpt><trkpt lat="42.15333" lon="14.5848833"><ele>177.0</ele><time>2026-05-02T10:13:21.902Z</time></trkpt><trkpt lat="42.1533167" lon="14.5847883"><ele>177.0</ele><time>2026-05-02T10:13:22.902Z</time></trkpt><trkpt lat="42.153295" lon="14.5847033"><ele>177.0</ele><time>2026-05-02T10:13:23.902Z</time></trkpt><trkpt lat="42.15327" lon="14.584625"><ele>177.0</ele><time>2026-05-02T10:13:24.903Z</time></trkpt><trkpt lat="42.15322" lon="14.5844917"><ele>177.0</ele><time>2026-05-02T10:13:26.903Z</time></trkpt><trkpt lat="42.1531567" lon="14.58437"><ele>177.0</ele><time>2026-05-02T10:13:28.902Z</time></trkpt><trkpt lat="42.1530883" lon="14.5842817"><ele>177.0</ele><time>2026-05-02T10:13:30.903Z</time></trkpt><trkpt lat="42.1530283" lon="14.584205"><ele>178.16666666666666</ele><time>2026-05-02T10:13:32.903Z</time></trkpt><trkpt lat="42.1529733" lon="14.584125"><ele>179.33333333333334</ele><time>2026-05-02T10:13:34.903Z</time></trkpt><trkpt lat="42.1529183" lon="14.5840383"><ele>180.5</ele><time>2026-05-02T10:13:36.903Z</time></trkpt><trkpt lat="42.1528533" lon="14.5839467"><ele>181.66666666666669</ele><time>2026-05-02T10:13:38.903Z</time></trkpt><trkpt lat="42.1527867" lon="14.5838583"><ele>182.83333333333334</ele><time>2026-05-02T10:13:40.903Z</time></trkpt><trkpt lat="42.1527233" lon="14.583775"><ele>184.0</ele><time>2026-05-02T10:13:42.903Z</time></trkpt><trkpt lat="42.1526583" lon="14.58369"><ele>183.79999999999998</ele><time>2026-05-02T10:13:44.903Z</time></trkpt><trkpt lat="42.1525867" lon="14.5836017"><ele>183.6</ele><time>2026-05-02T10:13:46.903Z</time></trkpt><trkpt lat="42.1525217" lon="14.5835133"><ele>183.4</ele><time>2026-05-02T10:13:48.902Z</time></trkpt><trkpt lat="42.1524517" lon="14.5834317"><ele>183.2</ele><time>2026-05-02T10:13:50.902Z</time></trkpt><trkpt lat="42.1523767" lon="14.5833467"><ele>183.0</ele><time>2026-05-02T10:13:52.903Z</time></trkpt><trkpt lat="42.1523" lon="14.58325"><ele>184.5</ele><time>2026-05-02T10:13:54.903Z</time></trkpt><trkpt lat="42.15223" lon="14.5831317"><ele>186.0</ele><time>2026-05-02T10:13:56.903Z</time></trkpt><trkpt lat="42.1521633" lon="14.58304"><ele>187.5</ele><time>2026-05-02T10:13:58.902Z</time></trkpt><trkpt lat="42.1521183" lon="14.582965"><ele>189.0</ele><time>2026-05-02T10:14:00.902Z</time></trkpt><trkpt lat="42.1520833" lon="14.5828817"><ele>190.5</ele><time>2026-05-02T10:14:02.903Z</time></trkpt><trkpt lat="42.152025" lon="14.58279"><ele>192.0</ele><time>2026-05-02T10:14:05.902Z</time></trkpt><trkpt lat="42.151975" lon="14.5827183"><ele>192.0</ele><time>2026-05-02T10:14:07.903Z</time></trkpt><trkpt lat="42.151925" lon="14.5826333"><ele>192.0</ele><time>2026-05-02T10:14:09.903Z</time></trkpt><trkpt lat="42.151875" lon="14.5825367"><ele>192.0</ele><time>2026-05-02T10:14:11.903Z</time></trkpt><trkpt lat="42.15182" lon="14.5824367"><ele>192.0</ele><time>2026-05-02T10:14:13.902Z</time></trkpt><trkpt lat="42.15176" lon="14.5823383"><ele>192.0</ele><time>2026-05-02T10:14:15.902Z</time></trkpt><trkpt lat="42.1517083" lon="14.5822383"><ele>192.0</ele><time>2026-05-02T10:14:17.902Z</time></trkpt><trkpt lat="42.15167" lon="14.582135"><ele>192.0</ele><time>2026-05-02T10:14:19.903Z</time></trkpt><trkpt lat="42.1516517" lon="14.5820383"><ele>192.0</ele><time>2026-05-02T10:14:21.902Z</time></trkpt><trkpt lat="42.1516383" lon="14.581945"><ele>192.0</ele><time>2026-05-02T10:14:23.902Z</time></trkpt><trkpt lat="42.15163" lon="14.5818467"><ele>192.0</ele><time>2026-05-02T10:14:25.903Z</time></trkpt><trkpt lat="42.1516167" lon="14.5817417"><ele>192.0</ele><time>2026-05-02T10:14:27.902Z</time></trkpt><trkpt lat="42.1516133" lon="14.581635"><ele>192.0</ele><time>2026-05-02T10:14:29.903Z</time></trkpt><trkpt lat="42.15161" lon="14.58151"><ele>192.5</ele><time>2026-05-02T10:14:31.903Z</time></trkpt><trkpt lat="42.151605" lon="14.5813767"><ele>193.0</ele><time>2026-05-02T10:14:33.903Z</time></trkpt><trkpt lat="42.1516017" lon="14.5812567"><ele>193.5</ele><time>2026-05-02T10:14:35.902Z</time></trkpt><trkpt lat="42.1516" lon="14.581135"><ele>194.0</ele><time>2026-05-02T10:14:37.902Z</time></trkpt><trkpt lat="42.1515933" lon="14.5810217"><ele>194.5</ele><time>2026-05-02T10:14:39.903Z</time></trkpt><trkpt lat="42.1515883" lon="14.5809117"><ele>195.0</ele><time>2026-05-02T10:14:41.903Z</time></trkpt><trkpt lat="42.1515883" lon="14.5808"><ele>195.5</ele><time>2026-05-02T10:14:43.903Z</time></trkpt><trkpt lat="42.1515833" lon="14.5806883"><ele>196.0</ele><time>2026-05-02T10:14:45.903Z</time></trkpt><trkpt lat="42.1515717" lon="14.5805733"><ele>196.5</ele><time>2026-05-02T10:14:47.902Z</time></trkpt><trkpt lat="42.1515617" lon="14.58047"><ele>197.0</ele><time>2026-05-02T10:14:49.903Z</time></trkpt><trkpt lat="42.1515567" lon="14.5803783"><ele>197.5</ele><time>2026-05-02T10:14:51.902Z</time></trkpt><trkpt lat="42.15154" lon="14.5802667"><ele>198.0</ele><time>2026-05-02T10:14:54.903Z</time></trkpt><trkpt lat="42.151465" lon="14.5802067"><ele>199.83333333333334</ele><time>2026-05-02T10:14:57.903Z</time></trkpt><trkpt lat="42.1513883" lon="14.58019"><ele>201.66666666666669</ele><time>2026-05-02T10:14:59.903Z</time></trkpt><trkpt lat="42.151305" lon="14.5801867"><ele>203.5</ele><time>2026-05-02T10:15:01.903Z</time></trkpt><trkpt lat="42.1512183" lon="14.5801933"><ele>205.33333333333334</ele><time>2026-05-02T10:15:03.903Z</time></trkpt><trkpt lat="42.15114" lon="14.5801983"><ele>207.16666666666669</ele><time>2026-05-02T10:15:05.902Z</time></trkpt><trkpt lat="42.1510567" lon="14.58019"><ele>209.0</ele><time>2026-05-02T10:15:07.903Z</time></trkpt><trkpt lat="42.150985" lon="14.580175"><ele>209.00000000000003</ele><time>2026-05-02T10:15:09.902Z</time></trkpt><trkpt lat="42.1509" lon="14.5801717"><ele>209.0</ele><time>2026-05-02T10:15:11.903Z</time></trkpt><trkpt lat="42.1508167" lon="14.5801783"><ele>209.0</ele><time>2026-05-02T10:15:13.903Z</time></trkpt><trkpt lat="42.1507417" lon="14.5801733"><ele>209.0</ele><time>2026-05-02T10:15:15.903Z</time></trkpt><trkpt lat="42.1506667" lon="14.5801767"><ele>209.00000000000003</ele><time>2026-05-02T10:15:17.902Z</time></trkpt><trkpt lat="42.15059" lon="14.5801733"><ele>209.0</ele><time>2026-05-02T10:15:19.902Z</time></trkpt><trkpt lat="42.150515" lon="14.5801717"><ele>209.83333333333334</ele><time>2026-05-02T10:15:21.902Z</time></trkpt><trkpt lat="42.1504417" lon="14.58017"><ele>210.66666666666669</ele><time>2026-05-02T10:15:23.903Z</time></trkpt><trkpt lat="42.1503567" lon="14.5801683"><ele>211.5</ele><time>2026-05-02T10:15:26.903Z</time></trkpt><trkpt lat="42.1502717" lon="14.5801717"><ele>212.33333333333331</ele><time>2026-05-02T10:15:29.903Z</time></trkpt><trkpt lat="42.1502067" lon="14.5801467"><ele>213.16666666666666</ele><time>2026-05-02T10:15:32.902Z</time></trkpt><trkpt lat="42.1501833" lon="14.5800367"><ele>214.0</ele><time>2026-05-02T10:15:35.902Z</time></trkpt><trkpt lat="42.150185" lon="14.5799467"><ele>213.99999999999997</ele><time>2026-05-02T10:15:37.903Z</time></trkpt><trkpt lat="42.1501833" lon="14.579855"><ele>214.0</ele><time>2026-05-02T10:15:39.903Z</time></trkpt><trkpt lat="42.15019" lon="14.57975"><ele>214.0</ele><time>2026-05-02T10:15:41.903Z</time></trkpt><trkpt lat="42.1502" lon="14.57963"><ele>214.0</ele><time>2026-05-02T10:15:43.902Z</time></trkpt><trkpt lat="42.1502183" lon="14.5795083"><ele>213.99999999999997</ele><time>2026-05-02T10:15:45.902Z</time></trkpt><trkpt lat="42.150225" lon="14.5794017"><ele>214.0</ele><time>2026-05-02T10:15:47.903Z</time></trkpt><trkpt lat="42.1502117" lon="14.5793183"><ele>214.39999999999998</ele><time>2026-05-02T10:15:49.902Z</time></trkpt><trkpt lat="42.1501933" lon="14.5792217"><ele>214.79999999999998</ele><time>2026-05-02T10:15:51.903Z</time></trkpt><trkpt lat="42.1501717" lon="14.5791283"><ele>215.20000000000002</ele><time>2026-05-02T10:15:53.903Z</time></trkpt><trkpt lat="42.1501733" lon="14.5790167"><ele>215.60000000000002</ele><time>2026-05-02T10:15:55.903Z</time></trkpt><trkpt lat="42.150175" lon="14.5788733"><ele>216.0</ele><time>2026-05-02T10:15:57.903Z</time></trkpt><trkpt lat="42.1501933" lon="14.5787083"><ele>216.5</ele><time>2026-05-02T10:15:59.903Z</time></trkpt><trkpt lat="42.1502" lon="14.5786233"><ele>217.0</ele><time>2026-05-02T10:16:00.902Z</time></trkpt><trkpt lat="42.1501933" lon="14.578495"><ele>217.5</ele><time>2026-05-02T10:16:02.902Z</time></trkpt><trkpt lat="42.150165" lon="14.5783683"><ele>218.0</ele><time>2026-05-02T10:16:04.903Z</time></trkpt><trkpt lat="42.1501533" lon="14.5782833"><ele>218.5</ele><time>2026-05-02T10:16:05.903Z</time></trkpt><trkpt lat="42.1501267" lon="14.5781517"><ele>219.0</ele><time>2026-05-02T10:16:07.902Z</time></trkpt><trkpt lat="42.1500933" lon="14.5780267"><ele>219.0</ele><time>2026-05-02T10:16:09.903Z</time></trkpt><trkpt lat="42.15007" lon="14.57791"><ele>218.99999999999997</ele><time>2026-05-02T10:16:11.903Z</time></trkpt><trkpt lat="42.1500433" lon="14.5777883"><ele>218.99999999999997</ele><time>2026-05-02T10:16:13.903Z</time></trkpt><trkpt lat="42.1500017" lon="14.5776683"><ele>219.0</ele><time>2026-05-02T10:16:15.903Z</time></trkpt><trkpt lat="42.1499667" lon="14.5775483"><ele>219.0</ele><time>2026-05-02T10:16:17.903Z</time></trkpt><trkpt lat="42.1499217" lon="14.5774267"><ele>220.0</ele><time>2026-05-02T10:16:19.903Z</time></trkpt><trkpt lat="42.149885" lon="14.5773217"><ele>220.99999999999997</ele><time>2026-05-02T10:16:21.903Z</time></trkpt><trkpt lat="42.149845" lon="14.5772067"><ele>221.99999999999997</ele><time>2026-05-02T10:16:23.903Z</time></trkpt><trkpt lat="42.1498167" lon="14.57709"><ele>223.0</ele><time>2026-05-02T10:16:25.902Z</time></trkpt><trkpt lat="42.1497867" lon="14.5769717"><ele>224.0</ele><time>2026-05-02T10:16:27.902Z</time></trkpt><trkpt lat="42.14975" lon="14.576865"><ele>224.00000000000003</ele><time>2026-05-02T10:16:29.902Z</time></trkpt><trkpt lat="42.149705" lon="14.5767517"><ele>224.0</ele><time>2026-05-02T10:16:31.902Z</time></trkpt><trkpt lat="42.1496733" lon="14.5766533"><ele>224.0</ele><time>2026-05-02T10:16:33.902Z</time></trkpt><trkpt lat="42.1496483" lon="14.57655"><ele>224.0</ele><time>2026-05-02T10:16:35.903Z</time></trkpt><trkpt lat="42.1496167" lon="14.576435"><ele>224.00000000000003</ele><time>2026-05-02T10:16:37.902Z</time></trkpt><trkpt lat="42.1495817" lon="14.576315"><ele>224.0</ele><time>2026-05-02T10:16:39.903Z</time></trkpt><trkpt lat="42.1495483" lon="14.5762017"><ele>223.2</ele><time>2026-05-02T10:16:41.902Z</time></trkpt><trkpt lat="42.1495167" lon="14.5760817"><ele>222.39999999999998</ele><time>2026-05-02T10:16:43.903Z</time></trkpt><trkpt lat="42.149495" lon="14.5759567"><ele>221.6</ele><time>2026-05-02T10:16:45.903Z</time></trkpt><trkpt lat="42.1495" lon="14.5758133"><ele>220.8</ele><time>2026-05-02T10:16:47.903Z</time></trkpt><trkpt lat="42.1495267" lon="14.5756683"><ele>220.0</ele><time>2026-05-02T10:16:49.903Z</time></trkpt><trkpt lat="42.149565" lon="14.5755233"><ele>220.0</ele><time>2026-05-02T10:16:51.903Z</time></trkpt><trkpt lat="42.1496117" lon="14.5753817"><ele>220.0</ele><time>2026-05-02T10:16:53.903Z</time></trkpt><trkpt lat="42.14966" lon="14.5752467"><ele>220.0</ele><time>2026-05-02T10:16:55.903Z</time></trkpt><trkpt lat="42.14971" lon="14.5751117"><ele>220.0</ele><time>2026-05-02T10:16:57.903Z</time></trkpt><trkpt lat="42.1497517" lon="14.5750033"><ele>220.0</ele><time>2026-05-02T10:16:59.902Z</time></trkpt><trkpt lat="42.14978" lon="14.5749083"><ele>220.4</ele><time>2026-05-02T10:17:01.903Z</time></trkpt><trkpt lat="42.1498267" lon="14.5747967"><ele>220.8</ele><time>2026-05-02T10:17:03.902Z</time></trkpt><trkpt lat="42.1498717" lon="14.57465"><ele>221.2</ele><time>2026-05-02T10:17:05.903Z</time></trkpt><trkpt lat="42.1499167" lon="14.5745117"><ele>221.6</ele><time>2026-05-02T10:17:07.902Z</time></trkpt><trkpt lat="42.1499633" lon="14.5743733"><ele>222.0</ele><time>2026-05-02T10:17:09.902Z</time></trkpt><trkpt lat="42.1500083" lon="14.5742283"><ele>224.0</ele><time>2026-05-02T10:17:11.903Z</time></trkpt><trkpt lat="42.1500383" lon="14.5740867"><ele>226.0</ele><time>2026-05-02T10:17:13.902Z</time></trkpt><trkpt lat="42.1500583" lon="14.5739417"><ele>228.0</ele><time>2026-05-02T10:17:15.902Z</time></trkpt><trkpt lat="42.1500733" lon="14.5737967"><ele>230.0</ele><time>2026-05-02T10:17:17.903Z</time></trkpt><trkpt lat="42.1500783" lon="14.5736517"><ele>232.0</ele><time>2026-05-02T10:17:19.903Z</time></trkpt><trkpt lat="42.150085" lon="14.5735167"><ele>232.39999999999998</ele><time>2026-05-02T10:17:21.903Z</time></trkpt><trkpt lat="42.15009" lon="14.5733717"><ele>232.79999999999998</ele><time>2026-05-02T10:17:23.903Z</time></trkpt><trkpt lat="42.1500917" lon="14.57324"><ele>233.2</ele><time>2026-05-02T10:17:25.902Z</time></trkpt><trkpt lat="42.1500967" lon="14.5731017"><ele>233.6</ele><time>2026-05-02T10:17:27.903Z</time></trkpt><trkpt lat="42.1501" lon="14.5729767"><ele>234.0</ele><time>2026-05-02T10:17:29.902Z</time></trkpt><trkpt lat="42.1500967" lon="14.57284"><ele>234.2</ele><time>2026-05-02T10:17:31.902Z</time></trkpt><trkpt lat="42.1500883" lon="14.572705"><ele>234.39999999999998</ele><time>2026-05-02T10:17:33.903Z</time></trkpt><trkpt lat="42.15008" lon="14.57258"><ele>234.6</ele><time>2026-05-02T10:17:35.903Z</time></trkpt><trkpt lat="42.1500717" lon="14.5724567"><ele>234.8</ele><time>2026-05-02T10:17:37.902Z</time></trkpt><trkpt lat="42.1500717" lon="14.5723283"><ele>235.0</ele><time>2026-05-02T10:17:39.903Z</time></trkpt><trkpt lat="42.1500683" lon="14.5722"><ele>235.0</ele><time>2026-05-02T10:17:41.902Z</time></trkpt><trkpt lat="42.1500817" lon="14.57207"><ele>235.0</ele><time>2026-05-02T10:17:43.902Z</time></trkpt><trkpt lat="42.1500967" lon="14.5719333"><ele>235.0</ele><time>2026-05-02T10:17:45.902Z</time></trkpt><trkpt lat="42.150115" lon="14.5717917"><ele>235.0</ele><time>2026-05-02T10:17:47.903Z</time></trkpt><trkpt lat="42.1501367" lon="14.5716667"><ele>235.0</ele><time>2026-05-02T10:17:49.903Z</time></trkpt><trkpt lat="42.1501617" lon="14.57154"><ele>234.66666666666666</ele><time>2026-05-02T10:17:51.903Z</time></trkpt><trkpt lat="42.150205" lon="14.5714267"><ele>234.33333333333331</ele><time>2026-05-02T10:17:53.903Z</time></trkpt><trkpt lat="42.150245" lon="14.57131"><ele>234.0</ele><time>2026-05-02T10:17:55.902Z</time></trkpt><trkpt lat="42.1502783" lon="14.5711917"><ele>233.66666666666669</ele><time>2026-05-02T10:17:57.903Z</time></trkpt><trkpt lat="42.1502917" lon="14.5710867"><ele>233.33333333333334</ele><time>2026-05-02T10:17:59.903Z</time></trkpt><trkpt lat="42.1502967" lon="14.5709733"><ele>233.0</ele><time>2026-05-02T10:18:01.903Z</time></trkpt><trkpt lat="42.150285" lon="14.570855"><ele>233.0</ele><time>2026-05-02T10:18:03.902Z</time></trkpt><trkpt lat="42.1502767" lon="14.5707283"><ele>233.0</ele><time>2026-05-02T10:18:05.902Z</time></trkpt><trkpt lat="42.15028" lon="14.5706"><ele>233.0</ele><time>2026-05-02T10:18:07.903Z</time></trkpt><trkpt lat="42.150295" lon="14.570475"><ele>233.0</ele><time>2026-05-02T10:18:09.903Z</time></trkpt><trkpt lat="42.1503267" lon="14.5703483"><ele>233.0</ele><time>2026-05-02T10:18:11.903Z</time></trkpt><trkpt lat="42.1503817" lon="14.57023"><ele>233.0</ele><time>2026-05-02T10:18:13.903Z</time></trkpt><trkpt lat="42.1504417" lon="14.57012"><ele>233.0</ele><time>2026-05-02T10:18:15.903Z</time></trkpt><trkpt lat="42.1505117" lon="14.5700067"><ele>233.0</ele><time>2026-05-02T10:18:17.903Z</time></trkpt><trkpt lat="42.15059" lon="14.56989"><ele>233.0</ele><time>2026-05-02T10:18:19.903Z</time></trkpt><trkpt lat="42.1506717" lon="14.5697733"><ele>233.0</ele><time>2026-05-02T10:18:21.902Z</time></trkpt><trkpt lat="42.1507133" lon="14.5697"><ele>233.71428571428572</ele><time>2026-05-02T10:18:22.903Z</time></trkpt><trkpt lat="42.150755" lon="14.5696233"><ele>234.42857142857142</ele><time>2026-05-02T10:18:23.902Z</time></trkpt><trkpt lat="42.15079" lon="14.569545"><ele>235.14285714285714</ele><time>2026-05-02T10:18:24.902Z</time></trkpt><trkpt lat="42.1508217" lon="14.56946"><ele>235.85714285714286</ele><time>2026-05-02T10:18:25.903Z</time></trkpt><trkpt lat="42.150855" lon="14.5693683"><ele>236.57142857142856</ele><time>2026-05-02T10:18:26.903Z</time></trkpt><trkpt lat="42.1508833" lon="14.56928"><ele>237.28571428571428</ele><time>2026-05-02T10:18:27.902Z</time></trkpt><trkpt lat="42.1509117" lon="14.5691817"><ele>238.0</ele><time>2026-05-02T10:18:28.903Z</time></trkpt><trkpt lat="42.15094" lon="14.5690833"><ele>237.99999999999997</ele><time>2026-05-02T10:18:29.903Z</time></trkpt><trkpt lat="42.1509717" lon="14.5689783"><ele>238.0</ele><time>2026-05-02T10:18:30.903Z</time></trkpt><trkpt lat="42.1509983" lon="14.5688717"><ele>238.0</ele><time>2026-05-02T10:18:31.903Z</time></trkpt><trkpt lat="42.1510283" lon="14.568765"><ele>238.0</ele><time>2026-05-02T10:18:32.903Z</time></trkpt><trkpt lat="42.1510617" lon="14.5686617"><ele>237.99999999999997</ele><time>2026-05-02T10:18:33.902Z</time></trkpt><trkpt lat="42.151105" lon="14.5685717"><ele>238.0</ele><time>2026-05-02T10:18:34.903Z</time></trkpt><trkpt lat="42.15116" lon="14.5684933"><ele>236.99999999999997</ele><time>2026-05-02T10:18:35.903Z</time></trkpt><trkpt lat="42.1512167" lon="14.568425"><ele>236.0</ele><time>2026-05-02T10:18:36.903Z</time></trkpt><trkpt lat="42.1512733" lon="14.568365"><ele>235.0</ele><time>2026-05-02T10:18:37.903Z</time></trkpt><trkpt lat="42.1513283" lon="14.5683067"><ele>234.0</ele><time>2026-05-02T10:18:38.903Z</time></trkpt><trkpt lat="42.1513933" lon="14.5682333"><ele>232.99999999999997</ele><time>2026-05-02T10:18:40.903Z</time></trkpt><trkpt lat="42.1514367" lon="14.5681467"><ele>232.0</ele><time>2026-05-02T10:18:42.903Z</time></trkpt><trkpt lat="42.15149" lon="14.56803"><ele>232.0</ele><time>2026-05-02T10:18:44.903Z</time></trkpt><trkpt lat="42.151535" lon="14.5679017"><ele>232.0</ele><time>2026-05-02T10:18:46.902Z</time></trkpt><trkpt lat="42.1515533" lon="14.567745"><ele>232.0</ele><time>2026-05-02T10:18:48.902Z</time></trkpt><trkpt lat="42.1515383" lon="14.5676033"><ele>232.0</ele><time>2026-05-02T10:18:50.902Z</time></trkpt><trkpt lat="42.1514967" lon="14.5674733"><ele>232.0</ele><time>2026-05-02T10:18:52.902Z</time></trkpt><trkpt lat="42.15144" lon="14.567345"><ele>229.0</ele><time>2026-05-02T10:18:54.902Z</time></trkpt><trkpt lat="42.15138" lon="14.5672283"><ele>226.0</ele><time>2026-05-02T10:18:56.902Z</time></trkpt><trkpt lat="42.151325" lon="14.5671017"><ele>223.0</ele><time>2026-05-02T10:18:58.903Z</time></trkpt><trkpt lat="42.151265" lon="14.5669733"><ele>220.0</ele><time>2026-05-02T10:19:00.902Z</time></trkpt><trkpt lat="42.1512033" lon="14.5668433"><ele>217.0</ele><time>2026-05-02T10:19:02.903Z</time></trkpt><trkpt lat="42.1511633" lon="14.5667067"><ele>216.6</ele><time>2026-05-02T10:19:04.902Z</time></trkpt><trkpt lat="42.151145" lon="14.5665617"><ele>216.2</ele><time>2026-05-02T10:19:06.903Z</time></trkpt><trkpt lat="42.151145" lon="14.5664133"><ele>215.8</ele><time>2026-05-02T10:19:08.903Z</time></trkpt><trkpt lat="42.151145" lon="14.5662717"><ele>215.4</ele><time>2026-05-02T10:19:10.903Z</time></trkpt><trkpt lat="42.151155" lon="14.5661317"><ele>215.0</ele><time>2026-05-02T10:19:12.903Z</time></trkpt><trkpt lat="42.15116" lon="14.5659917"><ele>217.0</ele><time>2026-05-02T10:19:14.903Z</time></trkpt><trkpt lat="42.1511283" lon="14.5658467"><ele>219.0</ele><time>2026-05-02T10:19:16.902Z</time></trkpt><trkpt lat="42.15108" lon="14.5657083"><ele>221.0</ele><time>2026-05-02T10:19:18.902Z</time></trkpt><trkpt lat="42.1510133" lon="14.56558"><ele>223.0</ele><time>2026-05-02T10:19:20.902Z</time></trkpt><trkpt lat="42.1509417" lon="14.5654617"><ele>225.25</ele><time>2026-05-02T10:19:22.903Z</time></trkpt><trkpt lat="42.15086" lon="14.565355"><ele>227.5</ele><time>2026-05-02T10:19:24.903Z</time></trkpt><trkpt lat="42.1507883" lon="14.5652283"><ele>229.75</ele><time>2026-05-02T10:19:26.903Z</time></trkpt><trkpt lat="42.1507583" lon="14.565075"><ele>232.0</ele><time>2026-05-02T10:19:28.903Z</time></trkpt><trkpt lat="42.150765" lon="14.56493"><ele>232.0</ele><time>2026-05-02T10:19:30.903Z</time></trkpt><trkpt lat="42.150795" lon="14.5647933"><ele>232.0</ele><time>2026-05-02T10:19:32.903Z</time></trkpt><trkpt lat="42.1508267" lon="14.5646433"><ele>232.0</ele><time>2026-05-02T10:19:34.903Z</time></trkpt><trkpt lat="42.15084" lon="14.5645033"><ele>232.0</ele><time>2026-05-02T10:19:36.903Z</time></trkpt><trkpt lat="42.15085" lon="14.56437"><ele>232.0</ele><time>2026-05-02T10:19:38.903Z</time></trkpt><trkpt lat="42.1508567" lon="14.5642067"><ele>231.8</ele><time>2026-05-02T10:19:40.903Z</time></trkpt><trkpt lat="42.1508483" lon="14.5640483"><ele>231.6</ele><time>2026-05-02T10:19:42.903Z</time></trkpt><trkpt lat="42.1508333" lon="14.5639"><ele>231.40000000000003</ele><time>2026-05-02T10:19:44.902Z</time></trkpt><trkpt lat="42.1508017" lon="14.563765"><ele>231.20000000000002</ele><time>2026-05-02T10:19:46.903Z</time></trkpt><trkpt lat="42.1507817" lon="14.563615"><ele>231.0</ele><time>2026-05-02T10:19:48.903Z</time></trkpt><trkpt lat="42.150755" lon="14.5634767"><ele>231.60000000000002</ele><time>2026-05-02T10:19:50.903Z</time></trkpt><trkpt lat="42.1507317" lon="14.5633383"><ele>232.20000000000002</ele><time>2026-05-02T10:19:52.903Z</time></trkpt><trkpt lat="42.1507183" lon="14.5631867"><ele>232.79999999999998</ele><time>2026-05-02T10:19:54.903Z</time></trkpt><trkpt lat="42.1507017" lon="14.56304"><ele>233.39999999999998</ele><time>2026-05-02T10:19:56.903Z</time></trkpt><trkpt lat="42.1506783" lon="14.5628917"><ele>234.0</ele><time>2026-05-02T10:19:58.902Z</time></trkpt><trkpt lat="42.1506533" lon="14.5627433"><ele>230.39999999999998</ele><time>2026-05-02T10:20:00.903Z</time></trkpt><trkpt lat="42.1506217" lon="14.5626017"><ele>226.79999999999998</ele><time>2026-05-02T10:20:02.903Z</time></trkpt><trkpt lat="42.15056" lon="14.56249"><ele>223.20000000000002</ele><time>2026-05-02T10:20:04.903Z</time></trkpt><trkpt lat="42.1504917" lon="14.5623817"><ele>219.60000000000002</ele><time>2026-05-02T10:20:06.902Z</time></trkpt><trkpt lat="42.15043" lon="14.5622667"><ele>216.0</ele><time>2026-05-02T10:20:08.903Z</time></trkpt><trkpt lat="42.15036" lon="14.5621417"><ele>218.0</ele><time>2026-05-02T10:20:10.903Z</time></trkpt><trkpt lat="42.1502717" lon="14.5620283"><ele>220.0</ele><time>2026-05-02T10:20:12.903Z</time></trkpt><trkpt lat="42.1502133" lon="14.56197"><ele>222.0</ele><time>2026-05-02T10:20:13.903Z</time></trkpt><trkpt lat="42.1501483" lon="14.5619167"><ele>224.0</ele><time>2026-05-02T10:20:14.902Z</time></trkpt><trkpt lat="42.1500833" lon="14.5618567"><ele>226.0</ele><time>2026-05-02T10:20:15.902Z</time></trkpt><trkpt lat="42.150015" lon="14.5617933"><ele>228.0</ele><time>2026-05-02T10:20:16.903Z</time></trkpt><trkpt lat="42.149945" lon="14.561735"><ele>228.0</ele><time>2026-05-02T10:20:17.902Z</time></trkpt><trkpt lat="42.1498783" lon="14.5616783"><ele>227.99999999999997</ele><time>2026-05-02T10:20:18.903Z</time></trkpt><trkpt lat="42.1498167" lon="14.561625"><ele>228.0</ele><time>2026-05-02T10:20:19.903Z</time></trkpt><trkpt lat="42.1497533" lon="14.56159"><ele>228.0</ele><time>2026-05-02T10:20:20.903Z</time></trkpt><trkpt lat="42.149685" lon="14.561555"><ele>227.99999999999997</ele><time>2026-05-02T10:20:21.903Z</time></trkpt><trkpt lat="42.14962" lon="14.5615283"><ele>228.0</ele><time>2026-05-02T10:20:22.902Z</time></trkpt><trkpt lat="42.149555" lon="14.5615133"><ele>228.0</ele><time>2026-05-02T10:20:23.903Z</time></trkpt><trkpt lat="42.1494867" lon="14.561495"><ele>225.7142857142857</ele><time>2026-05-02T10:20:24.903Z</time></trkpt><trkpt lat="42.1494167" lon="14.5614867"><ele>223.4285714285714</ele><time>2026-05-02T10:20:25.903Z</time></trkpt><trkpt lat="42.14934" lon="14.56149"><ele>221.14285714285714</ele><time>2026-05-02T10:20:26.903Z</time></trkpt><trkpt lat="42.1492583" lon="14.561515"><ele>218.85714285714283</ele><time>2026-05-02T10:20:27.902Z</time></trkpt><trkpt lat="42.1491817" lon="14.561545"><ele>216.57142857142856</ele><time>2026-05-02T10:20:28.903Z</time></trkpt><trkpt lat="42.1491133" lon="14.5615783"><ele>214.28571428571428</ele><time>2026-05-02T10:20:29.902Z</time></trkpt><trkpt lat="42.1490533" lon="14.561615"><ele>212.0</ele><time>2026-05-02T10:20:30.903Z</time></trkpt><trkpt lat="42.1489483" lon="14.5616833"><ele>210.83333333333334</ele><time>2026-05-02T10:20:32.902Z</time></trkpt><trkpt lat="42.148885" lon="14.561795"><ele>209.66666666666669</ele><time>2026-05-02T10:20:34.903Z</time></trkpt><trkpt lat="42.1489017" lon="14.5619533"><ele>208.5</ele><time>2026-05-02T10:20:36.902Z</time></trkpt><trkpt lat="42.1489317" lon="14.5620283"><ele>207.33333333333331</ele><time>2026-05-02T10:20:37.902Z</time></trkpt><trkpt lat="42.1489733" lon="14.562095"><ele>206.16666666666666</ele><time>2026-05-02T10:20:38.903Z</time></trkpt><trkpt lat="42.1490233" lon="14.5621567"><ele>205.0</ele><time>2026-05-02T10:20:39.903Z</time></trkpt><trkpt lat="42.1490767" lon="14.562205"><ele>204.99999999999997</ele><time>2026-05-02T10:20:40.903Z</time></trkpt><trkpt lat="42.1491383" lon="14.5622483"><ele>205.0</ele><time>2026-05-02T10:20:41.902Z</time></trkpt><trkpt lat="42.1492167" lon="14.56228"><ele>205.0</ele><time>2026-05-02T10:20:42.903Z</time></trkpt><trkpt lat="42.1492933" lon="14.5623167"><ele>205.0</ele><time>2026-05-02T10:20:43.903Z</time></trkpt><trkpt lat="42.14937" lon="14.562355"><ele>204.99999999999997</ele><time>2026-05-02T10:20:44.903Z</time></trkpt><trkpt lat="42.1494433" lon="14.5624183"><ele>205.0</ele><time>2026-05-02T10:20:45.903Z</time></trkpt><trkpt lat="42.1495083" lon="14.56249"><ele>204.99999999999997</ele><time>2026-05-02T10:20:46.903Z</time></trkpt><trkpt lat="42.1495783" lon="14.5625617"><ele>205.0</ele><time>2026-05-02T10:20:47.903Z</time></trkpt><trkpt lat="42.1496367" lon="14.5626417"><ele>205.0</ele><time>2026-05-02T10:20:48.902Z</time></trkpt><trkpt lat="42.149685" lon="14.5627283"><ele>205.0</ele><time>2026-05-02T10:20:49.903Z</time></trkpt><trkpt lat="42.149725" lon="14.5628167"><ele>204.99999999999997</ele><time>2026-05-02T10:20:50.902Z</time></trkpt><trkpt lat="42.149755" lon="14.5629083"><ele>205.0</ele><time>2026-05-02T10:20:51.903Z</time></trkpt><trkpt lat="42.14978" lon="14.5630017"><ele>202.85714285714286</ele><time>2026-05-02T10:20:52.902Z</time></trkpt><trkpt lat="42.1497967" lon="14.5630967"><ele>200.7142857142857</ele><time>2026-05-02T10:20:53.903Z</time></trkpt><trkpt lat="42.1498083" lon="14.563185"><ele>198.57142857142856</ele><time>2026-05-02T10:20:54.903Z</time></trkpt><trkpt lat="42.1498117" lon="14.5632717"><ele>196.42857142857144</ele><time>2026-05-02T10:20:55.903Z</time></trkpt><trkpt lat="42.1498067" lon="14.5633617"><ele>194.28571428571428</ele><time>2026-05-02T10:20:56.902Z</time></trkpt><trkpt lat="42.1498" lon="14.56346"><ele>192.14285714285714</ele><time>2026-05-02T10:20:57.903Z</time></trkpt><trkpt lat="42.1497833" lon="14.56356"><ele>190.0</ele><time>2026-05-02T10:20:58.902Z</time></trkpt><trkpt lat="42.1497717" lon="14.5636633"><ele>187.66666666666669</ele><time>2026-05-02T10:20:59.903Z</time></trkpt><trkpt lat="42.1497633" lon="14.56377"><ele>185.33333333333334</ele><time>2026-05-02T10:21:00.903Z</time></trkpt><trkpt lat="42.149765" lon="14.5638783"><ele>183.0</ele><time>2026-05-02T10:21:01.902Z</time></trkpt><trkpt lat="42.1497667" lon="14.56399"><ele>180.66666666666666</ele><time>2026-05-02T10:21:02.903Z</time></trkpt><trkpt lat="42.1497717" lon="14.5640967"><ele>178.33333333333331</ele><time>2026-05-02T10:21:03.902Z</time></trkpt><trkpt lat="42.1497783" lon="14.5642017"><ele>176.0</ele><time>2026-05-02T10:21:04.903Z</time></trkpt><trkpt lat="42.1497917" lon="14.5643033"><ele>176.0</ele><time>2026-05-02T10:21:05.903Z</time></trkpt><trkpt lat="42.1498017" lon="14.5643917"><ele>176.0</ele><time>2026-05-02T10:21:06.903Z</time></trkpt><trkpt lat="42.1498083" lon="14.56448"><ele>176.0</ele><time>2026-05-02T10:21:07.902Z</time></trkpt><trkpt lat="42.1498133" lon="14.564565"><ele>176.0</ele><time>2026-05-02T10:21:08.903Z</time></trkpt><trkpt lat="42.1498083" lon="14.56465"><ele>176.0</ele><time>2026-05-02T10:21:09.903Z</time></trkpt><trkpt lat="42.1497633" lon="14.5647667"><ele>176.0</ele><time>2026-05-02T10:21:11.903Z</time></trkpt><trkpt lat="42.1496767" lon="14.5647667"><ele>176.0</ele><time>2026-05-02T10:21:13.903Z</time></trkpt><trkpt lat="42.1496117" lon="14.5646517"><ele>176.0</ele><time>2026-05-02T10:21:15.902Z</time></trkpt><trkpt lat="42.149575" lon="14.5645"><ele>176.0</ele><time>2026-05-02T10:21:17.903Z</time></trkpt><trkpt lat="42.149555" lon="14.5644117"><ele>176.0</ele><time>2026-05-02T10:21:18.903Z</time></trkpt><trkpt lat="42.149535" lon="14.5643233"><ele>176.0</ele><time>2026-05-02T10:21:19.903Z</time></trkpt><trkpt lat="42.14948" lon="14.5641783"><ele>176.0</ele><time>2026-05-02T10:21:21.902Z</time></trkpt><trkpt lat="42.1494033" lon="14.5640833"><ele>176.0</ele><time>2026-05-02T10:21:23.903Z</time></trkpt><trkpt lat="42.1493033" lon="14.56409"><ele>176.0</ele><time>2026-05-02T10:21:25.903Z</time></trkpt><trkpt lat="42.1492117" lon="14.56418"><ele>176.0</ele><time>2026-05-02T10:21:27.902Z</time></trkpt><trkpt lat="42.1491717" lon="14.56433"><ele>176.0</ele><time>2026-05-02T10:21:29.903Z</time></trkpt><trkpt lat="42.1491617" lon="14.564425"><ele>176.0</ele><time>2026-05-02T10:21:30.903Z</time></trkpt><trkpt lat="42.1491483" lon="14.5645183"><ele>174.16666666666666</ele><time>2026-05-02T10:21:31.902Z</time></trkpt><trkpt lat="42.1491417" lon="14.5646083"><ele>172.33333333333331</ele><time>2026-05-02T10:21:32.902Z</time></trkpt><trkpt lat="42.14913" lon="14.5647"><ele>170.5</ele><time>2026-05-02T10:21:33.902Z</time></trkpt><trkpt lat="42.14913" lon="14.5647983"><ele>168.66666666666666</ele><time>2026-05-02T10:21:34.903Z</time></trkpt><trkpt lat="42.1491317" lon="14.5648967"><ele>166.83333333333334</ele><time>2026-05-02T10:21:35.902Z</time></trkpt><trkpt lat="42.149135" lon="14.56499"><ele>165.0</ele><time>2026-05-02T10:21:36.903Z</time></trkpt><trkpt lat="42.14915" lon="14.5651533"><ele>165.0</ele><time>2026-05-02T10:21:38.902Z</time></trkpt><trkpt lat="42.1491433" lon="14.5653217"><ele>165.0</ele><time>2026-05-02T10:21:40.903Z</time></trkpt><trkpt lat="42.14911" lon="14.565485"><ele>165.0</ele><time>2026-05-02T10:21:42.902Z</time></trkpt><trkpt lat="42.1490917" lon="14.56557"><ele>165.0</ele><time>2026-05-02T10:21:43.903Z</time></trkpt><trkpt lat="42.1490383" lon="14.565725"><ele>165.0</ele><time>2026-05-02T10:21:45.903Z</time></trkpt><trkpt lat="42.1489967" lon="14.565795"><ele>163.14285714285717</ele><time>2026-05-02T10:21:46.903Z</time></trkpt><trkpt lat="42.1489533" lon="14.5658583"><ele>161.28571428571428</ele><time>2026-05-02T10:21:47.903Z</time></trkpt><trkpt lat="42.148905" lon="14.5659233"><ele>159.42857142857144</ele><time>2026-05-02T10:21:48.903Z</time></trkpt><trkpt lat="42.1488533" lon="14.565995"><ele>157.57142857142858</ele><time>2026-05-02T10:21:49.902Z</time></trkpt><trkpt lat="42.1487967" lon="14.5660717"><ele>155.71428571428572</ele><time>2026-05-02T10:21:50.902Z</time></trkpt><trkpt lat="42.148745" lon="14.5661533"><ele>153.85714285714286</ele><time>2026-05-02T10:21:51.903Z</time></trkpt><trkpt lat="42.1486867" lon="14.5662333"><ele>152.0</ele><time>2026-05-02T10:21:52.903Z</time></trkpt><trkpt lat="42.1486267" lon="14.5663117"><ele>152.0</ele><time>2026-05-02T10:21:53.902Z</time></trkpt><trkpt lat="42.14856" lon="14.56638"><ele>152.0</ele><time>2026-05-02T10:21:54.903Z</time></trkpt><trkpt lat="42.1484917" lon="14.566445"><ele>152.0</ele><time>2026-05-02T10:21:55.902Z</time></trkpt><trkpt lat="42.14843" lon="14.56651"><ele>152.0</ele><time>2026-05-02T10:21:56.903Z</time></trkpt><trkpt lat="42.1483683" lon="14.5665683"><ele>152.0</ele><time>2026-05-02T10:21:57.903Z</time></trkpt><trkpt lat="42.14831" lon="14.566635"><ele>152.0</ele><time>2026-05-02T10:21:58.903Z</time></trkpt><trkpt lat="42.1482567" lon="14.5667017"><ele>151.4</ele><time>2026-05-02T10:21:59.903Z</time></trkpt><trkpt lat="42.14816" lon="14.5668033"><ele>150.79999999999998</ele><time>2026-05-02T10:22:01.903Z</time></trkpt><trkpt lat="42.1480633" lon="14.5668783"><ele>150.2</ele><time>2026-05-02T10:22:03.902Z</time></trkpt><trkpt lat="42.14798" lon="14.5669633"><ele>149.6</ele><time>2026-05-02T10:22:05.903Z</time></trkpt><trkpt lat="42.1479033" lon="14.5670567"><ele>149.0</ele><time>2026-05-02T10:22:07.902Z</time></trkpt><trkpt lat="42.1478333" lon="14.5671417"><ele>149.0</ele><time>2026-05-02T10:22:09.903Z</time></trkpt><trkpt lat="42.14777" lon="14.567225"><ele>149.0</ele><time>2026-05-02T10:22:11.903Z</time></trkpt><trkpt lat="42.147705" lon="14.5673083"><ele>149.0</ele><time>2026-05-02T10:22:13.903Z</time></trkpt><trkpt lat="42.1476317" lon="14.567395"><ele>149.0</ele><time>2026-05-02T10:22:15.902Z</time></trkpt><trkpt lat="42.1475717" lon="14.567485"><ele>149.0</ele><time>2026-05-02T10:22:17.903Z</time></trkpt><trkpt lat="42.1475167" lon="14.56757"><ele>149.0</ele><time>2026-05-02T10:22:19.902Z</time></trkpt><trkpt lat="42.14746" lon="14.5676567"><ele>149.0</ele><time>2026-05-02T10:22:21.903Z</time></trkpt><trkpt lat="42.1474083" lon="14.5677433"><ele>149.0</ele><time>2026-05-02T10:22:23.903Z</time></trkpt><trkpt lat="42.1473767" lon="14.5678317"><ele>149.0</ele><time>2026-05-02T10:22:25.903Z</time></trkpt><trkpt lat="42.14735" lon="14.5679433"><ele>149.0</ele><time>2026-05-02T10:22:27.903Z</time></trkpt><trkpt lat="42.1473183" lon="14.5680617"><ele>149.0</ele><time>2026-05-02T10:22:29.903Z</time></trkpt><trkpt lat="42.1472867" lon="14.5681783"><ele>149.0</ele><time>2026-05-02T10:22:31.903Z</time></trkpt><trkpt lat="42.1472617" lon="14.5683017"><ele>145.5</ele><time>2026-05-02T10:22:33.902Z</time></trkpt><trkpt lat="42.14725" lon="14.5684233"><ele>142.0</ele><time>2026-05-02T10:22:35.902Z</time></trkpt><trkpt lat="42.1472467" lon="14.5685617"><ele>138.5</ele><time>2026-05-02T10:22:37.903Z</time></trkpt><trkpt lat="42.1472467" lon="14.5686467"><ele>135.0</ele><time>2026-05-02T10:22:38.903Z</time></trkpt><trkpt lat="42.14725" lon="14.5687383"><ele>131.5</ele><time>2026-05-02T10:22:39.903Z</time></trkpt><trkpt lat="42.1472483" lon="14.5688317"><ele>128.0</ele><time>2026-05-02T10:22:40.902Z</time></trkpt><trkpt lat="42.14725" lon="14.5689317"><ele>127.99999999999999</ele><time>2026-05-02T10:22:41.903Z</time></trkpt><trkpt lat="42.1472467" lon="14.5690383"><ele>128.0</ele><time>2026-05-02T10:22:42.903Z</time></trkpt><trkpt lat="42.1472467" lon="14.5691567"><ele>128.0</ele><time>2026-05-02T10:22:43.902Z</time></trkpt><trkpt lat="42.1472367" lon="14.5692767"><ele>128.0</ele><time>2026-05-02T10:22:44.903Z</time></trkpt><trkpt lat="42.1472233" lon="14.5693933"><ele>127.99999999999999</ele><time>2026-05-02T10:22:45.903Z</time></trkpt><trkpt lat="42.14721" lon="14.5695"><ele>128.0</ele><time>2026-05-02T10:22:46.903Z</time></trkpt><trkpt lat="42.1472033" lon="14.5696067"><ele>127.99999999999999</ele><time>2026-05-02T10:22:47.902Z</time></trkpt><trkpt lat="42.1471983" lon="14.5697133"><ele>128.0</ele><time>2026-05-02T10:22:48.903Z</time></trkpt><trkpt lat="42.14721" lon="14.56982"><ele>128.0</ele><time>2026-05-02T10:22:49.903Z</time></trkpt><trkpt lat="42.147225" lon="14.5699267"><ele>128.0</ele><time>2026-05-02T10:22:50.902Z</time></trkpt><trkpt lat="42.1472467" lon="14.57003"><ele>127.99999999999999</ele><time>2026-05-02T10:22:51.902Z</time></trkpt><trkpt lat="42.14726" lon="14.5701233"><ele>128.0</ele><time>2026-05-02T10:22:52.903Z</time></trkpt><trkpt lat="42.14727" lon="14.57021"><ele>127.99999999999999</ele><time>2026-05-02T10:22:53.902Z</time></trkpt><trkpt lat="42.14727" lon="14.5702983"><ele>128.0</ele><time>2026-05-02T10:22:54.903Z</time></trkpt><trkpt lat="42.1472533" lon="14.5703833"><ele>128.0</ele><time>2026-05-02T10:22:55.902Z</time></trkpt><trkpt lat="42.1471867" lon="14.5705083"><ele>128.0</ele><time>2026-05-02T10:22:57.903Z</time></trkpt><trkpt lat="42.1471317" lon="14.570565"><ele>127.99999999999999</ele><time>2026-05-02T10:22:58.903Z</time></trkpt><trkpt lat="42.147065" lon="14.5705967"><ele>128.0</ele><time>2026-05-02T10:22:59.902Z</time></trkpt><trkpt lat="42.1469983" lon="14.57063"><ele>128.0</ele><time>2026-05-02T10:23:00.903Z</time></trkpt><trkpt lat="42.1469317" lon="14.5706633"><ele>128.0</ele><time>2026-05-02T10:23:01.903Z</time></trkpt><trkpt lat="42.146865" lon="14.5707067"><ele>128.0</ele><time>2026-05-02T10:23:02.903Z</time></trkpt><trkpt lat="42.1467683" lon="14.5707967"><ele>128.0</ele><time>2026-05-02T10:23:04.902Z</time></trkpt><trkpt lat="42.14672" lon="14.5709383"><ele>128.0</ele><time>2026-05-02T10:23:06.903Z</time></trkpt><trkpt lat="42.1467267" lon="14.57109"><ele>128.8</ele><time>2026-05-02T10:23:08.903Z</time></trkpt><trkpt lat="42.14674" lon="14.5712233"><ele>129.60000000000002</ele><time>2026-05-02T10:23:10.902Z</time></trkpt><trkpt lat="42.1467333" lon="14.5713533"><ele>130.39999999999998</ele><time>2026-05-02T10:23:12.903Z</time></trkpt><trkpt lat="42.146715" lon="14.57147"><ele>131.2</ele><time>2026-05-02T10:23:14.903Z</time></trkpt><trkpt lat="42.1466933" lon="14.5715883"><ele>132.0</ele><time>2026-05-02T10:23:16.903Z</time></trkpt><trkpt lat="42.146665" lon="14.571695"><ele>132.0</ele><time>2026-05-02T10:23:18.903Z</time></trkpt><trkpt lat="42.1466417" lon="14.5717983"><ele>132.0</ele><time>2026-05-02T10:23:20.902Z</time></trkpt><trkpt lat="42.1466233" lon="14.5719017"><ele>132.0</ele><time>2026-05-02T10:23:22.903Z</time></trkpt><trkpt lat="42.1465983" lon="14.5719967"><ele>132.0</ele><time>2026-05-02T10:23:24.902Z</time></trkpt><trkpt lat="42.1465833" lon="14.572085"><ele>132.0</ele><time>2026-05-02T10:23:26.903Z</time></trkpt><trkpt lat="42.14657" lon="14.5721717"><ele>132.0</ele><time>2026-05-02T10:23:28.902Z</time></trkpt><trkpt lat="42.1465517" lon="14.572295"><ele>133.16666666666666</ele><time>2026-05-02T10:23:31.902Z</time></trkpt><trkpt lat="42.146545" lon="14.5723833"><ele>134.33333333333334</ele><time>2026-05-02T10:23:33.902Z</time></trkpt><trkpt lat="42.1465467" lon="14.5724767"><ele>135.5</ele><time>2026-05-02T10:23:35.903Z</time></trkpt><trkpt lat="42.14655" lon="14.57257"><ele>136.66666666666669</ele><time>2026-05-02T10:23:37.902Z</time></trkpt><trkpt lat="42.14656" lon="14.5726783"><ele>137.83333333333334</ele><time>2026-05-02T10:23:39.903Z</time></trkpt><trkpt lat="42.1465667" lon="14.5727983"><ele>139.0</ele><time>2026-05-02T10:23:41.903Z</time></trkpt><trkpt lat="42.14658" lon="14.5729217"><ele>139.0</ele><time>2026-05-02T10:23:43.903Z</time></trkpt><trkpt lat="42.1465983" lon="14.5730683"><ele>139.0</ele><time>2026-05-02T10:23:45.903Z</time></trkpt><trkpt lat="42.14661" lon="14.573155"><ele>139.0</ele><time>2026-05-02T10:23:46.903Z</time></trkpt><trkpt lat="42.1466233" lon="14.57325"><ele>139.0</ele><time>2026-05-02T10:23:47.903Z</time></trkpt><trkpt lat="42.146635" lon="14.5733467"><ele>139.0</ele><time>2026-05-02T10:23:48.903Z</time></trkpt><trkpt lat="42.1466467" lon="14.5734417"><ele>139.0</ele><time>2026-05-02T10:23:49.903Z</time></trkpt><trkpt lat="42.1466533" lon="14.5735367"><ele>139.0</ele><time>2026-05-02T10:23:50.903Z</time></trkpt><trkpt lat="42.14666" lon="14.5736333"><ele>139.0</ele><time>2026-05-02T10:23:51.902Z</time></trkpt><trkpt lat="42.1466667" lon="14.5737317"><ele>139.0</ele><time>2026-05-02T10:23:52.902Z</time></trkpt><trkpt lat="42.1466683" lon="14.5738267"><ele>139.0</ele><time>2026-05-02T10:23:53.902Z</time></trkpt><trkpt lat="42.14667" lon="14.5739233"><ele>139.0</ele><time>2026-05-02T10:23:54.902Z</time></trkpt><trkpt lat="42.14667" lon="14.5740167"><ele>139.0</ele><time>2026-05-02T10:23:55.903Z</time></trkpt><trkpt lat="42.1466633" lon="14.5741017"><ele>139.0</ele><time>2026-05-02T10:23:56.902Z</time></trkpt><trkpt lat="42.1466483" lon="14.574185"><ele>138.0</ele><time>2026-05-02T10:23:57.903Z</time></trkpt><trkpt lat="42.146615" lon="14.5742633"><ele>137.0</ele><time>2026-05-02T10:23:58.903Z</time></trkpt><trkpt lat="42.14657" lon="14.574345"><ele>136.0</ele><time>2026-05-02T10:23:59.902Z</time></trkpt><trkpt lat="42.1465167" lon="14.5744333"><ele>135.0</ele><time>2026-05-02T10:24:00.903Z</time></trkpt><trkpt lat="42.1464683" lon="14.5745133"><ele>134.0</ele><time>2026-05-02T10:24:01.903Z</time></trkpt><trkpt lat="42.1464133" lon="14.57459"><ele>133.0</ele><time>2026-05-02T10:24:02.903Z</time></trkpt><trkpt lat="42.1463617" lon="14.5746617"><ele>129.6</ele><time>2026-05-02T10:24:03.903Z</time></trkpt><trkpt lat="42.1463117" lon="14.574725"><ele>126.20000000000002</ele><time>2026-05-02T10:24:04.903Z</time></trkpt><trkpt lat="42.14627" lon="14.5747917"><ele>122.8</ele><time>2026-05-02T10:24:05.902Z</time></trkpt><trkpt lat="42.1462167" lon="14.5749317"><ele>119.4</ele><time>2026-05-02T10:24:07.903Z</time></trkpt><trkpt lat="42.1461733" lon="14.5750717"><ele>116.0</ele><time>2026-05-02T10:24:09.903Z</time></trkpt><trkpt lat="42.1461333" lon="14.5752283"><ele>116.6</ele><time>2026-05-02T10:24:11.903Z</time></trkpt><trkpt lat="42.146095" lon="14.5753567"><ele>117.19999999999999</ele><time>2026-05-02T10:24:13.903Z</time></trkpt><trkpt lat="42.146065" lon="14.575485"><ele>117.80000000000001</ele><time>2026-05-02T10:24:15.903Z</time></trkpt><trkpt lat="42.14603" lon="14.575605"><ele>118.4</ele><time>2026-05-02T10:24:17.902Z</time></trkpt><trkpt lat="42.14602" lon="14.575715"><ele>119.0</ele><time>2026-05-02T10:24:19.903Z</time></trkpt><trkpt lat="42.1460217" lon="14.5758233"><ele>118.99999999999999</ele><time>2026-05-02T10:24:21.903Z</time></trkpt><trkpt lat="42.1460267" lon="14.5759367"><ele>119.0</ele><time>2026-05-02T10:24:23.903Z</time></trkpt><trkpt lat="42.1460317" lon="14.5760417"><ele>119.0</ele><time>2026-05-02T10:24:25.903Z</time></trkpt><trkpt lat="42.1460533" lon="14.57615"><ele>119.0</ele><time>2026-05-02T10:24:27.903Z</time></trkpt><trkpt lat="42.146085" lon="14.5762517"><ele>118.99999999999999</ele><time>2026-05-02T10:24:29.902Z</time></trkpt><trkpt lat="42.1461183" lon="14.576335"><ele>119.0</ele><time>2026-05-02T10:24:31.903Z</time></trkpt><trkpt lat="42.1461533" lon="14.5764233"><ele>118.83333333333333</ele><time>2026-05-02T10:24:33.903Z</time></trkpt><trkpt lat="42.1461917" lon="14.5765"><ele>118.66666666666666</ele><time>2026-05-02T10:24:35.903Z</time></trkpt><trkpt lat="42.1462517" lon="14.5766"><ele>118.5</ele><time>2026-05-02T10:24:37.903Z</time></trkpt><trkpt lat="42.1463117" lon="14.5767117"><ele>118.33333333333334</ele><time>2026-05-02T10:24:39.903Z</time></trkpt><trkpt lat="42.14635" lon="14.5768"><ele>118.16666666666667</ele><time>2026-05-02T10:24:41.903Z</time></trkpt><trkpt lat="42.14636" lon="14.576895"><ele>118.0</ele><time>2026-05-02T10:24:43.903Z</time></trkpt><trkpt lat="42.14635" lon="14.5770083"><ele>117.60000000000001</ele><time>2026-05-02T10:24:45.903Z</time></trkpt><trkpt lat="42.14633" lon="14.5771383"><ele>117.20000000000002</ele><time>2026-05-02T10:24:47.902Z</time></trkpt><trkpt lat="42.1463067" lon="14.5772567"><ele>116.8</ele><time>2026-05-02T10:24:49.903Z</time></trkpt><trkpt lat="42.1462833" lon="14.5773867"><ele>116.4</ele><time>2026-05-02T10:24:51.902Z</time></trkpt><trkpt lat="42.14626" lon="14.5775167"><ele>116.0</ele><time>2026-05-02T10:24:53.903Z</time></trkpt><trkpt lat="42.146235" lon="14.5776617"><ele>115.99999999999999</ele><time>2026-05-02T10:24:55.903Z</time></trkpt><trkpt lat="42.1462133" lon="14.57782"><ele>116.0</ele><time>2026-05-02T10:24:57.903Z</time></trkpt><trkpt lat="42.1461883" lon="14.57798"><ele>116.0</ele><time>2026-05-02T10:24:59.902Z</time></trkpt><trkpt lat="42.146175" lon="14.5780633"><ele>116.0</ele><time>2026-05-02T10:25:00.902Z</time></trkpt><trkpt lat="42.146165" lon="14.578155"><ele>115.99999999999999</ele><time>2026-05-02T10:25:01.903Z</time></trkpt><trkpt lat="42.1461533" lon="14.5782467"><ele>116.0</ele><time>2026-05-02T10:25:02.903Z</time></trkpt><trkpt lat="42.1461417" lon="14.5783367"><ele>115.99999999999999</ele><time>2026-05-02T10:25:03.902Z</time></trkpt><trkpt lat="42.1461283" lon="14.5784267"><ele>116.0</ele><time>2026-05-02T10:25:04.903Z</time></trkpt><trkpt lat="42.1461133" lon="14.57851"><ele>116.0</ele><time>2026-05-02T10:25:05.903Z</time></trkpt><trkpt lat="42.1460967" lon="14.57866"><ele>116.0</ele><time>2026-05-02T10:25:07.903Z</time></trkpt><trkpt lat="42.1460767" lon="14.5787817"><ele>115.99999999999999</ele><time>2026-05-02T10:25:09.903Z</time></trkpt><trkpt lat="42.1460617" lon="14.57887"><ele>116.0</ele><time>2026-05-02T10:25:11.903Z</time></trkpt><trkpt lat="42.14605" lon="14.5789667"><ele>115.99999999999999</ele><time>2026-05-02T10:25:14.903Z</time></trkpt><trkpt lat="42.1460417" lon="14.579075"><ele>116.0</ele><time>2026-05-02T10:25:17.902Z</time></trkpt><trkpt lat="42.146025" lon="14.5792"><ele>116.0</ele><time>2026-05-02T10:25:20.903Z</time></trkpt><trkpt lat="42.1460117" lon="14.579305"><ele>116.0</ele><time>2026-05-02T10:25:22.903Z</time></trkpt><trkpt lat="42.1459917" lon="14.5794"><ele>115.99999999999999</ele><time>2026-05-02T10:25:24.903Z</time></trkpt><trkpt lat="42.145975" lon="14.5795083"><ele>116.0</ele><time>2026-05-02T10:25:26.902Z</time></trkpt><trkpt lat="42.1459617" lon="14.579625"><ele>116.4</ele><time>2026-05-02T10:25:28.903Z</time></trkpt><trkpt lat="42.14596" lon="14.5797433"><ele>116.8</ele><time>2026-05-02T10:25:30.903Z</time></trkpt><trkpt lat="42.1459717" lon="14.5798683"><ele>117.20000000000002</ele><time>2026-05-02T10:25:32.903Z</time></trkpt><trkpt lat="42.1459767" lon="14.5799933"><ele>117.60000000000001</ele><time>2026-05-02T10:25:34.903Z</time></trkpt><trkpt lat="42.1459817" lon="14.580115"><ele>118.0</ele><time>2026-05-02T10:25:36.902Z</time></trkpt><trkpt lat="42.1459917" lon="14.58023"><ele>118.0</ele><time>2026-05-02T10:25:38.902Z</time></trkpt><trkpt lat="42.14601" lon="14.5803433"><ele>118.00000000000001</ele><time>2026-05-02T10:25:40.903Z</time></trkpt><trkpt lat="42.1460183" lon="14.5804533"><ele>118.00000000000001</ele><time>2026-05-02T10:25:42.903Z</time></trkpt><trkpt lat="42.1460267" lon="14.5805817"><ele>118.0</ele><time>2026-05-02T10:25:44.903Z</time></trkpt><trkpt lat="42.1460417" lon="14.5807133"><ele>118.0</ele><time>2026-05-02T10:25:46.903Z</time></trkpt><trkpt lat="42.1460567" lon="14.5808383"><ele>117.16666666666667</ele><time>2026-05-02T10:25:48.902Z</time></trkpt><trkpt lat="42.146065" lon="14.580955"><ele>116.33333333333334</ele><time>2026-05-02T10:25:50.903Z</time></trkpt><trkpt lat="42.1460683" lon="14.5810883"><ele>115.5</ele><time>2026-05-02T10:25:52.902Z</time></trkpt><trkpt lat="42.1460783" lon="14.581215"><ele>114.66666666666666</ele><time>2026-05-02T10:25:54.903Z</time></trkpt><trkpt lat="42.1460833" lon="14.5813283"><ele>113.83333333333333</ele><time>2026-05-02T10:25:56.903Z</time></trkpt><trkpt lat="42.146095" lon="14.5814333"><ele>113.0</ele><time>2026-05-02T10:25:58.902Z</time></trkpt><trkpt lat="42.146115" lon="14.5815383"><ele>112.16666666666666</ele><time>2026-05-02T10:26:01.903Z</time></trkpt><trkpt lat="42.1461283" lon="14.5816233"><ele>111.33333333333333</ele><time>2026-05-02T10:26:06.903Z</time></trkpt><trkpt lat="42.1461233" lon="14.58172"><ele>110.5</ele><time>2026-05-02T10:26:10.902Z</time></trkpt><trkpt lat="42.1461567" lon="14.5818083"><ele>109.66666666666666</ele><time>2026-05-02T10:26:14.902Z</time></trkpt><trkpt lat="42.1461733" lon="14.5819017"><ele>108.83333333333333</ele><time>2026-05-02T10:26:18.902Z</time></trkpt><trkpt lat="42.1461783" lon="14.5820133"><ele>108.0</ele><time>2026-05-02T10:26:21.903Z</time></trkpt><trkpt lat="42.1461883" lon="14.5821383"><ele>108.0</ele><time>2026-05-02T10:26:24.902Z</time></trkpt><trkpt lat="42.146185" lon="14.5822667"><ele>108.0</ele><time>2026-05-02T10:26:27.903Z</time></trkpt><trkpt lat="42.146195" lon="14.5823583"><ele>108.0</ele><time>2026-05-02T10:26:29.903Z</time></trkpt><trkpt lat="42.1462383" lon="14.58247"><ele>108.0</ele><time>2026-05-02T10:26:32.903Z</time></trkpt><trkpt lat="42.1462767" lon="14.5825733"><ele>108.0</ele><time>2026-05-02T10:26:35.903Z</time></trkpt><trkpt lat="42.1463133" lon="14.58268"><ele>108.0</ele><time>2026-05-02T10:26:38.903Z</time></trkpt><trkpt lat="42.1463433" lon="14.5827583"><ele>108.0</ele><time>2026-05-02T10:26:40.902Z</time></trkpt><trkpt lat="42.1463717" lon="14.582835"><ele>108.0</ele><time>2026-05-02T10:26:42.902Z</time></trkpt><trkpt lat="42.14643" lon="14.5829417"><ele>108.0</ele><time>2026-05-02T10:26:45.903Z</time></trkpt><trkpt lat="42.146495" lon="14.583015"><ele>108.0</ele><time>2026-05-02T10:26:47.903Z</time></trkpt><trkpt lat="42.14655" lon="14.5830733"><ele>108.0</ele><time>2026-05-02T10:26:49.903Z</time></trkpt><trkpt lat="42.14661" lon="14.5831317"><ele>108.0</ele><time>2026-05-02T10:26:51.902Z</time></trkpt><trkpt lat="42.1466717" lon="14.5831883"><ele>111.0</ele><time>2026-05-02T10:26:53.903Z</time></trkpt><trkpt lat="42.146745" lon="14.5832583"><ele>114.0</ele><time>2026-05-02T10:26:56.903Z</time></trkpt><trkpt lat="42.14682" lon="14.5833267"><ele>117.0</ele><time>2026-05-02T10:26:59.903Z</time></trkpt><trkpt lat="42.1468983" lon="14.5833933"><ele>120.0</ele><time>2026-05-02T10:27:02.903Z</time></trkpt><trkpt lat="42.1469717" lon="14.5834633"><ele>123.0</ele><time>2026-05-02T10:27:05.902Z</time></trkpt><trkpt lat="42.14703" lon="14.5835433"><ele>126.0</ele><time>2026-05-02T10:27:08.903Z</time></trkpt><trkpt lat="42.1470817" lon="14.5836217"><ele>124.66666666666667</ele><time>2026-05-02T10:27:11.903Z</time></trkpt><trkpt lat="42.14714" lon="14.58369"><ele>123.33333333333334</ele><time>2026-05-02T10:27:14.902Z</time></trkpt><trkpt lat="42.1471967" lon="14.5837683"><ele>122.0</ele><time>2026-05-02T10:27:17.903Z</time></trkpt><trkpt lat="42.147255" lon="14.5838533"><ele>120.66666666666667</ele><time>2026-05-02T10:27:20.903Z</time></trkpt><trkpt lat="42.1472883" lon="14.5839583"><ele>119.33333333333334</ele><time>2026-05-02T10:27:23.903Z</time></trkpt><trkpt lat="42.1472783" lon="14.5840433"><ele>118.0</ele><time>2026-05-02T10:27:26.902Z</time></trkpt><trkpt lat="42.147255" lon="14.584165"><ele>118.00000000000001</ele><time>2026-05-02T10:27:29.903Z</time></trkpt><trkpt lat="42.1472167" lon="14.58428"><ele>118.0</ele><time>2026-05-02T10:27:32.903Z</time></trkpt><trkpt lat="42.1471867" lon="14.584355"><ele>118.0</ele><time>2026-05-02T10:27:34.903Z</time></trkpt><trkpt lat="42.1471567" lon="14.5844317"><ele>118.0</ele><time>2026-05-02T10:27:36.902Z</time></trkpt><trkpt lat="42.147115" lon="14.584545"><ele>118.00000000000001</ele><time>2026-05-02T10:27:39.903Z</time></trkpt><trkpt lat="42.1470833" lon="14.5846517"><ele>118.0</ele><time>2026-05-02T10:27:42.903Z</time></trkpt><trkpt lat="42.14707" lon="14.5847467"><ele>118.16666666666667</ele><time>2026-05-02T10:27:45.903Z</time></trkpt><trkpt lat="42.14708" lon="14.5848483"><ele>118.33333333333334</ele><time>2026-05-02T10:27:48.902Z</time></trkpt><trkpt lat="42.1471033" lon="14.58494"><ele>118.5</ele><time>2026-05-02T10:27:51.903Z</time></trkpt><trkpt lat="42.1471317" lon="14.5850483"><ele>118.66666666666666</ele><time>2026-05-02T10:27:54.903Z</time></trkpt><trkpt lat="42.14714" lon="14.5851383"><ele>118.83333333333333</ele><time>2026-05-02T10:27:57.903Z</time></trkpt><trkpt lat="42.1471033" lon="14.58526"><ele>119.0</ele><time>2026-05-02T10:28:00.903Z</time></trkpt><trkpt lat="42.1470667" lon="14.5853917"><ele>120.80000000000001</ele><time>2026-05-02T10:28:02.903Z</time></trkpt><trkpt lat="42.1470317" lon="14.5855267"><ele>122.60000000000001</ele><time>2026-05-02T10:28:04.903Z</time></trkpt><trkpt lat="42.14699" lon="14.5856633"><ele>124.4</ele><time>2026-05-02T10:28:06.903Z</time></trkpt><trkpt lat="42.146925" lon="14.5857817"><ele>126.2</ele><time>2026-05-02T10:28:08.903Z</time></trkpt><trkpt lat="42.1468817" lon="14.585845"><ele>128.0</ele><time>2026-05-02T10:28:09.903Z</time></trkpt><trkpt lat="42.14679" lon="14.5859267"><ele>128.0</ele><time>2026-05-02T10:28:11.903Z</time></trkpt><trkpt lat="42.1466917" lon="14.586"><ele>128.0</ele><time>2026-05-02T10:28:13.903Z</time></trkpt><trkpt lat="42.1465967" lon="14.5860833"><ele>128.0</ele><time>2026-05-02T10:28:15.903Z</time></trkpt><trkpt lat="42.14651" lon="14.5861867"><ele>128.0</ele><time>2026-05-02T10:28:17.903Z</time></trkpt><trkpt lat="42.1464333" lon="14.5863083"><ele>124.2</ele><time>2026-05-02T10:28:19.902Z</time></trkpt><trkpt lat="42.1463883" lon="14.5863717"><ele>120.4</ele><time>2026-05-02T10:28:20.903Z</time></trkpt><trkpt lat="42.146355" lon="14.5864467"><ele>116.60000000000001</ele><time>2026-05-02T10:28:21.902Z</time></trkpt><trkpt lat="42.1463" lon="14.5865817"><ele>112.80000000000001</ele><time>2026-05-02T10:28:23.902Z</time></trkpt><trkpt lat="42.1462533" lon="14.586695"><ele>109.0</ele><time>2026-05-02T10:28:25.903Z</time></trkpt><trkpt lat="42.1461867" lon="14.5868133"><ele>109.0</ele><time>2026-05-02T10:28:27.903Z</time></trkpt><trkpt lat="42.1461117" lon="14.586935"><ele>109.0</ele><time>2026-05-02T10:28:29.902Z</time></trkpt><trkpt lat="42.14603" lon="14.5870433"><ele>109.0</ele><time>2026-05-02T10:28:31.903Z</time></trkpt><trkpt lat="42.1459883" lon="14.5871083"><ele>109.0</ele><time>2026-05-02T10:28:32.902Z</time></trkpt><trkpt lat="42.14591" lon="14.5872383"><ele>109.0</ele><time>2026-05-02T10:28:34.903Z</time></trkpt><trkpt lat="42.1458433" lon="14.58736"><ele>110.6</ele><time>2026-05-02T10:28:36.903Z</time></trkpt><trkpt lat="42.1457617" lon="14.587475"><ele>112.2</ele><time>2026-05-02T10:28:38.903Z</time></trkpt><trkpt lat="42.1456767" lon="14.58757"><ele>113.79999999999998</ele><time>2026-05-02T10:28:40.902Z</time></trkpt><trkpt lat="42.1456" lon="14.587645"><ele>115.39999999999999</ele><time>2026-05-02T10:28:42.903Z</time></trkpt><trkpt lat="42.1455367" lon="14.5877233"><ele>117.0</ele><time>2026-05-02T10:28:44.902Z</time></trkpt><trkpt lat="42.1454467" lon="14.587805"><ele>113.83333333333333</ele><time>2026-05-02T10:28:46.902Z</time></trkpt><trkpt lat="42.14537" lon="14.5879233"><ele>110.66666666666666</ele><time>2026-05-02T10:28:48.903Z</time></trkpt><trkpt lat="42.1453217" lon="14.5880433"><ele>107.5</ele><time>2026-05-02T10:28:50.903Z</time></trkpt><trkpt lat="42.145295" lon="14.5881233"><ele>104.33333333333333</ele><time>2026-05-02T10:28:52.903Z</time></trkpt><trkpt lat="42.1452817" lon="14.58821"><ele>101.16666666666666</ele><time>2026-05-02T10:28:54.903Z</time></trkpt><trkpt lat="42.1452567" lon="14.588295"><ele>98.0</ele><time>2026-05-02T10:28:56.903Z</time></trkpt><trkpt lat="42.1452283" lon="14.5883867"><ele>97.99999999999999</ele><time>2026-05-02T10:28:59.903Z</time></trkpt><trkpt lat="42.1452083" lon="14.5884933"><ele>98.0</ele><time>2026-05-02T10:29:02.903Z</time></trkpt><trkpt lat="42.1452133" lon="14.5886117"><ele>98.0</ele><time>2026-05-02T10:29:05.903Z</time></trkpt><trkpt lat="42.14523" lon="14.5886967"><ele>98.0</ele><time>2026-05-02T10:29:07.903Z</time></trkpt><trkpt lat="42.14525" lon="14.5887867"><ele>97.99999999999999</ele><time>2026-05-02T10:29:09.903Z</time></trkpt><trkpt lat="42.1452567" lon="14.5888767"><ele>98.0</ele><time>2026-05-02T10:29:11.903Z</time></trkpt><trkpt lat="42.1452517" lon="14.588985"><ele>98.16666666666666</ele><time>2026-05-02T10:29:14.902Z</time></trkpt><trkpt lat="42.1452633" lon="14.5891"><ele>98.33333333333333</ele><time>2026-05-02T10:29:17.903Z</time></trkpt><trkpt lat="42.1452667" lon="14.5892167"><ele>98.5</ele><time>2026-05-02T10:29:20.903Z</time></trkpt><trkpt lat="42.1452733" lon="14.58913"><ele>98.66666666666666</ele><time>2026-05-02T10:30:12.903Z</time></trkpt><trkpt lat="42.1452667" lon="14.58904"><ele>98.83333333333333</ele><time>2026-05-02T10:30:15.903Z</time></trkpt><trkpt lat="42.1452633" lon="14.5889267"><ele>99.0</ele><time>2026-05-02T10:30:19.902Z</time></trkpt><trkpt lat="42.1452583" lon="14.5888383"><ele>99.0</ele><time>2026-05-02T10:30:22.902Z</time></trkpt><trkpt lat="42.14525" lon="14.5887517"><ele>99.0</ele><time>2026-05-02T10:30:25.902Z</time></trkpt><trkpt lat="42.145235" lon="14.5886567"><ele>99.0</ele><time>2026-05-02T10:30:29.903Z</time></trkpt><trkpt lat="42.1452417" lon="14.588565"><ele>99.0</ele><time>2026-05-02T10:30:33.903Z</time></trkpt><trkpt lat="42.145245" lon="14.5884667"><ele>99.0</ele><time>2026-05-02T10:30:37.902Z</time></trkpt><trkpt lat="42.1452583" lon="14.58838"><ele>99.0</ele><time>2026-05-02T10:30:40.903Z</time></trkpt><trkpt lat="42.1452817" lon="14.588265"><ele>99.0</ele><time>2026-05-02T10:30:43.903Z</time></trkpt><trkpt lat="42.1453033" lon="14.5881617"><ele>98.85714285714286</ele><time>2026-05-02T10:30:46.903Z</time></trkpt><trkpt lat="42.145325" lon="14.5880667"><ele>98.71428571428571</ele><time>2026-05-02T10:30:49.903Z</time></trkpt><trkpt lat="42.1453517" lon="14.5879717"><ele>98.57142857142857</ele><time>2026-05-02T10:30:52.902Z</time></trkpt><trkpt lat="42.145395" lon="14.58789"><ele>98.42857142857143</ele><time>2026-05-02T10:30:55.902Z</time></trkpt><trkpt lat="42.1454433" lon="14.58782"><ele>98.28571428571428</ele><time>2026-05-02T10:30:58.902Z</time></trkpt><trkpt lat="42.145505" lon="14.5877517"><ele>98.14285714285714</ele><time>2026-05-02T10:31:01.903Z</time></trkpt><trkpt lat="42.14556" lon="14.5877017"><ele>98.0</ele><time>2026-05-02T10:31:04.903Z</time></trkpt><trkpt lat="42.1456117" lon="14.5876517"><ele>97.71428571428571</ele><time>2026-05-02T10:31:07.903Z</time></trkpt><trkpt lat="42.1456667" lon="14.5876"><ele>97.42857142857143</ele><time>2026-05-02T10:31:10.902Z</time></trkpt><trkpt lat="42.1457217" lon="14.5875433"><ele>97.14285714285714</ele><time>2026-05-02T10:31:13.903Z</time></trkpt><trkpt lat="42.1457717" lon="14.5874717"><ele>96.85714285714286</ele><time>2026-05-02T10:31:16.903Z</time></trkpt><trkpt lat="42.145825" lon="14.58739"><ele>96.57142857142857</ele><time>2026-05-02T10:31:19.903Z</time></trkpt><trkpt lat="42.145875" lon="14.5873167"><ele>96.28571428571428</ele><time>2026-05-02T10:31:22.902Z</time></trkpt><trkpt lat="42.1459217" lon="14.5872533"><ele>96.0</ele><time>2026-05-02T10:31:25.902Z</time></trkpt><trkpt lat="42.145965" lon="14.5871717"><ele>97.85714285714285</ele><time>2026-05-02T10:31:28.903Z</time></trkpt><trkpt lat="42.1460183" lon="14.5870883"><ele>99.71428571428571</ele><time>2026-05-02T10:31:31.902Z</time></trkpt><trkpt lat="42.1460717" lon="14.5870117"><ele>101.57142857142857</ele><time>2026-05-02T10:31:34.903Z</time></trkpt><trkpt lat="42.1461183" lon="14.586945"><ele>103.42857142857142</ele><time>2026-05-02T10:31:37.903Z</time></trkpt><trkpt lat="42.1461583" lon="14.5868667"><ele>105.28571428571429</ele><time>2026-05-02T10:31:40.903Z</time></trkpt><trkpt lat="42.1462017" lon="14.5867967"><ele>107.14285714285714</ele><time>2026-05-02T10:31:43.903Z</time></trkpt><trkpt lat="42.14624" lon="14.5867267"><ele>109.0</ele><time>2026-05-02T10:31:46.902Z</time></trkpt><trkpt lat="42.14628" lon="14.5866417"><ele>109.0</ele><time>2026-05-02T10:31:49.903Z</time></trkpt><trkpt lat="42.1463117" lon="14.586555"><ele>109.0</ele><time>2026-05-02T10:31:52.903Z</time></trkpt><trkpt lat="42.14635" lon="14.5864783"><ele>109.0</ele><time>2026-05-02T10:31:55.903Z</time></trkpt><trkpt lat="42.14639" lon="14.5863933"><ele>109.0</ele><time>2026-05-02T10:31:58.903Z</time></trkpt><trkpt lat="42.14643" lon="14.5863067"><ele>109.0</ele><time>2026-05-02T10:32:01.903Z</time></trkpt><trkpt lat="42.14649" lon="14.5862233"><ele>109.0</ele><time>2026-05-02T10:32:05.903Z</time></trkpt><trkpt lat="42.1465383" lon="14.5861617"><ele>109.0</ele><time>2026-05-02T10:32:08.903Z</time></trkpt><trkpt lat="42.1466083" lon="14.5861217"><ele>112.16666666666667</ele><time>2026-05-02T10:32:11.903Z</time></trkpt><trkpt lat="42.1466817" lon="14.5860633"><ele>115.33333333333334</ele><time>2026-05-02T10:32:14.903Z</time></trkpt><trkpt lat="42.14674" lon="14.5860067"><ele>118.5</ele><time>2026-05-02T10:32:17.902Z</time></trkpt><trkpt lat="42.1468067" lon="14.58595"><ele>121.66666666666666</ele><time>2026-05-02T10:32:20.903Z</time></trkpt><trkpt lat="42.14686" lon="14.58589"><ele>124.83333333333333</ele><time>2026-05-02T10:32:23.903Z</time></trkpt><trkpt lat="42.1469183" lon="14.5858133"><ele>128.0</ele><time>2026-05-02T10:32:27.902Z</time></trkpt><trkpt lat="42.1469683" lon="14.5857267"><ele>127.99999999999999</ele><time>2026-05-02T10:32:30.902Z</time></trkpt><trkpt lat="42.147" lon="14.5856133"><ele>128.0</ele><time>2026-05-02T10:32:33.903Z</time></trkpt><trkpt lat="42.1470333" lon="14.5855017"><ele>128.0</ele><time>2026-05-02T10:32:36.902Z</time></trkpt><trkpt lat="42.147065" lon="14.5853933"><ele>128.0</ele><time>2026-05-02T10:32:39.903Z</time></trkpt><trkpt lat="42.1471" lon="14.5853117"><ele>127.99999999999999</ele><time>2026-05-02T10:32:41.902Z</time></trkpt><trkpt lat="42.1471467" lon="14.5852283"><ele>128.0</ele><time>2026-05-02T10:32:44.903Z</time></trkpt><trkpt lat="42.1472167" lon="14.585275"><ele>127.99999999999999</ele><time>2026-05-02T10:32:49.902Z</time></trkpt><trkpt lat="42.1472367" lon="14.585365"><ele>128.0</ele><time>2026-05-02T10:32:52.903Z</time></trkpt><trkpt lat="42.1472233" lon="14.5854533"><ele>128.0</ele><time>2026-05-02T10:32:55.902Z</time></trkpt><trkpt lat="42.147195" lon="14.58555"><ele>128.0</ele><time>2026-05-02T10:32:58.903Z</time></trkpt><trkpt lat="42.147155" lon="14.5856183"><ele>127.99999999999999</ele><time>2026-05-02T10:33:01.903Z</time></trkpt><trkpt lat="42.1471383" lon="14.5857383"><ele>128.0</ele><time>2026-05-02T10:33:04.903Z</time></trkpt><trkpt lat="42.1471583" lon="14.585845"><ele>127.99999999999999</ele><time>2026-05-02T10:33:07.902Z</time></trkpt><trkpt lat="42.1472017" lon="14.5859117"><ele>128.0</ele><time>2026-05-02T10:33:10.903Z</time></trkpt><trkpt lat="42.1472833" lon="14.58592"><ele>128.0</ele><time>2026-05-02T10:33:14.902Z</time></trkpt><trkpt lat="42.1473433" lon="14.5858783"><ele>128.0</ele><time>2026-05-02T10:33:17.902Z</time></trkpt><trkpt lat="42.14741" lon="14.5858233"><ele>127.99999999999999</ele><time>2026-05-02T10:33:21.903Z</time></trkpt><trkpt lat="42.1474767" lon="14.585765"><ele>128.0</ele><time>2026-05-02T10:33:25.903Z</time></trkpt><trkpt lat="42.14754" lon="14.5856983"><ele>130.85714285714286</ele><time>2026-05-02T10:33:28.903Z</time></trkpt><trkpt lat="42.147595" lon="14.5856217"><ele>133.7142857142857</ele><time>2026-05-02T10:33:31.903Z</time></trkpt><trkpt lat="42.14764" lon="14.5855333"><ele>136.57142857142856</ele><time>2026-05-02T10:33:34.903Z</time></trkpt><trkpt lat="42.1476783" lon="14.5854483"><ele>139.42857142857142</ele><time>2026-05-02T10:33:37.902Z</time></trkpt><trkpt lat="42.1477117" lon="14.585365"><ele>142.28571428571428</ele><time>2026-05-02T10:33:40.903Z</time></trkpt><trkpt lat="42.14777" lon="14.5853267"><ele>145.14285714285714</ele><time>2026-05-02T10:33:43.902Z</time></trkpt><trkpt lat="42.1478433" lon="14.58534"><ele>148.0</ele><time>2026-05-02T10:33:46.903Z</time></trkpt><trkpt lat="42.1478917" lon="14.58543"><ele>148.66666666666669</ele><time>2026-05-02T10:33:50.903Z</time></trkpt><trkpt lat="42.14788" lon="14.585545"><ele>149.33333333333334</ele><time>2026-05-02T10:33:54.902Z</time></trkpt><trkpt lat="42.1478767" lon="14.5856417"><ele>150.0</ele><time>2026-05-02T10:33:57.903Z</time></trkpt><trkpt lat="42.1478583" lon="14.585745"><ele>150.66666666666666</ele><time>2026-05-02T10:34:00.903Z</time></trkpt><trkpt lat="42.1478233" lon="14.5858517"><ele>151.33333333333331</ele><time>2026-05-02T10:34:03.903Z</time></trkpt><trkpt lat="42.14779" lon="14.58597"><ele>152.0</ele><time>2026-05-02T10:34:06.902Z</time></trkpt><trkpt lat="42.1477583" lon="14.5860917"><ele>154.33333333333331</ele><time>2026-05-02T10:34:09.902Z</time></trkpt><trkpt lat="42.1477417" lon="14.5861983"><ele>156.66666666666666</ele><time>2026-05-02T10:34:11.902Z</time></trkpt><trkpt lat="42.1477267" lon="14.5863"><ele>159.0</ele><time>2026-05-02T10:34:13.903Z</time></trkpt><trkpt lat="42.1477117" lon="14.5863967"><ele>161.33333333333334</ele><time>2026-05-02T10:34:15.903Z</time></trkpt><trkpt lat="42.1476817" lon="14.58649"><ele>163.66666666666669</ele><time>2026-05-02T10:34:17.902Z</time></trkpt><trkpt lat="42.1476167" lon="14.5865417"><ele>166.0</ele><time>2026-05-02T10:34:19.903Z</time></trkpt><trkpt lat="42.1475517" lon="14.5865783"><ele>166.0</ele><time>2026-05-02T10:34:21.903Z</time></trkpt><trkpt lat="42.1474783" lon="14.58661"><ele>166.0</ele><time>2026-05-02T10:34:23.902Z</time></trkpt><trkpt lat="42.1474283" lon="14.5866933"><ele>166.0</ele><time>2026-05-02T10:34:25.903Z</time></trkpt><trkpt lat="42.147375" lon="14.5867883"><ele>166.0</ele><time>2026-05-02T10:34:27.903Z</time></trkpt><trkpt lat="42.1473283" lon="14.5868817"><ele>166.0</ele><time>2026-05-02T10:34:29.903Z</time></trkpt><trkpt lat="42.1472833" lon="14.5869917"><ele>166.0</ele><time>2026-05-02T10:34:31.903Z</time></trkpt><trkpt lat="42.1472517" lon="14.58711"><ele>163.5</ele><time>2026-05-02T10:34:33.903Z</time></trkpt><trkpt lat="42.1472317" lon="14.5872283"><ele>161.0</ele><time>2026-05-02T10:34:35.903Z</time></trkpt><trkpt lat="42.1472083" lon="14.5873517"><ele>158.5</ele><time>2026-05-02T10:34:37.902Z</time></trkpt><trkpt lat="42.1471933" lon="14.5874733"><ele>156.0</ele><time>2026-05-02T10:34:39.903Z</time></trkpt><trkpt lat="42.14717" lon="14.5875883"><ele>153.5</ele><time>2026-05-02T10:34:41.903Z</time></trkpt><trkpt lat="42.1471433" lon="14.5876967"><ele>151.0</ele><time>2026-05-02T10:34:43.903Z</time></trkpt><trkpt lat="42.147125" lon="14.587795"><ele>152.16666666666669</ele><time>2026-05-02T10:34:45.903Z</time></trkpt><trkpt lat="42.147125" lon="14.5878867"><ele>153.33333333333334</ele><time>2026-05-02T10:34:47.902Z</time></trkpt><trkpt lat="42.14717" lon="14.587955"><ele>154.5</ele><time>2026-05-02T10:34:49.903Z</time></trkpt><trkpt lat="42.1472483" lon="14.5879867"><ele>155.66666666666666</ele><time>2026-05-02T10:34:51.903Z</time></trkpt><trkpt lat="42.147335" lon="14.5880233"><ele>156.83333333333331</ele><time>2026-05-02T10:34:53.903Z</time></trkpt><trkpt lat="42.14742" lon="14.5880567"><ele>158.0</ele><time>2026-05-02T10:34:55.902Z</time></trkpt><trkpt lat="42.1475083" lon="14.588095"><ele>161.5</ele><time>2026-05-02T10:34:57.902Z</time></trkpt><trkpt lat="42.147595" lon="14.58812"><ele>165.0</ele><time>2026-05-02T10:34:59.903Z</time></trkpt><trkpt lat="42.14767" lon="14.5881367"><ele>168.5</ele><time>2026-05-02T10:35:01.903Z</time></trkpt><trkpt lat="42.147745" lon="14.588155"><ele>172.0</ele><time>2026-05-02T10:35:03.903Z</time></trkpt><trkpt lat="42.14782" lon="14.5881717"><ele>175.5</ele><time>2026-05-02T10:35:05.902Z</time></trkpt><trkpt lat="42.1478917" lon="14.5881883"><ele>179.0</ele><time>2026-05-02T10:35:07.903Z</time></trkpt><trkpt lat="42.1479667" lon="14.5882"><ele>179.00000000000003</ele><time>2026-05-02T10:35:09.902Z</time></trkpt><trkpt lat="42.148045" lon="14.5881983"><ele>179.0</ele><time>2026-05-02T10:35:11.903Z</time></trkpt><trkpt lat="42.1481167" lon="14.5881883"><ele>179.0</ele><time>2026-05-02T10:35:13.903Z</time></trkpt><trkpt lat="42.14818" lon="14.588205"><ele>179.0</ele><time>2026-05-02T10:35:15.903Z</time></trkpt><trkpt lat="42.14826" lon="14.5881967"><ele>179.0</ele><time>2026-05-02T10:35:17.903Z</time></trkpt><trkpt lat="42.1483383" lon="14.5881717"><ele>179.00000000000003</ele><time>2026-05-02T10:35:19.903Z</time></trkpt><trkpt lat="42.148405" lon="14.58815"><ele>179.0</ele><time>2026-05-02T10:35:21.903Z</time></trkpt><trkpt lat="42.148485" lon="14.5880933"><ele>179.0</ele><time>2026-05-02T10:35:24.903Z</time></trkpt><trkpt lat="42.1485817" lon="14.5880783"><ele>179.0</ele><time>2026-05-02T10:35:26.903Z</time></trkpt><trkpt lat="42.1486433" lon="14.5879833"><ele>179.0</ele><time>2026-05-02T10:35:28.902Z</time></trkpt><trkpt lat="42.1486783" lon="14.5878617"><ele>179.0</ele><time>2026-05-02T10:35:30.902Z</time></trkpt><trkpt lat="42.1487133" lon="14.587745"><ele>179.0</ele><time>2026-05-02T10:35:32.903Z</time></trkpt><trkpt lat="42.14873" lon="14.5876317"><ele>179.66666666666666</ele><time>2026-05-02T10:35:34.902Z</time></trkpt><trkpt lat="42.1487133" lon="14.58753"><ele>180.33333333333331</ele><time>2026-05-02T10:35:36.903Z</time></trkpt><trkpt lat="42.1486317" lon="14.5874817"><ele>181.0</ele><time>2026-05-02T10:35:39.902Z</time></trkpt><trkpt lat="42.1485367" lon="14.587445"><ele>181.66666666666666</ele><time>2026-05-02T10:35:42.903Z</time></trkpt><trkpt lat="42.1484783" lon="14.5873467"><ele>182.33333333333334</ele><time>2026-05-02T10:35:45.902Z</time></trkpt><trkpt lat="42.1484833" lon="14.5872533"><ele>183.0</ele><time>2026-05-02T10:35:47.903Z</time></trkpt><trkpt lat="42.14851" lon="14.5871667"><ele>183.0</ele><time>2026-05-02T10:35:49.903Z</time></trkpt><trkpt lat="42.14853" lon="14.5870617"><ele>183.0</ele><time>2026-05-02T10:35:51.903Z</time></trkpt><trkpt lat="42.1485517" lon="14.5869517"><ele>183.0</ele><time>2026-05-02T10:35:53.902Z</time></trkpt><trkpt lat="42.148545" lon="14.5868483"><ele>183.0</ele><time>2026-05-02T10:35:55.903Z</time></trkpt><trkpt lat="42.14857" lon="14.5867483"><ele>183.0</ele><time>2026-05-02T10:35:57.903Z</time></trkpt><trkpt lat="42.1485883" lon="14.58663"><ele>183.0</ele><time>2026-05-02T10:35:59.902Z</time></trkpt><trkpt lat="42.1486217" lon="14.58653"><ele>182.83333333333334</ele><time>2026-05-02T10:36:01.903Z</time></trkpt><trkpt lat="42.148645" lon="14.58642"><ele>182.66666666666666</ele><time>2026-05-02T10:36:03.903Z</time></trkpt><trkpt lat="42.1486633" lon="14.5863083"><ele>182.5</ele><time>2026-05-02T10:36:05.903Z</time></trkpt><trkpt lat="42.1486867" lon="14.5862033"><ele>182.33333333333331</ele><time>2026-05-02T10:36:07.903Z</time></trkpt><trkpt lat="42.1487083" lon="14.586115"><ele>182.16666666666666</ele><time>2026-05-02T10:36:09.903Z</time></trkpt><trkpt lat="42.1487267" lon="14.5860233"><ele>182.0</ele><time>2026-05-02T10:36:11.903Z</time></trkpt><trkpt lat="42.14878" lon="14.5859517"><ele>181.57142857142858</ele><time>2026-05-02T10:36:15.903Z</time></trkpt><trkpt lat="42.148845" lon="14.5859033"><ele>181.14285714285714</ele><time>2026-05-02T10:36:18.903Z</time></trkpt><trkpt lat="42.14887" lon="14.5858117"><ele>180.71428571428572</ele><time>2026-05-02T10:36:20.903Z</time></trkpt><trkpt lat="42.1488983" lon="14.5857233"><ele>180.28571428571428</ele><time>2026-05-02T10:36:22.903Z</time></trkpt><trkpt lat="42.1489217" lon="14.5856383"><ele>179.85714285714286</ele><time>2026-05-02T10:36:24.903Z</time></trkpt><trkpt lat="42.1489683" lon="14.58554"><ele>179.42857142857144</ele><time>2026-05-02T10:36:27.903Z</time></trkpt><trkpt lat="42.14899" lon="14.5854467"><ele>179.0</ele><time>2026-05-02T10:36:30.902Z</time></trkpt><trkpt lat="42.1490183" lon="14.585345"><ele>182.0</ele><time>2026-05-02T10:36:33.903Z</time></trkpt><trkpt lat="42.14905" lon="14.5852333"><ele>185.0</ele><time>2026-05-02T10:36:36.903Z</time></trkpt><trkpt lat="42.1490633" lon="14.5851317"><ele>188.0</ele><time>2026-05-02T10:36:38.902Z</time></trkpt><trkpt lat="42.1490783" lon="14.58503"><ele>191.0</ele><time>2026-05-02T10:36:40.903Z</time></trkpt><trkpt lat="42.149095" lon="14.5849467"><ele>194.00000000000003</ele><time>2026-05-02T10:36:41.903Z</time></trkpt><trkpt lat="42.1491867" lon="14.5849767"><ele>197.0</ele><time>2026-05-02T10:36:44.902Z</time></trkpt><trkpt lat="42.149255" lon="14.5850383"><ele>197.00000000000003</ele><time>2026-05-02T10:36:46.903Z</time></trkpt><trkpt lat="42.1493167" lon="14.585095"><ele>197.0</ele><time>2026-05-02T10:36:48.902Z</time></trkpt><trkpt lat="42.149385" lon="14.5851333"><ele>197.0</ele><time>2026-05-02T10:36:50.902Z</time></trkpt><trkpt lat="42.1494467" lon="14.58517"><ele>197.0</ele><time>2026-05-02T10:36:52.903Z</time></trkpt><trkpt lat="42.1495267" lon="14.5852183"><ele>197.00000000000003</ele><time>2026-05-02T10:36:55.902Z</time></trkpt><trkpt lat="42.149605" lon="14.5852567"><ele>197.0</ele><time>2026-05-02T10:36:58.903Z</time></trkpt><trkpt lat="42.1496683" lon="14.585265"><ele>197.0</ele><time>2026-05-02T10:37:00.903Z</time></trkpt><trkpt lat="42.1497483" lon="14.58527"><ele>197.0</ele><time>2026-05-02T10:37:03.902Z</time></trkpt><trkpt lat="42.1498117" lon="14.5852667"><ele>197.0</ele><time>2026-05-02T10:37:06.903Z</time></trkpt><trkpt lat="42.149885" lon="14.5852733"><ele>205.0</ele><time>2026-05-02T10:37:10.903Z</time></trkpt><trkpt lat="42.1499883" lon="14.5852233"><ele>205.0</ele><time>2026-05-02T10:37:40.902Z</time></trkpt><trkpt lat="42.1499417" lon="14.5851483"><ele>205.0</ele><time>2026-05-02T10:38:45.106Z</time></trkpt></trkseg></trk></gpx>